<?xml version="1.0" encoding="UTF-8" standalone="no" ?>
<gpx xmlns="http://www.topografix.com/GPX/1/1" xmlns:xsi="http://www.w3.org/2001/XMLSchema-instance" xsi:schemaLocation="http://www.topografix.com/GPX/1/1 http://www.topografix.com/GPX/1/1/gpx.xsd" version="1.1" creator="VisuGPX - https://www.visugpx.com">
  <metadata>
    <name>civrieux/alix anse</name>
    <desc><![CDATA[roulant, peu cassant, un peu d\'enrobé]]></desc>
  </metadata>
  <trk>
    <name><![CDATA[11-NOV-13 13:21:32]]></name>
    <trkseg>
      <trkpt lat="45.85683" lon="4.70381">
        <ele>85.21</ele>
        <time>2013-11-11T08:04:04Z</time>
      </trkpt>
      <trkpt lat="45.85685" lon="4.70382">
        <ele>85.21</ele>
        <time>2013-11-11T08:04:05Z</time>
      </trkpt>
      <trkpt lat="45.85688" lon="4.70384">
        <ele>88.58</ele>
        <time>2013-11-11T08:04:10Z</time>
      </trkpt>
      <trkpt lat="45.85689" lon="4.70385">
        <ele>92.42</ele>
        <time>2013-11-11T08:04:11Z</time>
      </trkpt>
      <trkpt lat="45.85689" lon="4.70387">
        <ele>95.79</ele>
        <time>2013-11-11T08:04:12Z</time>
      </trkpt>
      <trkpt lat="45.85689" lon="4.70389">
        <ele>99.15</ele>
        <time>2013-11-11T08:04:13Z</time>
      </trkpt>
      <trkpt lat="45.8569" lon="4.7039">
        <ele>104.44</ele>
        <time>2013-11-11T08:04:15Z</time>
      </trkpt>
      <trkpt lat="45.85691" lon="4.70391">
        <ele>109.73</ele>
        <time>2013-11-11T08:04:17Z</time>
      </trkpt>
      <trkpt lat="45.85692" lon="4.70393">
        <ele>115.01</ele>
        <time>2013-11-11T08:04:19Z</time>
      </trkpt>
      <trkpt lat="45.85693" lon="4.70387">
        <ele>119.34</ele>
        <time>2013-11-11T08:04:21Z</time>
      </trkpt>
      <trkpt lat="45.85695" lon="4.70382">
        <ele>123.67</ele>
        <time>2013-11-11T08:04:23Z</time>
      </trkpt>
      <trkpt lat="45.85696" lon="4.7038">
        <ele>127.51</ele>
        <time>2013-11-11T08:04:25Z</time>
      </trkpt>
      <trkpt lat="45.85698" lon="4.70378">
        <ele>132.32</ele>
        <time>2013-11-11T08:04:27Z</time>
      </trkpt>
      <trkpt lat="45.85699" lon="4.70378">
        <ele>136.16</ele>
        <time>2013-11-11T08:04:29Z</time>
      </trkpt>
      <trkpt lat="45.85699" lon="4.70377">
        <ele>140.49</ele>
        <time>2013-11-11T08:04:31Z</time>
      </trkpt>
      <trkpt lat="45.85699" lon="4.70376">
        <ele>144.34</ele>
        <time>2013-11-11T08:04:33Z</time>
      </trkpt>
      <trkpt lat="45.85699" lon="4.70376">
        <ele>147.7</ele>
        <time>2013-11-11T08:04:35Z</time>
      </trkpt>
      <trkpt lat="45.857" lon="4.70376">
        <ele>152.03</ele>
        <time>2013-11-11T08:04:37Z</time>
      </trkpt>
      <trkpt lat="45.857" lon="4.70375">
        <ele>155.87</ele>
        <time>2013-11-11T08:04:40Z</time>
      </trkpt>
      <trkpt lat="45.857" lon="4.70374">
        <ele>159.24</ele>
        <time>2013-11-11T08:04:42Z</time>
      </trkpt>
      <trkpt lat="45.857" lon="4.70374">
        <ele>162.6</ele>
        <time>2013-11-11T08:04:44Z</time>
      </trkpt>
      <trkpt lat="45.857" lon="4.70374">
        <ele>165.96</ele>
        <time>2013-11-11T08:04:47Z</time>
      </trkpt>
      <trkpt lat="45.85699" lon="4.70374">
        <ele>169.33</ele>
        <time>2013-11-11T08:04:50Z</time>
      </trkpt>
      <trkpt lat="45.85698" lon="4.70374">
        <ele>172.69</ele>
        <time>2013-11-11T08:04:53Z</time>
      </trkpt>
      <trkpt lat="45.85697" lon="4.70375">
        <ele>175.58</ele>
        <time>2013-11-11T08:04:56Z</time>
      </trkpt>
      <trkpt lat="45.85696" lon="4.70375">
        <ele>179.42</ele>
        <time>2013-11-11T08:05:00Z</time>
      </trkpt>
      <trkpt lat="45.85695" lon="4.70375">
        <ele>183.27</ele>
        <time>2013-11-11T08:05:05Z</time>
      </trkpt>
      <trkpt lat="45.85695" lon="4.70376">
        <ele>186.15</ele>
        <time>2013-11-11T08:05:10Z</time>
      </trkpt>
      <trkpt lat="45.85695" lon="4.70376">
        <ele>187.59</ele>
        <time>2013-11-11T08:05:12Z</time>
      </trkpt>
      <trkpt lat="45.85695" lon="4.70376">
        <ele>189.52</ele>
        <time>2013-11-11T08:05:15Z</time>
      </trkpt>
      <trkpt lat="45.85695" lon="4.70375">
        <ele>192.88</ele>
        <time>2013-11-11T08:05:22Z</time>
      </trkpt>
      <trkpt lat="45.85695" lon="4.70374">
        <ele>194.32</ele>
        <time>2013-11-11T08:05:27Z</time>
      </trkpt>
      <trkpt lat="45.85697" lon="4.70374">
        <ele>197.21</ele>
        <time>2013-11-11T08:05:38Z</time>
      </trkpt>
      <trkpt lat="45.85698" lon="4.70374">
        <ele>199.13</ele>
        <time>2013-11-11T08:05:42Z</time>
      </trkpt>
      <trkpt lat="45.85698" lon="4.70374">
        <ele>202.49</ele>
        <time>2013-11-11T08:06:00Z</time>
      </trkpt>
      <trkpt lat="45.85698" lon="4.70374">
        <ele>203.46</ele>
        <time>2013-11-11T08:06:18Z</time>
      </trkpt>
      <trkpt lat="45.85698" lon="4.70374">
        <ele>202.98</ele>
        <time>2013-11-11T08:06:40Z</time>
      </trkpt>
      <trkpt lat="45.85698" lon="4.70374">
        <ele>203.46</ele>
        <time>2013-11-11T08:06:54Z</time>
      </trkpt>
      <trkpt lat="45.85698" lon="4.70374">
        <ele>202.49</ele>
        <time>2013-11-11T08:07:07Z</time>
      </trkpt>
      <trkpt lat="45.85698" lon="4.70374">
        <ele>202.98</ele>
        <time>2013-11-11T08:07:24Z</time>
      </trkpt>
      <trkpt lat="45.85697" lon="4.70375">
        <ele>202.98</ele>
        <time>2013-11-11T08:07:49Z</time>
      </trkpt>
      <trkpt lat="45.85697" lon="4.70375">
        <ele>202.01</ele>
        <time>2013-11-11T08:08:05Z</time>
      </trkpt>
      <trkpt lat="45.85697" lon="4.70375">
        <ele>202.49</ele>
        <time>2013-11-11T08:08:33Z</time>
      </trkpt>
      <trkpt lat="45.85697" lon="4.70375">
        <ele>202.98</ele>
        <time>2013-11-11T08:09:04Z</time>
      </trkpt>
      <trkpt lat="45.85697" lon="4.70375">
        <ele>202.49</ele>
        <time>2013-11-11T08:09:27Z</time>
      </trkpt>
      <trkpt lat="45.85697" lon="4.70376">
        <ele>202.49</ele>
        <time>2013-11-11T08:09:51Z</time>
      </trkpt>
      <trkpt lat="45.85697" lon="4.70376">
        <ele>202.98</ele>
        <time>2013-11-11T08:10:20Z</time>
      </trkpt>
      <trkpt lat="45.85697" lon="4.70376">
        <ele>202.01</ele>
        <time>2013-11-11T08:10:44Z</time>
      </trkpt>
      <trkpt lat="45.85696" lon="4.70376">
        <ele>202.49</ele>
        <time>2013-11-11T08:11:14Z</time>
      </trkpt>
      <trkpt lat="45.85697" lon="4.70377">
        <ele>202.98</ele>
        <time>2013-11-11T08:11:43Z</time>
      </trkpt>
      <trkpt lat="45.85697" lon="4.70377">
        <ele>209.22</ele>
        <time>2013-11-11T08:12:04Z</time>
      </trkpt>
      <trkpt lat="45.85697" lon="4.70377">
        <ele>203.94</ele>
        <time>2013-11-11T08:12:05Z</time>
      </trkpt>
      <trkpt lat="45.85697" lon="4.70377">
        <ele>198.65</ele>
        <time>2013-11-11T08:12:08Z</time>
      </trkpt>
      <trkpt lat="45.85697" lon="4.70377">
        <ele>203.46</ele>
        <time>2013-11-11T08:12:09Z</time>
      </trkpt>
      <trkpt lat="45.85697" lon="4.70377">
        <ele>200.57</ele>
        <time>2013-11-11T08:12:27Z</time>
      </trkpt>
      <trkpt lat="45.85697" lon="4.70377">
        <ele>204.9</ele>
        <time>2013-11-11T08:12:28Z</time>
      </trkpt>
      <trkpt lat="45.85697" lon="4.70377">
        <ele>199.61</ele>
        <time>2013-11-11T08:12:33Z</time>
      </trkpt>
      <trkpt lat="45.85697" lon="4.70377">
        <ele>202.98</ele>
        <time>2013-11-11T08:12:36Z</time>
      </trkpt>
      <trkpt lat="45.85697" lon="4.70377">
        <ele>205.86</ele>
        <time>2013-11-11T08:12:38Z</time>
      </trkpt>
      <trkpt lat="45.85697" lon="4.70377">
        <ele>199.61</ele>
        <time>2013-11-11T08:12:39Z</time>
      </trkpt>
      <trkpt lat="45.85697" lon="4.70377">
        <ele>202.49</ele>
        <time>2013-11-11T08:12:40Z</time>
      </trkpt>
      <trkpt lat="45.85697" lon="4.70377">
        <ele>199.61</ele>
        <time>2013-11-11T08:12:47Z</time>
      </trkpt>
      <trkpt lat="45.85697" lon="4.70377">
        <ele>202.98</ele>
        <time>2013-11-11T08:12:48Z</time>
      </trkpt>
      <trkpt lat="45.85697" lon="4.70377">
        <ele>208.74</ele>
        <time>2013-11-11T08:12:51Z</time>
      </trkpt>
      <trkpt lat="45.85697" lon="4.70377">
        <ele>202.98</ele>
        <time>2013-11-11T08:12:52Z</time>
      </trkpt>
      <trkpt lat="45.85697" lon="4.70377">
        <ele>206.82</ele>
        <time>2013-11-11T08:12:56Z</time>
      </trkpt>
      <trkpt lat="45.85697" lon="4.70377">
        <ele>192.88</ele>
        <time>2013-11-11T08:12:58Z</time>
      </trkpt>
      <trkpt lat="45.85697" lon="4.70377">
        <ele>203.46</ele>
        <time>2013-11-11T08:12:59Z</time>
      </trkpt>
      <trkpt lat="45.85696" lon="4.70377">
        <ele>205.86</ele>
        <time>2013-11-11T08:13:03Z</time>
      </trkpt>
      <trkpt lat="45.85696" lon="4.70377">
        <ele>201.53</ele>
        <time>2013-11-11T08:13:04Z</time>
      </trkpt>
      <trkpt lat="45.85696" lon="4.70377">
        <ele>204.9</ele>
        <time>2013-11-11T08:13:10Z</time>
      </trkpt>
      <trkpt lat="45.85696" lon="4.70377">
        <ele>201.05</ele>
        <time>2013-11-11T08:13:18Z</time>
      </trkpt>
      <trkpt lat="45.85696" lon="4.70377">
        <ele>204.9</ele>
        <time>2013-11-11T08:13:20Z</time>
      </trkpt>
      <trkpt lat="45.85696" lon="4.70377">
        <ele>200.57</ele>
        <time>2013-11-11T08:13:25Z</time>
      </trkpt>
      <trkpt lat="45.85696" lon="4.70377">
        <ele>205.38</ele>
        <time>2013-11-11T08:13:28Z</time>
      </trkpt>
      <trkpt lat="45.85696" lon="4.70377">
        <ele>202.49</ele>
        <time>2013-11-11T08:13:30Z</time>
      </trkpt>
      <trkpt lat="45.85696" lon="4.70377">
        <ele>202.98</ele>
        <time>2013-11-11T08:13:47Z</time>
      </trkpt>
      <trkpt lat="45.85696" lon="4.70377">
        <ele>202.98</ele>
        <time>2013-11-11T08:14:02Z</time>
      </trkpt>
      <trkpt lat="45.85696" lon="4.70377">
        <ele>201.53</ele>
        <time>2013-11-11T08:14:13Z</time>
      </trkpt>
      <trkpt lat="45.85696" lon="4.70377">
        <ele>202.98</ele>
        <time>2013-11-11T08:14:27Z</time>
      </trkpt>
      <trkpt lat="45.85696" lon="4.70377">
        <ele>202.98</ele>
        <time>2013-11-11T08:14:42Z</time>
      </trkpt>
      <trkpt lat="45.85696" lon="4.70377">
        <ele>202.98</ele>
        <time>2013-11-11T08:14:56Z</time>
      </trkpt>
      <trkpt lat="45.85696" lon="4.70377">
        <ele>202.98</ele>
        <time>2013-11-11T08:15:14Z</time>
      </trkpt>
      <trkpt lat="45.85696" lon="4.70377">
        <ele>203.46</ele>
        <time>2013-11-11T08:15:22Z</time>
      </trkpt>
      <trkpt lat="45.85696" lon="4.70377">
        <ele>203.46</ele>
        <time>2013-11-11T08:15:48Z</time>
      </trkpt>
      <trkpt lat="45.85697" lon="4.70377">
        <ele>202.98</ele>
        <time>2013-11-11T08:15:58Z</time>
      </trkpt>
      <trkpt lat="45.857" lon="4.70417">
        <ele>202.98</ele>
        <time>2013-11-11T08:16:09Z</time>
      </trkpt>
      <trkpt lat="45.857" lon="4.70424">
        <ele>202.98</ele>
        <time>2013-11-11T08:16:11Z</time>
      </trkpt>
      <trkpt lat="45.85686" lon="4.70442">
        <ele>202.98</ele>
        <time>2013-11-11T08:16:19Z</time>
      </trkpt>
      <trkpt lat="45.85691" lon="4.70474">
        <ele>202.98</ele>
        <time>2013-11-11T08:16:28Z</time>
      </trkpt>
      <trkpt lat="45.85699" lon="4.7048">
        <ele>202.98</ele>
        <time>2013-11-11T08:16:31Z</time>
      </trkpt>
      <trkpt lat="45.85716" lon="4.70471">
        <ele>203.46</ele>
        <time>2013-11-11T08:16:39Z</time>
      </trkpt>
      <trkpt lat="45.85718" lon="4.7047">
        <ele>203.94</ele>
        <time>2013-11-11T08:16:40Z</time>
      </trkpt>
      <trkpt lat="45.85725" lon="4.70469">
        <ele>203.46</ele>
        <time>2013-11-11T08:16:43Z</time>
      </trkpt>
      <trkpt lat="45.85743" lon="4.70499">
        <ele>203.46</ele>
        <time>2013-11-11T08:16:52Z</time>
      </trkpt>
      <trkpt lat="45.85763" lon="4.70521">
        <ele>202.49</ele>
        <time>2013-11-11T08:16:59Z</time>
      </trkpt>
      <trkpt lat="45.85793" lon="4.70545">
        <ele>202.49</ele>
        <time>2013-11-11T08:17:08Z</time>
      </trkpt>
      <trkpt lat="45.85831" lon="4.70562">
        <ele>202.49</ele>
        <time>2013-11-11T08:17:19Z</time>
      </trkpt>
      <trkpt lat="45.85877" lon="4.70579">
        <ele>202.49</ele>
        <time>2013-11-11T08:17:31Z</time>
      </trkpt>
      <trkpt lat="45.85907" lon="4.70593">
        <ele>202.01</ele>
        <time>2013-11-11T08:17:39Z</time>
      </trkpt>
      <trkpt lat="45.85944" lon="4.70652">
        <ele>202.49</ele>
        <time>2013-11-11T08:17:52Z</time>
      </trkpt>
      <trkpt lat="45.85957" lon="4.70676">
        <ele>202.49</ele>
        <time>2013-11-11T08:17:57Z</time>
      </trkpt>
      <trkpt lat="45.85959" lon="4.70681">
        <ele>202.49</ele>
        <time>2013-11-11T08:17:58Z</time>
      </trkpt>
      <trkpt lat="45.8596" lon="4.70687">
        <ele>202.98</ele>
        <time>2013-11-11T08:17:59Z</time>
      </trkpt>
      <trkpt lat="45.85961" lon="4.70692">
        <ele>202.49</ele>
        <time>2013-11-11T08:18:00Z</time>
      </trkpt>
      <trkpt lat="45.85961" lon="4.70698">
        <ele>202.49</ele>
        <time>2013-11-11T08:18:01Z</time>
      </trkpt>
      <trkpt lat="45.85957" lon="4.70763">
        <ele>202.98</ele>
        <time>2013-11-11T08:18:12Z</time>
      </trkpt>
      <trkpt lat="45.85955" lon="4.70798">
        <ele>202.49</ele>
        <time>2013-11-11T08:18:18Z</time>
      </trkpt>
      <trkpt lat="45.85955" lon="4.70804">
        <ele>202.49</ele>
        <time>2013-11-11T08:18:19Z</time>
      </trkpt>
      <trkpt lat="45.85957" lon="4.70815">
        <ele>202.98</ele>
        <time>2013-11-11T08:18:21Z</time>
      </trkpt>
      <trkpt lat="45.85958" lon="4.70876">
        <ele>202.98</ele>
        <time>2013-11-11T08:18:32Z</time>
      </trkpt>
      <trkpt lat="45.85952" lon="4.70904">
        <ele>202.98</ele>
        <time>2013-11-11T08:18:37Z</time>
      </trkpt>
      <trkpt lat="45.85951" lon="4.7091">
        <ele>203.46</ele>
        <time>2013-11-11T08:18:38Z</time>
      </trkpt>
      <trkpt lat="45.8595" lon="4.70915">
        <ele>203.46</ele>
        <time>2013-11-11T08:18:39Z</time>
      </trkpt>
      <trkpt lat="45.85939" lon="4.70957">
        <ele>203.46</ele>
        <time>2013-11-11T08:18:47Z</time>
      </trkpt>
      <trkpt lat="45.8594" lon="4.70963">
        <ele>203.46</ele>
        <time>2013-11-11T08:18:48Z</time>
      </trkpt>
      <trkpt lat="45.85942" lon="4.70967">
        <ele>203.46</ele>
        <time>2013-11-11T08:18:49Z</time>
      </trkpt>
      <trkpt lat="45.85945" lon="4.7097">
        <ele>203.46</ele>
        <time>2013-11-11T08:18:50Z</time>
      </trkpt>
      <trkpt lat="45.85949" lon="4.70972">
        <ele>203.46</ele>
        <time>2013-11-11T08:18:51Z</time>
      </trkpt>
      <trkpt lat="45.85954" lon="4.70973">
        <ele>203.46</ele>
        <time>2013-11-11T08:18:52Z</time>
      </trkpt>
      <trkpt lat="45.85958" lon="4.70973">
        <ele>203.46</ele>
        <time>2013-11-11T08:18:53Z</time>
      </trkpt>
      <trkpt lat="45.85983" lon="4.70979">
        <ele>203.46</ele>
        <time>2013-11-11T08:18:59Z</time>
      </trkpt>
      <trkpt lat="45.85995" lon="4.70986">
        <ele>203.46</ele>
        <time>2013-11-11T08:19:02Z</time>
      </trkpt>
      <trkpt lat="45.86016" lon="4.71008">
        <ele>202.98</ele>
        <time>2013-11-11T08:19:08Z</time>
      </trkpt>
      <trkpt lat="45.86022" lon="4.71016">
        <ele>203.46</ele>
        <time>2013-11-11T08:19:10Z</time>
      </trkpt>
      <trkpt lat="45.86025" lon="4.7102">
        <ele>203.94</ele>
        <time>2013-11-11T08:19:11Z</time>
      </trkpt>
      <trkpt lat="45.86027" lon="4.71025">
        <ele>203.46</ele>
        <time>2013-11-11T08:19:12Z</time>
      </trkpt>
      <trkpt lat="45.86033" lon="4.71041">
        <ele>202.98</ele>
        <time>2013-11-11T08:19:15Z</time>
      </trkpt>
      <trkpt lat="45.8604" lon="4.71079">
        <ele>203.46</ele>
        <time>2013-11-11T08:19:21Z</time>
      </trkpt>
      <trkpt lat="45.86042" lon="4.71085">
        <ele>202.98</ele>
        <time>2013-11-11T08:19:22Z</time>
      </trkpt>
      <trkpt lat="45.8605" lon="4.71102">
        <ele>202.98</ele>
        <time>2013-11-11T08:19:25Z</time>
      </trkpt>
      <trkpt lat="45.86053" lon="4.71106">
        <ele>202.98</ele>
        <time>2013-11-11T08:19:26Z</time>
      </trkpt>
      <trkpt lat="45.86056" lon="4.71111">
        <ele>203.46</ele>
        <time>2013-11-11T08:19:27Z</time>
      </trkpt>
      <trkpt lat="45.86089" lon="4.71143">
        <ele>202.98</ele>
        <time>2013-11-11T08:19:37Z</time>
      </trkpt>
      <trkpt lat="45.86093" lon="4.71143">
        <ele>202.49</ele>
        <time>2013-11-11T08:19:38Z</time>
      </trkpt>
      <trkpt lat="45.86097" lon="4.71141">
        <ele>202.49</ele>
        <time>2013-11-11T08:19:39Z</time>
      </trkpt>
      <trkpt lat="45.86104" lon="4.71134">
        <ele>202.49</ele>
        <time>2013-11-11T08:19:41Z</time>
      </trkpt>
      <trkpt lat="45.86115" lon="4.71121">
        <ele>202.01</ele>
        <time>2013-11-11T08:19:44Z</time>
      </trkpt>
      <trkpt lat="45.86117" lon="4.71115">
        <ele>202.49</ele>
        <time>2013-11-11T08:19:45Z</time>
      </trkpt>
      <trkpt lat="45.86136" lon="4.71065">
        <ele>201.53</ele>
        <time>2013-11-11T08:19:54Z</time>
      </trkpt>
      <trkpt lat="45.86139" lon="4.71061">
        <ele>201.53</ele>
        <time>2013-11-11T08:19:55Z</time>
      </trkpt>
      <trkpt lat="45.86143" lon="4.71056">
        <ele>202.01</ele>
        <time>2013-11-11T08:19:56Z</time>
      </trkpt>
      <trkpt lat="45.86147" lon="4.71053">
        <ele>201.53</ele>
        <time>2013-11-11T08:19:57Z</time>
      </trkpt>
      <trkpt lat="45.8615" lon="4.7105">
        <ele>201.53</ele>
        <time>2013-11-11T08:19:58Z</time>
      </trkpt>
      <trkpt lat="45.86154" lon="4.71049">
        <ele>202.01</ele>
        <time>2013-11-11T08:19:59Z</time>
      </trkpt>
      <trkpt lat="45.86159" lon="4.71047">
        <ele>201.53</ele>
        <time>2013-11-11T08:20:00Z</time>
      </trkpt>
      <trkpt lat="45.86163" lon="4.71046">
        <ele>201.53</ele>
        <time>2013-11-11T08:20:01Z</time>
      </trkpt>
      <trkpt lat="45.86168" lon="4.71045">
        <ele>201.05</ele>
        <time>2013-11-11T08:20:02Z</time>
      </trkpt>
      <trkpt lat="45.86182" lon="4.7104">
        <ele>201.05</ele>
        <time>2013-11-11T08:20:05Z</time>
      </trkpt>
      <trkpt lat="45.86186" lon="4.71037">
        <ele>201.05</ele>
        <time>2013-11-11T08:20:06Z</time>
      </trkpt>
      <trkpt lat="45.86191" lon="4.71034">
        <ele>201.05</ele>
        <time>2013-11-11T08:20:07Z</time>
      </trkpt>
      <trkpt lat="45.86209" lon="4.71013">
        <ele>202.49</ele>
        <time>2013-11-11T08:20:12Z</time>
      </trkpt>
      <trkpt lat="45.86212" lon="4.71009">
        <ele>202.49</ele>
        <time>2013-11-11T08:20:13Z</time>
      </trkpt>
      <trkpt lat="45.86229" lon="4.70995">
        <ele>201.53</ele>
        <time>2013-11-11T08:20:18Z</time>
      </trkpt>
      <trkpt lat="45.86233" lon="4.70996">
        <ele>202.01</ele>
        <time>2013-11-11T08:20:19Z</time>
      </trkpt>
      <trkpt lat="45.86237" lon="4.70998">
        <ele>202.01</ele>
        <time>2013-11-11T08:20:20Z</time>
      </trkpt>
      <trkpt lat="45.86242" lon="4.71002">
        <ele>202.01</ele>
        <time>2013-11-11T08:20:21Z</time>
      </trkpt>
      <trkpt lat="45.86246" lon="4.71005">
        <ele>202.01</ele>
        <time>2013-11-11T08:20:22Z</time>
      </trkpt>
      <trkpt lat="45.8625" lon="4.7101">
        <ele>202.49</ele>
        <time>2013-11-11T08:20:23Z</time>
      </trkpt>
      <trkpt lat="45.86253" lon="4.71015">
        <ele>201.53</ele>
        <time>2013-11-11T08:20:24Z</time>
      </trkpt>
      <trkpt lat="45.86259" lon="4.71024">
        <ele>201.53</ele>
        <time>2013-11-11T08:20:26Z</time>
      </trkpt>
      <trkpt lat="45.86263" lon="4.71027">
        <ele>202.01</ele>
        <time>2013-11-11T08:20:27Z</time>
      </trkpt>
      <trkpt lat="45.86267" lon="4.71029">
        <ele>201.53</ele>
        <time>2013-11-11T08:20:28Z</time>
      </trkpt>
      <trkpt lat="45.86272" lon="4.71029">
        <ele>201.53</ele>
        <time>2013-11-11T08:20:29Z</time>
      </trkpt>
      <trkpt lat="45.86277" lon="4.71029">
        <ele>201.53</ele>
        <time>2013-11-11T08:20:30Z</time>
      </trkpt>
      <trkpt lat="45.86282" lon="4.71028">
        <ele>201.53</ele>
        <time>2013-11-11T08:20:31Z</time>
      </trkpt>
      <trkpt lat="45.8632" lon="4.71025">
        <ele>201.05</ele>
        <time>2013-11-11T08:20:39Z</time>
      </trkpt>
      <trkpt lat="45.86324" lon="4.71026">
        <ele>201.53</ele>
        <time>2013-11-11T08:20:40Z</time>
      </trkpt>
      <trkpt lat="45.86353" lon="4.71027">
        <ele>200.57</ele>
        <time>2013-11-11T08:20:46Z</time>
      </trkpt>
      <trkpt lat="45.86377" lon="4.71019">
        <ele>200.57</ele>
        <time>2013-11-11T08:20:51Z</time>
      </trkpt>
      <trkpt lat="45.86381" lon="4.71017">
        <ele>200.09</ele>
        <time>2013-11-11T08:20:52Z</time>
      </trkpt>
      <trkpt lat="45.86414" lon="4.70996">
        <ele>200.09</ele>
        <time>2013-11-11T08:21:00Z</time>
      </trkpt>
      <trkpt lat="45.86423" lon="4.70991">
        <ele>200.09</ele>
        <time>2013-11-11T08:21:02Z</time>
      </trkpt>
      <trkpt lat="45.86432" lon="4.70984">
        <ele>200.09</ele>
        <time>2013-11-11T08:21:04Z</time>
      </trkpt>
      <trkpt lat="45.86436" lon="4.70982">
        <ele>200.09</ele>
        <time>2013-11-11T08:21:05Z</time>
      </trkpt>
      <trkpt lat="45.86441" lon="4.70981">
        <ele>200.09</ele>
        <time>2013-11-11T08:21:06Z</time>
      </trkpt>
      <trkpt lat="45.8645" lon="4.7098">
        <ele>200.57</ele>
        <time>2013-11-11T08:21:08Z</time>
      </trkpt>
      <trkpt lat="45.86464" lon="4.7098">
        <ele>200.57</ele>
        <time>2013-11-11T08:21:11Z</time>
      </trkpt>
      <trkpt lat="45.86481" lon="4.70983">
        <ele>200.09</ele>
        <time>2013-11-11T08:21:16Z</time>
      </trkpt>
      <trkpt lat="45.86485" lon="4.7098">
        <ele>199.61</ele>
        <time>2013-11-11T08:21:17Z</time>
      </trkpt>
      <trkpt lat="45.86487" lon="4.70976">
        <ele>200.09</ele>
        <time>2013-11-11T08:21:18Z</time>
      </trkpt>
      <trkpt lat="45.86488" lon="4.70971">
        <ele>199.61</ele>
        <time>2013-11-11T08:21:19Z</time>
      </trkpt>
      <trkpt lat="45.86489" lon="4.70965">
        <ele>199.61</ele>
        <time>2013-11-11T08:21:20Z</time>
      </trkpt>
      <trkpt lat="45.86489" lon="4.7096">
        <ele>199.61</ele>
        <time>2013-11-11T08:21:21Z</time>
      </trkpt>
      <trkpt lat="45.86489" lon="4.70954">
        <ele>199.61</ele>
        <time>2013-11-11T08:21:22Z</time>
      </trkpt>
      <trkpt lat="45.86488" lon="4.70935">
        <ele>199.61</ele>
        <time>2013-11-11T08:21:25Z</time>
      </trkpt>
      <trkpt lat="45.86489" lon="4.70929">
        <ele>199.61</ele>
        <time>2013-11-11T08:21:26Z</time>
      </trkpt>
      <trkpt lat="45.8649" lon="4.70923">
        <ele>200.09</ele>
        <time>2013-11-11T08:21:27Z</time>
      </trkpt>
      <trkpt lat="45.86493" lon="4.70919">
        <ele>199.61</ele>
        <time>2013-11-11T08:21:28Z</time>
      </trkpt>
      <trkpt lat="45.86496" lon="4.70916">
        <ele>199.61</ele>
        <time>2013-11-11T08:21:29Z</time>
      </trkpt>
      <trkpt lat="45.86499" lon="4.70912">
        <ele>200.09</ele>
        <time>2013-11-11T08:21:30Z</time>
      </trkpt>
      <trkpt lat="45.86502" lon="4.70909">
        <ele>199.61</ele>
        <time>2013-11-11T08:21:31Z</time>
      </trkpt>
      <trkpt lat="45.86504" lon="4.70904">
        <ele>200.09</ele>
        <time>2013-11-11T08:21:32Z</time>
      </trkpt>
      <trkpt lat="45.86507" lon="4.70901">
        <ele>199.61</ele>
        <time>2013-11-11T08:21:33Z</time>
      </trkpt>
      <trkpt lat="45.8651" lon="4.70898">
        <ele>200.09</ele>
        <time>2013-11-11T08:21:34Z</time>
      </trkpt>
      <trkpt lat="45.86512" lon="4.70894">
        <ele>199.61</ele>
        <time>2013-11-11T08:21:35Z</time>
      </trkpt>
      <trkpt lat="45.86513" lon="4.70889">
        <ele>199.61</ele>
        <time>2013-11-11T08:21:36Z</time>
      </trkpt>
      <trkpt lat="45.86512" lon="4.70885">
        <ele>200.09</ele>
        <time>2013-11-11T08:21:37Z</time>
      </trkpt>
      <trkpt lat="45.86511" lon="4.7088">
        <ele>199.61</ele>
        <time>2013-11-11T08:21:38Z</time>
      </trkpt>
      <trkpt lat="45.86509" lon="4.70875">
        <ele>199.61</ele>
        <time>2013-11-11T08:21:39Z</time>
      </trkpt>
      <trkpt lat="45.86504" lon="4.70859">
        <ele>199.13</ele>
        <time>2013-11-11T08:21:42Z</time>
      </trkpt>
      <trkpt lat="45.86501" lon="4.70854">
        <ele>199.61</ele>
        <time>2013-11-11T08:21:43Z</time>
      </trkpt>
      <trkpt lat="45.86495" lon="4.70845">
        <ele>199.61</ele>
        <time>2013-11-11T08:21:45Z</time>
      </trkpt>
      <trkpt lat="45.86492" lon="4.70841">
        <ele>199.13</ele>
        <time>2013-11-11T08:21:46Z</time>
      </trkpt>
      <trkpt lat="45.86488" lon="4.70839">
        <ele>199.61</ele>
        <time>2013-11-11T08:21:47Z</time>
      </trkpt>
      <trkpt lat="45.86436" lon="4.70808">
        <ele>200.09</ele>
        <time>2013-11-11T08:22:00Z</time>
      </trkpt>
      <trkpt lat="45.86418" lon="4.70794">
        <ele>200.09</ele>
        <time>2013-11-11T08:22:05Z</time>
      </trkpt>
      <trkpt lat="45.86386" lon="4.70761">
        <ele>201.05</ele>
        <time>2013-11-11T08:22:15Z</time>
      </trkpt>
      <trkpt lat="45.86358" lon="4.70728">
        <ele>200.57</ele>
        <time>2013-11-11T08:22:24Z</time>
      </trkpt>
      <trkpt lat="45.86323" lon="4.70687">
        <ele>200.09</ele>
        <time>2013-11-11T08:22:35Z</time>
      </trkpt>
      <trkpt lat="45.86296" lon="4.70654">
        <ele>200.57</ele>
        <time>2013-11-11T08:22:44Z</time>
      </trkpt>
      <trkpt lat="45.86293" lon="4.70649">
        <ele>200.57</ele>
        <time>2013-11-11T08:22:45Z</time>
      </trkpt>
      <trkpt lat="45.86261" lon="4.706">
        <ele>200.09</ele>
        <time>2013-11-11T08:22:56Z</time>
      </trkpt>
      <trkpt lat="45.86251" lon="4.7058">
        <ele>200.57</ele>
        <time>2013-11-11T08:23:00Z</time>
      </trkpt>
      <trkpt lat="45.86248" lon="4.70575">
        <ele>200.09</ele>
        <time>2013-11-11T08:23:01Z</time>
      </trkpt>
      <trkpt lat="45.86246" lon="4.7057">
        <ele>200.09</ele>
        <time>2013-11-11T08:23:02Z</time>
      </trkpt>
      <trkpt lat="45.86244" lon="4.70565">
        <ele>200.09</ele>
        <time>2013-11-11T08:23:03Z</time>
      </trkpt>
      <trkpt lat="45.86242" lon="4.70561">
        <ele>200.09</ele>
        <time>2013-11-11T08:23:04Z</time>
      </trkpt>
      <trkpt lat="45.8624" lon="4.70558">
        <ele>199.61</ele>
        <time>2013-11-11T08:23:05Z</time>
      </trkpt>
      <trkpt lat="45.8623" lon="4.70529">
        <ele>200.09</ele>
        <time>2013-11-11T08:23:12Z</time>
      </trkpt>
      <trkpt lat="45.86218" lon="4.70489">
        <ele>200.57</ele>
        <time>2013-11-11T08:23:21Z</time>
      </trkpt>
      <trkpt lat="45.86213" lon="4.70457">
        <ele>200.09</ele>
        <time>2013-11-11T08:23:27Z</time>
      </trkpt>
      <trkpt lat="45.86213" lon="4.7045">
        <ele>200.09</ele>
        <time>2013-11-11T08:23:28Z</time>
      </trkpt>
      <trkpt lat="45.86206" lon="4.70389">
        <ele>200.57</ele>
        <time>2013-11-11T08:23:39Z</time>
      </trkpt>
      <trkpt lat="45.86208" lon="4.70372">
        <ele>200.57</ele>
        <time>2013-11-11T08:23:42Z</time>
      </trkpt>
      <trkpt lat="45.86211" lon="4.70361">
        <ele>200.09</ele>
        <time>2013-11-11T08:23:44Z</time>
      </trkpt>
      <trkpt lat="45.86213" lon="4.70342">
        <ele>200.09</ele>
        <time>2013-11-11T08:23:47Z</time>
      </trkpt>
      <trkpt lat="45.86215" lon="4.7033">
        <ele>200.09</ele>
        <time>2013-11-11T08:23:49Z</time>
      </trkpt>
      <trkpt lat="45.86216" lon="4.70324">
        <ele>200.09</ele>
        <time>2013-11-11T08:23:50Z</time>
      </trkpt>
      <trkpt lat="45.86218" lon="4.70319">
        <ele>200.09</ele>
        <time>2013-11-11T08:23:51Z</time>
      </trkpt>
      <trkpt lat="45.86223" lon="4.70303">
        <ele>199.61</ele>
        <time>2013-11-11T08:23:54Z</time>
      </trkpt>
      <trkpt lat="45.86229" lon="4.70286">
        <ele>199.13</ele>
        <time>2013-11-11T08:23:57Z</time>
      </trkpt>
      <trkpt lat="45.86236" lon="4.70258">
        <ele>199.61</ele>
        <time>2013-11-11T08:24:02Z</time>
      </trkpt>
      <trkpt lat="45.86238" lon="4.70253">
        <ele>199.13</ele>
        <time>2013-11-11T08:24:03Z</time>
      </trkpt>
      <trkpt lat="45.86264" lon="4.70201">
        <ele>199.13</ele>
        <time>2013-11-11T08:24:14Z</time>
      </trkpt>
      <trkpt lat="45.86297" lon="4.70166">
        <ele>200.09</ele>
        <time>2013-11-11T08:24:25Z</time>
      </trkpt>
      <trkpt lat="45.86318" lon="4.70137">
        <ele>200.09</ele>
        <time>2013-11-11T08:24:33Z</time>
      </trkpt>
      <trkpt lat="45.8633" lon="4.70124">
        <ele>200.09</ele>
        <time>2013-11-11T08:24:37Z</time>
      </trkpt>
      <trkpt lat="45.86333" lon="4.70121">
        <ele>200.09</ele>
        <time>2013-11-11T08:24:38Z</time>
      </trkpt>
      <trkpt lat="45.86335" lon="4.70116">
        <ele>199.61</ele>
        <time>2013-11-11T08:24:39Z</time>
      </trkpt>
      <trkpt lat="45.86338" lon="4.70111">
        <ele>200.09</ele>
        <time>2013-11-11T08:24:40Z</time>
      </trkpt>
      <trkpt lat="45.86339" lon="4.70106">
        <ele>199.61</ele>
        <time>2013-11-11T08:24:41Z</time>
      </trkpt>
      <trkpt lat="45.86341" lon="4.70101">
        <ele>199.61</ele>
        <time>2013-11-11T08:24:42Z</time>
      </trkpt>
      <trkpt lat="45.86343" lon="4.70095">
        <ele>199.13</ele>
        <time>2013-11-11T08:24:43Z</time>
      </trkpt>
      <trkpt lat="45.86349" lon="4.70078">
        <ele>199.61</ele>
        <time>2013-11-11T08:24:46Z</time>
      </trkpt>
      <trkpt lat="45.86351" lon="4.70072">
        <ele>200.09</ele>
        <time>2013-11-11T08:24:47Z</time>
      </trkpt>
      <trkpt lat="45.86353" lon="4.70067">
        <ele>200.09</ele>
        <time>2013-11-11T08:24:48Z</time>
      </trkpt>
      <trkpt lat="45.86354" lon="4.70062">
        <ele>200.09</ele>
        <time>2013-11-11T08:24:49Z</time>
      </trkpt>
      <trkpt lat="45.86356" lon="4.70057">
        <ele>200.09</ele>
        <time>2013-11-11T08:24:50Z</time>
      </trkpt>
      <trkpt lat="45.86364" lon="4.70004">
        <ele>200.57</ele>
        <time>2013-11-11T08:25:01Z</time>
      </trkpt>
      <trkpt lat="45.86365" lon="4.69951">
        <ele>200.57</ele>
        <time>2013-11-11T08:25:12Z</time>
      </trkpt>
      <trkpt lat="45.86354" lon="4.699">
        <ele>201.05</ele>
        <time>2013-11-11T08:25:23Z</time>
      </trkpt>
      <trkpt lat="45.86339" lon="4.69854">
        <ele>201.05</ele>
        <time>2013-11-11T08:25:32Z</time>
      </trkpt>
      <trkpt lat="45.86325" lon="4.69833">
        <ele>200.57</ele>
        <time>2013-11-11T08:25:37Z</time>
      </trkpt>
      <trkpt lat="45.86316" lon="4.69828">
        <ele>201.05</ele>
        <time>2013-11-11T08:25:39Z</time>
      </trkpt>
      <trkpt lat="45.86311" lon="4.69826">
        <ele>201.05</ele>
        <time>2013-11-11T08:25:40Z</time>
      </trkpt>
      <trkpt lat="45.86307" lon="4.69825">
        <ele>201.05</ele>
        <time>2013-11-11T08:25:41Z</time>
      </trkpt>
      <trkpt lat="45.86302" lon="4.69825">
        <ele>201.05</ele>
        <time>2013-11-11T08:25:42Z</time>
      </trkpt>
      <trkpt lat="45.86298" lon="4.69825">
        <ele>201.05</ele>
        <time>2013-11-11T08:25:43Z</time>
      </trkpt>
      <trkpt lat="45.86259" lon="4.69837">
        <ele>201.53</ele>
        <time>2013-11-11T08:25:53Z</time>
      </trkpt>
      <trkpt lat="45.86224" lon="4.69856">
        <ele>202.01</ele>
        <time>2013-11-11T08:26:03Z</time>
      </trkpt>
      <trkpt lat="45.86198" lon="4.6988">
        <ele>202.49</ele>
        <time>2013-11-11T08:26:12Z</time>
      </trkpt>
      <trkpt lat="45.86166" lon="4.69908">
        <ele>202.98</ele>
        <time>2013-11-11T08:26:24Z</time>
      </trkpt>
      <trkpt lat="45.8615" lon="4.69921">
        <ele>202.98</ele>
        <time>2013-11-11T08:26:29Z</time>
      </trkpt>
      <trkpt lat="45.86146" lon="4.69923">
        <ele>202.98</ele>
        <time>2013-11-11T08:26:30Z</time>
      </trkpt>
      <trkpt lat="45.86143" lon="4.69926">
        <ele>202.49</ele>
        <time>2013-11-11T08:26:31Z</time>
      </trkpt>
      <trkpt lat="45.86107" lon="4.69937">
        <ele>203.46</ele>
        <time>2013-11-11T08:26:41Z</time>
      </trkpt>
      <trkpt lat="45.86082" lon="4.69944">
        <ele>203.46</ele>
        <time>2013-11-11T08:26:49Z</time>
      </trkpt>
      <trkpt lat="45.8605" lon="4.69945">
        <ele>203.94</ele>
        <time>2013-11-11T08:26:59Z</time>
      </trkpt>
      <trkpt lat="45.8601" lon="4.69942">
        <ele>202.98</ele>
        <time>2013-11-11T08:27:09Z</time>
      </trkpt>
      <trkpt lat="45.85996" lon="4.69938">
        <ele>203.46</ele>
        <time>2013-11-11T08:27:12Z</time>
      </trkpt>
      <trkpt lat="45.85971" lon="4.69923">
        <ele>202.98</ele>
        <time>2013-11-11T08:27:18Z</time>
      </trkpt>
      <trkpt lat="45.85968" lon="4.6992">
        <ele>202.49</ele>
        <time>2013-11-11T08:27:19Z</time>
      </trkpt>
      <trkpt lat="45.85965" lon="4.69916">
        <ele>202.98</ele>
        <time>2013-11-11T08:27:20Z</time>
      </trkpt>
      <trkpt lat="45.85961" lon="4.69912">
        <ele>202.49</ele>
        <time>2013-11-11T08:27:21Z</time>
      </trkpt>
      <trkpt lat="45.85958" lon="4.69909">
        <ele>202.49</ele>
        <time>2013-11-11T08:27:22Z</time>
      </trkpt>
      <trkpt lat="45.85928" lon="4.69871">
        <ele>202.98</ele>
        <time>2013-11-11T08:27:32Z</time>
      </trkpt>
      <trkpt lat="45.85913" lon="4.69853">
        <ele>202.98</ele>
        <time>2013-11-11T08:27:37Z</time>
      </trkpt>
      <trkpt lat="45.85893" lon="4.69825">
        <ele>202.98</ele>
        <time>2013-11-11T08:27:45Z</time>
      </trkpt>
      <trkpt lat="45.85872" lon="4.69795">
        <ele>202.49</ele>
        <time>2013-11-11T08:27:54Z</time>
      </trkpt>
      <trkpt lat="45.8586" lon="4.69764">
        <ele>203.46</ele>
        <time>2013-11-11T08:28:02Z</time>
      </trkpt>
      <trkpt lat="45.85839" lon="4.69737">
        <ele>203.94</ele>
        <time>2013-11-11T08:28:10Z</time>
      </trkpt>
      <trkpt lat="45.85837" lon="4.69733">
        <ele>203.46</ele>
        <time>2013-11-11T08:28:11Z</time>
      </trkpt>
      <trkpt lat="45.85822" lon="4.69698">
        <ele>203.46</ele>
        <time>2013-11-11T08:28:20Z</time>
      </trkpt>
      <trkpt lat="45.85822" lon="4.69694">
        <ele>203.94</ele>
        <time>2013-11-11T08:28:21Z</time>
      </trkpt>
      <trkpt lat="45.85821" lon="4.69691">
        <ele>203.46</ele>
        <time>2013-11-11T08:28:22Z</time>
      </trkpt>
      <trkpt lat="45.85821" lon="4.69687">
        <ele>203.94</ele>
        <time>2013-11-11T08:28:23Z</time>
      </trkpt>
      <trkpt lat="45.8582" lon="4.69684">
        <ele>203.94</ele>
        <time>2013-11-11T08:28:24Z</time>
      </trkpt>
      <trkpt lat="45.85819" lon="4.69681">
        <ele>203.46</ele>
        <time>2013-11-11T08:28:25Z</time>
      </trkpt>
      <trkpt lat="45.85801" lon="4.69632">
        <ele>203.46</ele>
        <time>2013-11-11T08:28:36Z</time>
      </trkpt>
      <trkpt lat="45.85789" lon="4.69582">
        <ele>203.94</ele>
        <time>2013-11-11T08:28:46Z</time>
      </trkpt>
      <trkpt lat="45.85779" lon="4.69526">
        <ele>202.98</ele>
        <time>2013-11-11T08:28:57Z</time>
      </trkpt>
      <trkpt lat="45.85769" lon="4.69463">
        <ele>203.46</ele>
        <time>2013-11-11T08:29:09Z</time>
      </trkpt>
      <trkpt lat="45.85761" lon="4.69396">
        <ele>203.94</ele>
        <time>2013-11-11T08:29:21Z</time>
      </trkpt>
      <trkpt lat="45.8576" lon="4.69384">
        <ele>203.94</ele>
        <time>2013-11-11T08:29:23Z</time>
      </trkpt>
      <trkpt lat="45.85763" lon="4.69321">
        <ele>203.94</ele>
        <time>2013-11-11T08:29:34Z</time>
      </trkpt>
      <trkpt lat="45.85765" lon="4.69248">
        <ele>203.94</ele>
        <time>2013-11-11T08:29:48Z</time>
      </trkpt>
      <trkpt lat="45.85766" lon="4.69233">
        <ele>204.42</ele>
        <time>2013-11-11T08:29:57Z</time>
      </trkpt>
      <trkpt lat="45.85766" lon="4.6923">
        <ele>203.94</ele>
        <time>2013-11-11T08:30:10Z</time>
      </trkpt>
      <trkpt lat="45.85767" lon="4.69228">
        <ele>203.94</ele>
        <time>2013-11-11T08:30:19Z</time>
      </trkpt>
      <trkpt lat="45.85765" lon="4.69222">
        <ele>203.46</ele>
        <time>2013-11-11T08:30:26Z</time>
      </trkpt>
      <trkpt lat="45.85765" lon="4.69218">
        <ele>203.46</ele>
        <time>2013-11-11T08:30:28Z</time>
      </trkpt>
      <trkpt lat="45.85766" lon="4.69216">
        <ele>203.46</ele>
        <time>2013-11-11T08:30:29Z</time>
      </trkpt>
      <trkpt lat="45.85767" lon="4.69211">
        <ele>203.46</ele>
        <time>2013-11-11T08:30:32Z</time>
      </trkpt>
      <trkpt lat="45.85767" lon="4.69209">
        <ele>206.82</ele>
        <time>2013-11-11T08:30:33Z</time>
      </trkpt>
      <trkpt lat="45.85768" lon="4.69206">
        <ele>203.46</ele>
        <time>2013-11-11T08:30:34Z</time>
      </trkpt>
      <trkpt lat="45.8577" lon="4.69199">
        <ele>203.94</ele>
        <time>2013-11-11T08:30:45Z</time>
      </trkpt>
      <trkpt lat="45.85774" lon="4.69182">
        <ele>203.94</ele>
        <time>2013-11-11T08:30:55Z</time>
      </trkpt>
      <trkpt lat="45.8578" lon="4.69153">
        <ele>203.94</ele>
        <time>2013-11-11T08:31:03Z</time>
      </trkpt>
      <trkpt lat="45.85788" lon="4.69116">
        <ele>203.94</ele>
        <time>2013-11-11T08:31:12Z</time>
      </trkpt>
      <trkpt lat="45.85799" lon="4.6906">
        <ele>204.42</ele>
        <time>2013-11-11T08:31:23Z</time>
      </trkpt>
      <trkpt lat="45.85807" lon="4.69003">
        <ele>203.94</ele>
        <time>2013-11-11T08:31:34Z</time>
      </trkpt>
      <trkpt lat="45.8581" lon="4.68939">
        <ele>203.94</ele>
        <time>2013-11-11T08:31:45Z</time>
      </trkpt>
      <trkpt lat="45.85811" lon="4.68934">
        <ele>203.94</ele>
        <time>2013-11-11T08:31:46Z</time>
      </trkpt>
      <trkpt lat="45.85811" lon="4.68928">
        <ele>204.42</ele>
        <time>2013-11-11T08:31:47Z</time>
      </trkpt>
      <trkpt lat="45.85814" lon="4.68864">
        <ele>204.42</ele>
        <time>2013-11-11T08:31:59Z</time>
      </trkpt>
      <trkpt lat="45.85816" lon="4.68842">
        <ele>203.94</ele>
        <time>2013-11-11T08:32:08Z</time>
      </trkpt>
      <trkpt lat="45.85816" lon="4.68837">
        <ele>204.42</ele>
        <time>2013-11-11T08:32:19Z</time>
      </trkpt>
      <trkpt lat="45.85815" lon="4.68831">
        <ele>204.42</ele>
        <time>2013-11-11T08:32:30Z</time>
      </trkpt>
      <trkpt lat="45.85817" lon="4.68816">
        <ele>204.42</ele>
        <time>2013-11-11T08:32:38Z</time>
      </trkpt>
      <trkpt lat="45.85817" lon="4.68813">
        <ele>204.9</ele>
        <time>2013-11-11T08:32:39Z</time>
      </trkpt>
      <trkpt lat="45.85815" lon="4.68765">
        <ele>204.9</ele>
        <time>2013-11-11T08:32:50Z</time>
      </trkpt>
      <trkpt lat="45.85817" lon="4.68757">
        <ele>204.9</ele>
        <time>2013-11-11T08:32:52Z</time>
      </trkpt>
      <trkpt lat="45.85819" lon="4.68755">
        <ele>204.9</ele>
        <time>2013-11-11T08:32:53Z</time>
      </trkpt>
      <trkpt lat="45.85822" lon="4.68753">
        <ele>204.9</ele>
        <time>2013-11-11T08:32:54Z</time>
      </trkpt>
      <trkpt lat="45.85824" lon="4.68754">
        <ele>204.9</ele>
        <time>2013-11-11T08:32:55Z</time>
      </trkpt>
      <trkpt lat="45.85826" lon="4.68755">
        <ele>205.38</ele>
        <time>2013-11-11T08:32:56Z</time>
      </trkpt>
      <trkpt lat="45.85828" lon="4.68755">
        <ele>205.38</ele>
        <time>2013-11-11T08:32:57Z</time>
      </trkpt>
      <trkpt lat="45.8583" lon="4.68756">
        <ele>204.9</ele>
        <time>2013-11-11T08:32:58Z</time>
      </trkpt>
      <trkpt lat="45.85833" lon="4.68756">
        <ele>204.9</ele>
        <time>2013-11-11T08:32:59Z</time>
      </trkpt>
      <trkpt lat="45.85836" lon="4.68754">
        <ele>204.9</ele>
        <time>2013-11-11T08:33:00Z</time>
      </trkpt>
      <trkpt lat="45.85838" lon="4.68752">
        <ele>205.86</ele>
        <time>2013-11-11T08:33:01Z</time>
      </trkpt>
      <trkpt lat="45.8584" lon="4.68751">
        <ele>204.9</ele>
        <time>2013-11-11T08:33:02Z</time>
      </trkpt>
      <trkpt lat="45.85846" lon="4.68764">
        <ele>205.38</ele>
        <time>2013-11-11T08:33:07Z</time>
      </trkpt>
      <trkpt lat="45.8586" lon="4.68771">
        <ele>206.34</ele>
        <time>2013-11-11T08:33:15Z</time>
      </trkpt>
      <trkpt lat="45.85875" lon="4.68776">
        <ele>205.86</ele>
        <time>2013-11-11T08:33:21Z</time>
      </trkpt>
      <trkpt lat="45.85881" lon="4.68769">
        <ele>205.38</ele>
        <time>2013-11-11T08:33:28Z</time>
      </trkpt>
      <trkpt lat="45.85877" lon="4.68784">
        <ele>205.38</ele>
        <time>2013-11-11T08:33:33Z</time>
      </trkpt>
      <trkpt lat="45.85869" lon="4.68827">
        <ele>205.38</ele>
        <time>2013-11-11T08:33:41Z</time>
      </trkpt>
      <trkpt lat="45.85863" lon="4.68925">
        <ele>204.9</ele>
        <time>2013-11-11T08:33:57Z</time>
      </trkpt>
      <trkpt lat="45.85863" lon="4.68964">
        <ele>205.38</ele>
        <time>2013-11-11T08:34:03Z</time>
      </trkpt>
      <trkpt lat="45.85863" lon="4.6897">
        <ele>205.38</ele>
        <time>2013-11-11T08:34:04Z</time>
      </trkpt>
      <trkpt lat="45.85864" lon="4.68976">
        <ele>204.42</ele>
        <time>2013-11-11T08:34:05Z</time>
      </trkpt>
      <trkpt lat="45.85865" lon="4.68981">
        <ele>205.38</ele>
        <time>2013-11-11T08:34:06Z</time>
      </trkpt>
      <trkpt lat="45.85865" lon="4.68988">
        <ele>205.38</ele>
        <time>2013-11-11T08:34:07Z</time>
      </trkpt>
      <trkpt lat="45.85865" lon="4.68994">
        <ele>204.9</ele>
        <time>2013-11-11T08:34:08Z</time>
      </trkpt>
      <trkpt lat="45.85866" lon="4.69">
        <ele>205.38</ele>
        <time>2013-11-11T08:34:09Z</time>
      </trkpt>
      <trkpt lat="45.85868" lon="4.69005">
        <ele>205.38</ele>
        <time>2013-11-11T08:34:10Z</time>
      </trkpt>
      <trkpt lat="45.85873" lon="4.69039">
        <ele>205.38</ele>
        <time>2013-11-11T08:34:17Z</time>
      </trkpt>
      <trkpt lat="45.85872" lon="4.69045">
        <ele>204.9</ele>
        <time>2013-11-11T08:34:18Z</time>
      </trkpt>
      <trkpt lat="45.85869" lon="4.6905">
        <ele>204.9</ele>
        <time>2013-11-11T08:34:19Z</time>
      </trkpt>
      <trkpt lat="45.85864" lon="4.69061">
        <ele>203.94</ele>
        <time>2013-11-11T08:34:21Z</time>
      </trkpt>
      <trkpt lat="45.85863" lon="4.69067">
        <ele>203.94</ele>
        <time>2013-11-11T08:34:22Z</time>
      </trkpt>
      <trkpt lat="45.85863" lon="4.69073">
        <ele>203.94</ele>
        <time>2013-11-11T08:34:23Z</time>
      </trkpt>
      <trkpt lat="45.85859" lon="4.69123">
        <ele>203.94</ele>
        <time>2013-11-11T08:34:33Z</time>
      </trkpt>
      <trkpt lat="45.85854" lon="4.69159">
        <ele>203.94</ele>
        <time>2013-11-11T08:34:40Z</time>
      </trkpt>
      <trkpt lat="45.85843" lon="4.69227">
        <ele>203.46</ele>
        <time>2013-11-11T08:34:53Z</time>
      </trkpt>
      <trkpt lat="45.85833" lon="4.6927">
        <ele>203.46</ele>
        <time>2013-11-11T08:35:02Z</time>
      </trkpt>
      <trkpt lat="45.8584" lon="4.69314">
        <ele>203.46</ele>
        <time>2013-11-11T08:35:11Z</time>
      </trkpt>
      <trkpt lat="45.85854" lon="4.69364">
        <ele>202.98</ele>
        <time>2013-11-11T08:35:21Z</time>
      </trkpt>
      <trkpt lat="45.8585" lon="4.69383">
        <ele>202.49</ele>
        <time>2013-11-11T08:35:28Z</time>
      </trkpt>
      <trkpt lat="45.85836" lon="4.69413">
        <ele>202.49</ele>
        <time>2013-11-11T08:35:37Z</time>
      </trkpt>
      <trkpt lat="45.85826" lon="4.69451">
        <ele>202.01</ele>
        <time>2013-11-11T08:35:45Z</time>
      </trkpt>
      <trkpt lat="45.85832" lon="4.695">
        <ele>202.49</ele>
        <time>2013-11-11T08:35:55Z</time>
      </trkpt>
      <trkpt lat="45.85836" lon="4.6954">
        <ele>202.49</ele>
        <time>2013-11-11T08:36:03Z</time>
      </trkpt>
      <trkpt lat="45.85842" lon="4.69602">
        <ele>202.49</ele>
        <time>2013-11-11T08:36:15Z</time>
      </trkpt>
      <trkpt lat="45.85857" lon="4.69663">
        <ele>202.01</ele>
        <time>2013-11-11T08:36:27Z</time>
      </trkpt>
      <trkpt lat="45.85874" lon="4.69708">
        <ele>202.01</ele>
        <time>2013-11-11T08:36:37Z</time>
      </trkpt>
      <trkpt lat="45.859" lon="4.69758">
        <ele>202.01</ele>
        <time>2013-11-11T08:36:49Z</time>
      </trkpt>
      <trkpt lat="45.85926" lon="4.69798">
        <ele>202.01</ele>
        <time>2013-11-11T08:37:00Z</time>
      </trkpt>
      <trkpt lat="45.85952" lon="4.69832">
        <ele>202.49</ele>
        <time>2013-11-11T08:37:10Z</time>
      </trkpt>
      <trkpt lat="45.85999" lon="4.69878">
        <ele>201.53</ele>
        <time>2013-11-11T08:37:25Z</time>
      </trkpt>
      <trkpt lat="45.86031" lon="4.69894">
        <ele>201.05</ele>
        <time>2013-11-11T08:37:34Z</time>
      </trkpt>
      <trkpt lat="45.8605" lon="4.6989">
        <ele>201.05</ele>
        <time>2013-11-11T08:37:42Z</time>
      </trkpt>
      <trkpt lat="45.86088" lon="4.69885">
        <ele>201.53</ele>
        <time>2013-11-11T08:37:49Z</time>
      </trkpt>
      <trkpt lat="45.86124" lon="4.69866">
        <ele>201.53</ele>
        <time>2013-11-11T08:37:59Z</time>
      </trkpt>
      <trkpt lat="45.86152" lon="4.69837">
        <ele>200.57</ele>
        <time>2013-11-11T08:38:09Z</time>
      </trkpt>
      <trkpt lat="45.86177" lon="4.69818">
        <ele>200.57</ele>
        <time>2013-11-11T08:38:17Z</time>
      </trkpt>
      <trkpt lat="45.86203" lon="4.69799">
        <ele>200.57</ele>
        <time>2013-11-11T08:38:25Z</time>
      </trkpt>
      <trkpt lat="45.86232" lon="4.69769">
        <ele>201.05</ele>
        <time>2013-11-11T08:38:34Z</time>
      </trkpt>
      <trkpt lat="45.86244" lon="4.69759">
        <ele>201.05</ele>
        <time>2013-11-11T08:38:38Z</time>
      </trkpt>
      <trkpt lat="45.86286" lon="4.69752">
        <ele>201.05</ele>
        <time>2013-11-11T08:38:48Z</time>
      </trkpt>
      <trkpt lat="45.86327" lon="4.6976">
        <ele>201.53</ele>
        <time>2013-11-11T08:38:58Z</time>
      </trkpt>
      <trkpt lat="45.86339" lon="4.69763">
        <ele>201.53</ele>
        <time>2013-11-11T08:39:02Z</time>
      </trkpt>
      <trkpt lat="45.86342" lon="4.69765">
        <ele>201.53</ele>
        <time>2013-11-11T08:39:03Z</time>
      </trkpt>
      <trkpt lat="45.86344" lon="4.69768">
        <ele>200.57</ele>
        <time>2013-11-11T08:39:04Z</time>
      </trkpt>
      <trkpt lat="45.86347" lon="4.69771">
        <ele>201.53</ele>
        <time>2013-11-11T08:39:05Z</time>
      </trkpt>
      <trkpt lat="45.8635" lon="4.69775">
        <ele>201.53</ele>
        <time>2013-11-11T08:39:06Z</time>
      </trkpt>
      <trkpt lat="45.86352" lon="4.69779">
        <ele>201.53</ele>
        <time>2013-11-11T08:39:07Z</time>
      </trkpt>
      <trkpt lat="45.86374" lon="4.69818">
        <ele>202.01</ele>
        <time>2013-11-11T08:39:16Z</time>
      </trkpt>
      <trkpt lat="45.8638" lon="4.69831">
        <ele>202.01</ele>
        <time>2013-11-11T08:39:19Z</time>
      </trkpt>
      <trkpt lat="45.86391" lon="4.6985">
        <ele>201.53</ele>
        <time>2013-11-11T08:39:23Z</time>
      </trkpt>
      <trkpt lat="45.86393" lon="4.69856">
        <ele>201.53</ele>
        <time>2013-11-11T08:39:24Z</time>
      </trkpt>
      <trkpt lat="45.86395" lon="4.69861">
        <ele>201.53</ele>
        <time>2013-11-11T08:39:25Z</time>
      </trkpt>
      <trkpt lat="45.86397" lon="4.69867">
        <ele>201.53</ele>
        <time>2013-11-11T08:39:26Z</time>
      </trkpt>
      <trkpt lat="45.86398" lon="4.69873">
        <ele>201.53</ele>
        <time>2013-11-11T08:39:27Z</time>
      </trkpt>
      <trkpt lat="45.86402" lon="4.69884">
        <ele>202.01</ele>
        <time>2013-11-11T08:39:29Z</time>
      </trkpt>
      <trkpt lat="45.86403" lon="4.6989">
        <ele>201.53</ele>
        <time>2013-11-11T08:39:30Z</time>
      </trkpt>
      <trkpt lat="45.86404" lon="4.69896">
        <ele>201.05</ele>
        <time>2013-11-11T08:39:31Z</time>
      </trkpt>
      <trkpt lat="45.86408" lon="4.69926">
        <ele>201.05</ele>
        <time>2013-11-11T08:39:36Z</time>
      </trkpt>
      <trkpt lat="45.86409" lon="4.69983">
        <ele>201.53</ele>
        <time>2013-11-11T08:39:46Z</time>
      </trkpt>
      <trkpt lat="45.86402" lon="4.70051">
        <ele>201.53</ele>
        <time>2013-11-11T08:39:58Z</time>
      </trkpt>
      <trkpt lat="45.86396" lon="4.70099">
        <ele>200.57</ele>
        <time>2013-11-11T08:40:06Z</time>
      </trkpt>
      <trkpt lat="45.86385" lon="4.70149">
        <ele>200.09</ele>
        <time>2013-11-11T08:40:15Z</time>
      </trkpt>
      <trkpt lat="45.86374" lon="4.70193">
        <ele>200.09</ele>
        <time>2013-11-11T08:40:24Z</time>
      </trkpt>
      <trkpt lat="45.86353" lon="4.70232">
        <ele>199.61</ele>
        <time>2013-11-11T08:40:33Z</time>
      </trkpt>
      <trkpt lat="45.86338" lon="4.70263">
        <ele>200.09</ele>
        <time>2013-11-11T08:40:40Z</time>
      </trkpt>
      <trkpt lat="45.86334" lon="4.70301">
        <ele>200.57</ele>
        <time>2013-11-11T08:40:48Z</time>
      </trkpt>
      <trkpt lat="45.8634" lon="4.7033">
        <ele>200.09</ele>
        <time>2013-11-11T08:40:55Z</time>
      </trkpt>
      <trkpt lat="45.86359" lon="4.70355">
        <ele>199.13</ele>
        <time>2013-11-11T08:41:03Z</time>
      </trkpt>
      <trkpt lat="45.86384" lon="4.70389">
        <ele>198.17</ele>
        <time>2013-11-11T08:41:12Z</time>
      </trkpt>
      <trkpt lat="45.86385" lon="4.70394">
        <ele>198.65</ele>
        <time>2013-11-11T08:41:13Z</time>
      </trkpt>
      <trkpt lat="45.86387" lon="4.70399">
        <ele>198.65</ele>
        <time>2013-11-11T08:41:14Z</time>
      </trkpt>
      <trkpt lat="45.86389" lon="4.70405">
        <ele>198.65</ele>
        <time>2013-11-11T08:41:15Z</time>
      </trkpt>
      <trkpt lat="45.8639" lon="4.7041">
        <ele>198.17</ele>
        <time>2013-11-11T08:41:16Z</time>
      </trkpt>
      <trkpt lat="45.86391" lon="4.70415">
        <ele>199.13</ele>
        <time>2013-11-11T08:41:17Z</time>
      </trkpt>
      <trkpt lat="45.86392" lon="4.70419">
        <ele>198.65</ele>
        <time>2013-11-11T08:41:18Z</time>
      </trkpt>
      <trkpt lat="45.86393" lon="4.70424">
        <ele>198.65</ele>
        <time>2013-11-11T08:41:19Z</time>
      </trkpt>
      <trkpt lat="45.86395" lon="4.7043">
        <ele>198.65</ele>
        <time>2013-11-11T08:41:20Z</time>
      </trkpt>
      <trkpt lat="45.86398" lon="4.70452">
        <ele>198.17</ele>
        <time>2013-11-11T08:41:24Z</time>
      </trkpt>
      <trkpt lat="45.86397" lon="4.70457">
        <ele>198.17</ele>
        <time>2013-11-11T08:41:25Z</time>
      </trkpt>
      <trkpt lat="45.86396" lon="4.70461">
        <ele>198.17</ele>
        <time>2013-11-11T08:41:26Z</time>
      </trkpt>
      <trkpt lat="45.86381" lon="4.70499">
        <ele>198.17</ele>
        <time>2013-11-11T08:41:34Z</time>
      </trkpt>
      <trkpt lat="45.86379" lon="4.70522">
        <ele>198.65</ele>
        <time>2013-11-11T08:41:38Z</time>
      </trkpt>
      <trkpt lat="45.8638" lon="4.70527">
        <ele>198.65</ele>
        <time>2013-11-11T08:41:39Z</time>
      </trkpt>
      <trkpt lat="45.8638" lon="4.70533">
        <ele>198.65</ele>
        <time>2013-11-11T08:41:40Z</time>
      </trkpt>
      <trkpt lat="45.86391" lon="4.70578">
        <ele>198.17</ele>
        <time>2013-11-11T08:41:49Z</time>
      </trkpt>
      <trkpt lat="45.86394" lon="4.70579">
        <ele>197.69</ele>
        <time>2013-11-11T08:41:50Z</time>
      </trkpt>
      <trkpt lat="45.86398" lon="4.70579">
        <ele>197.69</ele>
        <time>2013-11-11T08:41:51Z</time>
      </trkpt>
      <trkpt lat="45.86401" lon="4.70579">
        <ele>198.17</ele>
        <time>2013-11-11T08:41:52Z</time>
      </trkpt>
      <trkpt lat="45.86405" lon="4.70578">
        <ele>197.69</ele>
        <time>2013-11-11T08:41:53Z</time>
      </trkpt>
      <trkpt lat="45.86434" lon="4.70569">
        <ele>197.21</ele>
        <time>2013-11-11T08:42:01Z</time>
      </trkpt>
      <trkpt lat="45.86466" lon="4.7056">
        <ele>197.69</ele>
        <time>2013-11-11T08:42:10Z</time>
      </trkpt>
      <trkpt lat="45.86495" lon="4.70562">
        <ele>198.17</ele>
        <time>2013-11-11T08:42:19Z</time>
      </trkpt>
      <trkpt lat="45.86518" lon="4.70575">
        <ele>197.21</ele>
        <time>2013-11-11T08:42:24Z</time>
      </trkpt>
      <trkpt lat="45.86524" lon="4.7058">
        <ele>197.21</ele>
        <time>2013-11-11T08:42:25Z</time>
      </trkpt>
      <trkpt lat="45.86532" lon="4.7059">
        <ele>196.25</ele>
        <time>2013-11-11T08:42:27Z</time>
      </trkpt>
      <trkpt lat="45.86535" lon="4.70596">
        <ele>196.25</ele>
        <time>2013-11-11T08:42:28Z</time>
      </trkpt>
      <trkpt lat="45.86538" lon="4.70601">
        <ele>196.25</ele>
        <time>2013-11-11T08:42:29Z</time>
      </trkpt>
      <trkpt lat="45.86556" lon="4.70629">
        <ele>196.25</ele>
        <time>2013-11-11T08:42:37Z</time>
      </trkpt>
      <trkpt lat="45.86569" lon="4.70631">
        <ele>195.77</ele>
        <time>2013-11-11T08:42:41Z</time>
      </trkpt>
      <trkpt lat="45.86575" lon="4.70632">
        <ele>196.25</ele>
        <time>2013-11-11T08:42:42Z</time>
      </trkpt>
      <trkpt lat="45.86581" lon="4.70632">
        <ele>195.77</ele>
        <time>2013-11-11T08:42:43Z</time>
      </trkpt>
      <trkpt lat="45.86586" lon="4.70631">
        <ele>195.77</ele>
        <time>2013-11-11T08:42:44Z</time>
      </trkpt>
      <trkpt lat="45.86591" lon="4.7063">
        <ele>195.77</ele>
        <time>2013-11-11T08:42:45Z</time>
      </trkpt>
      <trkpt lat="45.86612" lon="4.70638">
        <ele>195.28</ele>
        <time>2013-11-11T08:42:51Z</time>
      </trkpt>
      <trkpt lat="45.8663" lon="4.70642">
        <ele>195.28</ele>
        <time>2013-11-11T08:42:57Z</time>
      </trkpt>
      <trkpt lat="45.8664" lon="4.70629">
        <ele>195.77</ele>
        <time>2013-11-11T08:43:01Z</time>
      </trkpt>
      <trkpt lat="45.86649" lon="4.7061">
        <ele>196.25</ele>
        <time>2013-11-11T08:43:06Z</time>
      </trkpt>
      <trkpt lat="45.8665" lon="4.70607">
        <ele>195.77</ele>
        <time>2013-11-11T08:43:08Z</time>
      </trkpt>
      <trkpt lat="45.86664" lon="4.70616">
        <ele>196.25</ele>
        <time>2013-11-11T08:43:14Z</time>
      </trkpt>
      <trkpt lat="45.86663" lon="4.70619">
        <ele>195.77</ele>
        <time>2013-11-11T08:43:16Z</time>
      </trkpt>
      <trkpt lat="45.86662" lon="4.70622">
        <ele>195.77</ele>
        <time>2013-11-11T08:43:18Z</time>
      </trkpt>
      <trkpt lat="45.86664" lon="4.70627">
        <ele>195.28</ele>
        <time>2013-11-11T08:43:19Z</time>
      </trkpt>
      <trkpt lat="45.86694" lon="4.70677">
        <ele>196.25</ele>
        <time>2013-11-11T08:43:27Z</time>
      </trkpt>
      <trkpt lat="45.86722" lon="4.707">
        <ele>195.28</ele>
        <time>2013-11-11T08:43:34Z</time>
      </trkpt>
      <trkpt lat="45.86747" lon="4.70719">
        <ele>196.25</ele>
        <time>2013-11-11T08:43:42Z</time>
      </trkpt>
      <trkpt lat="45.86764" lon="4.7074">
        <ele>196.25</ele>
        <time>2013-11-11T08:43:50Z</time>
      </trkpt>
      <trkpt lat="45.86771" lon="4.70783">
        <ele>196.25</ele>
        <time>2013-11-11T08:43:59Z</time>
      </trkpt>
      <trkpt lat="45.8679" lon="4.70822">
        <ele>195.77</ele>
        <time>2013-11-11T08:44:07Z</time>
      </trkpt>
      <trkpt lat="45.86811" lon="4.70844">
        <ele>196.25</ele>
        <time>2013-11-11T08:44:14Z</time>
      </trkpt>
      <trkpt lat="45.86828" lon="4.70883">
        <ele>195.77</ele>
        <time>2013-11-11T08:44:22Z</time>
      </trkpt>
      <trkpt lat="45.86851" lon="4.70933">
        <ele>196.25</ele>
        <time>2013-11-11T08:44:33Z</time>
      </trkpt>
      <trkpt lat="45.86868" lon="4.70983">
        <ele>195.77</ele>
        <time>2013-11-11T08:44:43Z</time>
      </trkpt>
      <trkpt lat="45.86869" lon="4.70989">
        <ele>195.77</ele>
        <time>2013-11-11T08:44:44Z</time>
      </trkpt>
      <trkpt lat="45.8687" lon="4.70995">
        <ele>195.28</ele>
        <time>2013-11-11T08:44:45Z</time>
      </trkpt>
      <trkpt lat="45.86871" lon="4.71001">
        <ele>194.8</ele>
        <time>2013-11-11T08:44:46Z</time>
      </trkpt>
      <trkpt lat="45.86879" lon="4.71061">
        <ele>196.73</ele>
        <time>2013-11-11T08:44:58Z</time>
      </trkpt>
      <trkpt lat="45.86882" lon="4.71075">
        <ele>197.21</ele>
        <time>2013-11-11T08:45:06Z</time>
      </trkpt>
      <trkpt lat="45.86882" lon="4.71075">
        <ele>196.25</ele>
        <time>2013-11-11T08:45:21Z</time>
      </trkpt>
      <trkpt lat="45.86882" lon="4.71075">
        <ele>196.73</ele>
        <time>2013-11-11T08:45:46Z</time>
      </trkpt>
      <trkpt lat="45.86882" lon="4.71075">
        <ele>196.73</ele>
        <time>2013-11-11T08:46:10Z</time>
      </trkpt>
      <trkpt lat="45.86882" lon="4.71075">
        <ele>196.73</ele>
        <time>2013-11-11T08:46:33Z</time>
      </trkpt>
      <trkpt lat="45.86882" lon="4.71075">
        <ele>196.25</ele>
        <time>2013-11-11T08:47:02Z</time>
      </trkpt>
      <trkpt lat="45.86881" lon="4.71075">
        <ele>196.25</ele>
        <time>2013-11-11T08:47:26Z</time>
      </trkpt>
      <trkpt lat="45.86881" lon="4.71075">
        <ele>197.21</ele>
        <time>2013-11-11T08:47:37Z</time>
      </trkpt>
      <trkpt lat="45.86881" lon="4.71075">
        <ele>197.21</ele>
        <time>2013-11-11T08:47:58Z</time>
      </trkpt>
      <trkpt lat="45.86881" lon="4.71075">
        <ele>197.69</ele>
        <time>2013-11-11T08:48:14Z</time>
      </trkpt>
      <trkpt lat="45.86881" lon="4.71075">
        <ele>197.21</ele>
        <time>2013-11-11T08:48:27Z</time>
      </trkpt>
      <trkpt lat="45.86884" lon="4.71072">
        <ele>197.69</ele>
        <time>2013-11-11T08:48:38Z</time>
      </trkpt>
      <trkpt lat="45.86884" lon="4.71074">
        <ele>197.21</ele>
        <time>2013-11-11T08:48:39Z</time>
      </trkpt>
      <trkpt lat="45.86884" lon="4.71075">
        <ele>197.69</ele>
        <time>2013-11-11T08:48:40Z</time>
      </trkpt>
      <trkpt lat="45.86883" lon="4.71077">
        <ele>197.21</ele>
        <time>2013-11-11T08:48:41Z</time>
      </trkpt>
      <trkpt lat="45.86882" lon="4.71078">
        <ele>197.21</ele>
        <time>2013-11-11T08:48:42Z</time>
      </trkpt>
      <trkpt lat="45.86881" lon="4.71079">
        <ele>197.21</ele>
        <time>2013-11-11T08:48:43Z</time>
      </trkpt>
      <trkpt lat="45.8688" lon="4.7108">
        <ele>197.21</ele>
        <time>2013-11-11T08:48:44Z</time>
      </trkpt>
      <trkpt lat="45.86879" lon="4.71081">
        <ele>197.21</ele>
        <time>2013-11-11T08:48:45Z</time>
      </trkpt>
      <trkpt lat="45.86877" lon="4.71083">
        <ele>196.73</ele>
        <time>2013-11-11T08:48:46Z</time>
      </trkpt>
      <trkpt lat="45.86876" lon="4.71085">
        <ele>197.21</ele>
        <time>2013-11-11T08:48:47Z</time>
      </trkpt>
      <trkpt lat="45.86876" lon="4.71088">
        <ele>197.21</ele>
        <time>2013-11-11T08:48:48Z</time>
      </trkpt>
      <trkpt lat="45.86875" lon="4.71091">
        <ele>197.21</ele>
        <time>2013-11-11T08:48:49Z</time>
      </trkpt>
      <trkpt lat="45.86877" lon="4.7113">
        <ele>197.21</ele>
        <time>2013-11-11T08:48:59Z</time>
      </trkpt>
      <trkpt lat="45.86878" lon="4.71179">
        <ele>197.21</ele>
        <time>2013-11-11T08:49:09Z</time>
      </trkpt>
      <trkpt lat="45.86877" lon="4.71224">
        <ele>197.21</ele>
        <time>2013-11-11T08:49:20Z</time>
      </trkpt>
      <trkpt lat="45.8688" lon="4.71263">
        <ele>197.21</ele>
        <time>2013-11-11T08:49:31Z</time>
      </trkpt>
      <trkpt lat="45.86882" lon="4.71305">
        <ele>197.21</ele>
        <time>2013-11-11T08:49:43Z</time>
      </trkpt>
      <trkpt lat="45.86881" lon="4.71349">
        <ele>195.28</ele>
        <time>2013-11-11T08:49:53Z</time>
      </trkpt>
      <trkpt lat="45.86882" lon="4.71356">
        <ele>195.28</ele>
        <time>2013-11-11T08:49:54Z</time>
      </trkpt>
      <trkpt lat="45.86889" lon="4.71405">
        <ele>195.28</ele>
        <time>2013-11-11T08:50:03Z</time>
      </trkpt>
      <trkpt lat="45.86899" lon="4.71449">
        <ele>195.28</ele>
        <time>2013-11-11T08:50:11Z</time>
      </trkpt>
      <trkpt lat="45.86904" lon="4.71464">
        <ele>195.28</ele>
        <time>2013-11-11T08:50:14Z</time>
      </trkpt>
      <trkpt lat="45.86906" lon="4.7147">
        <ele>195.77</ele>
        <time>2013-11-11T08:50:15Z</time>
      </trkpt>
      <trkpt lat="45.86917" lon="4.715">
        <ele>195.28</ele>
        <time>2013-11-11T08:50:21Z</time>
      </trkpt>
      <trkpt lat="45.8692" lon="4.71504">
        <ele>195.28</ele>
        <time>2013-11-11T08:50:22Z</time>
      </trkpt>
      <trkpt lat="45.86923" lon="4.71509">
        <ele>195.28</ele>
        <time>2013-11-11T08:50:23Z</time>
      </trkpt>
      <trkpt lat="45.86947" lon="4.71548">
        <ele>194.8</ele>
        <time>2013-11-11T08:50:33Z</time>
      </trkpt>
      <trkpt lat="45.86971" lon="4.7158">
        <ele>195.28</ele>
        <time>2013-11-11T08:50:42Z</time>
      </trkpt>
      <trkpt lat="45.86981" lon="4.71589">
        <ele>195.28</ele>
        <time>2013-11-11T08:50:45Z</time>
      </trkpt>
      <trkpt lat="45.87016" lon="4.7161">
        <ele>195.28</ele>
        <time>2013-11-11T08:50:55Z</time>
      </trkpt>
      <trkpt lat="45.87056" lon="4.71647">
        <ele>194.32</ele>
        <time>2013-11-11T08:51:07Z</time>
      </trkpt>
      <trkpt lat="45.87078" lon="4.71648">
        <ele>193.84</ele>
        <time>2013-11-11T08:51:13Z</time>
      </trkpt>
      <trkpt lat="45.87102" lon="4.71641">
        <ele>194.32</ele>
        <time>2013-11-11T08:51:21Z</time>
      </trkpt>
      <trkpt lat="45.87133" lon="4.71618">
        <ele>194.8</ele>
        <time>2013-11-11T08:51:30Z</time>
      </trkpt>
      <trkpt lat="45.87157" lon="4.71584">
        <ele>195.28</ele>
        <time>2013-11-11T08:51:39Z</time>
      </trkpt>
      <trkpt lat="45.8718" lon="4.71562">
        <ele>194.8</ele>
        <time>2013-11-11T08:51:48Z</time>
      </trkpt>
      <trkpt lat="45.87182" lon="4.71561">
        <ele>194.8</ele>
        <time>2013-11-11T08:51:55Z</time>
      </trkpt>
      <trkpt lat="45.87183" lon="4.71559">
        <ele>194.8</ele>
        <time>2013-11-11T08:51:57Z</time>
      </trkpt>
      <trkpt lat="45.87185" lon="4.71557">
        <ele>194.32</ele>
        <time>2013-11-11T08:52:06Z</time>
      </trkpt>
      <trkpt lat="45.87189" lon="4.71551">
        <ele>194.32</ele>
        <time>2013-11-11T08:52:17Z</time>
      </trkpt>
      <trkpt lat="45.87208" lon="4.71521">
        <ele>195.77</ele>
        <time>2013-11-11T08:52:27Z</time>
      </trkpt>
      <trkpt lat="45.87233" lon="4.71483">
        <ele>196.25</ele>
        <time>2013-11-11T08:52:37Z</time>
      </trkpt>
      <trkpt lat="45.87259" lon="4.71444">
        <ele>196.73</ele>
        <time>2013-11-11T08:52:47Z</time>
      </trkpt>
      <trkpt lat="45.87283" lon="4.71424">
        <ele>197.69</ele>
        <time>2013-11-11T08:52:56Z</time>
      </trkpt>
      <trkpt lat="45.87311" lon="4.71409">
        <ele>200.09</ele>
        <time>2013-11-11T08:53:07Z</time>
      </trkpt>
      <trkpt lat="45.87334" lon="4.71394">
        <ele>202.98</ele>
        <time>2013-11-11T08:53:18Z</time>
      </trkpt>
      <trkpt lat="45.8734" lon="4.71387">
        <ele>203.46</ele>
        <time>2013-11-11T08:53:24Z</time>
      </trkpt>
      <trkpt lat="45.87357" lon="4.7138">
        <ele>206.34</ele>
        <time>2013-11-11T08:53:34Z</time>
      </trkpt>
      <trkpt lat="45.87358" lon="4.7138">
        <ele>206.34</ele>
        <time>2013-11-11T08:53:35Z</time>
      </trkpt>
      <trkpt lat="45.87372" lon="4.71374">
        <ele>208.74</ele>
        <time>2013-11-11T08:53:45Z</time>
      </trkpt>
      <trkpt lat="45.87373" lon="4.71373">
        <ele>208.74</ele>
        <time>2013-11-11T08:53:46Z</time>
      </trkpt>
      <trkpt lat="45.87374" lon="4.71373">
        <ele>209.22</ele>
        <time>2013-11-11T08:53:47Z</time>
      </trkpt>
      <trkpt lat="45.87384" lon="4.71368">
        <ele>212.59</ele>
        <time>2013-11-11T08:53:58Z</time>
      </trkpt>
      <trkpt lat="45.87392" lon="4.71368">
        <ele>215.95</ele>
        <time>2013-11-11T08:54:08Z</time>
      </trkpt>
      <trkpt lat="45.87393" lon="4.71368">
        <ele>215.95</ele>
        <time>2013-11-11T08:54:09Z</time>
      </trkpt>
      <trkpt lat="45.87396" lon="4.71369">
        <ele>217.88</ele>
        <time>2013-11-11T08:54:14Z</time>
      </trkpt>
      <trkpt lat="45.87398" lon="4.7137">
        <ele>217.88</ele>
        <time>2013-11-11T08:54:16Z</time>
      </trkpt>
      <trkpt lat="45.87401" lon="4.7137">
        <ele>218.36</ele>
        <time>2013-11-11T08:54:18Z</time>
      </trkpt>
      <trkpt lat="45.87404" lon="4.71371">
        <ele>218.36</ele>
        <time>2013-11-11T08:54:19Z</time>
      </trkpt>
      <trkpt lat="45.87407" lon="4.71371">
        <ele>218.84</ele>
        <time>2013-11-11T08:54:20Z</time>
      </trkpt>
      <trkpt lat="45.8741" lon="4.7137">
        <ele>218.84</ele>
        <time>2013-11-11T08:54:21Z</time>
      </trkpt>
      <trkpt lat="45.87411" lon="4.71369">
        <ele>219.32</ele>
        <time>2013-11-11T08:54:22Z</time>
      </trkpt>
      <trkpt lat="45.87413" lon="4.71367">
        <ele>219.32</ele>
        <time>2013-11-11T08:54:24Z</time>
      </trkpt>
      <trkpt lat="45.87414" lon="4.71365">
        <ele>219.8</ele>
        <time>2013-11-11T08:54:25Z</time>
      </trkpt>
      <trkpt lat="45.87415" lon="4.71363">
        <ele>220.76</ele>
        <time>2013-11-11T08:54:26Z</time>
      </trkpt>
      <trkpt lat="45.87416" lon="4.71361">
        <ele>220.76</ele>
        <time>2013-11-11T08:54:27Z</time>
      </trkpt>
      <trkpt lat="45.87416" lon="4.71359">
        <ele>219.8</ele>
        <time>2013-11-11T08:54:28Z</time>
      </trkpt>
      <trkpt lat="45.87416" lon="4.71357">
        <ele>220.76</ele>
        <time>2013-11-11T08:54:29Z</time>
      </trkpt>
      <trkpt lat="45.87417" lon="4.71355">
        <ele>220.28</ele>
        <time>2013-11-11T08:54:30Z</time>
      </trkpt>
      <trkpt lat="45.87417" lon="4.71353">
        <ele>220.76</ele>
        <time>2013-11-11T08:54:31Z</time>
      </trkpt>
      <trkpt lat="45.87421" lon="4.71334">
        <ele>221.24</ele>
        <time>2013-11-11T08:54:42Z</time>
      </trkpt>
      <trkpt lat="45.87421" lon="4.71325">
        <ele>222.2</ele>
        <time>2013-11-11T08:54:47Z</time>
      </trkpt>
      <trkpt lat="45.87422" lon="4.71323">
        <ele>221.72</ele>
        <time>2013-11-11T08:54:48Z</time>
      </trkpt>
      <trkpt lat="45.87423" lon="4.71321">
        <ele>222.2</ele>
        <time>2013-11-11T08:54:49Z</time>
      </trkpt>
      <trkpt lat="45.87423" lon="4.71319">
        <ele>221.72</ele>
        <time>2013-11-11T08:54:50Z</time>
      </trkpt>
      <trkpt lat="45.87424" lon="4.71317">
        <ele>222.2</ele>
        <time>2013-11-11T08:54:51Z</time>
      </trkpt>
      <trkpt lat="45.87425" lon="4.71314">
        <ele>222.68</ele>
        <time>2013-11-11T08:54:53Z</time>
      </trkpt>
      <trkpt lat="45.87426" lon="4.71312">
        <ele>222.68</ele>
        <time>2013-11-11T08:54:54Z</time>
      </trkpt>
      <trkpt lat="45.87427" lon="4.7131">
        <ele>222.2</ele>
        <time>2013-11-11T08:54:55Z</time>
      </trkpt>
      <trkpt lat="45.87431" lon="4.71304">
        <ele>223.16</ele>
        <time>2013-11-11T08:55:02Z</time>
      </trkpt>
      <trkpt lat="45.87433" lon="4.71306">
        <ele>223.64</ele>
        <time>2013-11-11T08:55:03Z</time>
      </trkpt>
      <trkpt lat="45.87439" lon="4.7131">
        <ele>224.61</ele>
        <time>2013-11-11T08:55:05Z</time>
      </trkpt>
      <trkpt lat="45.87446" lon="4.71318">
        <ele>225.09</ele>
        <time>2013-11-11T08:55:10Z</time>
      </trkpt>
      <trkpt lat="45.87459" lon="4.71332">
        <ele>227.01</ele>
        <time>2013-11-11T08:55:20Z</time>
      </trkpt>
      <trkpt lat="45.87474" lon="4.71346">
        <ele>228.45</ele>
        <time>2013-11-11T08:55:31Z</time>
      </trkpt>
      <trkpt lat="45.87477" lon="4.71345">
        <ele>227.97</ele>
        <time>2013-11-11T08:55:34Z</time>
      </trkpt>
      <trkpt lat="45.87478" lon="4.71343">
        <ele>227.97</ele>
        <time>2013-11-11T08:55:35Z</time>
      </trkpt>
      <trkpt lat="45.8748" lon="4.71341">
        <ele>228.45</ele>
        <time>2013-11-11T08:55:36Z</time>
      </trkpt>
      <trkpt lat="45.87483" lon="4.71337">
        <ele>227.49</ele>
        <time>2013-11-11T08:55:39Z</time>
      </trkpt>
      <trkpt lat="45.87484" lon="4.71336">
        <ele>228.45</ele>
        <time>2013-11-11T08:55:41Z</time>
      </trkpt>
      <trkpt lat="45.87486" lon="4.71336">
        <ele>227.97</ele>
        <time>2013-11-11T08:55:42Z</time>
      </trkpt>
      <trkpt lat="45.87487" lon="4.71336">
        <ele>228.45</ele>
        <time>2013-11-11T08:55:43Z</time>
      </trkpt>
      <trkpt lat="45.87502" lon="4.7135">
        <ele>228.93</ele>
        <time>2013-11-11T08:55:54Z</time>
      </trkpt>
      <trkpt lat="45.87514" lon="4.71363">
        <ele>230.85</ele>
        <time>2013-11-11T08:56:04Z</time>
      </trkpt>
      <trkpt lat="45.8753" lon="4.71378">
        <ele>231.81</ele>
        <time>2013-11-11T08:56:14Z</time>
      </trkpt>
      <trkpt lat="45.87545" lon="4.71382">
        <ele>232.3</ele>
        <time>2013-11-11T08:56:23Z</time>
      </trkpt>
      <trkpt lat="45.87563" lon="4.71379">
        <ele>231.81</ele>
        <time>2013-11-11T08:56:32Z</time>
      </trkpt>
      <trkpt lat="45.8759" lon="4.71372">
        <ele>231.81</ele>
        <time>2013-11-11T08:56:42Z</time>
      </trkpt>
      <trkpt lat="45.8763" lon="4.71359">
        <ele>231.81</ele>
        <time>2013-11-11T08:56:54Z</time>
      </trkpt>
      <trkpt lat="45.87636" lon="4.71333">
        <ele>231.81</ele>
        <time>2013-11-11T08:57:01Z</time>
      </trkpt>
      <trkpt lat="45.87646" lon="4.71301">
        <ele>232.3</ele>
        <time>2013-11-11T08:57:11Z</time>
      </trkpt>
      <trkpt lat="45.87674" lon="4.71286">
        <ele>231.81</ele>
        <time>2013-11-11T08:57:22Z</time>
      </trkpt>
      <trkpt lat="45.87705" lon="4.71252">
        <ele>223.16</ele>
        <time>2013-11-11T08:57:34Z</time>
      </trkpt>
      <trkpt lat="45.87708" lon="4.71249">
        <ele>232.3</ele>
        <time>2013-11-11T08:57:35Z</time>
      </trkpt>
      <trkpt lat="45.87739" lon="4.71216">
        <ele>232.3</ele>
        <time>2013-11-11T08:57:46Z</time>
      </trkpt>
      <trkpt lat="45.87761" lon="4.71194">
        <ele>232.3</ele>
        <time>2013-11-11T08:57:53Z</time>
      </trkpt>
      <trkpt lat="45.87791" lon="4.71166">
        <ele>232.3</ele>
        <time>2013-11-11T08:58:03Z</time>
      </trkpt>
      <trkpt lat="45.87796" lon="4.71156">
        <ele>232.3</ele>
        <time>2013-11-11T08:58:05Z</time>
      </trkpt>
      <trkpt lat="45.87797" lon="4.7115">
        <ele>231.81</ele>
        <time>2013-11-11T08:58:06Z</time>
      </trkpt>
      <trkpt lat="45.878" lon="4.71139">
        <ele>232.3</ele>
        <time>2013-11-11T08:58:08Z</time>
      </trkpt>
      <trkpt lat="45.87823" lon="4.71054">
        <ele>230.85</ele>
        <time>2013-11-11T08:58:21Z</time>
      </trkpt>
      <trkpt lat="45.87837" lon="4.71001">
        <ele>230.37</ele>
        <time>2013-11-11T08:58:31Z</time>
      </trkpt>
      <trkpt lat="45.8784" lon="4.70994">
        <ele>229.89</ele>
        <time>2013-11-11T08:58:37Z</time>
      </trkpt>
      <trkpt lat="45.87842" lon="4.70991">
        <ele>230.37</ele>
        <time>2013-11-11T08:58:39Z</time>
      </trkpt>
      <trkpt lat="45.87842" lon="4.70989">
        <ele>230.37</ele>
        <time>2013-11-11T08:58:40Z</time>
      </trkpt>
      <trkpt lat="45.87843" lon="4.70987">
        <ele>230.37</ele>
        <time>2013-11-11T08:58:41Z</time>
      </trkpt>
      <trkpt lat="45.87843" lon="4.70984">
        <ele>230.37</ele>
        <time>2013-11-11T08:58:42Z</time>
      </trkpt>
      <trkpt lat="45.87843" lon="4.7098">
        <ele>229.89</ele>
        <time>2013-11-11T08:58:43Z</time>
      </trkpt>
      <trkpt lat="45.87843" lon="4.70976">
        <ele>229.89</ele>
        <time>2013-11-11T08:58:44Z</time>
      </trkpt>
      <trkpt lat="45.87856" lon="4.70923">
        <ele>229.89</ele>
        <time>2013-11-11T08:58:55Z</time>
      </trkpt>
      <trkpt lat="45.87867" lon="4.70882">
        <ele>229.89</ele>
        <time>2013-11-11T08:59:02Z</time>
      </trkpt>
      <trkpt lat="45.8787" lon="4.70862">
        <ele>230.37</ele>
        <time>2013-11-11T08:59:05Z</time>
      </trkpt>
      <trkpt lat="45.87873" lon="4.70836">
        <ele>229.89</ele>
        <time>2013-11-11T08:59:09Z</time>
      </trkpt>
      <trkpt lat="45.87873" lon="4.70829">
        <ele>230.37</ele>
        <time>2013-11-11T08:59:10Z</time>
      </trkpt>
      <trkpt lat="45.87875" lon="4.70818">
        <ele>230.37</ele>
        <time>2013-11-11T08:59:12Z</time>
      </trkpt>
      <trkpt lat="45.8789" lon="4.70746">
        <ele>230.37</ele>
        <time>2013-11-11T08:59:25Z</time>
      </trkpt>
      <trkpt lat="45.87897" lon="4.70678">
        <ele>230.37</ele>
        <time>2013-11-11T08:59:37Z</time>
      </trkpt>
      <trkpt lat="45.87902" lon="4.70639">
        <ele>231.33</ele>
        <time>2013-11-11T08:59:44Z</time>
      </trkpt>
      <trkpt lat="45.87913" lon="4.70575">
        <ele>231.33</ele>
        <time>2013-11-11T08:59:54Z</time>
      </trkpt>
      <trkpt lat="45.87924" lon="4.70496">
        <ele>232.78</ele>
        <time>2013-11-11T09:00:08Z</time>
      </trkpt>
      <trkpt lat="45.87936" lon="4.70441">
        <ele>234.7</ele>
        <time>2013-11-11T09:00:19Z</time>
      </trkpt>
      <trkpt lat="45.87947" lon="4.70389">
        <ele>236.14</ele>
        <time>2013-11-11T09:00:30Z</time>
      </trkpt>
      <trkpt lat="45.87957" lon="4.70343">
        <ele>237.58</ele>
        <time>2013-11-11T09:00:41Z</time>
      </trkpt>
      <trkpt lat="45.87961" lon="4.70294">
        <ele>239.51</ele>
        <time>2013-11-11T09:00:53Z</time>
      </trkpt>
      <trkpt lat="45.8797" lon="4.70245">
        <ele>239.02</ele>
        <time>2013-11-11T09:01:03Z</time>
      </trkpt>
      <trkpt lat="45.87992" lon="4.70208">
        <ele>239.02</ele>
        <time>2013-11-11T09:01:12Z</time>
      </trkpt>
      <trkpt lat="45.88023" lon="4.70186">
        <ele>237.58</ele>
        <time>2013-11-11T09:01:21Z</time>
      </trkpt>
      <trkpt lat="45.88039" lon="4.70155">
        <ele>237.1</ele>
        <time>2013-11-11T09:01:31Z</time>
      </trkpt>
      <trkpt lat="45.88061" lon="4.70113">
        <ele>238.06</ele>
        <time>2013-11-11T09:01:42Z</time>
      </trkpt>
      <trkpt lat="45.88075" lon="4.7009">
        <ele>239.99</ele>
        <time>2013-11-11T09:01:50Z</time>
      </trkpt>
      <trkpt lat="45.88089" lon="4.7005">
        <ele>242.87</ele>
        <time>2013-11-11T09:02:04Z</time>
      </trkpt>
      <trkpt lat="45.88096" lon="4.70022">
        <ele>244.79</ele>
        <time>2013-11-11T09:02:13Z</time>
      </trkpt>
      <trkpt lat="45.88104" lon="4.69989">
        <ele>246.72</ele>
        <time>2013-11-11T09:02:24Z</time>
      </trkpt>
      <trkpt lat="45.88106" lon="4.69967">
        <ele>247.68</ele>
        <time>2013-11-11T09:02:32Z</time>
      </trkpt>
      <trkpt lat="45.88107" lon="4.69934">
        <ele>249.12</ele>
        <time>2013-11-11T09:02:43Z</time>
      </trkpt>
      <trkpt lat="45.88108" lon="4.69904">
        <ele>251.04</ele>
        <time>2013-11-11T09:02:54Z</time>
      </trkpt>
      <trkpt lat="45.88109" lon="4.69877">
        <ele>252.96</ele>
        <time>2013-11-11T09:03:04Z</time>
      </trkpt>
      <trkpt lat="45.88114" lon="4.6985">
        <ele>254.41</ele>
        <time>2013-11-11T09:03:15Z</time>
      </trkpt>
      <trkpt lat="45.88118" lon="4.6984">
        <ele>255.37</ele>
        <time>2013-11-11T09:03:24Z</time>
      </trkpt>
      <trkpt lat="45.88118" lon="4.69839">
        <ele>255.85</ele>
        <time>2013-11-11T09:03:37Z</time>
      </trkpt>
      <trkpt lat="45.88118" lon="4.69839">
        <ele>255.37</ele>
        <time>2013-11-11T09:03:53Z</time>
      </trkpt>
      <trkpt lat="45.88119" lon="4.69839">
        <ele>255.85</ele>
        <time>2013-11-11T09:04:23Z</time>
      </trkpt>
      <trkpt lat="45.88119" lon="4.69839">
        <ele>255.37</ele>
        <time>2013-11-11T09:04:55Z</time>
      </trkpt>
      <trkpt lat="45.88119" lon="4.69838">
        <ele>255.85</ele>
        <time>2013-11-11T09:05:24Z</time>
      </trkpt>
      <trkpt lat="45.8812" lon="4.69838">
        <ele>255.85</ele>
        <time>2013-11-11T09:05:57Z</time>
      </trkpt>
      <trkpt lat="45.8812" lon="4.69838">
        <ele>255.85</ele>
        <time>2013-11-11T09:06:25Z</time>
      </trkpt>
      <trkpt lat="45.8812" lon="4.6984">
        <ele>255.37</ele>
        <time>2013-11-11T09:06:45Z</time>
      </trkpt>
      <trkpt lat="45.8812" lon="4.6984">
        <ele>255.85</ele>
        <time>2013-11-11T09:06:58Z</time>
      </trkpt>
      <trkpt lat="45.88121" lon="4.69842">
        <ele>255.37</ele>
        <time>2013-11-11T09:07:07Z</time>
      </trkpt>
      <trkpt lat="45.88122" lon="4.69843">
        <ele>255.37</ele>
        <time>2013-11-11T09:07:08Z</time>
      </trkpt>
      <trkpt lat="45.88139" lon="4.69847">
        <ele>254.89</ele>
        <time>2013-11-11T09:07:16Z</time>
      </trkpt>
      <trkpt lat="45.88167" lon="4.69846">
        <ele>255.85</ele>
        <time>2013-11-11T09:07:26Z</time>
      </trkpt>
      <trkpt lat="45.88191" lon="4.69828">
        <ele>256.33</ele>
        <time>2013-11-11T09:07:36Z</time>
      </trkpt>
      <trkpt lat="45.8822" lon="4.69803">
        <ele>257.29</ele>
        <time>2013-11-11T09:07:48Z</time>
      </trkpt>
      <trkpt lat="45.88257" lon="4.69784">
        <ele>258.25</ele>
        <time>2013-11-11T09:08:00Z</time>
      </trkpt>
      <trkpt lat="45.88281" lon="4.69776">
        <ele>257.29</ele>
        <time>2013-11-11T09:08:09Z</time>
      </trkpt>
      <trkpt lat="45.88313" lon="4.69766">
        <ele>257.77</ele>
        <time>2013-11-11T09:08:19Z</time>
      </trkpt>
      <trkpt lat="45.88343" lon="4.69755">
        <ele>258.73</ele>
        <time>2013-11-11T09:08:28Z</time>
      </trkpt>
      <trkpt lat="45.88377" lon="4.6974">
        <ele>258.25</ele>
        <time>2013-11-11T09:08:39Z</time>
      </trkpt>
      <trkpt lat="45.88411" lon="4.69718">
        <ele>260.17</ele>
        <time>2013-11-11T09:08:50Z</time>
      </trkpt>
      <trkpt lat="45.88449" lon="4.69706">
        <ele>261.62</ele>
        <time>2013-11-11T09:09:02Z</time>
      </trkpt>
      <trkpt lat="45.88484" lon="4.69695">
        <ele>261.62</ele>
        <time>2013-11-11T09:09:13Z</time>
      </trkpt>
      <trkpt lat="45.88513" lon="4.69679">
        <ele>262.1</ele>
        <time>2013-11-11T09:09:23Z</time>
      </trkpt>
      <trkpt lat="45.88549" lon="4.69651">
        <ele>263.06</ele>
        <time>2013-11-11T09:09:36Z</time>
      </trkpt>
      <trkpt lat="45.88568" lon="4.69625">
        <ele>264.02</ele>
        <time>2013-11-11T09:09:45Z</time>
      </trkpt>
      <trkpt lat="45.88589" lon="4.69583">
        <ele>265.46</ele>
        <time>2013-11-11T09:09:58Z</time>
      </trkpt>
      <trkpt lat="45.88614" lon="4.69566">
        <ele>266.42</ele>
        <time>2013-11-11T09:10:07Z</time>
      </trkpt>
      <trkpt lat="45.88646" lon="4.69538">
        <ele>267.38</ele>
        <time>2013-11-11T09:10:20Z</time>
      </trkpt>
      <trkpt lat="45.88669" lon="4.69518">
        <ele>268.83</ele>
        <time>2013-11-11T09:10:30Z</time>
      </trkpt>
      <trkpt lat="45.88687" lon="4.69512">
        <ele>270.27</ele>
        <time>2013-11-11T09:10:37Z</time>
      </trkpt>
      <trkpt lat="45.88719" lon="4.69502">
        <ele>271.71</ele>
        <time>2013-11-11T09:10:49Z</time>
      </trkpt>
      <trkpt lat="45.88742" lon="4.69489">
        <ele>272.67</ele>
        <time>2013-11-11T09:10:58Z</time>
      </trkpt>
      <trkpt lat="45.88764" lon="4.69482">
        <ele>274.11</ele>
        <time>2013-11-11T09:11:07Z</time>
      </trkpt>
      <trkpt lat="45.88776" lon="4.69475">
        <ele>275.07</ele>
        <time>2013-11-11T09:11:12Z</time>
      </trkpt>
      <trkpt lat="45.88779" lon="4.69473">
        <ele>274.59</ele>
        <time>2013-11-11T09:11:13Z</time>
      </trkpt>
      <trkpt lat="45.8878" lon="4.69471">
        <ele>274.59</ele>
        <time>2013-11-11T09:11:14Z</time>
      </trkpt>
      <trkpt lat="45.88782" lon="4.69467">
        <ele>274.59</ele>
        <time>2013-11-11T09:11:15Z</time>
      </trkpt>
      <trkpt lat="45.88783" lon="4.69464">
        <ele>275.56</ele>
        <time>2013-11-11T09:11:16Z</time>
      </trkpt>
      <trkpt lat="45.88784" lon="4.6946">
        <ele>275.07</ele>
        <time>2013-11-11T09:11:17Z</time>
      </trkpt>
      <trkpt lat="45.88789" lon="4.6942">
        <ele>276.52</ele>
        <time>2013-11-11T09:11:28Z</time>
      </trkpt>
      <trkpt lat="45.88794" lon="4.69388">
        <ele>278.44</ele>
        <time>2013-11-11T09:11:38Z</time>
      </trkpt>
      <trkpt lat="45.88802" lon="4.69344">
        <ele>279.4</ele>
        <time>2013-11-11T09:11:51Z</time>
      </trkpt>
      <trkpt lat="45.88803" lon="4.69311">
        <ele>280.36</ele>
        <time>2013-11-11T09:12:02Z</time>
      </trkpt>
      <trkpt lat="45.88802" lon="4.6931">
        <ele>280.36</ele>
        <time>2013-11-11T09:12:03Z</time>
      </trkpt>
      <trkpt lat="45.888" lon="4.69308">
        <ele>279.88</ele>
        <time>2013-11-11T09:12:05Z</time>
      </trkpt>
      <trkpt lat="45.88799" lon="4.69308">
        <ele>279.88</ele>
        <time>2013-11-11T09:12:06Z</time>
      </trkpt>
      <trkpt lat="45.88798" lon="4.69308">
        <ele>280.36</ele>
        <time>2013-11-11T09:12:17Z</time>
      </trkpt>
      <trkpt lat="45.88798" lon="4.69308">
        <ele>279.88</ele>
        <time>2013-11-11T09:12:34Z</time>
      </trkpt>
      <trkpt lat="45.88797" lon="4.69308">
        <ele>279.88</ele>
        <time>2013-11-11T09:12:57Z</time>
      </trkpt>
      <trkpt lat="45.88797" lon="4.69308">
        <ele>279.88</ele>
        <time>2013-11-11T09:13:18Z</time>
      </trkpt>
      <trkpt lat="45.88797" lon="4.69308">
        <ele>279.88</ele>
        <time>2013-11-11T09:13:25Z</time>
      </trkpt>
      <trkpt lat="45.88796" lon="4.69308">
        <ele>279.88</ele>
        <time>2013-11-11T09:13:26Z</time>
      </trkpt>
      <trkpt lat="45.88794" lon="4.69308">
        <ele>279.88</ele>
        <time>2013-11-11T09:13:27Z</time>
      </trkpt>
      <trkpt lat="45.88792" lon="4.69307">
        <ele>279.88</ele>
        <time>2013-11-11T09:13:28Z</time>
      </trkpt>
      <trkpt lat="45.88789" lon="4.69308">
        <ele>279.88</ele>
        <time>2013-11-11T09:13:29Z</time>
      </trkpt>
      <trkpt lat="45.88758" lon="4.69305">
        <ele>277.96</ele>
        <time>2013-11-11T09:13:38Z</time>
      </trkpt>
      <trkpt lat="45.88754" lon="4.69304">
        <ele>277.96</ele>
        <time>2013-11-11T09:13:39Z</time>
      </trkpt>
      <trkpt lat="45.8875" lon="4.69302">
        <ele>277.96</ele>
        <time>2013-11-11T09:13:40Z</time>
      </trkpt>
      <trkpt lat="45.88737" lon="4.69296">
        <ele>277.48</ele>
        <time>2013-11-11T09:13:43Z</time>
      </trkpt>
      <trkpt lat="45.88732" lon="4.69292">
        <ele>277.96</ele>
        <time>2013-11-11T09:13:44Z</time>
      </trkpt>
      <trkpt lat="45.88728" lon="4.69288">
        <ele>277.48</ele>
        <time>2013-11-11T09:13:45Z</time>
      </trkpt>
      <trkpt lat="45.88725" lon="4.69282">
        <ele>277.48</ele>
        <time>2013-11-11T09:13:46Z</time>
      </trkpt>
      <trkpt lat="45.88722" lon="4.69277">
        <ele>277.48</ele>
        <time>2013-11-11T09:13:47Z</time>
      </trkpt>
      <trkpt lat="45.88696" lon="4.69228">
        <ele>277.96</ele>
        <time>2013-11-11T09:13:58Z</time>
      </trkpt>
      <trkpt lat="45.88669" lon="4.69205">
        <ele>279.4</ele>
        <time>2013-11-11T09:14:07Z</time>
      </trkpt>
      <trkpt lat="45.88658" lon="4.69198">
        <ele>279.88</ele>
        <time>2013-11-11T09:14:11Z</time>
      </trkpt>
      <trkpt lat="45.88657" lon="4.69194">
        <ele>279.88</ele>
        <time>2013-11-11T09:14:12Z</time>
      </trkpt>
      <trkpt lat="45.88656" lon="4.69189">
        <ele>279.4</ele>
        <time>2013-11-11T09:14:13Z</time>
      </trkpt>
      <trkpt lat="45.88655" lon="4.69185">
        <ele>280.36</ele>
        <time>2013-11-11T09:14:14Z</time>
      </trkpt>
      <trkpt lat="45.88655" lon="4.6918">
        <ele>280.36</ele>
        <time>2013-11-11T09:14:15Z</time>
      </trkpt>
      <trkpt lat="45.88655" lon="4.69176">
        <ele>280.36</ele>
        <time>2013-11-11T09:14:16Z</time>
      </trkpt>
      <trkpt lat="45.88654" lon="4.69172">
        <ele>280.36</ele>
        <time>2013-11-11T09:14:17Z</time>
      </trkpt>
      <trkpt lat="45.88653" lon="4.69167">
        <ele>280.84</ele>
        <time>2013-11-11T09:14:18Z</time>
      </trkpt>
      <trkpt lat="45.88653" lon="4.69163">
        <ele>281.32</ele>
        <time>2013-11-11T09:14:19Z</time>
      </trkpt>
      <trkpt lat="45.8864" lon="4.69109">
        <ele>282.77</ele>
        <time>2013-11-11T09:14:32Z</time>
      </trkpt>
      <trkpt lat="45.88614" lon="4.69069">
        <ele>283.25</ele>
        <time>2013-11-11T09:14:46Z</time>
      </trkpt>
      <trkpt lat="45.88591" lon="4.6903">
        <ele>284.69</ele>
        <time>2013-11-11T09:14:59Z</time>
      </trkpt>
      <trkpt lat="45.8857" lon="4.69">
        <ele>287.09</ele>
        <time>2013-11-11T09:15:11Z</time>
      </trkpt>
      <trkpt lat="45.88551" lon="4.68972">
        <ele>289.97</ele>
        <time>2013-11-11T09:15:24Z</time>
      </trkpt>
      <trkpt lat="45.88529" lon="4.68946">
        <ele>292.38</ele>
        <time>2013-11-11T09:15:37Z</time>
      </trkpt>
      <trkpt lat="45.88516" lon="4.68924">
        <ele>293.82</ele>
        <time>2013-11-11T09:15:47Z</time>
      </trkpt>
      <trkpt lat="45.88506" lon="4.68903">
        <ele>295.74</ele>
        <time>2013-11-11T09:15:57Z</time>
      </trkpt>
      <trkpt lat="45.88494" lon="4.68875">
        <ele>298.15</ele>
        <time>2013-11-11T09:16:10Z</time>
      </trkpt>
      <trkpt lat="45.8848" lon="4.68845">
        <ele>301.03</ele>
        <time>2013-11-11T09:16:23Z</time>
      </trkpt>
      <trkpt lat="45.88467" lon="4.68814">
        <ele>303.43</ele>
        <time>2013-11-11T09:16:36Z</time>
      </trkpt>
      <trkpt lat="45.88459" lon="4.68788">
        <ele>305.84</ele>
        <time>2013-11-11T09:16:47Z</time>
      </trkpt>
      <trkpt lat="45.88452" lon="4.68766">
        <ele>307.76</ele>
        <time>2013-11-11T09:16:57Z</time>
      </trkpt>
      <trkpt lat="45.88434" lon="4.68764">
        <ele>308.24</ele>
        <time>2013-11-11T09:17:07Z</time>
      </trkpt>
      <trkpt lat="45.88411" lon="4.6878">
        <ele>308.24</ele>
        <time>2013-11-11T09:17:15Z</time>
      </trkpt>
      <trkpt lat="45.88407" lon="4.68785">
        <ele>307.76</ele>
        <time>2013-11-11T09:17:16Z</time>
      </trkpt>
      <trkpt lat="45.88404" lon="4.68788">
        <ele>308.24</ele>
        <time>2013-11-11T09:17:17Z</time>
      </trkpt>
      <trkpt lat="45.884" lon="4.6879">
        <ele>307.76</ele>
        <time>2013-11-11T09:17:18Z</time>
      </trkpt>
      <trkpt lat="45.88397" lon="4.68789">
        <ele>307.76</ele>
        <time>2013-11-11T09:17:19Z</time>
      </trkpt>
      <trkpt lat="45.88394" lon="4.68786">
        <ele>307.76</ele>
        <time>2013-11-11T09:17:20Z</time>
      </trkpt>
      <trkpt lat="45.88393" lon="4.68782">
        <ele>308.24</ele>
        <time>2013-11-11T09:17:21Z</time>
      </trkpt>
      <trkpt lat="45.88393" lon="4.68778">
        <ele>308.72</ele>
        <time>2013-11-11T09:17:22Z</time>
      </trkpt>
      <trkpt lat="45.88394" lon="4.68774">
        <ele>308.72</ele>
        <time>2013-11-11T09:17:23Z</time>
      </trkpt>
      <trkpt lat="45.88395" lon="4.68746">
        <ele>310.64</ele>
        <time>2013-11-11T09:17:32Z</time>
      </trkpt>
      <trkpt lat="45.88384" lon="4.68727">
        <ele>312.57</ele>
        <time>2013-11-11T09:17:40Z</time>
      </trkpt>
      <trkpt lat="45.88363" lon="4.68705">
        <ele>314.49</ele>
        <time>2013-11-11T09:17:52Z</time>
      </trkpt>
      <trkpt lat="45.88345" lon="4.68686">
        <ele>315.93</ele>
        <time>2013-11-11T09:18:03Z</time>
      </trkpt>
      <trkpt lat="45.88325" lon="4.68666">
        <ele>318.33</ele>
        <time>2013-11-11T09:18:16Z</time>
      </trkpt>
      <trkpt lat="45.88305" lon="4.68648">
        <ele>320.26</ele>
        <time>2013-11-11T09:18:30Z</time>
      </trkpt>
      <trkpt lat="45.88291" lon="4.68636">
        <ele>323.62</ele>
        <time>2013-11-11T09:18:40Z</time>
      </trkpt>
      <trkpt lat="45.88276" lon="4.68624">
        <ele>324.58</ele>
        <time>2013-11-11T09:18:50Z</time>
      </trkpt>
      <trkpt lat="45.88265" lon="4.68616">
        <ele>326.99</ele>
        <time>2013-11-11T09:19:00Z</time>
      </trkpt>
      <trkpt lat="45.88254" lon="4.68611">
        <ele>328.43</ele>
        <time>2013-11-11T09:19:08Z</time>
      </trkpt>
      <trkpt lat="45.88238" lon="4.68604">
        <ele>330.83</ele>
        <time>2013-11-11T09:19:19Z</time>
      </trkpt>
      <trkpt lat="45.88223" lon="4.68598">
        <ele>332.27</ele>
        <time>2013-11-11T09:19:29Z</time>
      </trkpt>
      <trkpt lat="45.88205" lon="4.68591">
        <ele>333.71</ele>
        <time>2013-11-11T09:19:41Z</time>
      </trkpt>
      <trkpt lat="45.88185" lon="4.68585">
        <ele>334.68</ele>
        <time>2013-11-11T09:19:53Z</time>
      </trkpt>
      <trkpt lat="45.88166" lon="4.68577">
        <ele>336.12</ele>
        <time>2013-11-11T09:20:05Z</time>
      </trkpt>
      <trkpt lat="45.88146" lon="4.68571">
        <ele>336.6</ele>
        <time>2013-11-11T09:20:17Z</time>
      </trkpt>
      <trkpt lat="45.88128" lon="4.68566">
        <ele>337.56</ele>
        <time>2013-11-11T09:20:28Z</time>
      </trkpt>
      <trkpt lat="45.8811" lon="4.68559">
        <ele>339</ele>
        <time>2013-11-11T09:20:38Z</time>
      </trkpt>
      <trkpt lat="45.88103" lon="4.68556">
        <ele>340.44</ele>
        <time>2013-11-11T09:20:43Z</time>
      </trkpt>
      <trkpt lat="45.88101" lon="4.68556">
        <ele>339.96</ele>
        <time>2013-11-11T09:20:44Z</time>
      </trkpt>
      <trkpt lat="45.881" lon="4.68555">
        <ele>340.92</ele>
        <time>2013-11-11T09:20:45Z</time>
      </trkpt>
      <trkpt lat="45.88095" lon="4.68553">
        <ele>341.41</ele>
        <time>2013-11-11T09:20:48Z</time>
      </trkpt>
      <trkpt lat="45.88093" lon="4.68553">
        <ele>341.41</ele>
        <time>2013-11-11T09:20:49Z</time>
      </trkpt>
      <trkpt lat="45.88077" lon="4.68547">
        <ele>343.33</ele>
        <time>2013-11-11T09:21:00Z</time>
      </trkpt>
      <trkpt lat="45.88062" lon="4.68543">
        <ele>344.77</ele>
        <time>2013-11-11T09:21:11Z</time>
      </trkpt>
      <trkpt lat="45.88048" lon="4.6854">
        <ele>346.69</ele>
        <time>2013-11-11T09:21:21Z</time>
      </trkpt>
      <trkpt lat="45.8803" lon="4.68537">
        <ele>348.13</ele>
        <time>2013-11-11T09:21:33Z</time>
      </trkpt>
      <trkpt lat="45.88011" lon="4.68533">
        <ele>349.1</ele>
        <time>2013-11-11T09:21:44Z</time>
      </trkpt>
      <trkpt lat="45.87989" lon="4.68532">
        <ele>350.54</ele>
        <time>2013-11-11T09:21:55Z</time>
      </trkpt>
      <trkpt lat="45.87961" lon="4.68532">
        <ele>350.54</ele>
        <time>2013-11-11T09:22:09Z</time>
      </trkpt>
      <trkpt lat="45.87925" lon="4.68536">
        <ele>350.54</ele>
        <time>2013-11-11T09:22:22Z</time>
      </trkpt>
      <trkpt lat="45.87896" lon="4.68533">
        <ele>352.46</ele>
        <time>2013-11-11T09:22:33Z</time>
      </trkpt>
      <trkpt lat="45.87876" lon="4.68524">
        <ele>353.9</ele>
        <time>2013-11-11T09:22:43Z</time>
      </trkpt>
      <trkpt lat="45.87853" lon="4.68515">
        <ele>355.34</ele>
        <time>2013-11-11T09:22:57Z</time>
      </trkpt>
      <trkpt lat="45.87829" lon="4.68505">
        <ele>357.27</ele>
        <time>2013-11-11T09:23:11Z</time>
      </trkpt>
      <trkpt lat="45.87805" lon="4.68493">
        <ele>357.75</ele>
        <time>2013-11-11T09:23:23Z</time>
      </trkpt>
      <trkpt lat="45.87776" lon="4.68477">
        <ele>359.19</ele>
        <time>2013-11-11T09:23:37Z</time>
      </trkpt>
      <trkpt lat="45.87757" lon="4.68465">
        <ele>361.59</ele>
        <time>2013-11-11T09:23:48Z</time>
      </trkpt>
      <trkpt lat="45.87749" lon="4.68461">
        <ele>362.55</ele>
        <time>2013-11-11T09:23:53Z</time>
      </trkpt>
      <trkpt lat="45.87747" lon="4.6846">
        <ele>362.07</ele>
        <time>2013-11-11T09:23:54Z</time>
      </trkpt>
      <trkpt lat="45.87745" lon="4.68459">
        <ele>362.55</ele>
        <time>2013-11-11T09:23:55Z</time>
      </trkpt>
      <trkpt lat="45.87743" lon="4.68458">
        <ele>362.55</ele>
        <time>2013-11-11T09:23:56Z</time>
      </trkpt>
      <trkpt lat="45.87742" lon="4.68457">
        <ele>362.55</ele>
        <time>2013-11-11T09:23:57Z</time>
      </trkpt>
      <trkpt lat="45.87721" lon="4.68445">
        <ele>364.48</ele>
        <time>2013-11-11T09:24:09Z</time>
      </trkpt>
      <trkpt lat="45.87701" lon="4.68433">
        <ele>366.4</ele>
        <time>2013-11-11T09:24:21Z</time>
      </trkpt>
      <trkpt lat="45.8768" lon="4.68424">
        <ele>368.32</ele>
        <time>2013-11-11T09:24:33Z</time>
      </trkpt>
      <trkpt lat="45.87672" lon="4.68419">
        <ele>369.28</ele>
        <time>2013-11-11T09:24:38Z</time>
      </trkpt>
      <trkpt lat="45.8767" lon="4.68418">
        <ele>369.28</ele>
        <time>2013-11-11T09:24:39Z</time>
      </trkpt>
      <trkpt lat="45.87669" lon="4.68417">
        <ele>369.28</ele>
        <time>2013-11-11T09:24:40Z</time>
      </trkpt>
      <trkpt lat="45.87667" lon="4.68416">
        <ele>369.76</ele>
        <time>2013-11-11T09:24:41Z</time>
      </trkpt>
      <trkpt lat="45.87666" lon="4.68416">
        <ele>370.24</ele>
        <time>2013-11-11T09:24:42Z</time>
      </trkpt>
      <trkpt lat="45.87648" lon="4.68407">
        <ele>372.65</ele>
        <time>2013-11-11T09:24:53Z</time>
      </trkpt>
      <trkpt lat="45.87632" lon="4.684">
        <ele>374.09</ele>
        <time>2013-11-11T09:25:03Z</time>
      </trkpt>
      <trkpt lat="45.87615" lon="4.68396">
        <ele>374.57</ele>
        <time>2013-11-11T09:25:13Z</time>
      </trkpt>
      <trkpt lat="45.87607" lon="4.684">
        <ele>373.13</ele>
        <time>2013-11-11T09:25:20Z</time>
      </trkpt>
      <trkpt lat="45.87608" lon="4.68402">
        <ele>373.61</ele>
        <time>2013-11-11T09:25:22Z</time>
      </trkpt>
      <trkpt lat="45.87609" lon="4.68403">
        <ele>374.57</ele>
        <time>2013-11-11T09:25:23Z</time>
      </trkpt>
      <trkpt lat="45.87609" lon="4.68405">
        <ele>373.61</ele>
        <time>2013-11-11T09:25:30Z</time>
      </trkpt>
      <trkpt lat="45.87609" lon="4.68405">
        <ele>373.61</ele>
        <time>2013-11-11T09:26:03Z</time>
      </trkpt>
      <trkpt lat="45.87609" lon="4.68405">
        <ele>374.09</ele>
        <time>2013-11-11T09:26:32Z</time>
      </trkpt>
      <trkpt lat="45.87608" lon="4.68404">
        <ele>373.61</ele>
        <time>2013-11-11T09:27:04Z</time>
      </trkpt>
      <trkpt lat="45.87608" lon="4.68404">
        <ele>372.65</ele>
        <time>2013-11-11T09:27:35Z</time>
      </trkpt>
      <trkpt lat="45.87608" lon="4.68404">
        <ele>372.65</ele>
        <time>2013-11-11T09:28:07Z</time>
      </trkpt>
      <trkpt lat="45.87608" lon="4.68404">
        <ele>373.13</ele>
        <time>2013-11-11T09:28:37Z</time>
      </trkpt>
      <trkpt lat="45.87608" lon="4.68404">
        <ele>373.13</ele>
        <time>2013-11-11T09:29:05Z</time>
      </trkpt>
      <trkpt lat="45.87607" lon="4.68402">
        <ele>373.13</ele>
        <time>2013-11-11T09:29:36Z</time>
      </trkpt>
      <trkpt lat="45.87607" lon="4.68402">
        <ele>372.65</ele>
        <time>2013-11-11T09:30:04Z</time>
      </trkpt>
      <trkpt lat="45.87607" lon="4.68403">
        <ele>372.17</ele>
        <time>2013-11-11T09:30:33Z</time>
      </trkpt>
      <trkpt lat="45.87607" lon="4.68403">
        <ele>372.65</ele>
        <time>2013-11-11T09:31:06Z</time>
      </trkpt>
      <trkpt lat="45.87607" lon="4.68403">
        <ele>373.13</ele>
        <time>2013-11-11T09:31:35Z</time>
      </trkpt>
      <trkpt lat="45.87607" lon="4.68403">
        <ele>373.13</ele>
        <time>2013-11-11T09:32:06Z</time>
      </trkpt>
      <trkpt lat="45.87607" lon="4.68403">
        <ele>373.61</ele>
        <time>2013-11-11T09:32:26Z</time>
      </trkpt>
      <trkpt lat="45.87607" lon="4.68403">
        <ele>372.17</ele>
        <time>2013-11-11T09:32:57Z</time>
      </trkpt>
      <trkpt lat="45.87607" lon="4.68403">
        <ele>372.17</ele>
        <time>2013-11-11T09:33:27Z</time>
      </trkpt>
      <trkpt lat="45.87607" lon="4.68403">
        <ele>371.21</ele>
        <time>2013-11-11T09:33:59Z</time>
      </trkpt>
      <trkpt lat="45.87607" lon="4.68403">
        <ele>372.17</ele>
        <time>2013-11-11T09:34:33Z</time>
      </trkpt>
      <trkpt lat="45.87607" lon="4.68403">
        <ele>372.17</ele>
        <time>2013-11-11T09:35:00Z</time>
      </trkpt>
      <trkpt lat="45.87607" lon="4.68403">
        <ele>371.69</ele>
        <time>2013-11-11T09:35:32Z</time>
      </trkpt>
      <trkpt lat="45.87607" lon="4.68403">
        <ele>371.69</ele>
        <time>2013-11-11T09:36:02Z</time>
      </trkpt>
      <trkpt lat="45.87606" lon="4.68403">
        <ele>371.69</ele>
        <time>2013-11-11T09:36:36Z</time>
      </trkpt>
      <trkpt lat="45.87606" lon="4.68403">
        <ele>371.69</ele>
        <time>2013-11-11T09:36:52Z</time>
      </trkpt>
      <trkpt lat="45.87606" lon="4.68401">
        <ele>371.21</ele>
        <time>2013-11-11T09:37:00Z</time>
      </trkpt>
      <trkpt lat="45.87609" lon="4.68401">
        <ele>372.17</ele>
        <time>2013-11-11T09:37:06Z</time>
      </trkpt>
      <trkpt lat="45.8761" lon="4.684">
        <ele>372.17</ele>
        <time>2013-11-11T09:37:07Z</time>
      </trkpt>
      <trkpt lat="45.87612" lon="4.68399">
        <ele>372.17</ele>
        <time>2013-11-11T09:37:08Z</time>
      </trkpt>
      <trkpt lat="45.87613" lon="4.68397">
        <ele>372.17</ele>
        <time>2013-11-11T09:37:09Z</time>
      </trkpt>
      <trkpt lat="45.87614" lon="4.68395">
        <ele>372.65</ele>
        <time>2013-11-11T09:37:10Z</time>
      </trkpt>
      <trkpt lat="45.87615" lon="4.68393">
        <ele>372.65</ele>
        <time>2013-11-11T09:37:11Z</time>
      </trkpt>
      <trkpt lat="45.87616" lon="4.68392">
        <ele>372.65</ele>
        <time>2013-11-11T09:37:12Z</time>
      </trkpt>
      <trkpt lat="45.87617" lon="4.68391">
        <ele>372.65</ele>
        <time>2013-11-11T09:37:13Z</time>
      </trkpt>
      <trkpt lat="45.87636" lon="4.68385">
        <ele>375.05</ele>
        <time>2013-11-11T09:37:24Z</time>
      </trkpt>
      <trkpt lat="45.87664" lon="4.68381">
        <ele>375.53</ele>
        <time>2013-11-11T09:37:33Z</time>
      </trkpt>
      <trkpt lat="45.87691" lon="4.68375">
        <ele>375.53</ele>
        <time>2013-11-11T09:37:43Z</time>
      </trkpt>
      <trkpt lat="45.87721" lon="4.6837">
        <ele>375.05</ele>
        <time>2013-11-11T09:37:55Z</time>
      </trkpt>
      <trkpt lat="45.87747" lon="4.68361">
        <ele>376.49</ele>
        <time>2013-11-11T09:38:05Z</time>
      </trkpt>
      <trkpt lat="45.8777" lon="4.68344">
        <ele>378.42</ele>
        <time>2013-11-11T09:38:16Z</time>
      </trkpt>
      <trkpt lat="45.8779" lon="4.68336">
        <ele>381.78</ele>
        <time>2013-11-11T09:38:24Z</time>
      </trkpt>
      <trkpt lat="45.87792" lon="4.68335">
        <ele>381.78</ele>
        <time>2013-11-11T09:38:25Z</time>
      </trkpt>
      <trkpt lat="45.87811" lon="4.68325">
        <ele>382.26</ele>
        <time>2013-11-11T09:38:35Z</time>
      </trkpt>
      <trkpt lat="45.8783" lon="4.68315">
        <ele>383.7</ele>
        <time>2013-11-11T09:38:46Z</time>
      </trkpt>
      <trkpt lat="45.87847" lon="4.68304">
        <ele>384.18</ele>
        <time>2013-11-11T09:38:55Z</time>
      </trkpt>
      <trkpt lat="45.87874" lon="4.68291">
        <ele>385.15</ele>
        <time>2013-11-11T09:39:06Z</time>
      </trkpt>
      <trkpt lat="45.87904" lon="4.6828">
        <ele>386.11</ele>
        <time>2013-11-11T09:39:17Z</time>
      </trkpt>
      <trkpt lat="45.87922" lon="4.6826">
        <ele>384.66</ele>
        <time>2013-11-11T09:39:25Z</time>
      </trkpt>
      <trkpt lat="45.87926" lon="4.68256">
        <ele>385.63</ele>
        <time>2013-11-11T09:39:28Z</time>
      </trkpt>
      <trkpt lat="45.87927" lon="4.68254">
        <ele>385.63</ele>
        <time>2013-11-11T09:39:29Z</time>
      </trkpt>
      <trkpt lat="45.87929" lon="4.68252">
        <ele>385.15</ele>
        <time>2013-11-11T09:39:30Z</time>
      </trkpt>
      <trkpt lat="45.87931" lon="4.68251">
        <ele>385.63</ele>
        <time>2013-11-11T09:39:31Z</time>
      </trkpt>
      <trkpt lat="45.87934" lon="4.6825">
        <ele>385.15</ele>
        <time>2013-11-11T09:39:32Z</time>
      </trkpt>
      <trkpt lat="45.87937" lon="4.68249">
        <ele>385.15</ele>
        <time>2013-11-11T09:39:33Z</time>
      </trkpt>
      <trkpt lat="45.87939" lon="4.68249">
        <ele>385.63</ele>
        <time>2013-11-11T09:39:34Z</time>
      </trkpt>
      <trkpt lat="45.87941" lon="4.68249">
        <ele>385.15</ele>
        <time>2013-11-11T09:39:35Z</time>
      </trkpt>
      <trkpt lat="45.87943" lon="4.68247">
        <ele>385.15</ele>
        <time>2013-11-11T09:39:36Z</time>
      </trkpt>
      <trkpt lat="45.87944" lon="4.68244">
        <ele>385.15</ele>
        <time>2013-11-11T09:39:37Z</time>
      </trkpt>
      <trkpt lat="45.87948" lon="4.6822">
        <ele>386.11</ele>
        <time>2013-11-11T09:39:46Z</time>
      </trkpt>
      <trkpt lat="45.87946" lon="4.68192">
        <ele>385.15</ele>
        <time>2013-11-11T09:39:56Z</time>
      </trkpt>
      <trkpt lat="45.87949" lon="4.68166">
        <ele>383.22</ele>
        <time>2013-11-11T09:40:01Z</time>
      </trkpt>
      <trkpt lat="45.87953" lon="4.68116">
        <ele>380.34</ele>
        <time>2013-11-11T09:40:07Z</time>
      </trkpt>
      <trkpt lat="45.87954" lon="4.68107">
        <ele>380.34</ele>
        <time>2013-11-11T09:40:08Z</time>
      </trkpt>
      <trkpt lat="45.87958" lon="4.68066">
        <ele>375.53</ele>
        <time>2013-11-11T09:40:12Z</time>
      </trkpt>
      <trkpt lat="45.87959" lon="4.68055">
        <ele>375.53</ele>
        <time>2013-11-11T09:40:13Z</time>
      </trkpt>
      <trkpt lat="45.87964" lon="4.6801">
        <ele>372.17</ele>
        <time>2013-11-11T09:40:17Z</time>
      </trkpt>
      <trkpt lat="45.87968" lon="4.67966">
        <ele>368.8</ele>
        <time>2013-11-11T09:40:21Z</time>
      </trkpt>
      <trkpt lat="45.87969" lon="4.67955">
        <ele>368.32</ele>
        <time>2013-11-11T09:40:22Z</time>
      </trkpt>
      <trkpt lat="45.87974" lon="4.67882">
        <ele>368.32</ele>
        <time>2013-11-11T09:40:31Z</time>
      </trkpt>
      <trkpt lat="45.87976" lon="4.67854">
        <ele>370.24</ele>
        <time>2013-11-11T09:40:35Z</time>
      </trkpt>
      <trkpt lat="45.87974" lon="4.67828">
        <ele>372.17</ele>
        <time>2013-11-11T09:40:41Z</time>
      </trkpt>
      <trkpt lat="45.87972" lon="4.67828">
        <ele>373.61</ele>
        <time>2013-11-11T09:40:42Z</time>
      </trkpt>
      <trkpt lat="45.87969" lon="4.67828">
        <ele>372.65</ele>
        <time>2013-11-11T09:40:43Z</time>
      </trkpt>
      <trkpt lat="45.87967" lon="4.67828">
        <ele>372.65</ele>
        <time>2013-11-11T09:40:44Z</time>
      </trkpt>
      <trkpt lat="45.87964" lon="4.67827">
        <ele>372.65</ele>
        <time>2013-11-11T09:40:45Z</time>
      </trkpt>
      <trkpt lat="45.87962" lon="4.67826">
        <ele>372.17</ele>
        <time>2013-11-11T09:40:46Z</time>
      </trkpt>
      <trkpt lat="45.87959" lon="4.67825">
        <ele>372.65</ele>
        <time>2013-11-11T09:40:47Z</time>
      </trkpt>
      <trkpt lat="45.87938" lon="4.67811">
        <ele>372.17</ele>
        <time>2013-11-11T09:40:55Z</time>
      </trkpt>
      <trkpt lat="45.87937" lon="4.67807">
        <ele>372.17</ele>
        <time>2013-11-11T09:40:56Z</time>
      </trkpt>
      <trkpt lat="45.87936" lon="4.67803">
        <ele>372.65</ele>
        <time>2013-11-11T09:40:57Z</time>
      </trkpt>
      <trkpt lat="45.87936" lon="4.678">
        <ele>373.13</ele>
        <time>2013-11-11T09:40:58Z</time>
      </trkpt>
      <trkpt lat="45.87936" lon="4.67797">
        <ele>373.61</ele>
        <time>2013-11-11T09:40:59Z</time>
      </trkpt>
      <trkpt lat="45.87935" lon="4.67794">
        <ele>373.61</ele>
        <time>2013-11-11T09:41:00Z</time>
      </trkpt>
      <trkpt lat="45.87935" lon="4.67792">
        <ele>374.09</ele>
        <time>2013-11-11T09:41:01Z</time>
      </trkpt>
      <trkpt lat="45.87935" lon="4.6779">
        <ele>374.57</ele>
        <time>2013-11-11T09:41:02Z</time>
      </trkpt>
      <trkpt lat="45.87935" lon="4.67788">
        <ele>374.09</ele>
        <time>2013-11-11T09:41:03Z</time>
      </trkpt>
      <trkpt lat="45.87936" lon="4.67785">
        <ele>375.05</ele>
        <time>2013-11-11T09:41:04Z</time>
      </trkpt>
      <trkpt lat="45.87937" lon="4.67783">
        <ele>375.53</ele>
        <time>2013-11-11T09:41:05Z</time>
      </trkpt>
      <trkpt lat="45.87938" lon="4.67781">
        <ele>375.05</ele>
        <time>2013-11-11T09:41:06Z</time>
      </trkpt>
      <trkpt lat="45.8794" lon="4.6777">
        <ele>376.97</ele>
        <time>2013-11-11T09:41:14Z</time>
      </trkpt>
      <trkpt lat="45.8794" lon="4.6777">
        <ele>376.97</ele>
        <time>2013-11-11T09:41:26Z</time>
      </trkpt>
      <trkpt lat="45.8794" lon="4.6777">
        <ele>376.49</ele>
        <time>2013-11-11T09:41:32Z</time>
      </trkpt>
      <trkpt lat="45.87941" lon="4.67784">
        <ele>375.05</ele>
        <time>2013-11-11T09:41:41Z</time>
      </trkpt>
      <trkpt lat="45.87939" lon="4.67787">
        <ele>375.53</ele>
        <time>2013-11-11T09:41:51Z</time>
      </trkpt>
      <trkpt lat="45.87939" lon="4.67787">
        <ele>376.01</ele>
        <time>2013-11-11T09:42:23Z</time>
      </trkpt>
      <trkpt lat="45.87938" lon="4.67787">
        <ele>376.01</ele>
        <time>2013-11-11T09:42:57Z</time>
      </trkpt>
      <trkpt lat="45.87938" lon="4.67787">
        <ele>376.01</ele>
        <time>2013-11-11T09:43:29Z</time>
      </trkpt>
      <trkpt lat="45.87938" lon="4.67788">
        <ele>375.53</ele>
        <time>2013-11-11T09:44:02Z</time>
      </trkpt>
      <trkpt lat="45.87938" lon="4.67788">
        <ele>375.53</ele>
        <time>2013-11-11T09:44:10Z</time>
      </trkpt>
      <trkpt lat="45.87938" lon="4.67786">
        <ele>376.01</ele>
        <time>2013-11-11T09:44:17Z</time>
      </trkpt>
      <trkpt lat="45.87938" lon="4.67781">
        <ele>376.01</ele>
        <time>2013-11-11T09:44:20Z</time>
      </trkpt>
      <trkpt lat="45.87941" lon="4.67772">
        <ele>376.01</ele>
        <time>2013-11-11T09:44:24Z</time>
      </trkpt>
      <trkpt lat="45.87941" lon="4.67749">
        <ele>377.45</ele>
        <time>2013-11-11T09:44:33Z</time>
      </trkpt>
      <trkpt lat="45.87927" lon="4.67743">
        <ele>378.42</ele>
        <time>2013-11-11T09:44:43Z</time>
      </trkpt>
      <trkpt lat="45.8791" lon="4.67736">
        <ele>378.42</ele>
        <time>2013-11-11T09:44:54Z</time>
      </trkpt>
      <trkpt lat="45.87891" lon="4.6773">
        <ele>379.38</ele>
        <time>2013-11-11T09:45:04Z</time>
      </trkpt>
      <trkpt lat="45.87891" lon="4.6772">
        <ele>379.38</ele>
        <time>2013-11-11T09:45:08Z</time>
      </trkpt>
      <trkpt lat="45.87897" lon="4.67697">
        <ele>378.9</ele>
        <time>2013-11-11T09:45:14Z</time>
      </trkpt>
      <trkpt lat="45.87897" lon="4.6769">
        <ele>378.42</ele>
        <time>2013-11-11T09:45:15Z</time>
      </trkpt>
      <trkpt lat="45.87897" lon="4.67683">
        <ele>378.42</ele>
        <time>2013-11-11T09:45:16Z</time>
      </trkpt>
      <trkpt lat="45.87896" lon="4.6767">
        <ele>377.45</ele>
        <time>2013-11-11T09:45:18Z</time>
      </trkpt>
      <trkpt lat="45.87897" lon="4.67663">
        <ele>378.42</ele>
        <time>2013-11-11T09:45:19Z</time>
      </trkpt>
      <trkpt lat="45.87899" lon="4.67657">
        <ele>377.45</ele>
        <time>2013-11-11T09:45:20Z</time>
      </trkpt>
      <trkpt lat="45.87902" lon="4.67652">
        <ele>377.45</ele>
        <time>2013-11-11T09:45:21Z</time>
      </trkpt>
      <trkpt lat="45.87906" lon="4.67647">
        <ele>376.97</ele>
        <time>2013-11-11T09:45:22Z</time>
      </trkpt>
      <trkpt lat="45.8791" lon="4.67643">
        <ele>377.45</ele>
        <time>2013-11-11T09:45:23Z</time>
      </trkpt>
      <trkpt lat="45.87914" lon="4.6764">
        <ele>376.49</ele>
        <time>2013-11-11T09:45:24Z</time>
      </trkpt>
      <trkpt lat="45.87918" lon="4.67634">
        <ele>375.53</ele>
        <time>2013-11-11T09:45:25Z</time>
      </trkpt>
      <trkpt lat="45.87922" lon="4.67628">
        <ele>375.05</ele>
        <time>2013-11-11T09:45:26Z</time>
      </trkpt>
      <trkpt lat="45.87924" lon="4.67621">
        <ele>374.57</ele>
        <time>2013-11-11T09:45:27Z</time>
      </trkpt>
      <trkpt lat="45.87926" lon="4.67613">
        <ele>374.57</ele>
        <time>2013-11-11T09:45:28Z</time>
      </trkpt>
      <trkpt lat="45.87927" lon="4.67606">
        <ele>375.05</ele>
        <time>2013-11-11T09:45:29Z</time>
      </trkpt>
      <trkpt lat="45.87928" lon="4.67599">
        <ele>375.05</ele>
        <time>2013-11-11T09:45:30Z</time>
      </trkpt>
      <trkpt lat="45.87929" lon="4.67593">
        <ele>374.57</ele>
        <time>2013-11-11T09:45:31Z</time>
      </trkpt>
      <trkpt lat="45.87929" lon="4.67587">
        <ele>374.57</ele>
        <time>2013-11-11T09:45:32Z</time>
      </trkpt>
      <trkpt lat="45.8794" lon="4.67555">
        <ele>375.05</ele>
        <time>2013-11-11T09:45:40Z</time>
      </trkpt>
      <trkpt lat="45.87957" lon="4.67521">
        <ele>373.61</ele>
        <time>2013-11-11T09:45:48Z</time>
      </trkpt>
      <trkpt lat="45.8796" lon="4.67516">
        <ele>373.13</ele>
        <time>2013-11-11T09:45:49Z</time>
      </trkpt>
      <trkpt lat="45.87963" lon="4.6751">
        <ele>373.13</ele>
        <time>2013-11-11T09:45:50Z</time>
      </trkpt>
      <trkpt lat="45.87987" lon="4.67462">
        <ele>369.76</ele>
        <time>2013-11-11T09:45:56Z</time>
      </trkpt>
      <trkpt lat="45.88001" lon="4.67432">
        <ele>365.92</ele>
        <time>2013-11-11T09:46:00Z</time>
      </trkpt>
      <trkpt lat="45.88012" lon="4.67411">
        <ele>361.59</ele>
        <time>2013-11-11T09:46:01Z</time>
      </trkpt>
      <trkpt lat="45.88033" lon="4.6736">
        <ele>358.23</ele>
        <time>2013-11-11T09:46:05Z</time>
      </trkpt>
      <trkpt lat="45.88039" lon="4.67348">
        <ele>358.23</ele>
        <time>2013-11-11T09:46:06Z</time>
      </trkpt>
      <trkpt lat="45.88063" lon="4.67289">
        <ele>358.23</ele>
        <time>2013-11-11T09:46:12Z</time>
      </trkpt>
      <trkpt lat="45.88066" lon="4.67281">
        <ele>358.23</ele>
        <time>2013-11-11T09:46:13Z</time>
      </trkpt>
      <trkpt lat="45.88069" lon="4.67275">
        <ele>359.19</ele>
        <time>2013-11-11T09:46:14Z</time>
      </trkpt>
      <trkpt lat="45.88071" lon="4.67269">
        <ele>359.67</ele>
        <time>2013-11-11T09:46:15Z</time>
      </trkpt>
      <trkpt lat="45.88074" lon="4.67264">
        <ele>360.63</ele>
        <time>2013-11-11T09:46:16Z</time>
      </trkpt>
      <trkpt lat="45.88075" lon="4.6726">
        <ele>359.67</ele>
        <time>2013-11-11T09:46:17Z</time>
      </trkpt>
      <trkpt lat="45.88076" lon="4.67256">
        <ele>360.63</ele>
        <time>2013-11-11T09:46:18Z</time>
      </trkpt>
      <trkpt lat="45.8808" lon="4.67235">
        <ele>364</ele>
        <time>2013-11-11T09:46:27Z</time>
      </trkpt>
      <trkpt lat="45.88082" lon="4.67225">
        <ele>364.96</ele>
        <time>2013-11-11T09:46:33Z</time>
      </trkpt>
      <trkpt lat="45.88083" lon="4.67223">
        <ele>364.96</ele>
        <time>2013-11-11T09:46:34Z</time>
      </trkpt>
      <trkpt lat="45.88088" lon="4.67206">
        <ele>367.36</ele>
        <time>2013-11-11T09:46:45Z</time>
      </trkpt>
      <trkpt lat="45.88089" lon="4.67205">
        <ele>367.36</ele>
        <time>2013-11-11T09:46:46Z</time>
      </trkpt>
      <trkpt lat="45.88089" lon="4.67203">
        <ele>367.84</ele>
        <time>2013-11-11T09:46:47Z</time>
      </trkpt>
      <trkpt lat="45.88092" lon="4.67197">
        <ele>368.32</ele>
        <time>2013-11-11T09:46:51Z</time>
      </trkpt>
      <trkpt lat="45.88095" lon="4.67186">
        <ele>370.24</ele>
        <time>2013-11-11T09:46:59Z</time>
      </trkpt>
      <trkpt lat="45.88098" lon="4.67172">
        <ele>372.65</ele>
        <time>2013-11-11T09:47:10Z</time>
      </trkpt>
      <trkpt lat="45.88098" lon="4.67169">
        <ele>373.13</ele>
        <time>2013-11-11T09:47:14Z</time>
      </trkpt>
      <trkpt lat="45.88103" lon="4.67161">
        <ele>375.05</ele>
        <time>2013-11-11T09:47:21Z</time>
      </trkpt>
      <trkpt lat="45.88105" lon="4.6716">
        <ele>375.05</ele>
        <time>2013-11-11T09:47:22Z</time>
      </trkpt>
      <trkpt lat="45.88106" lon="4.6716">
        <ele>375.53</ele>
        <time>2013-11-11T09:47:23Z</time>
      </trkpt>
      <trkpt lat="45.88107" lon="4.67158">
        <ele>375.53</ele>
        <time>2013-11-11T09:47:24Z</time>
      </trkpt>
      <trkpt lat="45.88116" lon="4.67152">
        <ele>377.45</ele>
        <time>2013-11-11T09:47:33Z</time>
      </trkpt>
      <trkpt lat="45.88118" lon="4.67152">
        <ele>377.94</ele>
        <time>2013-11-11T09:47:35Z</time>
      </trkpt>
      <trkpt lat="45.88119" lon="4.67151">
        <ele>377.45</ele>
        <time>2013-11-11T09:47:36Z</time>
      </trkpt>
      <trkpt lat="45.88121" lon="4.67151">
        <ele>377.45</ele>
        <time>2013-11-11T09:47:37Z</time>
      </trkpt>
      <trkpt lat="45.88122" lon="4.67151">
        <ele>377.94</ele>
        <time>2013-11-11T09:47:38Z</time>
      </trkpt>
      <trkpt lat="45.88123" lon="4.67151">
        <ele>377.45</ele>
        <time>2013-11-11T09:47:39Z</time>
      </trkpt>
      <trkpt lat="45.88124" lon="4.67151">
        <ele>377.94</ele>
        <time>2013-11-11T09:47:40Z</time>
      </trkpt>
      <trkpt lat="45.88125" lon="4.67151">
        <ele>377.45</ele>
        <time>2013-11-11T09:47:41Z</time>
      </trkpt>
      <trkpt lat="45.88126" lon="4.6715">
        <ele>377.45</ele>
        <time>2013-11-11T09:47:42Z</time>
      </trkpt>
      <trkpt lat="45.88128" lon="4.6715">
        <ele>377.45</ele>
        <time>2013-11-11T09:47:43Z</time>
      </trkpt>
      <trkpt lat="45.88129" lon="4.67151">
        <ele>377.94</ele>
        <time>2013-11-11T09:47:44Z</time>
      </trkpt>
      <trkpt lat="45.88134" lon="4.6715">
        <ele>376.97</ele>
        <time>2013-11-11T09:47:48Z</time>
      </trkpt>
      <trkpt lat="45.88135" lon="4.67147">
        <ele>377.45</ele>
        <time>2013-11-11T09:47:50Z</time>
      </trkpt>
      <trkpt lat="45.88135" lon="4.67146">
        <ele>377.45</ele>
        <time>2013-11-11T09:47:51Z</time>
      </trkpt>
      <trkpt lat="45.88132" lon="4.67146">
        <ele>376.97</ele>
        <time>2013-11-11T09:47:54Z</time>
      </trkpt>
      <trkpt lat="45.88131" lon="4.67148">
        <ele>376.97</ele>
        <time>2013-11-11T09:47:55Z</time>
      </trkpt>
      <trkpt lat="45.88131" lon="4.67149">
        <ele>377.45</ele>
        <time>2013-11-11T09:47:56Z</time>
      </trkpt>
      <trkpt lat="45.88132" lon="4.6715">
        <ele>376.97</ele>
        <time>2013-11-11T09:47:57Z</time>
      </trkpt>
      <trkpt lat="45.88133" lon="4.67151">
        <ele>376.97</ele>
        <time>2013-11-11T09:47:58Z</time>
      </trkpt>
      <trkpt lat="45.88135" lon="4.67152">
        <ele>376.97</ele>
        <time>2013-11-11T09:47:59Z</time>
      </trkpt>
      <trkpt lat="45.88136" lon="4.67153">
        <ele>377.45</ele>
        <time>2013-11-11T09:48:00Z</time>
      </trkpt>
      <trkpt lat="45.88138" lon="4.67152">
        <ele>377.45</ele>
        <time>2013-11-11T09:48:01Z</time>
      </trkpt>
      <trkpt lat="45.88139" lon="4.67152">
        <ele>376.97</ele>
        <time>2013-11-11T09:48:02Z</time>
      </trkpt>
      <trkpt lat="45.88142" lon="4.67152">
        <ele>377.94</ele>
        <time>2013-11-11T09:48:04Z</time>
      </trkpt>
      <trkpt lat="45.88142" lon="4.67152">
        <ele>376.97</ele>
        <time>2013-11-11T09:48:13Z</time>
      </trkpt>
      <trkpt lat="45.88142" lon="4.67152">
        <ele>377.94</ele>
        <time>2013-11-11T09:48:30Z</time>
      </trkpt>
      <trkpt lat="45.88146" lon="4.67152">
        <ele>377.94</ele>
        <time>2013-11-11T09:48:35Z</time>
      </trkpt>
      <trkpt lat="45.88148" lon="4.67153">
        <ele>377.94</ele>
        <time>2013-11-11T09:48:37Z</time>
      </trkpt>
      <trkpt lat="45.88149" lon="4.67153">
        <ele>377.94</ele>
        <time>2013-11-11T09:48:38Z</time>
      </trkpt>
      <trkpt lat="45.88151" lon="4.67153">
        <ele>377.94</ele>
        <time>2013-11-11T09:48:39Z</time>
      </trkpt>
      <trkpt lat="45.88172" lon="4.67153">
        <ele>377.94</ele>
        <time>2013-11-11T09:48:51Z</time>
      </trkpt>
      <trkpt lat="45.88195" lon="4.67156">
        <ele>377.45</ele>
        <time>2013-11-11T09:49:03Z</time>
      </trkpt>
      <trkpt lat="45.88215" lon="4.67159">
        <ele>376.49</ele>
        <time>2013-11-11T09:49:14Z</time>
      </trkpt>
      <trkpt lat="45.88239" lon="4.67161">
        <ele>376.01</ele>
        <time>2013-11-11T09:49:25Z</time>
      </trkpt>
      <trkpt lat="45.88266" lon="4.67164">
        <ele>374.57</ele>
        <time>2013-11-11T09:49:35Z</time>
      </trkpt>
      <trkpt lat="45.88295" lon="4.67166">
        <ele>374.57</ele>
        <time>2013-11-11T09:49:44Z</time>
      </trkpt>
      <trkpt lat="45.88336" lon="4.67169">
        <ele>373.13</ele>
        <time>2013-11-11T09:49:55Z</time>
      </trkpt>
      <trkpt lat="45.8834" lon="4.67169">
        <ele>373.13</ele>
        <time>2013-11-11T09:49:56Z</time>
      </trkpt>
      <trkpt lat="45.88374" lon="4.67164">
        <ele>373.13</ele>
        <time>2013-11-11T09:50:06Z</time>
      </trkpt>
      <trkpt lat="45.88398" lon="4.6715">
        <ele>376.01</ele>
        <time>2013-11-11T09:50:17Z</time>
      </trkpt>
      <trkpt lat="45.88422" lon="4.6713">
        <ele>378.42</ele>
        <time>2013-11-11T09:50:30Z</time>
      </trkpt>
      <trkpt lat="45.88439" lon="4.67112">
        <ele>381.3</ele>
        <time>2013-11-11T09:50:41Z</time>
      </trkpt>
      <trkpt lat="45.88451" lon="4.671">
        <ele>383.7</ele>
        <time>2013-11-11T09:50:50Z</time>
      </trkpt>
      <trkpt lat="45.88462" lon="4.67089">
        <ele>385.15</ele>
        <time>2013-11-11T09:50:59Z</time>
      </trkpt>
      <trkpt lat="45.88475" lon="4.67075">
        <ele>387.55</ele>
        <time>2013-11-11T09:51:11Z</time>
      </trkpt>
      <trkpt lat="45.8849" lon="4.67059">
        <ele>388.99</ele>
        <time>2013-11-11T09:51:24Z</time>
      </trkpt>
      <trkpt lat="45.88503" lon="4.67044">
        <ele>390.43</ele>
        <time>2013-11-11T09:51:36Z</time>
      </trkpt>
      <trkpt lat="45.88513" lon="4.67034">
        <ele>392.36</ele>
        <time>2013-11-11T09:51:45Z</time>
      </trkpt>
      <trkpt lat="45.8853" lon="4.67016">
        <ele>394.76</ele>
        <time>2013-11-11T09:52:00Z</time>
      </trkpt>
      <trkpt lat="45.88544" lon="4.67">
        <ele>396.2</ele>
        <time>2013-11-11T09:52:13Z</time>
      </trkpt>
      <trkpt lat="45.88558" lon="4.66987">
        <ele>399.08</ele>
        <time>2013-11-11T09:52:26Z</time>
      </trkpt>
      <trkpt lat="45.88561" lon="4.66983">
        <ele>400.05</ele>
        <time>2013-11-11T09:52:29Z</time>
      </trkpt>
      <trkpt lat="45.88562" lon="4.66982">
        <ele>400.05</ele>
        <time>2013-11-11T09:52:30Z</time>
      </trkpt>
      <trkpt lat="45.88579" lon="4.66969">
        <ele>401.49</ele>
        <time>2013-11-11T09:52:44Z</time>
      </trkpt>
      <trkpt lat="45.88582" lon="4.66967">
        <ele>401.97</ele>
        <time>2013-11-11T09:52:46Z</time>
      </trkpt>
      <trkpt lat="45.88602" lon="4.66966">
        <ele>401.49</ele>
        <time>2013-11-11T09:52:58Z</time>
      </trkpt>
      <trkpt lat="45.88625" lon="4.66964">
        <ele>402.45</ele>
        <time>2013-11-11T09:53:09Z</time>
      </trkpt>
      <trkpt lat="45.8865" lon="4.66963">
        <ele>403.89</ele>
        <time>2013-11-11T09:53:21Z</time>
      </trkpt>
      <trkpt lat="45.88672" lon="4.66961">
        <ele>404.85</ele>
        <time>2013-11-11T09:53:32Z</time>
      </trkpt>
      <trkpt lat="45.88684" lon="4.6696">
        <ele>406.29</ele>
        <time>2013-11-11T09:53:38Z</time>
      </trkpt>
      <trkpt lat="45.88714" lon="4.66962">
        <ele>407.26</ele>
        <time>2013-11-11T09:53:52Z</time>
      </trkpt>
      <trkpt lat="45.88733" lon="4.66958">
        <ele>408.7</ele>
        <time>2013-11-11T09:54:03Z</time>
      </trkpt>
      <trkpt lat="45.8874" lon="4.66957">
        <ele>410.62</ele>
        <time>2013-11-11T09:54:07Z</time>
      </trkpt>
      <trkpt lat="45.88762" lon="4.66951">
        <ele>413.02</ele>
        <time>2013-11-11T09:54:19Z</time>
      </trkpt>
      <trkpt lat="45.88783" lon="4.6695">
        <ele>413.98</ele>
        <time>2013-11-11T09:54:30Z</time>
      </trkpt>
      <trkpt lat="45.88803" lon="4.66948">
        <ele>415.43</ele>
        <time>2013-11-11T09:54:41Z</time>
      </trkpt>
      <trkpt lat="45.88823" lon="4.66944">
        <ele>416.39</ele>
        <time>2013-11-11T09:54:51Z</time>
      </trkpt>
      <trkpt lat="45.88843" lon="4.66934">
        <ele>417.83</ele>
        <time>2013-11-11T09:55:01Z</time>
      </trkpt>
      <trkpt lat="45.88866" lon="4.66922">
        <ele>419.75</ele>
        <time>2013-11-11T09:55:13Z</time>
      </trkpt>
      <trkpt lat="45.88885" lon="4.66908">
        <ele>419.75</ele>
        <time>2013-11-11T09:55:23Z</time>
      </trkpt>
      <trkpt lat="45.88906" lon="4.66895">
        <ele>421.19</ele>
        <time>2013-11-11T09:55:34Z</time>
      </trkpt>
      <trkpt lat="45.88922" lon="4.66887">
        <ele>422.64</ele>
        <time>2013-11-11T09:55:43Z</time>
      </trkpt>
      <trkpt lat="45.88942" lon="4.66878">
        <ele>423.6</ele>
        <time>2013-11-11T09:55:53Z</time>
      </trkpt>
      <trkpt lat="45.8896" lon="4.66865">
        <ele>424.08</ele>
        <time>2013-11-11T09:56:03Z</time>
      </trkpt>
      <trkpt lat="45.88975" lon="4.66855">
        <ele>423.12</ele>
        <time>2013-11-11T09:56:11Z</time>
      </trkpt>
      <trkpt lat="45.88978" lon="4.66854">
        <ele>423.6</ele>
        <time>2013-11-11T09:56:20Z</time>
      </trkpt>
      <trkpt lat="45.88978" lon="4.66854">
        <ele>423.12</ele>
        <time>2013-11-11T09:56:46Z</time>
      </trkpt>
      <trkpt lat="45.88979" lon="4.66854">
        <ele>422.64</ele>
        <time>2013-11-11T09:57:02Z</time>
      </trkpt>
      <trkpt lat="45.88979" lon="4.66853">
        <ele>423.12</ele>
        <time>2013-11-11T09:57:15Z</time>
      </trkpt>
      <trkpt lat="45.88979" lon="4.66853">
        <ele>423.12</ele>
        <time>2013-11-11T09:57:34Z</time>
      </trkpt>
      <trkpt lat="45.88981" lon="4.66848">
        <ele>423.6</ele>
        <time>2013-11-11T09:57:44Z</time>
      </trkpt>
      <trkpt lat="45.88982" lon="4.66846">
        <ele>423.6</ele>
        <time>2013-11-11T09:57:45Z</time>
      </trkpt>
      <trkpt lat="45.88983" lon="4.66845">
        <ele>423.6</ele>
        <time>2013-11-11T09:57:46Z</time>
      </trkpt>
      <trkpt lat="45.88984" lon="4.66844">
        <ele>423.6</ele>
        <time>2013-11-11T09:57:53Z</time>
      </trkpt>
      <trkpt lat="45.88984" lon="4.66844">
        <ele>423.6</ele>
        <time>2013-11-11T09:58:06Z</time>
      </trkpt>
      <trkpt lat="45.88985" lon="4.66843">
        <ele>423.6</ele>
        <time>2013-11-11T09:58:14Z</time>
      </trkpt>
      <trkpt lat="45.88986" lon="4.66842">
        <ele>423.12</ele>
        <time>2013-11-11T09:58:15Z</time>
      </trkpt>
      <trkpt lat="45.88987" lon="4.6684">
        <ele>423.6</ele>
        <time>2013-11-11T09:58:16Z</time>
      </trkpt>
      <trkpt lat="45.88988" lon="4.66839">
        <ele>423.6</ele>
        <time>2013-11-11T09:58:17Z</time>
      </trkpt>
      <trkpt lat="45.88989" lon="4.66837">
        <ele>423.6</ele>
        <time>2013-11-11T09:58:18Z</time>
      </trkpt>
      <trkpt lat="45.88995" lon="4.66821">
        <ele>423.12</ele>
        <time>2013-11-11T09:58:28Z</time>
      </trkpt>
      <trkpt lat="45.88996" lon="4.6682">
        <ele>422.64</ele>
        <time>2013-11-11T09:58:29Z</time>
      </trkpt>
      <trkpt lat="45.88997" lon="4.66818">
        <ele>423.12</ele>
        <time>2013-11-11T09:58:30Z</time>
      </trkpt>
      <trkpt lat="45.88998" lon="4.66817">
        <ele>422.64</ele>
        <time>2013-11-11T09:58:31Z</time>
      </trkpt>
      <trkpt lat="45.88999" lon="4.66815">
        <ele>423.12</ele>
        <time>2013-11-11T09:58:32Z</time>
      </trkpt>
      <trkpt lat="45.89001" lon="4.66812">
        <ele>422.64</ele>
        <time>2013-11-11T09:58:33Z</time>
      </trkpt>
      <trkpt lat="45.89002" lon="4.6681">
        <ele>422.16</ele>
        <time>2013-11-11T09:58:34Z</time>
      </trkpt>
      <trkpt lat="45.89004" lon="4.66807">
        <ele>422.16</ele>
        <time>2013-11-11T09:58:35Z</time>
      </trkpt>
      <trkpt lat="45.89006" lon="4.66804">
        <ele>421.19</ele>
        <time>2013-11-11T09:58:36Z</time>
      </trkpt>
      <trkpt lat="45.89009" lon="4.66802">
        <ele>421.68</ele>
        <time>2013-11-11T09:58:37Z</time>
      </trkpt>
      <trkpt lat="45.89011" lon="4.66801">
        <ele>421.19</ele>
        <time>2013-11-11T09:58:38Z</time>
      </trkpt>
      <trkpt lat="45.89015" lon="4.66801">
        <ele>421.19</ele>
        <time>2013-11-11T09:58:39Z</time>
      </trkpt>
      <trkpt lat="45.89028" lon="4.66802">
        <ele>421.19</ele>
        <time>2013-11-11T09:58:43Z</time>
      </trkpt>
      <trkpt lat="45.89032" lon="4.66802">
        <ele>421.19</ele>
        <time>2013-11-11T09:58:44Z</time>
      </trkpt>
      <trkpt lat="45.89039" lon="4.66804">
        <ele>421.19</ele>
        <time>2013-11-11T09:58:46Z</time>
      </trkpt>
      <trkpt lat="45.89041" lon="4.66807">
        <ele>420.71</ele>
        <time>2013-11-11T09:58:47Z</time>
      </trkpt>
      <trkpt lat="45.89043" lon="4.6681">
        <ele>421.19</ele>
        <time>2013-11-11T09:58:48Z</time>
      </trkpt>
      <trkpt lat="45.89043" lon="4.66814">
        <ele>421.19</ele>
        <time>2013-11-11T09:58:49Z</time>
      </trkpt>
      <trkpt lat="45.89043" lon="4.66816">
        <ele>421.68</ele>
        <time>2013-11-11T09:58:50Z</time>
      </trkpt>
      <trkpt lat="45.89045" lon="4.6684">
        <ele>422.16</ele>
        <time>2013-11-11T09:59:01Z</time>
      </trkpt>
      <trkpt lat="45.8906" lon="4.66846">
        <ele>421.19</ele>
        <time>2013-11-11T09:59:09Z</time>
      </trkpt>
      <trkpt lat="45.89086" lon="4.6686">
        <ele>419.75</ele>
        <time>2013-11-11T09:59:18Z</time>
      </trkpt>
      <trkpt lat="45.89127" lon="4.66876">
        <ele>418.79</ele>
        <time>2013-11-11T09:59:28Z</time>
      </trkpt>
      <trkpt lat="45.89152" lon="4.66886">
        <ele>417.35</ele>
        <time>2013-11-11T09:59:36Z</time>
      </trkpt>
      <trkpt lat="45.89154" lon="4.66885">
        <ele>417.35</ele>
        <time>2013-11-11T09:59:37Z</time>
      </trkpt>
      <trkpt lat="45.89155" lon="4.66883">
        <ele>417.35</ele>
        <time>2013-11-11T09:59:38Z</time>
      </trkpt>
      <trkpt lat="45.89156" lon="4.6688">
        <ele>417.35</ele>
        <time>2013-11-11T09:59:39Z</time>
      </trkpt>
      <trkpt lat="45.89157" lon="4.66859">
        <ele>417.83</ele>
        <time>2013-11-11T09:59:46Z</time>
      </trkpt>
      <trkpt lat="45.89158" lon="4.66857">
        <ele>417.35</ele>
        <time>2013-11-11T09:59:47Z</time>
      </trkpt>
      <trkpt lat="45.8916" lon="4.66855">
        <ele>417.83</ele>
        <time>2013-11-11T09:59:48Z</time>
      </trkpt>
      <trkpt lat="45.89162" lon="4.66855">
        <ele>417.35</ele>
        <time>2013-11-11T09:59:49Z</time>
      </trkpt>
      <trkpt lat="45.89165" lon="4.66855">
        <ele>417.83</ele>
        <time>2013-11-11T09:59:50Z</time>
      </trkpt>
      <trkpt lat="45.89167" lon="4.66856">
        <ele>417.83</ele>
        <time>2013-11-11T09:59:51Z</time>
      </trkpt>
      <trkpt lat="45.89169" lon="4.66857">
        <ele>417.35</ele>
        <time>2013-11-11T09:59:52Z</time>
      </trkpt>
      <trkpt lat="45.89197" lon="4.6687">
        <ele>419.75</ele>
        <time>2013-11-11T10:00:04Z</time>
      </trkpt>
      <trkpt lat="45.8922" lon="4.66883">
        <ele>422.64</ele>
        <time>2013-11-11T10:00:15Z</time>
      </trkpt>
      <trkpt lat="45.89248" lon="4.66899">
        <ele>425.52</ele>
        <time>2013-11-11T10:00:28Z</time>
      </trkpt>
      <trkpt lat="45.89265" lon="4.66907">
        <ele>427.92</ele>
        <time>2013-11-11T10:00:38Z</time>
      </trkpt>
      <trkpt lat="45.89275" lon="4.66911">
        <ele>429.37</ele>
        <time>2013-11-11T10:00:45Z</time>
      </trkpt>
      <trkpt lat="45.89277" lon="4.66911">
        <ele>429.37</ele>
        <time>2013-11-11T10:00:46Z</time>
      </trkpt>
      <trkpt lat="45.89284" lon="4.66915">
        <ele>431.29</ele>
        <time>2013-11-11T10:00:51Z</time>
      </trkpt>
      <trkpt lat="45.89299" lon="4.66921">
        <ele>433.69</ele>
        <time>2013-11-11T10:01:02Z</time>
      </trkpt>
      <trkpt lat="45.89311" lon="4.66928">
        <ele>435.61</ele>
        <time>2013-11-11T10:01:13Z</time>
      </trkpt>
      <trkpt lat="45.89315" lon="4.66929">
        <ele>436.1</ele>
        <time>2013-11-11T10:01:17Z</time>
      </trkpt>
      <trkpt lat="45.89316" lon="4.6693">
        <ele>436.58</ele>
        <time>2013-11-11T10:01:18Z</time>
      </trkpt>
      <trkpt lat="45.89328" lon="4.66935">
        <ele>438.02</ele>
        <time>2013-11-11T10:01:29Z</time>
      </trkpt>
      <trkpt lat="45.89333" lon="4.66938">
        <ele>438.5</ele>
        <time>2013-11-11T10:01:33Z</time>
      </trkpt>
      <trkpt lat="45.89343" lon="4.66941">
        <ele>439.46</ele>
        <time>2013-11-11T10:01:42Z</time>
      </trkpt>
      <trkpt lat="45.89344" lon="4.66942">
        <ele>439.46</ele>
        <time>2013-11-11T10:01:43Z</time>
      </trkpt>
      <trkpt lat="45.89345" lon="4.66943">
        <ele>439.94</ele>
        <time>2013-11-11T10:01:44Z</time>
      </trkpt>
      <trkpt lat="45.89349" lon="4.66945">
        <ele>440.42</ele>
        <time>2013-11-11T10:01:48Z</time>
      </trkpt>
      <trkpt lat="45.8935" lon="4.66946">
        <ele>440.42</ele>
        <time>2013-11-11T10:01:49Z</time>
      </trkpt>
      <trkpt lat="45.89359" lon="4.66951">
        <ele>441.38</ele>
        <time>2013-11-11T10:01:55Z</time>
      </trkpt>
      <trkpt lat="45.8936" lon="4.66951">
        <ele>441.86</ele>
        <time>2013-11-11T10:01:56Z</time>
      </trkpt>
      <trkpt lat="45.89362" lon="4.66951">
        <ele>441.86</ele>
        <time>2013-11-11T10:01:57Z</time>
      </trkpt>
      <trkpt lat="45.89367" lon="4.66949">
        <ele>442.82</ele>
        <time>2013-11-11T10:02:01Z</time>
      </trkpt>
      <trkpt lat="45.89368" lon="4.66948">
        <ele>442.34</ele>
        <time>2013-11-11T10:02:02Z</time>
      </trkpt>
      <trkpt lat="45.8937" lon="4.66948">
        <ele>442.34</ele>
        <time>2013-11-11T10:02:03Z</time>
      </trkpt>
      <trkpt lat="45.89371" lon="4.66949">
        <ele>442.34</ele>
        <time>2013-11-11T10:02:04Z</time>
      </trkpt>
      <trkpt lat="45.89372" lon="4.66949">
        <ele>442.82</ele>
        <time>2013-11-11T10:02:05Z</time>
      </trkpt>
      <trkpt lat="45.89374" lon="4.66949">
        <ele>442.82</ele>
        <time>2013-11-11T10:02:06Z</time>
      </trkpt>
      <trkpt lat="45.89375" lon="4.66949">
        <ele>442.82</ele>
        <time>2013-11-11T10:02:07Z</time>
      </trkpt>
      <trkpt lat="45.89376" lon="4.6695">
        <ele>443.79</ele>
        <time>2013-11-11T10:02:08Z</time>
      </trkpt>
      <trkpt lat="45.8938" lon="4.66952">
        <ele>444.27</ele>
        <time>2013-11-11T10:02:11Z</time>
      </trkpt>
      <trkpt lat="45.89382" lon="4.66952">
        <ele>443.79</ele>
        <time>2013-11-11T10:02:12Z</time>
      </trkpt>
      <trkpt lat="45.89383" lon="4.66952">
        <ele>444.27</ele>
        <time>2013-11-11T10:02:13Z</time>
      </trkpt>
      <trkpt lat="45.89385" lon="4.66952">
        <ele>444.75</ele>
        <time>2013-11-11T10:02:14Z</time>
      </trkpt>
      <trkpt lat="45.89386" lon="4.66952">
        <ele>444.27</ele>
        <time>2013-11-11T10:02:15Z</time>
      </trkpt>
      <trkpt lat="45.89388" lon="4.66952">
        <ele>444.27</ele>
        <time>2013-11-11T10:02:16Z</time>
      </trkpt>
      <trkpt lat="45.89389" lon="4.66951">
        <ele>444.27</ele>
        <time>2013-11-11T10:02:17Z</time>
      </trkpt>
      <trkpt lat="45.8939" lon="4.6695">
        <ele>444.75</ele>
        <time>2013-11-11T10:02:18Z</time>
      </trkpt>
      <trkpt lat="45.89391" lon="4.66949">
        <ele>444.75</ele>
        <time>2013-11-11T10:02:19Z</time>
      </trkpt>
      <trkpt lat="45.89392" lon="4.66949">
        <ele>445.23</ele>
        <time>2013-11-11T10:02:20Z</time>
      </trkpt>
      <trkpt lat="45.89393" lon="4.66949">
        <ele>445.71</ele>
        <time>2013-11-11T10:02:21Z</time>
      </trkpt>
      <trkpt lat="45.89395" lon="4.66949">
        <ele>444.75</ele>
        <time>2013-11-11T10:02:22Z</time>
      </trkpt>
      <trkpt lat="45.89396" lon="4.66949">
        <ele>445.71</ele>
        <time>2013-11-11T10:02:23Z</time>
      </trkpt>
      <trkpt lat="45.89398" lon="4.66949">
        <ele>445.71</ele>
        <time>2013-11-11T10:02:24Z</time>
      </trkpt>
      <trkpt lat="45.89399" lon="4.6695">
        <ele>445.71</ele>
        <time>2013-11-11T10:02:25Z</time>
      </trkpt>
      <trkpt lat="45.89401" lon="4.6695">
        <ele>445.71</ele>
        <time>2013-11-11T10:02:26Z</time>
      </trkpt>
      <trkpt lat="45.89402" lon="4.6695">
        <ele>445.71</ele>
        <time>2013-11-11T10:02:27Z</time>
      </trkpt>
      <trkpt lat="45.89403" lon="4.66951">
        <ele>446.19</ele>
        <time>2013-11-11T10:02:28Z</time>
      </trkpt>
      <trkpt lat="45.89422" lon="4.66952">
        <ele>447.63</ele>
        <time>2013-11-11T10:02:40Z</time>
      </trkpt>
      <trkpt lat="45.89429" lon="4.66953">
        <ele>447.63</ele>
        <time>2013-11-11T10:02:44Z</time>
      </trkpt>
      <trkpt lat="45.89431" lon="4.66953">
        <ele>447.63</ele>
        <time>2013-11-11T10:02:45Z</time>
      </trkpt>
      <trkpt lat="45.89432" lon="4.66953">
        <ele>448.11</ele>
        <time>2013-11-11T10:02:46Z</time>
      </trkpt>
      <trkpt lat="45.89434" lon="4.66952">
        <ele>448.11</ele>
        <time>2013-11-11T10:02:47Z</time>
      </trkpt>
      <trkpt lat="45.89435" lon="4.66952">
        <ele>448.11</ele>
        <time>2013-11-11T10:02:48Z</time>
      </trkpt>
      <trkpt lat="45.89454" lon="4.66954">
        <ele>449.55</ele>
        <time>2013-11-11T10:03:00Z</time>
      </trkpt>
      <trkpt lat="45.89469" lon="4.66954">
        <ele>449.55</ele>
        <time>2013-11-11T10:03:09Z</time>
      </trkpt>
      <trkpt lat="45.89471" lon="4.66953">
        <ele>449.55</ele>
        <time>2013-11-11T10:03:10Z</time>
      </trkpt>
      <trkpt lat="45.89472" lon="4.66953">
        <ele>450.03</ele>
        <time>2013-11-11T10:03:11Z</time>
      </trkpt>
      <trkpt lat="45.89473" lon="4.66952">
        <ele>449.55</ele>
        <time>2013-11-11T10:03:12Z</time>
      </trkpt>
      <trkpt lat="45.89475" lon="4.66952">
        <ele>450.03</ele>
        <time>2013-11-11T10:03:13Z</time>
      </trkpt>
      <trkpt lat="45.89476" lon="4.66952">
        <ele>450.03</ele>
        <time>2013-11-11T10:03:14Z</time>
      </trkpt>
      <trkpt lat="45.89478" lon="4.66951">
        <ele>449.55</ele>
        <time>2013-11-11T10:03:15Z</time>
      </trkpt>
      <trkpt lat="45.8948" lon="4.66951">
        <ele>449.55</ele>
        <time>2013-11-11T10:03:16Z</time>
      </trkpt>
      <trkpt lat="45.89499" lon="4.66951">
        <ele>449.55</ele>
        <time>2013-11-11T10:03:25Z</time>
      </trkpt>
      <trkpt lat="45.89527" lon="4.66949">
        <ele>449.07</ele>
        <time>2013-11-11T10:03:35Z</time>
      </trkpt>
      <trkpt lat="45.89563" lon="4.66947">
        <ele>449.07</ele>
        <time>2013-11-11T10:03:45Z</time>
      </trkpt>
      <trkpt lat="45.89593" lon="4.66946">
        <ele>448.59</ele>
        <time>2013-11-11T10:03:55Z</time>
      </trkpt>
      <trkpt lat="45.89631" lon="4.66946">
        <ele>448.59</ele>
        <time>2013-11-11T10:04:07Z</time>
      </trkpt>
      <trkpt lat="45.89668" lon="4.66957">
        <ele>448.59</ele>
        <time>2013-11-11T10:04:19Z</time>
      </trkpt>
      <trkpt lat="45.89707" lon="4.66966">
        <ele>448.11</ele>
        <time>2013-11-11T10:04:31Z</time>
      </trkpt>
      <trkpt lat="45.89753" lon="4.66969">
        <ele>448.11</ele>
        <time>2013-11-11T10:04:43Z</time>
      </trkpt>
      <trkpt lat="45.89765" lon="4.6697">
        <ele>447.15</ele>
        <time>2013-11-11T10:04:46Z</time>
      </trkpt>
      <trkpt lat="45.8977" lon="4.66971">
        <ele>447.63</ele>
        <time>2013-11-11T10:04:47Z</time>
      </trkpt>
      <trkpt lat="45.89797" lon="4.66975">
        <ele>447.63</ele>
        <time>2013-11-11T10:04:53Z</time>
      </trkpt>
      <trkpt lat="45.89811" lon="4.66976">
        <ele>446.19</ele>
        <time>2013-11-11T10:04:56Z</time>
      </trkpt>
      <trkpt lat="45.89833" lon="4.6698">
        <ele>445.71</ele>
        <time>2013-11-11T10:05:01Z</time>
      </trkpt>
      <trkpt lat="45.89852" lon="4.66985">
        <ele>444.75</ele>
        <time>2013-11-11T10:05:05Z</time>
      </trkpt>
      <trkpt lat="45.89891" lon="4.66987">
        <ele>442.82</ele>
        <time>2013-11-11T10:05:14Z</time>
      </trkpt>
      <trkpt lat="45.89901" lon="4.66988">
        <ele>442.34</ele>
        <time>2013-11-11T10:05:16Z</time>
      </trkpt>
      <trkpt lat="45.89918" lon="4.66986">
        <ele>441.38</ele>
        <time>2013-11-11T10:05:19Z</time>
      </trkpt>
      <trkpt lat="45.89924" lon="4.66984">
        <ele>440.9</ele>
        <time>2013-11-11T10:05:20Z</time>
      </trkpt>
      <trkpt lat="45.89929" lon="4.66981">
        <ele>440.9</ele>
        <time>2013-11-11T10:05:21Z</time>
      </trkpt>
      <trkpt lat="45.89935" lon="4.66977">
        <ele>440.9</ele>
        <time>2013-11-11T10:05:22Z</time>
      </trkpt>
      <trkpt lat="45.89941" lon="4.66974">
        <ele>440.42</ele>
        <time>2013-11-11T10:05:23Z</time>
      </trkpt>
      <trkpt lat="45.89947" lon="4.6697">
        <ele>439.94</ele>
        <time>2013-11-11T10:05:24Z</time>
      </trkpt>
      <trkpt lat="45.89952" lon="4.66967">
        <ele>439.94</ele>
        <time>2013-11-11T10:05:25Z</time>
      </trkpt>
      <trkpt lat="45.89958" lon="4.66964">
        <ele>439.94</ele>
        <time>2013-11-11T10:05:26Z</time>
      </trkpt>
      <trkpt lat="45.89965" lon="4.66963">
        <ele>439.94</ele>
        <time>2013-11-11T10:05:27Z</time>
      </trkpt>
      <trkpt lat="45.89971" lon="4.66962">
        <ele>438.98</ele>
        <time>2013-11-11T10:05:28Z</time>
      </trkpt>
      <trkpt lat="45.89978" lon="4.66963">
        <ele>439.46</ele>
        <time>2013-11-11T10:05:29Z</time>
      </trkpt>
      <trkpt lat="45.89984" lon="4.66965">
        <ele>438.5</ele>
        <time>2013-11-11T10:05:30Z</time>
      </trkpt>
      <trkpt lat="45.8999" lon="4.66967">
        <ele>438.5</ele>
        <time>2013-11-11T10:05:31Z</time>
      </trkpt>
      <trkpt lat="45.90013" lon="4.66974">
        <ele>436.58</ele>
        <time>2013-11-11T10:05:35Z</time>
      </trkpt>
      <trkpt lat="45.90019" lon="4.66974">
        <ele>436.58</ele>
        <time>2013-11-11T10:05:36Z</time>
      </trkpt>
      <trkpt lat="45.9003" lon="4.66974">
        <ele>436.1</ele>
        <time>2013-11-11T10:05:38Z</time>
      </trkpt>
      <trkpt lat="45.9006" lon="4.66968">
        <ele>433.69</ele>
        <time>2013-11-11T10:05:43Z</time>
      </trkpt>
      <trkpt lat="45.901" lon="4.66969">
        <ele>432.25</ele>
        <time>2013-11-11T10:05:49Z</time>
      </trkpt>
      <trkpt lat="45.90112" lon="4.66973">
        <ele>432.25</ele>
        <time>2013-11-11T10:05:51Z</time>
      </trkpt>
      <trkpt lat="45.90117" lon="4.66975">
        <ele>431.77</ele>
        <time>2013-11-11T10:05:52Z</time>
      </trkpt>
      <trkpt lat="45.90163" lon="4.66995">
        <ele>429.85</ele>
        <time>2013-11-11T10:06:01Z</time>
      </trkpt>
      <trkpt lat="45.90195" lon="4.6702">
        <ele>428.89</ele>
        <time>2013-11-11T10:06:07Z</time>
      </trkpt>
      <trkpt lat="45.90205" lon="4.67026">
        <ele>428.89</ele>
        <time>2013-11-11T10:06:09Z</time>
      </trkpt>
      <trkpt lat="45.90219" lon="4.67031">
        <ele>428.4</ele>
        <time>2013-11-11T10:06:12Z</time>
      </trkpt>
      <trkpt lat="45.90224" lon="4.67032">
        <ele>427.92</ele>
        <time>2013-11-11T10:06:13Z</time>
      </trkpt>
      <trkpt lat="45.90254" lon="4.67031">
        <ele>427.44</ele>
        <time>2013-11-11T10:06:20Z</time>
      </trkpt>
      <trkpt lat="45.90258" lon="4.67029">
        <ele>427.44</ele>
        <time>2013-11-11T10:06:21Z</time>
      </trkpt>
      <trkpt lat="45.90263" lon="4.67027">
        <ele>426.96</ele>
        <time>2013-11-11T10:06:22Z</time>
      </trkpt>
      <trkpt lat="45.90268" lon="4.67025">
        <ele>426.48</ele>
        <time>2013-11-11T10:06:23Z</time>
      </trkpt>
      <trkpt lat="45.90274" lon="4.67022">
        <ele>426</ele>
        <time>2013-11-11T10:06:24Z</time>
      </trkpt>
      <trkpt lat="45.90279" lon="4.67019">
        <ele>426.48</ele>
        <time>2013-11-11T10:06:25Z</time>
      </trkpt>
      <trkpt lat="45.90284" lon="4.67016">
        <ele>426.96</ele>
        <time>2013-11-11T10:06:26Z</time>
      </trkpt>
      <trkpt lat="45.90289" lon="4.67013">
        <ele>425.04</ele>
        <time>2013-11-11T10:06:27Z</time>
      </trkpt>
      <trkpt lat="45.90293" lon="4.6701">
        <ele>425.52</ele>
        <time>2013-11-11T10:06:28Z</time>
      </trkpt>
      <trkpt lat="45.90298" lon="4.67007">
        <ele>424.08</ele>
        <time>2013-11-11T10:06:29Z</time>
      </trkpt>
      <trkpt lat="45.90302" lon="4.67003">
        <ele>425.04</ele>
        <time>2013-11-11T10:06:30Z</time>
      </trkpt>
      <trkpt lat="45.90312" lon="4.66996">
        <ele>424.08</ele>
        <time>2013-11-11T10:06:32Z</time>
      </trkpt>
      <trkpt lat="45.90317" lon="4.66992">
        <ele>423.6</ele>
        <time>2013-11-11T10:06:33Z</time>
      </trkpt>
      <trkpt lat="45.90322" lon="4.66988">
        <ele>423.12</ele>
        <time>2013-11-11T10:06:34Z</time>
      </trkpt>
      <trkpt lat="45.90328" lon="4.66986">
        <ele>423.6</ele>
        <time>2013-11-11T10:06:35Z</time>
      </trkpt>
      <trkpt lat="45.90334" lon="4.66985">
        <ele>423.12</ele>
        <time>2013-11-11T10:06:36Z</time>
      </trkpt>
      <trkpt lat="45.90341" lon="4.66984">
        <ele>423.12</ele>
        <time>2013-11-11T10:06:37Z</time>
      </trkpt>
      <trkpt lat="45.90347" lon="4.66984">
        <ele>423.12</ele>
        <time>2013-11-11T10:06:38Z</time>
      </trkpt>
      <trkpt lat="45.90406" lon="4.66993">
        <ele>420.23</ele>
        <time>2013-11-11T10:06:48Z</time>
      </trkpt>
      <trkpt lat="45.90422" lon="4.67">
        <ele>419.75</ele>
        <time>2013-11-11T10:06:51Z</time>
      </trkpt>
      <trkpt lat="45.90432" lon="4.67007">
        <ele>418.79</ele>
        <time>2013-11-11T10:06:53Z</time>
      </trkpt>
      <trkpt lat="45.90457" lon="4.67019">
        <ele>417.83</ele>
        <time>2013-11-11T10:06:57Z</time>
      </trkpt>
      <trkpt lat="45.90512" lon="4.67027">
        <ele>414.95</ele>
        <time>2013-11-11T10:07:06Z</time>
      </trkpt>
      <trkpt lat="45.90545" lon="4.67027">
        <ele>414.95</ele>
        <time>2013-11-11T10:07:12Z</time>
      </trkpt>
      <trkpt lat="45.9055" lon="4.67025">
        <ele>414.47</ele>
        <time>2013-11-11T10:07:13Z</time>
      </trkpt>
      <trkpt lat="45.90555" lon="4.67022">
        <ele>414.95</ele>
        <time>2013-11-11T10:07:14Z</time>
      </trkpt>
      <trkpt lat="45.9056" lon="4.67019">
        <ele>413.5</ele>
        <time>2013-11-11T10:07:15Z</time>
      </trkpt>
      <trkpt lat="45.90566" lon="4.67017">
        <ele>413.02</ele>
        <time>2013-11-11T10:07:16Z</time>
      </trkpt>
      <trkpt lat="45.90604" lon="4.66999">
        <ele>413.02</ele>
        <time>2013-11-11T10:07:24Z</time>
      </trkpt>
      <trkpt lat="45.90619" lon="4.6699">
        <ele>412.54</ele>
        <time>2013-11-11T10:07:27Z</time>
      </trkpt>
      <trkpt lat="45.90629" lon="4.66983">
        <ele>412.06</ele>
        <time>2013-11-11T10:07:29Z</time>
      </trkpt>
      <trkpt lat="45.9066" lon="4.66953">
        <ele>410.62</ele>
        <time>2013-11-11T10:07:36Z</time>
      </trkpt>
      <trkpt lat="45.90664" lon="4.66952">
        <ele>410.14</ele>
        <time>2013-11-11T10:07:37Z</time>
      </trkpt>
      <trkpt lat="45.90678" lon="4.66951">
        <ele>410.14</ele>
        <time>2013-11-11T10:07:40Z</time>
      </trkpt>
      <trkpt lat="45.90683" lon="4.6695">
        <ele>409.66</ele>
        <time>2013-11-11T10:07:41Z</time>
      </trkpt>
      <trkpt lat="45.90689" lon="4.66948">
        <ele>410.14</ele>
        <time>2013-11-11T10:07:42Z</time>
      </trkpt>
      <trkpt lat="45.90694" lon="4.66947">
        <ele>409.66</ele>
        <time>2013-11-11T10:07:43Z</time>
      </trkpt>
      <trkpt lat="45.90699" lon="4.66946">
        <ele>409.18</ele>
        <time>2013-11-11T10:07:44Z</time>
      </trkpt>
      <trkpt lat="45.90705" lon="4.66944">
        <ele>409.18</ele>
        <time>2013-11-11T10:07:45Z</time>
      </trkpt>
      <trkpt lat="45.90711" lon="4.66942">
        <ele>408.7</ele>
        <time>2013-11-11T10:07:46Z</time>
      </trkpt>
      <trkpt lat="45.90717" lon="4.66939">
        <ele>408.7</ele>
        <time>2013-11-11T10:07:47Z</time>
      </trkpt>
      <trkpt lat="45.90735" lon="4.6693">
        <ele>407.74</ele>
        <time>2013-11-11T10:07:50Z</time>
      </trkpt>
      <trkpt lat="45.90766" lon="4.66918">
        <ele>405.81</ele>
        <time>2013-11-11T10:07:55Z</time>
      </trkpt>
      <trkpt lat="45.90822" lon="4.66914">
        <ele>404.85</ele>
        <time>2013-11-11T10:08:03Z</time>
      </trkpt>
      <trkpt lat="45.90879" lon="4.66904">
        <ele>402.45</ele>
        <time>2013-11-11T10:08:11Z</time>
      </trkpt>
      <trkpt lat="45.90926" lon="4.66893">
        <ele>399.57</ele>
        <time>2013-11-11T10:08:17Z</time>
      </trkpt>
      <trkpt lat="45.90933" lon="4.66893">
        <ele>398.6</ele>
        <time>2013-11-11T10:08:18Z</time>
      </trkpt>
      <trkpt lat="45.9098" lon="4.66899">
        <ele>395.72</ele>
        <time>2013-11-11T10:08:24Z</time>
      </trkpt>
      <trkpt lat="45.9101" lon="4.669">
        <ele>393.32</ele>
        <time>2013-11-11T10:08:28Z</time>
      </trkpt>
      <trkpt lat="45.91046" lon="4.66888">
        <ele>390.43</ele>
        <time>2013-11-11T10:08:33Z</time>
      </trkpt>
      <trkpt lat="45.91089" lon="4.66865">
        <ele>387.07</ele>
        <time>2013-11-11T10:08:40Z</time>
      </trkpt>
      <trkpt lat="45.91108" lon="4.66857">
        <ele>385.63</ele>
        <time>2013-11-11T10:08:43Z</time>
      </trkpt>
      <trkpt lat="45.91157" lon="4.66831">
        <ele>382.74</ele>
        <time>2013-11-11T10:08:50Z</time>
      </trkpt>
      <trkpt lat="45.91172" lon="4.66822">
        <ele>382.26</ele>
        <time>2013-11-11T10:08:52Z</time>
      </trkpt>
      <trkpt lat="45.9118" lon="4.66819">
        <ele>380.82</ele>
        <time>2013-11-11T10:08:53Z</time>
      </trkpt>
      <trkpt lat="45.91188" lon="4.66819">
        <ele>380.82</ele>
        <time>2013-11-11T10:08:54Z</time>
      </trkpt>
      <trkpt lat="45.91197" lon="4.66819">
        <ele>379.86</ele>
        <time>2013-11-11T10:08:55Z</time>
      </trkpt>
      <trkpt lat="45.91206" lon="4.66819">
        <ele>378.9</ele>
        <time>2013-11-11T10:08:56Z</time>
      </trkpt>
      <trkpt lat="45.91286" lon="4.66823">
        <ele>375.53</ele>
        <time>2013-11-11T10:09:06Z</time>
      </trkpt>
      <trkpt lat="45.91296" lon="4.66824">
        <ele>374.57</ele>
        <time>2013-11-11T10:09:08Z</time>
      </trkpt>
      <trkpt lat="45.91307" lon="4.66821">
        <ele>373.13</ele>
        <time>2013-11-11T10:09:11Z</time>
      </trkpt>
      <trkpt lat="45.91309" lon="4.66817">
        <ele>373.61</ele>
        <time>2013-11-11T10:09:12Z</time>
      </trkpt>
      <trkpt lat="45.91309" lon="4.66811">
        <ele>373.13</ele>
        <time>2013-11-11T10:09:13Z</time>
      </trkpt>
      <trkpt lat="45.9131" lon="4.66797">
        <ele>373.13</ele>
        <time>2013-11-11T10:09:15Z</time>
      </trkpt>
      <trkpt lat="45.91312" lon="4.66782">
        <ele>372.65</ele>
        <time>2013-11-11T10:09:17Z</time>
      </trkpt>
      <trkpt lat="45.91315" lon="4.66774">
        <ele>372.65</ele>
        <time>2013-11-11T10:09:18Z</time>
      </trkpt>
      <trkpt lat="45.91319" lon="4.66767">
        <ele>372.17</ele>
        <time>2013-11-11T10:09:19Z</time>
      </trkpt>
      <trkpt lat="45.91324" lon="4.66761">
        <ele>372.65</ele>
        <time>2013-11-11T10:09:20Z</time>
      </trkpt>
      <trkpt lat="45.9133" lon="4.66755">
        <ele>372.17</ele>
        <time>2013-11-11T10:09:21Z</time>
      </trkpt>
      <trkpt lat="45.91336" lon="4.66751">
        <ele>372.17</ele>
        <time>2013-11-11T10:09:22Z</time>
      </trkpt>
      <trkpt lat="45.91343" lon="4.66747">
        <ele>372.17</ele>
        <time>2013-11-11T10:09:23Z</time>
      </trkpt>
      <trkpt lat="45.91359" lon="4.66735">
        <ele>371.69</ele>
        <time>2013-11-11T10:09:26Z</time>
      </trkpt>
      <trkpt lat="45.91381" lon="4.66721">
        <ele>370.73</ele>
        <time>2013-11-11T10:09:31Z</time>
      </trkpt>
      <trkpt lat="45.91402" lon="4.66716">
        <ele>371.21</ele>
        <time>2013-11-11T10:09:38Z</time>
      </trkpt>
      <trkpt lat="45.91406" lon="4.66715">
        <ele>371.69</ele>
        <time>2013-11-11T10:09:39Z</time>
      </trkpt>
      <trkpt lat="45.91448" lon="4.66715">
        <ele>370.73</ele>
        <time>2013-11-11T10:09:47Z</time>
      </trkpt>
      <trkpt lat="45.91504" lon="4.6673">
        <ele>369.28</ele>
        <time>2013-11-11T10:09:57Z</time>
      </trkpt>
      <trkpt lat="45.91539" lon="4.66732">
        <ele>366.88</ele>
        <time>2013-11-11T10:10:05Z</time>
      </trkpt>
      <trkpt lat="45.91566" lon="4.66696">
        <ele>364.48</ele>
        <time>2013-11-11T10:10:14Z</time>
      </trkpt>
      <trkpt lat="45.91579" lon="4.66674">
        <ele>363.04</ele>
        <time>2013-11-11T10:10:18Z</time>
      </trkpt>
      <trkpt lat="45.91588" lon="4.66655">
        <ele>362.55</ele>
        <time>2013-11-11T10:10:21Z</time>
      </trkpt>
      <trkpt lat="45.91592" lon="4.6664">
        <ele>362.07</ele>
        <time>2013-11-11T10:10:23Z</time>
      </trkpt>
      <trkpt lat="45.91593" lon="4.66632">
        <ele>361.59</ele>
        <time>2013-11-11T10:10:24Z</time>
      </trkpt>
      <trkpt lat="45.91599" lon="4.66613">
        <ele>361.11</ele>
        <time>2013-11-11T10:10:26Z</time>
      </trkpt>
      <trkpt lat="45.91603" lon="4.66604">
        <ele>360.63</ele>
        <time>2013-11-11T10:10:27Z</time>
      </trkpt>
      <trkpt lat="45.91608" lon="4.66595">
        <ele>360.15</ele>
        <time>2013-11-11T10:10:28Z</time>
      </trkpt>
      <trkpt lat="45.91614" lon="4.66587">
        <ele>360.15</ele>
        <time>2013-11-11T10:10:29Z</time>
      </trkpt>
      <trkpt lat="45.9162" lon="4.66579">
        <ele>360.15</ele>
        <time>2013-11-11T10:10:30Z</time>
      </trkpt>
      <trkpt lat="45.9164" lon="4.66559">
        <ele>359.19</ele>
        <time>2013-11-11T10:10:33Z</time>
      </trkpt>
      <trkpt lat="45.91667" lon="4.6654">
        <ele>358.71</ele>
        <time>2013-11-11T10:10:38Z</time>
      </trkpt>
      <trkpt lat="45.91672" lon="4.66539">
        <ele>359.19</ele>
        <time>2013-11-11T10:10:39Z</time>
      </trkpt>
      <trkpt lat="45.91677" lon="4.66538">
        <ele>358.23</ele>
        <time>2013-11-11T10:10:40Z</time>
      </trkpt>
      <trkpt lat="45.9172" lon="4.66534">
        <ele>358.71</ele>
        <time>2013-11-11T10:10:50Z</time>
      </trkpt>
      <trkpt lat="45.91755" lon="4.66542">
        <ele>357.75</ele>
        <time>2013-11-11T10:10:59Z</time>
      </trkpt>
      <trkpt lat="45.91778" lon="4.66567">
        <ele>358.71</ele>
        <time>2013-11-11T10:11:07Z</time>
      </trkpt>
      <trkpt lat="45.91808" lon="4.66596">
        <ele>359.67</ele>
        <time>2013-11-11T10:11:17Z</time>
      </trkpt>
      <trkpt lat="45.91829" lon="4.66627">
        <ele>359.19</ele>
        <time>2013-11-11T10:11:26Z</time>
      </trkpt>
      <trkpt lat="45.91832" lon="4.66629">
        <ele>359.67</ele>
        <time>2013-11-11T10:11:27Z</time>
      </trkpt>
      <trkpt lat="45.91855" lon="4.66643">
        <ele>359.67</ele>
        <time>2013-11-11T10:11:35Z</time>
      </trkpt>
      <trkpt lat="45.9188" lon="4.66661">
        <ele>358.71</ele>
        <time>2013-11-11T10:11:42Z</time>
      </trkpt>
      <trkpt lat="45.91884" lon="4.66664">
        <ele>359.67</ele>
        <time>2013-11-11T10:11:43Z</time>
      </trkpt>
      <trkpt lat="45.91918" lon="4.66688">
        <ele>359.19</ele>
        <time>2013-11-11T10:11:51Z</time>
      </trkpt>
      <trkpt lat="45.91922" lon="4.66691">
        <ele>359.19</ele>
        <time>2013-11-11T10:11:52Z</time>
      </trkpt>
      <trkpt lat="45.91974" lon="4.66731">
        <ele>357.75</ele>
        <time>2013-11-11T10:12:04Z</time>
      </trkpt>
      <trkpt lat="45.92006" lon="4.66743">
        <ele>355.83</ele>
        <time>2013-11-11T10:12:10Z</time>
      </trkpt>
      <trkpt lat="45.92011" lon="4.66745">
        <ele>355.83</ele>
        <time>2013-11-11T10:12:11Z</time>
      </trkpt>
      <trkpt lat="45.92017" lon="4.66747">
        <ele>355.34</ele>
        <time>2013-11-11T10:12:12Z</time>
      </trkpt>
      <trkpt lat="45.92027" lon="4.66752">
        <ele>355.34</ele>
        <time>2013-11-11T10:12:14Z</time>
      </trkpt>
      <trkpt lat="45.92035" lon="4.6676">
        <ele>354.38</ele>
        <time>2013-11-11T10:12:16Z</time>
      </trkpt>
      <trkpt lat="45.92046" lon="4.66775">
        <ele>353.42</ele>
        <time>2013-11-11T10:12:19Z</time>
      </trkpt>
      <trkpt lat="45.92066" lon="4.66794">
        <ele>352.94</ele>
        <time>2013-11-11T10:12:26Z</time>
      </trkpt>
      <trkpt lat="45.92069" lon="4.66792">
        <ele>352.46</ele>
        <time>2013-11-11T10:12:27Z</time>
      </trkpt>
      <trkpt lat="45.92071" lon="4.66789">
        <ele>352.94</ele>
        <time>2013-11-11T10:12:28Z</time>
      </trkpt>
      <trkpt lat="45.92074" lon="4.66785">
        <ele>352.46</ele>
        <time>2013-11-11T10:12:29Z</time>
      </trkpt>
      <trkpt lat="45.92076" lon="4.66782">
        <ele>352.46</ele>
        <time>2013-11-11T10:12:30Z</time>
      </trkpt>
      <trkpt lat="45.9209" lon="4.66769">
        <ele>352.46</ele>
        <time>2013-11-11T10:12:38Z</time>
      </trkpt>
      <trkpt lat="45.92091" lon="4.66766">
        <ele>352.46</ele>
        <time>2013-11-11T10:12:40Z</time>
      </trkpt>
      <trkpt lat="45.92092" lon="4.66765">
        <ele>351.98</ele>
        <time>2013-11-11T10:12:41Z</time>
      </trkpt>
      <trkpt lat="45.92111" lon="4.66754">
        <ele>352.46</ele>
        <time>2013-11-11T10:12:51Z</time>
      </trkpt>
      <trkpt lat="45.9213" lon="4.66749">
        <ele>352.46</ele>
        <time>2013-11-11T10:13:00Z</time>
      </trkpt>
      <trkpt lat="45.92148" lon="4.66745">
        <ele>352.46</ele>
        <time>2013-11-11T10:13:08Z</time>
      </trkpt>
      <trkpt lat="45.92178" lon="4.66737">
        <ele>351.98</ele>
        <time>2013-11-11T10:13:17Z</time>
      </trkpt>
      <trkpt lat="45.92188" lon="4.66734">
        <ele>351.02</ele>
        <time>2013-11-11T10:13:20Z</time>
      </trkpt>
      <trkpt lat="45.92227" lon="4.66728">
        <ele>351.02</ele>
        <time>2013-11-11T10:13:30Z</time>
      </trkpt>
      <trkpt lat="45.92252" lon="4.66717">
        <ele>349.58</ele>
        <time>2013-11-11T10:13:37Z</time>
      </trkpt>
      <trkpt lat="45.92263" lon="4.667">
        <ele>349.58</ele>
        <time>2013-11-11T10:13:41Z</time>
      </trkpt>
      <trkpt lat="45.92266" lon="4.66695">
        <ele>349.58</ele>
        <time>2013-11-11T10:13:42Z</time>
      </trkpt>
      <trkpt lat="45.92268" lon="4.6669">
        <ele>350.54</ele>
        <time>2013-11-11T10:13:43Z</time>
      </trkpt>
      <trkpt lat="45.92271" lon="4.66685">
        <ele>350.06</ele>
        <time>2013-11-11T10:13:44Z</time>
      </trkpt>
      <trkpt lat="45.92274" lon="4.66681">
        <ele>350.06</ele>
        <time>2013-11-11T10:13:45Z</time>
      </trkpt>
      <trkpt lat="45.92277" lon="4.66677">
        <ele>350.06</ele>
        <time>2013-11-11T10:13:46Z</time>
      </trkpt>
      <trkpt lat="45.92281" lon="4.66673">
        <ele>350.06</ele>
        <time>2013-11-11T10:13:47Z</time>
      </trkpt>
      <trkpt lat="45.92292" lon="4.66661">
        <ele>350.06</ele>
        <time>2013-11-11T10:13:51Z</time>
      </trkpt>
      <trkpt lat="45.92294" lon="4.66658">
        <ele>349.1</ele>
        <time>2013-11-11T10:13:52Z</time>
      </trkpt>
      <trkpt lat="45.92295" lon="4.66656">
        <ele>349.58</ele>
        <time>2013-11-11T10:13:53Z</time>
      </trkpt>
      <trkpt lat="45.92297" lon="4.66654">
        <ele>349.58</ele>
        <time>2013-11-11T10:13:54Z</time>
      </trkpt>
      <trkpt lat="45.923" lon="4.66652">
        <ele>349.58</ele>
        <time>2013-11-11T10:13:55Z</time>
      </trkpt>
      <trkpt lat="45.92303" lon="4.66649">
        <ele>349.58</ele>
        <time>2013-11-11T10:13:56Z</time>
      </trkpt>
      <trkpt lat="45.92305" lon="4.66647">
        <ele>350.06</ele>
        <time>2013-11-11T10:13:57Z</time>
      </trkpt>
      <trkpt lat="45.92308" lon="4.66645">
        <ele>350.06</ele>
        <time>2013-11-11T10:13:58Z</time>
      </trkpt>
      <trkpt lat="45.92328" lon="4.66628">
        <ele>349.58</ele>
        <time>2013-11-11T10:14:05Z</time>
      </trkpt>
      <trkpt lat="45.92358" lon="4.66615">
        <ele>349.58</ele>
        <time>2013-11-11T10:14:13Z</time>
      </trkpt>
      <trkpt lat="45.92405" lon="4.66614">
        <ele>349.1</ele>
        <time>2013-11-11T10:14:24Z</time>
      </trkpt>
      <trkpt lat="45.92448" lon="4.66618">
        <ele>348.62</ele>
        <time>2013-11-11T10:14:35Z</time>
      </trkpt>
      <trkpt lat="45.92452" lon="4.66619">
        <ele>348.13</ele>
        <time>2013-11-11T10:14:37Z</time>
      </trkpt>
      <trkpt lat="45.92455" lon="4.66621">
        <ele>348.62</ele>
        <time>2013-11-11T10:14:39Z</time>
      </trkpt>
      <trkpt lat="45.92456" lon="4.66623">
        <ele>348.13</ele>
        <time>2013-11-11T10:14:40Z</time>
      </trkpt>
      <trkpt lat="45.92456" lon="4.66625">
        <ele>348.13</ele>
        <time>2013-11-11T10:14:41Z</time>
      </trkpt>
      <trkpt lat="45.92457" lon="4.66631">
        <ele>348.62</ele>
        <time>2013-11-11T10:14:49Z</time>
      </trkpt>
      <trkpt lat="45.92457" lon="4.66631">
        <ele>348.13</ele>
        <time>2013-11-11T10:14:57Z</time>
      </trkpt>
      <trkpt lat="45.92457" lon="4.6663">
        <ele>348.13</ele>
        <time>2013-11-11T10:15:08Z</time>
      </trkpt>
      <trkpt lat="45.92468" lon="4.66619">
        <ele>348.13</ele>
        <time>2013-11-11T10:15:17Z</time>
      </trkpt>
      <trkpt lat="45.92494" lon="4.66638">
        <ele>348.62</ele>
        <time>2013-11-11T10:15:26Z</time>
      </trkpt>
      <trkpt lat="45.9252" lon="4.66663">
        <ele>347.65</ele>
        <time>2013-11-11T10:15:36Z</time>
      </trkpt>
      <trkpt lat="45.92555" lon="4.6669">
        <ele>346.69</ele>
        <time>2013-11-11T10:15:45Z</time>
      </trkpt>
      <trkpt lat="45.9257" lon="4.667">
        <ele>345.73</ele>
        <time>2013-11-11T10:15:48Z</time>
      </trkpt>
      <trkpt lat="45.92625" lon="4.66736">
        <ele>342.37</ele>
        <time>2013-11-11T10:15:58Z</time>
      </trkpt>
      <trkpt lat="45.9263" lon="4.66736">
        <ele>341.89</ele>
        <time>2013-11-11T10:15:59Z</time>
      </trkpt>
      <trkpt lat="45.92636" lon="4.66737">
        <ele>340.92</ele>
        <time>2013-11-11T10:16:01Z</time>
      </trkpt>
      <trkpt lat="45.92658" lon="4.6673">
        <ele>340.92</ele>
        <time>2013-11-11T10:16:09Z</time>
      </trkpt>
      <trkpt lat="45.92688" lon="4.66717">
        <ele>339</ele>
        <time>2013-11-11T10:16:18Z</time>
      </trkpt>
      <trkpt lat="45.92693" lon="4.66716">
        <ele>339</ele>
        <time>2013-11-11T10:16:19Z</time>
      </trkpt>
      <trkpt lat="45.92697" lon="4.66716">
        <ele>338.52</ele>
        <time>2013-11-11T10:16:20Z</time>
      </trkpt>
      <trkpt lat="45.92743" lon="4.66717">
        <ele>338.04</ele>
        <time>2013-11-11T10:16:29Z</time>
      </trkpt>
      <trkpt lat="45.92748" lon="4.66717">
        <ele>338.04</ele>
        <time>2013-11-11T10:16:30Z</time>
      </trkpt>
      <trkpt lat="45.92756" lon="4.66719">
        <ele>338.52</ele>
        <time>2013-11-11T10:16:32Z</time>
      </trkpt>
      <trkpt lat="45.9276" lon="4.6672">
        <ele>338.04</ele>
        <time>2013-11-11T10:16:33Z</time>
      </trkpt>
      <trkpt lat="45.92763" lon="4.66722">
        <ele>337.56</ele>
        <time>2013-11-11T10:16:34Z</time>
      </trkpt>
      <trkpt lat="45.92766" lon="4.66723">
        <ele>337.56</ele>
        <time>2013-11-11T10:16:35Z</time>
      </trkpt>
      <trkpt lat="45.9277" lon="4.66725">
        <ele>337.56</ele>
        <time>2013-11-11T10:16:36Z</time>
      </trkpt>
      <trkpt lat="45.92774" lon="4.66728">
        <ele>337.56</ele>
        <time>2013-11-11T10:16:37Z</time>
      </trkpt>
      <trkpt lat="45.92778" lon="4.66731">
        <ele>337.56</ele>
        <time>2013-11-11T10:16:38Z</time>
      </trkpt>
      <trkpt lat="45.92794" lon="4.66749">
        <ele>337.08</ele>
        <time>2013-11-11T10:16:42Z</time>
      </trkpt>
      <trkpt lat="45.92798" lon="4.66755">
        <ele>337.08</ele>
        <time>2013-11-11T10:16:43Z</time>
      </trkpt>
      <trkpt lat="45.92801" lon="4.6676">
        <ele>336.12</ele>
        <time>2013-11-11T10:16:44Z</time>
      </trkpt>
      <trkpt lat="45.92807" lon="4.66771">
        <ele>336.12</ele>
        <time>2013-11-11T10:16:46Z</time>
      </trkpt>
      <trkpt lat="45.92811" lon="4.66776">
        <ele>336.12</ele>
        <time>2013-11-11T10:16:47Z</time>
      </trkpt>
      <trkpt lat="45.92815" lon="4.66779">
        <ele>335.64</ele>
        <time>2013-11-11T10:16:48Z</time>
      </trkpt>
      <trkpt lat="45.92819" lon="4.66782">
        <ele>335.64</ele>
        <time>2013-11-11T10:16:49Z</time>
      </trkpt>
      <trkpt lat="45.92824" lon="4.66785">
        <ele>335.16</ele>
        <time>2013-11-11T10:16:50Z</time>
      </trkpt>
      <trkpt lat="45.9287" lon="4.66816">
        <ele>333.71</ele>
        <time>2013-11-11T10:16:59Z</time>
      </trkpt>
      <trkpt lat="45.92885" lon="4.6683">
        <ele>332.75</ele>
        <time>2013-11-11T10:17:02Z</time>
      </trkpt>
      <trkpt lat="45.92893" lon="4.6684">
        <ele>332.75</ele>
        <time>2013-11-11T10:17:04Z</time>
      </trkpt>
      <trkpt lat="45.92897" lon="4.66847">
        <ele>333.23</ele>
        <time>2013-11-11T10:17:05Z</time>
      </trkpt>
      <trkpt lat="45.92905" lon="4.66861">
        <ele>332.27</ele>
        <time>2013-11-11T10:17:07Z</time>
      </trkpt>
      <trkpt lat="45.92908" lon="4.66868">
        <ele>332.27</ele>
        <time>2013-11-11T10:17:08Z</time>
      </trkpt>
      <trkpt lat="45.92916" lon="4.66889">
        <ele>331.79</ele>
        <time>2013-11-11T10:17:11Z</time>
      </trkpt>
      <trkpt lat="45.9292" lon="4.66895">
        <ele>331.79</ele>
        <time>2013-11-11T10:17:12Z</time>
      </trkpt>
      <trkpt lat="45.92945" lon="4.66945">
        <ele>330.83</ele>
        <time>2013-11-11T10:17:19Z</time>
      </trkpt>
      <trkpt lat="45.92951" lon="4.66961">
        <ele>330.35</ele>
        <time>2013-11-11T10:17:21Z</time>
      </trkpt>
      <trkpt lat="45.92952" lon="4.66968">
        <ele>329.87</ele>
        <time>2013-11-11T10:17:22Z</time>
      </trkpt>
      <trkpt lat="45.92954" lon="4.66975">
        <ele>330.35</ele>
        <time>2013-11-11T10:17:23Z</time>
      </trkpt>
      <trkpt lat="45.92958" lon="4.66981">
        <ele>330.35</ele>
        <time>2013-11-11T10:17:24Z</time>
      </trkpt>
      <trkpt lat="45.92961" lon="4.66986">
        <ele>330.35</ele>
        <time>2013-11-11T10:17:25Z</time>
      </trkpt>
      <trkpt lat="45.92966" lon="4.6699">
        <ele>329.39</ele>
        <time>2013-11-11T10:17:26Z</time>
      </trkpt>
      <trkpt lat="45.92971" lon="4.66993">
        <ele>329.87</ele>
        <time>2013-11-11T10:17:27Z</time>
      </trkpt>
      <trkpt lat="45.92976" lon="4.66995">
        <ele>329.39</ele>
        <time>2013-11-11T10:17:28Z</time>
      </trkpt>
      <trkpt lat="45.92981" lon="4.66995">
        <ele>329.39</ele>
        <time>2013-11-11T10:17:29Z</time>
      </trkpt>
      <trkpt lat="45.92986" lon="4.66995">
        <ele>328.91</ele>
        <time>2013-11-11T10:17:30Z</time>
      </trkpt>
      <trkpt lat="45.92991" lon="4.66994">
        <ele>329.39</ele>
        <time>2013-11-11T10:17:31Z</time>
      </trkpt>
      <trkpt lat="45.93016" lon="4.66992">
        <ele>327.95</ele>
        <time>2013-11-11T10:17:36Z</time>
      </trkpt>
      <trkpt lat="45.93021" lon="4.66991">
        <ele>327.95</ele>
        <time>2013-11-11T10:17:37Z</time>
      </trkpt>
      <trkpt lat="45.93038" lon="4.66989">
        <ele>326.5</ele>
        <time>2013-11-11T10:17:40Z</time>
      </trkpt>
      <trkpt lat="45.93063" lon="4.66984">
        <ele>326.02</ele>
        <time>2013-11-11T10:17:44Z</time>
      </trkpt>
      <trkpt lat="45.93074" lon="4.66983">
        <ele>326.02</ele>
        <time>2013-11-11T10:17:46Z</time>
      </trkpt>
      <trkpt lat="45.9308" lon="4.66984">
        <ele>325.06</ele>
        <time>2013-11-11T10:17:47Z</time>
      </trkpt>
      <trkpt lat="45.93087" lon="4.66985">
        <ele>324.58</ele>
        <time>2013-11-11T10:17:48Z</time>
      </trkpt>
      <trkpt lat="45.93094" lon="4.66988">
        <ele>324.58</ele>
        <time>2013-11-11T10:17:49Z</time>
      </trkpt>
      <trkpt lat="45.93101" lon="4.66992">
        <ele>323.62</ele>
        <time>2013-11-11T10:17:50Z</time>
      </trkpt>
      <trkpt lat="45.93107" lon="4.66996">
        <ele>323.62</ele>
        <time>2013-11-11T10:17:51Z</time>
      </trkpt>
      <trkpt lat="45.93114" lon="4.66999">
        <ele>323.62</ele>
        <time>2013-11-11T10:17:52Z</time>
      </trkpt>
      <trkpt lat="45.93122" lon="4.67001">
        <ele>323.62</ele>
        <time>2013-11-11T10:17:53Z</time>
      </trkpt>
      <trkpt lat="45.93129" lon="4.67004">
        <ele>322.66</ele>
        <time>2013-11-11T10:17:54Z</time>
      </trkpt>
      <trkpt lat="45.93164" lon="4.6702">
        <ele>322.18</ele>
        <time>2013-11-11T10:18:01Z</time>
      </trkpt>
      <trkpt lat="45.93166" lon="4.6702">
        <ele>321.7</ele>
        <time>2013-11-11T10:18:02Z</time>
      </trkpt>
      <trkpt lat="45.93169" lon="4.67019">
        <ele>321.22</ele>
        <time>2013-11-11T10:18:09Z</time>
      </trkpt>
      <trkpt lat="45.93169" lon="4.67017">
        <ele>321.7</ele>
        <time>2013-11-11T10:18:10Z</time>
      </trkpt>
      <trkpt lat="45.93169" lon="4.67015">
        <ele>321.22</ele>
        <time>2013-11-11T10:18:11Z</time>
      </trkpt>
      <trkpt lat="45.93169" lon="4.67013">
        <ele>321.22</ele>
        <time>2013-11-11T10:18:12Z</time>
      </trkpt>
      <trkpt lat="45.93169" lon="4.67011">
        <ele>321.7</ele>
        <time>2013-11-11T10:18:13Z</time>
      </trkpt>
      <trkpt lat="45.93168" lon="4.67008">
        <ele>321.7</ele>
        <time>2013-11-11T10:18:14Z</time>
      </trkpt>
      <trkpt lat="45.93168" lon="4.67005">
        <ele>321.7</ele>
        <time>2013-11-11T10:18:15Z</time>
      </trkpt>
      <trkpt lat="45.9316" lon="4.66964">
        <ele>322.66</ele>
        <time>2013-11-11T10:18:24Z</time>
      </trkpt>
      <trkpt lat="45.93152" lon="4.66905">
        <ele>325.06</ele>
        <time>2013-11-11T10:18:35Z</time>
      </trkpt>
      <trkpt lat="45.93148" lon="4.6684">
        <ele>326.5</ele>
        <time>2013-11-11T10:18:47Z</time>
      </trkpt>
      <trkpt lat="45.93148" lon="4.66829">
        <ele>331.31</ele>
        <time>2013-11-11T10:18:49Z</time>
      </trkpt>
      <trkpt lat="45.93148" lon="4.66823">
        <ele>327.47</ele>
        <time>2013-11-11T10:18:50Z</time>
      </trkpt>
      <trkpt lat="45.93146" lon="4.66791">
        <ele>332.75</ele>
        <time>2013-11-11T10:18:56Z</time>
      </trkpt>
      <trkpt lat="45.93145" lon="4.66786">
        <ele>328.43</ele>
        <time>2013-11-11T10:18:57Z</time>
      </trkpt>
      <trkpt lat="45.93141" lon="4.66745">
        <ele>326.99</ele>
        <time>2013-11-11T10:19:07Z</time>
      </trkpt>
      <trkpt lat="45.93134" lon="4.66699">
        <ele>326.02</ele>
        <time>2013-11-11T10:19:16Z</time>
      </trkpt>
      <trkpt lat="45.93135" lon="4.66685">
        <ele>326.02</ele>
        <time>2013-11-11T10:19:19Z</time>
      </trkpt>
      <trkpt lat="45.93138" lon="4.66682">
        <ele>326.5</ele>
        <time>2013-11-11T10:19:20Z</time>
      </trkpt>
      <trkpt lat="45.93142" lon="4.66682">
        <ele>326.5</ele>
        <time>2013-11-11T10:19:21Z</time>
      </trkpt>
      <trkpt lat="45.93145" lon="4.66685">
        <ele>326.02</ele>
        <time>2013-11-11T10:19:22Z</time>
      </trkpt>
      <trkpt lat="45.93146" lon="4.6669">
        <ele>326.02</ele>
        <time>2013-11-11T10:19:23Z</time>
      </trkpt>
      <trkpt lat="45.93148" lon="4.66694">
        <ele>326.5</ele>
        <time>2013-11-11T10:19:24Z</time>
      </trkpt>
      <trkpt lat="45.93151" lon="4.66698">
        <ele>326.5</ele>
        <time>2013-11-11T10:19:25Z</time>
      </trkpt>
      <trkpt lat="45.93154" lon="4.667">
        <ele>326.5</ele>
        <time>2013-11-11T10:19:26Z</time>
      </trkpt>
      <trkpt lat="45.93157" lon="4.66702">
        <ele>326.5</ele>
        <time>2013-11-11T10:19:27Z</time>
      </trkpt>
      <trkpt lat="45.93161" lon="4.66705">
        <ele>325.54</ele>
        <time>2013-11-11T10:19:28Z</time>
      </trkpt>
      <trkpt lat="45.93164" lon="4.66708">
        <ele>326.02</ele>
        <time>2013-11-11T10:19:29Z</time>
      </trkpt>
      <trkpt lat="45.93167" lon="4.66712">
        <ele>325.54</ele>
        <time>2013-11-11T10:19:30Z</time>
      </trkpt>
      <trkpt lat="45.9317" lon="4.66717">
        <ele>325.54</ele>
        <time>2013-11-11T10:19:31Z</time>
      </trkpt>
      <trkpt lat="45.93173" lon="4.66722">
        <ele>325.54</ele>
        <time>2013-11-11T10:19:32Z</time>
      </trkpt>
      <trkpt lat="45.93186" lon="4.66745">
        <ele>325.54</ele>
        <time>2013-11-11T10:19:37Z</time>
      </trkpt>
      <trkpt lat="45.93188" lon="4.6675">
        <ele>326.02</ele>
        <time>2013-11-11T10:19:38Z</time>
      </trkpt>
      <trkpt lat="45.9319" lon="4.66755">
        <ele>325.54</ele>
        <time>2013-11-11T10:19:39Z</time>
      </trkpt>
      <trkpt lat="45.93193" lon="4.66759">
        <ele>325.54</ele>
        <time>2013-11-11T10:19:40Z</time>
      </trkpt>
      <trkpt lat="45.93196" lon="4.66764">
        <ele>326.02</ele>
        <time>2013-11-11T10:19:41Z</time>
      </trkpt>
      <trkpt lat="45.93199" lon="4.66768">
        <ele>325.54</ele>
        <time>2013-11-11T10:19:42Z</time>
      </trkpt>
      <trkpt lat="45.93202" lon="4.66772">
        <ele>326.02</ele>
        <time>2013-11-11T10:19:43Z</time>
      </trkpt>
      <trkpt lat="45.93206" lon="4.66775">
        <ele>325.06</ele>
        <time>2013-11-11T10:19:44Z</time>
      </trkpt>
      <trkpt lat="45.9321" lon="4.66778">
        <ele>328.91</ele>
        <time>2013-11-11T10:19:45Z</time>
      </trkpt>
      <trkpt lat="45.93213" lon="4.6678">
        <ele>325.54</ele>
        <time>2013-11-11T10:19:46Z</time>
      </trkpt>
      <trkpt lat="45.93228" lon="4.66786">
        <ele>322.18</ele>
        <time>2013-11-11T10:19:50Z</time>
      </trkpt>
      <trkpt lat="45.93244" lon="4.66792">
        <ele>325.06</ele>
        <time>2013-11-11T10:19:54Z</time>
      </trkpt>
      <trkpt lat="45.93249" lon="4.66793">
        <ele>325.54</ele>
        <time>2013-11-11T10:19:55Z</time>
      </trkpt>
      <trkpt lat="45.93253" lon="4.66794">
        <ele>325.06</ele>
        <time>2013-11-11T10:19:56Z</time>
      </trkpt>
      <trkpt lat="45.93288" lon="4.66797">
        <ele>319.3</ele>
        <time>2013-11-11T10:20:03Z</time>
      </trkpt>
      <trkpt lat="45.93293" lon="4.66797">
        <ele>324.58</ele>
        <time>2013-11-11T10:20:04Z</time>
      </trkpt>
      <trkpt lat="45.93297" lon="4.66797">
        <ele>313.53</ele>
        <time>2013-11-11T10:20:05Z</time>
      </trkpt>
      <trkpt lat="45.93302" lon="4.66798">
        <ele>324.1</ele>
        <time>2013-11-11T10:20:06Z</time>
      </trkpt>
      <trkpt lat="45.93307" lon="4.66798">
        <ele>320.74</ele>
        <time>2013-11-11T10:20:07Z</time>
      </trkpt>
      <trkpt lat="45.93311" lon="4.66798">
        <ele>324.1</ele>
        <time>2013-11-11T10:20:08Z</time>
      </trkpt>
      <trkpt lat="45.93321" lon="4.66799">
        <ele>318.81</ele>
        <time>2013-11-11T10:20:10Z</time>
      </trkpt>
      <trkpt lat="45.93326" lon="4.668">
        <ele>324.1</ele>
        <time>2013-11-11T10:20:11Z</time>
      </trkpt>
      <trkpt lat="45.93336" lon="4.66802">
        <ele>322.66</ele>
        <time>2013-11-11T10:20:13Z</time>
      </trkpt>
      <trkpt lat="45.93346" lon="4.66808">
        <ele>322.66</ele>
        <time>2013-11-11T10:20:15Z</time>
      </trkpt>
      <trkpt lat="45.93359" lon="4.66817">
        <ele>322.18</ele>
        <time>2013-11-11T10:20:18Z</time>
      </trkpt>
      <trkpt lat="45.93365" lon="4.66818">
        <ele>321.22</ele>
        <time>2013-11-11T10:20:19Z</time>
      </trkpt>
      <trkpt lat="45.9337" lon="4.66817">
        <ele>321.22</ele>
        <time>2013-11-11T10:20:20Z</time>
      </trkpt>
      <trkpt lat="45.93376" lon="4.66816">
        <ele>322.66</ele>
        <time>2013-11-11T10:20:21Z</time>
      </trkpt>
      <trkpt lat="45.93382" lon="4.66814">
        <ele>321.7</ele>
        <time>2013-11-11T10:20:22Z</time>
      </trkpt>
      <trkpt lat="45.93402" lon="4.66812">
        <ele>319.78</ele>
        <time>2013-11-11T10:20:25Z</time>
      </trkpt>
      <trkpt lat="45.93461" lon="4.66815">
        <ele>318.33</ele>
        <time>2013-11-11T10:20:34Z</time>
      </trkpt>
      <trkpt lat="45.93479" lon="4.66817">
        <ele>316.89</ele>
        <time>2013-11-11T10:20:37Z</time>
      </trkpt>
      <trkpt lat="45.93511" lon="4.6682">
        <ele>315.45</ele>
        <time>2013-11-11T10:20:42Z</time>
      </trkpt>
      <trkpt lat="45.93517" lon="4.66823">
        <ele>315.93</ele>
        <time>2013-11-11T10:20:43Z</time>
      </trkpt>
      <trkpt lat="45.93522" lon="4.66825">
        <ele>315.45</ele>
        <time>2013-11-11T10:20:44Z</time>
      </trkpt>
      <trkpt lat="45.93527" lon="4.66827">
        <ele>315.45</ele>
        <time>2013-11-11T10:20:45Z</time>
      </trkpt>
      <trkpt lat="45.93532" lon="4.6683">
        <ele>314.97</ele>
        <time>2013-11-11T10:20:46Z</time>
      </trkpt>
      <trkpt lat="45.93541" lon="4.66834">
        <ele>314.97</ele>
        <time>2013-11-11T10:20:48Z</time>
      </trkpt>
      <trkpt lat="45.93556" lon="4.66838">
        <ele>314.01</ele>
        <time>2013-11-11T10:20:51Z</time>
      </trkpt>
      <trkpt lat="45.9356" lon="4.66839">
        <ele>314.49</ele>
        <time>2013-11-11T10:20:52Z</time>
      </trkpt>
      <trkpt lat="45.93564" lon="4.6684">
        <ele>314.49</ele>
        <time>2013-11-11T10:20:53Z</time>
      </trkpt>
      <trkpt lat="45.93567" lon="4.66842">
        <ele>314.49</ele>
        <time>2013-11-11T10:20:54Z</time>
      </trkpt>
      <trkpt lat="45.93569" lon="4.66843">
        <ele>314.49</ele>
        <time>2013-11-11T10:20:55Z</time>
      </trkpt>
      <trkpt lat="45.93572" lon="4.66845">
        <ele>314.01</ele>
        <time>2013-11-11T10:20:56Z</time>
      </trkpt>
      <trkpt lat="45.93575" lon="4.66846">
        <ele>314.49</ele>
        <time>2013-11-11T10:20:57Z</time>
      </trkpt>
      <trkpt lat="45.93577" lon="4.66847">
        <ele>314.01</ele>
        <time>2013-11-11T10:20:58Z</time>
      </trkpt>
      <trkpt lat="45.9358" lon="4.66848">
        <ele>314.01</ele>
        <time>2013-11-11T10:20:59Z</time>
      </trkpt>
      <trkpt lat="45.93582" lon="4.6685">
        <ele>314.01</ele>
        <time>2013-11-11T10:21:00Z</time>
      </trkpt>
      <trkpt lat="45.93584" lon="4.66851">
        <ele>314.01</ele>
        <time>2013-11-11T10:21:01Z</time>
      </trkpt>
      <trkpt lat="45.93594" lon="4.66874">
        <ele>314.01</ele>
        <time>2013-11-11T10:21:07Z</time>
      </trkpt>
      <trkpt lat="45.936" lon="4.66886">
        <ele>314.49</ele>
        <time>2013-11-11T10:21:09Z</time>
      </trkpt>
      <trkpt lat="45.93607" lon="4.66906">
        <ele>315.45</ele>
        <time>2013-11-11T10:21:14Z</time>
      </trkpt>
      <trkpt lat="45.93614" lon="4.66914">
        <ele>314.97</ele>
        <time>2013-11-11T10:21:18Z</time>
      </trkpt>
      <trkpt lat="45.93638" lon="4.66929">
        <ele>314.49</ele>
        <time>2013-11-11T10:21:28Z</time>
      </trkpt>
      <trkpt lat="45.93645" lon="4.66932">
        <ele>314.01</ele>
        <time>2013-11-11T10:21:31Z</time>
      </trkpt>
      <trkpt lat="45.93657" lon="4.66941">
        <ele>314.01</ele>
        <time>2013-11-11T10:21:36Z</time>
      </trkpt>
      <trkpt lat="45.93682" lon="4.66953">
        <ele>312.57</ele>
        <time>2013-11-11T10:21:45Z</time>
      </trkpt>
      <trkpt lat="45.93692" lon="4.66955">
        <ele>313.05</ele>
        <time>2013-11-11T10:21:51Z</time>
      </trkpt>
      <trkpt lat="45.93692" lon="4.66955">
        <ele>312.57</ele>
        <time>2013-11-11T10:22:07Z</time>
      </trkpt>
      <trkpt lat="45.93692" lon="4.66956">
        <ele>312.57</ele>
        <time>2013-11-11T10:22:29Z</time>
      </trkpt>
      <trkpt lat="45.93692" lon="4.66956">
        <ele>312.09</ele>
        <time>2013-11-11T10:22:53Z</time>
      </trkpt>
      <trkpt lat="45.93692" lon="4.66955">
        <ele>312.09</ele>
        <time>2013-11-11T10:23:20Z</time>
      </trkpt>
      <trkpt lat="45.93692" lon="4.66955">
        <ele>312.57</ele>
        <time>2013-11-11T10:23:39Z</time>
      </trkpt>
      <trkpt lat="45.93692" lon="4.66956">
        <ele>311.6</ele>
        <time>2013-11-11T10:23:59Z</time>
      </trkpt>
      <trkpt lat="45.93692" lon="4.66956">
        <ele>312.09</ele>
        <time>2013-11-11T10:24:16Z</time>
      </trkpt>
      <trkpt lat="45.93693" lon="4.66957">
        <ele>312.09</ele>
        <time>2013-11-11T10:24:29Z</time>
      </trkpt>
      <trkpt lat="45.93693" lon="4.66957">
        <ele>312.57</ele>
        <time>2013-11-11T10:24:50Z</time>
      </trkpt>
      <trkpt lat="45.93694" lon="4.66956">
        <ele>312.09</ele>
        <time>2013-11-11T10:25:15Z</time>
      </trkpt>
      <trkpt lat="45.93694" lon="4.66956">
        <ele>312.09</ele>
        <time>2013-11-11T10:25:38Z</time>
      </trkpt>
      <trkpt lat="45.93694" lon="4.66957">
        <ele>312.57</ele>
        <time>2013-11-11T10:26:01Z</time>
      </trkpt>
      <trkpt lat="45.93694" lon="4.66957">
        <ele>311.6</ele>
        <time>2013-11-11T10:26:24Z</time>
      </trkpt>
      <trkpt lat="45.93694" lon="4.66957">
        <ele>312.57</ele>
        <time>2013-11-11T10:26:44Z</time>
      </trkpt>
      <trkpt lat="45.93694" lon="4.66957">
        <ele>312.09</ele>
        <time>2013-11-11T10:27:04Z</time>
      </trkpt>
      <trkpt lat="45.93694" lon="4.66957">
        <ele>312.57</ele>
        <time>2013-11-11T10:27:25Z</time>
      </trkpt>
      <trkpt lat="45.93694" lon="4.66957">
        <ele>312.57</ele>
        <time>2013-11-11T10:27:43Z</time>
      </trkpt>
      <trkpt lat="45.93694" lon="4.66957">
        <ele>312.09</ele>
        <time>2013-11-11T10:28:02Z</time>
      </trkpt>
      <trkpt lat="45.93694" lon="4.66957">
        <ele>312.57</ele>
        <time>2013-11-11T10:28:15Z</time>
      </trkpt>
      <trkpt lat="45.93698" lon="4.66957">
        <ele>311.6</ele>
        <time>2013-11-11T10:28:25Z</time>
      </trkpt>
      <trkpt lat="45.93705" lon="4.66958">
        <ele>311.6</ele>
        <time>2013-11-11T10:28:28Z</time>
      </trkpt>
      <trkpt lat="45.93716" lon="4.6696">
        <ele>311.6</ele>
        <time>2013-11-11T10:28:32Z</time>
      </trkpt>
      <trkpt lat="45.9374" lon="4.66949">
        <ele>310.64</ele>
        <time>2013-11-11T10:28:39Z</time>
      </trkpt>
      <trkpt lat="45.93754" lon="4.66946">
        <ele>311.12</ele>
        <time>2013-11-11T10:28:42Z</time>
      </trkpt>
      <trkpt lat="45.93759" lon="4.66946">
        <ele>310.64</ele>
        <time>2013-11-11T10:28:43Z</time>
      </trkpt>
      <trkpt lat="45.93765" lon="4.66947">
        <ele>310.16</ele>
        <time>2013-11-11T10:28:44Z</time>
      </trkpt>
      <trkpt lat="45.93772" lon="4.6695">
        <ele>310.16</ele>
        <time>2013-11-11T10:28:45Z</time>
      </trkpt>
      <trkpt lat="45.93777" lon="4.66953">
        <ele>310.16</ele>
        <time>2013-11-11T10:28:46Z</time>
      </trkpt>
      <trkpt lat="45.93801" lon="4.66966">
        <ele>309.2</ele>
        <time>2013-11-11T10:28:52Z</time>
      </trkpt>
      <trkpt lat="45.93813" lon="4.66972">
        <ele>309.2</ele>
        <time>2013-11-11T10:28:54Z</time>
      </trkpt>
      <trkpt lat="45.93827" lon="4.66977">
        <ele>308.24</ele>
        <time>2013-11-11T10:28:56Z</time>
      </trkpt>
      <trkpt lat="45.93833" lon="4.66978">
        <ele>309.2</ele>
        <time>2013-11-11T10:28:57Z</time>
      </trkpt>
      <trkpt lat="45.93838" lon="4.66979">
        <ele>308.72</ele>
        <time>2013-11-11T10:28:58Z</time>
      </trkpt>
      <trkpt lat="45.93871" lon="4.66981">
        <ele>307.28</ele>
        <time>2013-11-11T10:29:05Z</time>
      </trkpt>
      <trkpt lat="45.939" lon="4.66989">
        <ele>307.28</ele>
        <time>2013-11-11T10:29:12Z</time>
      </trkpt>
      <trkpt lat="45.93927" lon="4.66996">
        <ele>306.32</ele>
        <time>2013-11-11T10:29:20Z</time>
      </trkpt>
      <trkpt lat="45.93952" lon="4.6699">
        <ele>306.8</ele>
        <time>2013-11-11T10:29:27Z</time>
      </trkpt>
      <trkpt lat="45.93987" lon="4.66991">
        <ele>305.84</ele>
        <time>2013-11-11T10:29:35Z</time>
      </trkpt>
      <trkpt lat="45.94017" lon="4.67008">
        <ele>305.36</ele>
        <time>2013-11-11T10:29:42Z</time>
      </trkpt>
      <trkpt lat="45.94026" lon="4.67011">
        <ele>305.36</ele>
        <time>2013-11-11T10:29:44Z</time>
      </trkpt>
      <trkpt lat="45.94031" lon="4.67014">
        <ele>305.84</ele>
        <time>2013-11-11T10:29:45Z</time>
      </trkpt>
      <trkpt lat="45.94035" lon="4.67016">
        <ele>306.32</ele>
        <time>2013-11-11T10:29:46Z</time>
      </trkpt>
      <trkpt lat="45.94074" lon="4.67037">
        <ele>305.84</ele>
        <time>2013-11-11T10:29:57Z</time>
      </trkpt>
      <trkpt lat="45.94077" lon="4.67034">
        <ele>304.88</ele>
        <time>2013-11-11T10:29:58Z</time>
      </trkpt>
      <trkpt lat="45.94078" lon="4.67031">
        <ele>304.88</ele>
        <time>2013-11-11T10:29:59Z</time>
      </trkpt>
      <trkpt lat="45.94079" lon="4.67028">
        <ele>304.88</ele>
        <time>2013-11-11T10:30:00Z</time>
      </trkpt>
      <trkpt lat="45.94081" lon="4.67025">
        <ele>305.36</ele>
        <time>2013-11-11T10:30:01Z</time>
      </trkpt>
      <trkpt lat="45.94095" lon="4.66996">
        <ele>305.36</ele>
        <time>2013-11-11T10:30:09Z</time>
      </trkpt>
      <trkpt lat="45.94101" lon="4.66975">
        <ele>305.84</ele>
        <time>2013-11-11T10:30:13Z</time>
      </trkpt>
      <trkpt lat="45.94109" lon="4.66944">
        <ele>305.36</ele>
        <time>2013-11-11T10:30:18Z</time>
      </trkpt>
      <trkpt lat="45.94111" lon="4.66938">
        <ele>304.88</ele>
        <time>2013-11-11T10:30:19Z</time>
      </trkpt>
      <trkpt lat="45.94113" lon="4.66932">
        <ele>305.36</ele>
        <time>2013-11-11T10:30:20Z</time>
      </trkpt>
      <trkpt lat="45.94116" lon="4.66928">
        <ele>304.39</ele>
        <time>2013-11-11T10:30:21Z</time>
      </trkpt>
      <trkpt lat="45.9412" lon="4.66925">
        <ele>303.91</ele>
        <time>2013-11-11T10:30:22Z</time>
      </trkpt>
      <trkpt lat="45.94123" lon="4.66923">
        <ele>304.39</ele>
        <time>2013-11-11T10:30:23Z</time>
      </trkpt>
      <trkpt lat="45.94126" lon="4.66922">
        <ele>303.91</ele>
        <time>2013-11-11T10:30:24Z</time>
      </trkpt>
      <trkpt lat="45.94132" lon="4.66923">
        <ele>303.91</ele>
        <time>2013-11-11T10:30:26Z</time>
      </trkpt>
      <trkpt lat="45.94134" lon="4.66924">
        <ele>303.43</ele>
        <time>2013-11-11T10:30:27Z</time>
      </trkpt>
      <trkpt lat="45.94136" lon="4.66926">
        <ele>303.91</ele>
        <time>2013-11-11T10:30:28Z</time>
      </trkpt>
      <trkpt lat="45.94139" lon="4.66928">
        <ele>303.91</ele>
        <time>2013-11-11T10:30:29Z</time>
      </trkpt>
      <trkpt lat="45.94142" lon="4.6693">
        <ele>303.91</ele>
        <time>2013-11-11T10:30:30Z</time>
      </trkpt>
      <trkpt lat="45.94185" lon="4.6695">
        <ele>303.91</ele>
        <time>2013-11-11T10:30:40Z</time>
      </trkpt>
      <trkpt lat="45.942" lon="4.66959">
        <ele>303.43</ele>
        <time>2013-11-11T10:30:43Z</time>
      </trkpt>
      <trkpt lat="45.94224" lon="4.66979">
        <ele>303.43</ele>
        <time>2013-11-11T10:30:49Z</time>
      </trkpt>
      <trkpt lat="45.94229" lon="4.66982">
        <ele>303.43</ele>
        <time>2013-11-11T10:30:50Z</time>
      </trkpt>
      <trkpt lat="45.94233" lon="4.66985">
        <ele>303.43</ele>
        <time>2013-11-11T10:30:51Z</time>
      </trkpt>
      <trkpt lat="45.94237" lon="4.66988">
        <ele>303.43</ele>
        <time>2013-11-11T10:30:52Z</time>
      </trkpt>
      <trkpt lat="45.9424" lon="4.66991">
        <ele>302.95</ele>
        <time>2013-11-11T10:30:53Z</time>
      </trkpt>
      <trkpt lat="45.94244" lon="4.66993">
        <ele>302.47</ele>
        <time>2013-11-11T10:30:54Z</time>
      </trkpt>
      <trkpt lat="45.94248" lon="4.66995">
        <ele>302.47</ele>
        <time>2013-11-11T10:30:55Z</time>
      </trkpt>
      <trkpt lat="45.94253" lon="4.66996">
        <ele>302.47</ele>
        <time>2013-11-11T10:30:56Z</time>
      </trkpt>
      <trkpt lat="45.94258" lon="4.66997">
        <ele>302.47</ele>
        <time>2013-11-11T10:30:57Z</time>
      </trkpt>
      <trkpt lat="45.94262" lon="4.66997">
        <ele>302.47</ele>
        <time>2013-11-11T10:30:58Z</time>
      </trkpt>
      <trkpt lat="45.94266" lon="4.66997">
        <ele>302.95</ele>
        <time>2013-11-11T10:30:59Z</time>
      </trkpt>
      <trkpt lat="45.94295" lon="4.67004">
        <ele>301.51</ele>
        <time>2013-11-11T10:31:07Z</time>
      </trkpt>
      <trkpt lat="45.94305" lon="4.67004">
        <ele>301.51</ele>
        <time>2013-11-11T10:31:11Z</time>
      </trkpt>
      <trkpt lat="45.94307" lon="4.67003">
        <ele>301.99</ele>
        <time>2013-11-11T10:31:12Z</time>
      </trkpt>
      <trkpt lat="45.9431" lon="4.67003">
        <ele>301.51</ele>
        <time>2013-11-11T10:31:13Z</time>
      </trkpt>
      <trkpt lat="45.94324" lon="4.67005">
        <ele>301.51</ele>
        <time>2013-11-11T10:31:17Z</time>
      </trkpt>
      <trkpt lat="45.94327" lon="4.67007">
        <ele>301.03</ele>
        <time>2013-11-11T10:31:18Z</time>
      </trkpt>
      <trkpt lat="45.9433" lon="4.67009">
        <ele>301.03</ele>
        <time>2013-11-11T10:31:19Z</time>
      </trkpt>
      <trkpt lat="45.94334" lon="4.67012">
        <ele>301.03</ele>
        <time>2013-11-11T10:31:20Z</time>
      </trkpt>
      <trkpt lat="45.94337" lon="4.67014">
        <ele>301.03</ele>
        <time>2013-11-11T10:31:21Z</time>
      </trkpt>
      <trkpt lat="45.94365" lon="4.67034">
        <ele>301.03</ele>
        <time>2013-11-11T10:31:30Z</time>
      </trkpt>
      <trkpt lat="45.94397" lon="4.67044">
        <ele>300.55</ele>
        <time>2013-11-11T10:31:39Z</time>
      </trkpt>
      <trkpt lat="45.94401" lon="4.67044">
        <ele>300.07</ele>
        <time>2013-11-11T10:31:40Z</time>
      </trkpt>
      <trkpt lat="45.94406" lon="4.67042">
        <ele>300.07</ele>
        <time>2013-11-11T10:31:47Z</time>
      </trkpt>
      <trkpt lat="45.94407" lon="4.67043">
        <ele>300.07</ele>
        <time>2013-11-11T10:31:58Z</time>
      </trkpt>
      <trkpt lat="45.94407" lon="4.67043">
        <ele>299.59</ele>
        <time>2013-11-11T10:32:13Z</time>
      </trkpt>
      <trkpt lat="45.94407" lon="4.67043">
        <ele>299.59</ele>
        <time>2013-11-11T10:32:31Z</time>
      </trkpt>
      <trkpt lat="45.94407" lon="4.67043">
        <ele>300.07</ele>
        <time>2013-11-11T10:32:51Z</time>
      </trkpt>
      <trkpt lat="45.94407" lon="4.67043">
        <ele>294.3</ele>
        <time>2013-11-11T10:33:05Z</time>
      </trkpt>
      <trkpt lat="45.94407" lon="4.67043">
        <ele>301.03</ele>
        <time>2013-11-11T10:33:06Z</time>
      </trkpt>
      <trkpt lat="45.94407" lon="4.67043">
        <ele>299.59</ele>
        <time>2013-11-11T10:33:21Z</time>
      </trkpt>
      <trkpt lat="45.94407" lon="4.67043">
        <ele>301.03</ele>
        <time>2013-11-11T10:33:36Z</time>
      </trkpt>
      <trkpt lat="45.94414" lon="4.67045">
        <ele>300.55</ele>
        <time>2013-11-11T10:33:45Z</time>
      </trkpt>
      <trkpt lat="45.94415" lon="4.67047">
        <ele>300.07</ele>
        <time>2013-11-11T10:33:46Z</time>
      </trkpt>
      <trkpt lat="45.94434" lon="4.6706">
        <ele>299.59</ele>
        <time>2013-11-11T10:33:54Z</time>
      </trkpt>
      <trkpt lat="45.94455" lon="4.67073">
        <ele>299.11</ele>
        <time>2013-11-11T10:34:00Z</time>
      </trkpt>
      <trkpt lat="45.94471" lon="4.67078">
        <ele>298.15</ele>
        <time>2013-11-11T10:34:03Z</time>
      </trkpt>
      <trkpt lat="45.94498" lon="4.67089">
        <ele>298.15</ele>
        <time>2013-11-11T10:34:08Z</time>
      </trkpt>
      <trkpt lat="45.94508" lon="4.67092">
        <ele>299.11</ele>
        <time>2013-11-11T10:34:10Z</time>
      </trkpt>
      <trkpt lat="45.94513" lon="4.67092">
        <ele>298.15</ele>
        <time>2013-11-11T10:34:11Z</time>
      </trkpt>
      <trkpt lat="45.94518" lon="4.67092">
        <ele>298.15</ele>
        <time>2013-11-11T10:34:12Z</time>
      </trkpt>
      <trkpt lat="45.94523" lon="4.67091">
        <ele>298.63</ele>
        <time>2013-11-11T10:34:13Z</time>
      </trkpt>
      <trkpt lat="45.94527" lon="4.67089">
        <ele>298.63</ele>
        <time>2013-11-11T10:34:14Z</time>
      </trkpt>
      <trkpt lat="45.94533" lon="4.67088">
        <ele>298.15</ele>
        <time>2013-11-11T10:34:15Z</time>
      </trkpt>
      <trkpt lat="45.94538" lon="4.67088">
        <ele>298.15</ele>
        <time>2013-11-11T10:34:16Z</time>
      </trkpt>
      <trkpt lat="45.94548" lon="4.67088">
        <ele>298.15</ele>
        <time>2013-11-11T10:34:18Z</time>
      </trkpt>
      <trkpt lat="45.94582" lon="4.67095">
        <ele>297.67</ele>
        <time>2013-11-11T10:34:25Z</time>
      </trkpt>
      <trkpt lat="45.94587" lon="4.67097">
        <ele>297.18</ele>
        <time>2013-11-11T10:34:26Z</time>
      </trkpt>
      <trkpt lat="45.94592" lon="4.671">
        <ele>298.15</ele>
        <time>2013-11-11T10:34:27Z</time>
      </trkpt>
      <trkpt lat="45.94596" lon="4.67104">
        <ele>298.15</ele>
        <time>2013-11-11T10:34:28Z</time>
      </trkpt>
      <trkpt lat="45.946" lon="4.67108">
        <ele>299.59</ele>
        <time>2013-11-11T10:34:29Z</time>
      </trkpt>
      <trkpt lat="45.94613" lon="4.67119">
        <ele>296.7</ele>
        <time>2013-11-11T10:34:32Z</time>
      </trkpt>
      <trkpt lat="45.94671" lon="4.67148">
        <ele>294.78</ele>
        <time>2013-11-11T10:34:44Z</time>
      </trkpt>
      <trkpt lat="45.94675" lon="4.6715">
        <ele>294.78</ele>
        <time>2013-11-11T10:34:45Z</time>
      </trkpt>
      <trkpt lat="45.94698" lon="4.67153">
        <ele>294.3</ele>
        <time>2013-11-11T10:34:50Z</time>
      </trkpt>
      <trkpt lat="45.94703" lon="4.67152">
        <ele>293.82</ele>
        <time>2013-11-11T10:34:51Z</time>
      </trkpt>
      <trkpt lat="45.94716" lon="4.67152">
        <ele>294.3</ele>
        <time>2013-11-11T10:34:54Z</time>
      </trkpt>
      <trkpt lat="45.94721" lon="4.67152">
        <ele>294.78</ele>
        <time>2013-11-11T10:34:55Z</time>
      </trkpt>
      <trkpt lat="45.94725" lon="4.67152">
        <ele>293.82</ele>
        <time>2013-11-11T10:34:56Z</time>
      </trkpt>
      <trkpt lat="45.94729" lon="4.67154">
        <ele>294.3</ele>
        <time>2013-11-11T10:34:57Z</time>
      </trkpt>
      <trkpt lat="45.94734" lon="4.67155">
        <ele>294.78</ele>
        <time>2013-11-11T10:34:58Z</time>
      </trkpt>
      <trkpt lat="45.94738" lon="4.67157">
        <ele>294.3</ele>
        <time>2013-11-11T10:34:59Z</time>
      </trkpt>
      <trkpt lat="45.94742" lon="4.67159">
        <ele>294.3</ele>
        <time>2013-11-11T10:35:00Z</time>
      </trkpt>
      <trkpt lat="45.94758" lon="4.67166">
        <ele>294.3</ele>
        <time>2013-11-11T10:35:04Z</time>
      </trkpt>
      <trkpt lat="45.94762" lon="4.67168">
        <ele>294.78</ele>
        <time>2013-11-11T10:35:05Z</time>
      </trkpt>
      <trkpt lat="45.94766" lon="4.67169">
        <ele>294.3</ele>
        <time>2013-11-11T10:35:06Z</time>
      </trkpt>
      <trkpt lat="45.9477" lon="4.6717">
        <ele>294.3</ele>
        <time>2013-11-11T10:35:07Z</time>
      </trkpt>
      <trkpt lat="45.94774" lon="4.67172">
        <ele>294.3</ele>
        <time>2013-11-11T10:35:08Z</time>
      </trkpt>
      <trkpt lat="45.94804" lon="4.67193">
        <ele>294.3</ele>
        <time>2013-11-11T10:35:17Z</time>
      </trkpt>
      <trkpt lat="45.94831" lon="4.67209">
        <ele>292.86</ele>
        <time>2013-11-11T10:35:27Z</time>
      </trkpt>
      <trkpt lat="45.94875" lon="4.6723">
        <ele>292.38</ele>
        <time>2013-11-11T10:35:40Z</time>
      </trkpt>
      <trkpt lat="45.94883" lon="4.67233">
        <ele>292.38</ele>
        <time>2013-11-11T10:35:42Z</time>
      </trkpt>
      <trkpt lat="45.94887" lon="4.67235">
        <ele>292.86</ele>
        <time>2013-11-11T10:35:43Z</time>
      </trkpt>
      <trkpt lat="45.94899" lon="4.67242">
        <ele>292.38</ele>
        <time>2013-11-11T10:35:46Z</time>
      </trkpt>
      <trkpt lat="45.94904" lon="4.67244">
        <ele>291.9</ele>
        <time>2013-11-11T10:35:47Z</time>
      </trkpt>
      <trkpt lat="45.94916" lon="4.6725">
        <ele>291.42</ele>
        <time>2013-11-11T10:35:50Z</time>
      </trkpt>
      <trkpt lat="45.9492" lon="4.67252">
        <ele>291.42</ele>
        <time>2013-11-11T10:35:51Z</time>
      </trkpt>
      <trkpt lat="45.94951" lon="4.67266">
        <ele>290.46</ele>
        <time>2013-11-11T10:35:59Z</time>
      </trkpt>
      <trkpt lat="45.94955" lon="4.67268">
        <ele>290.94</ele>
        <time>2013-11-11T10:36:00Z</time>
      </trkpt>
      <trkpt lat="45.95015" lon="4.67297">
        <ele>289.49</ele>
        <time>2013-11-11T10:36:14Z</time>
      </trkpt>
      <trkpt lat="45.95034" lon="4.67311">
        <ele>289.97</ele>
        <time>2013-11-11T10:36:22Z</time>
      </trkpt>
      <trkpt lat="45.95037" lon="4.67318">
        <ele>289.97</ele>
        <time>2013-11-11T10:36:31Z</time>
      </trkpt>
      <trkpt lat="45.95037" lon="4.67316">
        <ele>289.97</ele>
        <time>2013-11-11T10:36:32Z</time>
      </trkpt>
      <trkpt lat="45.95037" lon="4.67314">
        <ele>289.97</ele>
        <time>2013-11-11T10:36:33Z</time>
      </trkpt>
      <trkpt lat="45.95038" lon="4.67312">
        <ele>289.97</ele>
        <time>2013-11-11T10:36:34Z</time>
      </trkpt>
      <trkpt lat="45.95039" lon="4.67311">
        <ele>290.46</ele>
        <time>2013-11-11T10:36:35Z</time>
      </trkpt>
      <trkpt lat="45.95041" lon="4.6731">
        <ele>289.97</ele>
        <time>2013-11-11T10:36:36Z</time>
      </trkpt>
      <trkpt lat="45.95043" lon="4.6731">
        <ele>290.46</ele>
        <time>2013-11-11T10:36:37Z</time>
      </trkpt>
      <trkpt lat="45.95064" lon="4.67317">
        <ele>290.46</ele>
        <time>2013-11-11T10:36:44Z</time>
      </trkpt>
      <trkpt lat="45.95075" lon="4.67321">
        <ele>290.94</ele>
        <time>2013-11-11T10:36:47Z</time>
      </trkpt>
      <trkpt lat="45.95129" lon="4.67348">
        <ele>290.46</ele>
        <time>2013-11-11T10:37:00Z</time>
      </trkpt>
      <trkpt lat="45.95184" lon="4.67376">
        <ele>289.49</ele>
        <time>2013-11-11T10:37:12Z</time>
      </trkpt>
      <trkpt lat="45.95189" lon="4.67378">
        <ele>289.49</ele>
        <time>2013-11-11T10:37:13Z</time>
      </trkpt>
      <trkpt lat="45.95251" lon="4.67407">
        <ele>289.01</ele>
        <time>2013-11-11T10:37:26Z</time>
      </trkpt>
      <trkpt lat="45.95316" lon="4.67439">
        <ele>287.09</ele>
        <time>2013-11-11T10:37:39Z</time>
      </trkpt>
      <trkpt lat="45.95342" lon="4.67449">
        <ele>286.61</ele>
        <time>2013-11-11T10:37:46Z</time>
      </trkpt>
      <trkpt lat="45.95373" lon="4.67456">
        <ele>288.53</ele>
        <time>2013-11-11T10:37:56Z</time>
      </trkpt>
      <trkpt lat="45.9541" lon="4.67466">
        <ele>288.53</ele>
        <time>2013-11-11T10:38:08Z</time>
      </trkpt>
      <trkpt lat="45.95455" lon="4.67463">
        <ele>290.94</ele>
        <time>2013-11-11T10:38:22Z</time>
      </trkpt>
      <trkpt lat="45.95491" lon="4.67469">
        <ele>291.9</ele>
        <time>2013-11-11T10:38:33Z</time>
      </trkpt>
      <trkpt lat="45.95534" lon="4.67476">
        <ele>293.82</ele>
        <time>2013-11-11T10:38:45Z</time>
      </trkpt>
      <trkpt lat="45.95574" lon="4.67467">
        <ele>294.78</ele>
        <time>2013-11-11T10:38:57Z</time>
      </trkpt>
      <trkpt lat="45.956" lon="4.67449">
        <ele>295.74</ele>
        <time>2013-11-11T10:39:08Z</time>
      </trkpt>
      <trkpt lat="45.95631" lon="4.67433">
        <ele>297.67</ele>
        <time>2013-11-11T10:39:19Z</time>
      </trkpt>
      <trkpt lat="45.95672" lon="4.67426">
        <ele>297.67</ele>
        <time>2013-11-11T10:39:32Z</time>
      </trkpt>
      <trkpt lat="45.95714" lon="4.67419">
        <ele>298.63</ele>
        <time>2013-11-11T10:39:45Z</time>
      </trkpt>
      <trkpt lat="45.95759" lon="4.67408">
        <ele>299.11</ele>
        <time>2013-11-11T10:39:59Z</time>
      </trkpt>
      <trkpt lat="45.95798" lon="4.67392">
        <ele>301.03</ele>
        <time>2013-11-11T10:40:12Z</time>
      </trkpt>
      <trkpt lat="45.95827" lon="4.67374">
        <ele>303.43</ele>
        <time>2013-11-11T10:40:23Z</time>
      </trkpt>
      <trkpt lat="45.95858" lon="4.67362">
        <ele>305.36</ele>
        <time>2013-11-11T10:40:33Z</time>
      </trkpt>
      <trkpt lat="45.959" lon="4.67361">
        <ele>305.84</ele>
        <time>2013-11-11T10:40:46Z</time>
      </trkpt>
      <trkpt lat="45.95939" lon="4.67361">
        <ele>306.32</ele>
        <time>2013-11-11T10:40:58Z</time>
      </trkpt>
      <trkpt lat="45.95974" lon="4.67364">
        <ele>307.28</ele>
        <time>2013-11-11T10:41:09Z</time>
      </trkpt>
      <trkpt lat="45.9601" lon="4.67387">
        <ele>307.28</ele>
        <time>2013-11-11T10:41:20Z</time>
      </trkpt>
      <trkpt lat="45.96049" lon="4.67415">
        <ele>308.24</ele>
        <time>2013-11-11T10:41:32Z</time>
      </trkpt>
      <trkpt lat="45.96088" lon="4.67442">
        <ele>308.72</ele>
        <time>2013-11-11T10:41:45Z</time>
      </trkpt>
      <trkpt lat="45.96125" lon="4.67464">
        <ele>308.24</ele>
        <time>2013-11-11T10:41:57Z</time>
      </trkpt>
      <trkpt lat="45.96161" lon="4.67485">
        <ele>308.72</ele>
        <time>2013-11-11T10:42:09Z</time>
      </trkpt>
      <trkpt lat="45.96193" lon="4.67503">
        <ele>309.2</ele>
        <time>2013-11-11T10:42:19Z</time>
      </trkpt>
      <trkpt lat="45.96213" lon="4.67516">
        <ele>308.72</ele>
        <time>2013-11-11T10:42:28Z</time>
      </trkpt>
      <trkpt lat="45.96212" lon="4.67513">
        <ele>309.2</ele>
        <time>2013-11-11T10:42:32Z</time>
      </trkpt>
      <trkpt lat="45.96212" lon="4.67512">
        <ele>309.2</ele>
        <time>2013-11-11T10:42:33Z</time>
      </trkpt>
      <trkpt lat="45.9621" lon="4.6751">
        <ele>309.2</ele>
        <time>2013-11-11T10:42:34Z</time>
      </trkpt>
      <trkpt lat="45.96209" lon="4.67509">
        <ele>309.2</ele>
        <time>2013-11-11T10:42:35Z</time>
      </trkpt>
      <trkpt lat="45.96207" lon="4.67509">
        <ele>308.72</ele>
        <time>2013-11-11T10:42:36Z</time>
      </trkpt>
      <trkpt lat="45.96206" lon="4.67509">
        <ele>308.72</ele>
        <time>2013-11-11T10:42:37Z</time>
      </trkpt>
      <trkpt lat="45.96205" lon="4.67508">
        <ele>308.72</ele>
        <time>2013-11-11T10:42:38Z</time>
      </trkpt>
      <trkpt lat="45.96203" lon="4.67508">
        <ele>309.2</ele>
        <time>2013-11-11T10:42:39Z</time>
      </trkpt>
      <trkpt lat="45.96201" lon="4.67507">
        <ele>308.72</ele>
        <time>2013-11-11T10:42:40Z</time>
      </trkpt>
      <trkpt lat="45.96199" lon="4.67505">
        <ele>308.72</ele>
        <time>2013-11-11T10:42:41Z</time>
      </trkpt>
      <trkpt lat="45.96166" lon="4.67487">
        <ele>309.2</ele>
        <time>2013-11-11T10:42:52Z</time>
      </trkpt>
      <trkpt lat="45.96138" lon="4.67475">
        <ele>309.2</ele>
        <time>2013-11-11T10:42:59Z</time>
      </trkpt>
      <trkpt lat="45.96134" lon="4.67476">
        <ele>309.68</ele>
        <time>2013-11-11T10:43:00Z</time>
      </trkpt>
      <trkpt lat="45.96131" lon="4.6748">
        <ele>309.2</ele>
        <time>2013-11-11T10:43:01Z</time>
      </trkpt>
      <trkpt lat="45.96129" lon="4.67486">
        <ele>308.72</ele>
        <time>2013-11-11T10:43:02Z</time>
      </trkpt>
      <trkpt lat="45.96127" lon="4.67493">
        <ele>308.72</ele>
        <time>2013-11-11T10:43:03Z</time>
      </trkpt>
      <trkpt lat="45.96126" lon="4.67501">
        <ele>308.72</ele>
        <time>2013-11-11T10:43:04Z</time>
      </trkpt>
      <trkpt lat="45.96125" lon="4.67509">
        <ele>308.24</ele>
        <time>2013-11-11T10:43:05Z</time>
      </trkpt>
      <trkpt lat="45.96123" lon="4.67518">
        <ele>307.28</ele>
        <time>2013-11-11T10:43:06Z</time>
      </trkpt>
      <trkpt lat="45.96119" lon="4.67534">
        <ele>306.32</ele>
        <time>2013-11-11T10:43:08Z</time>
      </trkpt>
      <trkpt lat="45.96112" lon="4.67563">
        <ele>304.88</ele>
        <time>2013-11-11T10:43:12Z</time>
      </trkpt>
      <trkpt lat="45.96099" lon="4.67611">
        <ele>301.51</ele>
        <time>2013-11-11T10:43:19Z</time>
      </trkpt>
      <trkpt lat="45.96083" lon="4.67646">
        <ele>301.03</ele>
        <time>2013-11-11T10:43:24Z</time>
      </trkpt>
      <trkpt lat="45.9608" lon="4.67653">
        <ele>300.07</ele>
        <time>2013-11-11T10:43:25Z</time>
      </trkpt>
      <trkpt lat="45.96075" lon="4.67658">
        <ele>300.55</ele>
        <time>2013-11-11T10:43:26Z</time>
      </trkpt>
      <trkpt lat="45.96037" lon="4.67693">
        <ele>297.18</ele>
        <time>2013-11-11T10:43:33Z</time>
      </trkpt>
      <trkpt lat="45.96032" lon="4.677">
        <ele>296.22</ele>
        <time>2013-11-11T10:43:34Z</time>
      </trkpt>
      <trkpt lat="45.96028" lon="4.67706">
        <ele>294.78</ele>
        <time>2013-11-11T10:43:35Z</time>
      </trkpt>
      <trkpt lat="45.96017" lon="4.67729">
        <ele>292.86</ele>
        <time>2013-11-11T10:43:38Z</time>
      </trkpt>
      <trkpt lat="45.96014" lon="4.67737">
        <ele>291.9</ele>
        <time>2013-11-11T10:43:39Z</time>
      </trkpt>
      <trkpt lat="45.96012" lon="4.67747">
        <ele>291.42</ele>
        <time>2013-11-11T10:43:40Z</time>
      </trkpt>
      <trkpt lat="45.96007" lon="4.67771">
        <ele>287.57</ele>
        <time>2013-11-11T10:43:43Z</time>
      </trkpt>
      <trkpt lat="45.96007" lon="4.67779">
        <ele>286.13</ele>
        <time>2013-11-11T10:43:45Z</time>
      </trkpt>
      <trkpt lat="45.9601" lon="4.67782">
        <ele>285.65</ele>
        <time>2013-11-11T10:43:46Z</time>
      </trkpt>
      <trkpt lat="45.96038" lon="4.67805">
        <ele>285.17</ele>
        <time>2013-11-11T10:43:53Z</time>
      </trkpt>
      <trkpt lat="45.96064" lon="4.67823">
        <ele>284.21</ele>
        <time>2013-11-11T10:43:58Z</time>
      </trkpt>
      <trkpt lat="45.96069" lon="4.67826">
        <ele>283.73</ele>
        <time>2013-11-11T10:43:59Z</time>
      </trkpt>
      <trkpt lat="45.96074" lon="4.67827">
        <ele>283.73</ele>
        <time>2013-11-11T10:44:00Z</time>
      </trkpt>
      <trkpt lat="45.96079" lon="4.67828">
        <ele>283.73</ele>
        <time>2013-11-11T10:44:01Z</time>
      </trkpt>
      <trkpt lat="45.96083" lon="4.67828">
        <ele>283.73</ele>
        <time>2013-11-11T10:44:02Z</time>
      </trkpt>
      <trkpt lat="45.96088" lon="4.67828">
        <ele>283.73</ele>
        <time>2013-11-11T10:44:03Z</time>
      </trkpt>
      <trkpt lat="45.96092" lon="4.67828">
        <ele>283.73</ele>
        <time>2013-11-11T10:44:04Z</time>
      </trkpt>
      <trkpt lat="45.96097" lon="4.6783">
        <ele>284.21</ele>
        <time>2013-11-11T10:44:05Z</time>
      </trkpt>
      <trkpt lat="45.96101" lon="4.67832">
        <ele>285.17</ele>
        <time>2013-11-11T10:44:06Z</time>
      </trkpt>
      <trkpt lat="45.96106" lon="4.67834">
        <ele>284.21</ele>
        <time>2013-11-11T10:44:07Z</time>
      </trkpt>
      <trkpt lat="45.9611" lon="4.67837">
        <ele>283.73</ele>
        <time>2013-11-11T10:44:08Z</time>
      </trkpt>
      <trkpt lat="45.96115" lon="4.6784">
        <ele>284.21</ele>
        <time>2013-11-11T10:44:09Z</time>
      </trkpt>
      <trkpt lat="45.96135" lon="4.67851">
        <ele>283.73</ele>
        <time>2013-11-11T10:44:13Z</time>
      </trkpt>
      <trkpt lat="45.96164" lon="4.67863">
        <ele>284.69</ele>
        <time>2013-11-11T10:44:21Z</time>
      </trkpt>
      <trkpt lat="45.96171" lon="4.67867">
        <ele>284.21</ele>
        <time>2013-11-11T10:44:23Z</time>
      </trkpt>
      <trkpt lat="45.96175" lon="4.67868">
        <ele>284.21</ele>
        <time>2013-11-11T10:44:24Z</time>
      </trkpt>
      <trkpt lat="45.96179" lon="4.67868">
        <ele>284.69</ele>
        <time>2013-11-11T10:44:25Z</time>
      </trkpt>
      <trkpt lat="45.96183" lon="4.67867">
        <ele>285.17</ele>
        <time>2013-11-11T10:44:26Z</time>
      </trkpt>
      <trkpt lat="45.96186" lon="4.67866">
        <ele>284.21</ele>
        <time>2013-11-11T10:44:27Z</time>
      </trkpt>
      <trkpt lat="45.96188" lon="4.67866">
        <ele>284.21</ele>
        <time>2013-11-11T10:44:28Z</time>
      </trkpt>
      <trkpt lat="45.96191" lon="4.67866">
        <ele>286.61</ele>
        <time>2013-11-11T10:44:29Z</time>
      </trkpt>
      <trkpt lat="45.96193" lon="4.67866">
        <ele>286.13</ele>
        <time>2013-11-11T10:44:30Z</time>
      </trkpt>
      <trkpt lat="45.96219" lon="4.67876">
        <ele>287.09</ele>
        <time>2013-11-11T10:44:40Z</time>
      </trkpt>
      <trkpt lat="45.96249" lon="4.67897">
        <ele>286.61</ele>
        <time>2013-11-11T10:44:51Z</time>
      </trkpt>
      <trkpt lat="45.96282" lon="4.67917">
        <ele>286.13</ele>
        <time>2013-11-11T10:45:01Z</time>
      </trkpt>
      <trkpt lat="45.96319" lon="4.67927">
        <ele>287.09</ele>
        <time>2013-11-11T10:45:12Z</time>
      </trkpt>
      <trkpt lat="45.96359" lon="4.67935">
        <ele>286.61</ele>
        <time>2013-11-11T10:45:23Z</time>
      </trkpt>
      <trkpt lat="45.96404" lon="4.67955">
        <ele>285.17</ele>
        <time>2013-11-11T10:45:36Z</time>
      </trkpt>
      <trkpt lat="45.96448" lon="4.67977">
        <ele>283.25</ele>
        <time>2013-11-11T10:45:48Z</time>
      </trkpt>
      <trkpt lat="45.96478" lon="4.67993">
        <ele>281.8</ele>
        <time>2013-11-11T10:45:57Z</time>
      </trkpt>
      <trkpt lat="45.96497" lon="4.68008">
        <ele>280.84</ele>
        <time>2013-11-11T10:46:05Z</time>
      </trkpt>
      <trkpt lat="45.96532" lon="4.6804">
        <ele>277.48</ele>
        <time>2013-11-11T10:46:14Z</time>
      </trkpt>
      <trkpt lat="45.96535" lon="4.68043">
        <ele>277</ele>
        <time>2013-11-11T10:46:15Z</time>
      </trkpt>
      <trkpt lat="45.96539" lon="4.68048">
        <ele>276.04</ele>
        <time>2013-11-11T10:46:17Z</time>
      </trkpt>
      <trkpt lat="45.96561" lon="4.6807">
        <ele>273.15</ele>
        <time>2013-11-11T10:46:27Z</time>
      </trkpt>
      <trkpt lat="45.96565" lon="4.68078">
        <ele>272.19</ele>
        <time>2013-11-11T10:46:29Z</time>
      </trkpt>
      <trkpt lat="45.96584" lon="4.68097">
        <ele>269.79</ele>
        <time>2013-11-11T10:46:37Z</time>
      </trkpt>
      <trkpt lat="45.96601" lon="4.68114">
        <ele>268.35</ele>
        <time>2013-11-11T10:46:45Z</time>
      </trkpt>
      <trkpt lat="45.9661" lon="4.68125">
        <ele>267.38</ele>
        <time>2013-11-11T10:46:48Z</time>
      </trkpt>
      <trkpt lat="45.96616" lon="4.68132">
        <ele>266.42</ele>
        <time>2013-11-11T10:46:50Z</time>
      </trkpt>
      <trkpt lat="45.96627" lon="4.68158">
        <ele>264.02</ele>
        <time>2013-11-11T10:46:56Z</time>
      </trkpt>
      <trkpt lat="45.96635" lon="4.68179">
        <ele>262.58</ele>
        <time>2013-11-11T10:46:59Z</time>
      </trkpt>
      <trkpt lat="45.96658" lon="4.68229">
        <ele>258.73</ele>
        <time>2013-11-11T10:47:07Z</time>
      </trkpt>
      <trkpt lat="45.96661" lon="4.68234">
        <ele>258.25</ele>
        <time>2013-11-11T10:47:08Z</time>
      </trkpt>
      <trkpt lat="45.96662" lon="4.6824">
        <ele>257.77</ele>
        <time>2013-11-11T10:47:09Z</time>
      </trkpt>
      <trkpt lat="45.96662" lon="4.68245">
        <ele>258.25</ele>
        <time>2013-11-11T10:47:10Z</time>
      </trkpt>
      <trkpt lat="45.9666" lon="4.68249">
        <ele>257.29</ele>
        <time>2013-11-11T10:47:11Z</time>
      </trkpt>
      <trkpt lat="45.96659" lon="4.68254">
        <ele>256.81</ele>
        <time>2013-11-11T10:47:12Z</time>
      </trkpt>
      <trkpt lat="45.96657" lon="4.68258">
        <ele>256.33</ele>
        <time>2013-11-11T10:47:13Z</time>
      </trkpt>
      <trkpt lat="45.96657" lon="4.68263">
        <ele>255.85</ele>
        <time>2013-11-11T10:47:14Z</time>
      </trkpt>
      <trkpt lat="45.96658" lon="4.68268">
        <ele>254.89</ele>
        <time>2013-11-11T10:47:15Z</time>
      </trkpt>
      <trkpt lat="45.96658" lon="4.68274">
        <ele>253.93</ele>
        <time>2013-11-11T10:47:16Z</time>
      </trkpt>
      <trkpt lat="45.96657" lon="4.6828">
        <ele>252.96</ele>
        <time>2013-11-11T10:47:17Z</time>
      </trkpt>
      <trkpt lat="45.96654" lon="4.68288">
        <ele>251.52</ele>
        <time>2013-11-11T10:47:18Z</time>
      </trkpt>
      <trkpt lat="45.96643" lon="4.68326">
        <ele>248.16</ele>
        <time>2013-11-11T10:47:22Z</time>
      </trkpt>
      <trkpt lat="45.96635" lon="4.68355">
        <ele>244.79</ele>
        <time>2013-11-11T10:47:25Z</time>
      </trkpt>
      <trkpt lat="45.96628" lon="4.68381">
        <ele>241.43</ele>
        <time>2013-11-11T10:47:28Z</time>
      </trkpt>
      <trkpt lat="45.96623" lon="4.68401">
        <ele>237.1</ele>
        <time>2013-11-11T10:47:31Z</time>
      </trkpt>
      <trkpt lat="45.96619" lon="4.68407">
        <ele>236.14</ele>
        <time>2013-11-11T10:47:33Z</time>
      </trkpt>
      <trkpt lat="45.96602" lon="4.68404">
        <ele>232.78</ele>
        <time>2013-11-11T10:47:37Z</time>
      </trkpt>
      <trkpt lat="45.96596" lon="4.68402">
        <ele>231.81</ele>
        <time>2013-11-11T10:47:38Z</time>
      </trkpt>
      <trkpt lat="45.96591" lon="4.684">
        <ele>230.37</ele>
        <time>2013-11-11T10:47:39Z</time>
      </trkpt>
      <trkpt lat="45.96586" lon="4.68399">
        <ele>229.89</ele>
        <time>2013-11-11T10:47:40Z</time>
      </trkpt>
      <trkpt lat="45.96581" lon="4.684">
        <ele>229.41</ele>
        <time>2013-11-11T10:47:41Z</time>
      </trkpt>
      <trkpt lat="45.96576" lon="4.68401">
        <ele>227.97</ele>
        <time>2013-11-11T10:47:42Z</time>
      </trkpt>
      <trkpt lat="45.96572" lon="4.68401">
        <ele>227.97</ele>
        <time>2013-11-11T10:47:43Z</time>
      </trkpt>
      <trkpt lat="45.96568" lon="4.68402">
        <ele>227.01</ele>
        <time>2013-11-11T10:47:44Z</time>
      </trkpt>
      <trkpt lat="45.96565" lon="4.68402">
        <ele>227.01</ele>
        <time>2013-11-11T10:47:45Z</time>
      </trkpt>
      <trkpt lat="45.96563" lon="4.68405">
        <ele>227.01</ele>
        <time>2013-11-11T10:47:46Z</time>
      </trkpt>
      <trkpt lat="45.96561" lon="4.68409">
        <ele>227.01</ele>
        <time>2013-11-11T10:47:47Z</time>
      </trkpt>
      <trkpt lat="45.9656" lon="4.68414">
        <ele>226.05</ele>
        <time>2013-11-11T10:47:48Z</time>
      </trkpt>
      <trkpt lat="45.96559" lon="4.68419">
        <ele>226.53</ele>
        <time>2013-11-11T10:47:49Z</time>
      </trkpt>
      <trkpt lat="45.96558" lon="4.68424">
        <ele>226.53</ele>
        <time>2013-11-11T10:47:50Z</time>
      </trkpt>
      <trkpt lat="45.96561" lon="4.68476">
        <ele>227.01</ele>
        <time>2013-11-11T10:48:01Z</time>
      </trkpt>
      <trkpt lat="45.96561" lon="4.68492">
        <ele>227.97</ele>
        <time>2013-11-11T10:48:07Z</time>
      </trkpt>
      <trkpt lat="45.96562" lon="4.68495">
        <ele>227.97</ele>
        <time>2013-11-11T10:48:08Z</time>
      </trkpt>
      <trkpt lat="45.96562" lon="4.68497">
        <ele>228.45</ele>
        <time>2013-11-11T10:48:09Z</time>
      </trkpt>
      <trkpt lat="45.96562" lon="4.685">
        <ele>227.97</ele>
        <time>2013-11-11T10:48:10Z</time>
      </trkpt>
      <trkpt lat="45.96563" lon="4.68502">
        <ele>228.45</ele>
        <time>2013-11-11T10:48:11Z</time>
      </trkpt>
      <trkpt lat="45.96565" lon="4.68515">
        <ele>230.37</ele>
        <time>2013-11-11T10:48:16Z</time>
      </trkpt>
      <trkpt lat="45.96576" lon="4.68538">
        <ele>232.3</ele>
        <time>2013-11-11T10:48:26Z</time>
      </trkpt>
      <trkpt lat="45.96578" lon="4.68543">
        <ele>233.26</ele>
        <time>2013-11-11T10:48:33Z</time>
      </trkpt>
      <trkpt lat="45.96585" lon="4.68549">
        <ele>234.22</ele>
        <time>2013-11-11T10:48:43Z</time>
      </trkpt>
      <trkpt lat="45.96586" lon="4.68553">
        <ele>234.7</ele>
        <time>2013-11-11T10:48:45Z</time>
      </trkpt>
      <trkpt lat="45.96587" lon="4.68555">
        <ele>235.18</ele>
        <time>2013-11-11T10:48:46Z</time>
      </trkpt>
      <trkpt lat="45.9659" lon="4.68564">
        <ele>236.62</ele>
        <time>2013-11-11T10:48:55Z</time>
      </trkpt>
      <trkpt lat="45.96597" lon="4.68576">
        <ele>237.1</ele>
        <time>2013-11-11T10:49:05Z</time>
      </trkpt>
      <trkpt lat="45.96599" lon="4.68579">
        <ele>238.06</ele>
        <time>2013-11-11T10:49:08Z</time>
      </trkpt>
      <trkpt lat="45.96599" lon="4.6859">
        <ele>239.02</ele>
        <time>2013-11-11T10:49:19Z</time>
      </trkpt>
      <trkpt lat="45.966" lon="4.68596">
        <ele>239.99</ele>
        <time>2013-11-11T10:49:34Z</time>
      </trkpt>
      <trkpt lat="45.96602" lon="4.68603">
        <ele>240.47</ele>
        <time>2013-11-11T10:49:41Z</time>
      </trkpt>
      <trkpt lat="45.96601" lon="4.68616">
        <ele>241.43</ele>
        <time>2013-11-11T10:49:47Z</time>
      </trkpt>
      <trkpt lat="45.96601" lon="4.68618">
        <ele>241.43</ele>
        <time>2013-11-11T10:49:48Z</time>
      </trkpt>
      <trkpt lat="45.96601" lon="4.6862">
        <ele>241.91</ele>
        <time>2013-11-11T10:49:49Z</time>
      </trkpt>
      <trkpt lat="45.96601" lon="4.68622">
        <ele>241.91</ele>
        <time>2013-11-11T10:49:50Z</time>
      </trkpt>
      <trkpt lat="45.96601" lon="4.68624">
        <ele>241.91</ele>
        <time>2013-11-11T10:49:51Z</time>
      </trkpt>
      <trkpt lat="45.96601" lon="4.68626">
        <ele>241.91</ele>
        <time>2013-11-11T10:49:52Z</time>
      </trkpt>
      <trkpt lat="45.96601" lon="4.68628">
        <ele>241.91</ele>
        <time>2013-11-11T10:49:53Z</time>
      </trkpt>
      <trkpt lat="45.966" lon="4.6863">
        <ele>241.91</ele>
        <time>2013-11-11T10:49:54Z</time>
      </trkpt>
      <trkpt lat="45.966" lon="4.68632">
        <ele>242.39</ele>
        <time>2013-11-11T10:49:55Z</time>
      </trkpt>
      <trkpt lat="45.96601" lon="4.6866">
        <ele>244.31</ele>
        <time>2013-11-11T10:50:07Z</time>
      </trkpt>
      <trkpt lat="45.96598" lon="4.68684">
        <ele>245.27</ele>
        <time>2013-11-11T10:50:16Z</time>
      </trkpt>
      <trkpt lat="45.9658" lon="4.68709">
        <ele>247.2</ele>
        <time>2013-11-11T10:50:26Z</time>
      </trkpt>
      <trkpt lat="45.96559" lon="4.68726">
        <ele>249.6</ele>
        <time>2013-11-11T10:50:37Z</time>
      </trkpt>
      <trkpt lat="45.96534" lon="4.68743">
        <ele>252.48</ele>
        <time>2013-11-11T10:50:51Z</time>
      </trkpt>
      <trkpt lat="45.96518" lon="4.68768">
        <ele>253.93</ele>
        <time>2013-11-11T10:51:03Z</time>
      </trkpt>
      <trkpt lat="45.96509" lon="4.68797">
        <ele>253.93</ele>
        <time>2013-11-11T10:51:12Z</time>
      </trkpt>
      <trkpt lat="45.96493" lon="4.68848">
        <ele>253.44</ele>
        <time>2013-11-11T10:51:24Z</time>
      </trkpt>
      <trkpt lat="45.96482" lon="4.68879">
        <ele>253.93</ele>
        <time>2013-11-11T10:51:33Z</time>
      </trkpt>
      <trkpt lat="45.96466" lon="4.68909">
        <ele>254.41</ele>
        <time>2013-11-11T10:51:45Z</time>
      </trkpt>
      <trkpt lat="45.96463" lon="4.68912">
        <ele>256.81</ele>
        <time>2013-11-11T10:51:47Z</time>
      </trkpt>
      <trkpt lat="45.9646" lon="4.68916">
        <ele>254.41</ele>
        <time>2013-11-11T10:51:49Z</time>
      </trkpt>
      <trkpt lat="45.96436" lon="4.6893">
        <ele>254.41</ele>
        <time>2013-11-11T10:51:59Z</time>
      </trkpt>
      <trkpt lat="45.96405" lon="4.68937">
        <ele>254.89</ele>
        <time>2013-11-11T10:52:10Z</time>
      </trkpt>
      <trkpt lat="45.96367" lon="4.6895">
        <ele>255.37</ele>
        <time>2013-11-11T10:52:23Z</time>
      </trkpt>
      <trkpt lat="45.96329" lon="4.68966">
        <ele>256.33</ele>
        <time>2013-11-11T10:52:35Z</time>
      </trkpt>
      <trkpt lat="45.96287" lon="4.6898">
        <ele>257.77</ele>
        <time>2013-11-11T10:52:48Z</time>
      </trkpt>
      <trkpt lat="45.96246" lon="4.69003">
        <ele>260.65</ele>
        <time>2013-11-11T10:53:03Z</time>
      </trkpt>
      <trkpt lat="45.96218" lon="4.69015">
        <ele>263.06</ele>
        <time>2013-11-11T10:53:15Z</time>
      </trkpt>
      <trkpt lat="45.96195" lon="4.6902">
        <ele>265.46</ele>
        <time>2013-11-11T10:53:26Z</time>
      </trkpt>
      <trkpt lat="45.96175" lon="4.6903">
        <ele>268.35</ele>
        <time>2013-11-11T10:53:37Z</time>
      </trkpt>
      <trkpt lat="45.96157" lon="4.69053">
        <ele>270.75</ele>
        <time>2013-11-11T10:53:50Z</time>
      </trkpt>
      <trkpt lat="45.96151" lon="4.69069">
        <ele>272.19</ele>
        <time>2013-11-11T10:53:58Z</time>
      </trkpt>
      <trkpt lat="45.96142" lon="4.6909">
        <ele>275.07</ele>
        <time>2013-11-11T10:54:09Z</time>
      </trkpt>
      <trkpt lat="45.96142" lon="4.69093">
        <ele>275.07</ele>
        <time>2013-11-11T10:54:10Z</time>
      </trkpt>
      <trkpt lat="45.96136" lon="4.69115">
        <ele>276.04</ele>
        <time>2013-11-11T10:54:21Z</time>
      </trkpt>
      <trkpt lat="45.96129" lon="4.69141">
        <ele>278.44</ele>
        <time>2013-11-11T10:54:34Z</time>
      </trkpt>
      <trkpt lat="45.96129" lon="4.69159">
        <ele>283.25</ele>
        <time>2013-11-11T10:54:43Z</time>
      </trkpt>
      <trkpt lat="45.96129" lon="4.69161">
        <ele>283.25</ele>
        <time>2013-11-11T10:54:44Z</time>
      </trkpt>
      <trkpt lat="45.96128" lon="4.69172">
        <ele>283.25</ele>
        <time>2013-11-11T10:54:50Z</time>
      </trkpt>
      <trkpt lat="45.96124" lon="4.69193">
        <ele>283.73</ele>
        <time>2013-11-11T10:55:02Z</time>
      </trkpt>
      <trkpt lat="45.96123" lon="4.69201">
        <ele>283.73</ele>
        <time>2013-11-11T10:55:06Z</time>
      </trkpt>
      <trkpt lat="45.96123" lon="4.69203">
        <ele>284.21</ele>
        <time>2013-11-11T10:55:07Z</time>
      </trkpt>
      <trkpt lat="45.96123" lon="4.69204">
        <ele>284.21</ele>
        <time>2013-11-11T10:55:08Z</time>
      </trkpt>
      <trkpt lat="45.96123" lon="4.69206">
        <ele>284.21</ele>
        <time>2013-11-11T10:55:09Z</time>
      </trkpt>
      <trkpt lat="45.96123" lon="4.69208">
        <ele>284.21</ele>
        <time>2013-11-11T10:55:10Z</time>
      </trkpt>
      <trkpt lat="45.96123" lon="4.69211">
        <ele>284.21</ele>
        <time>2013-11-11T10:55:11Z</time>
      </trkpt>
      <trkpt lat="45.96122" lon="4.69213">
        <ele>283.73</ele>
        <time>2013-11-11T10:55:12Z</time>
      </trkpt>
      <trkpt lat="45.96122" lon="4.69215">
        <ele>284.21</ele>
        <time>2013-11-11T10:55:13Z</time>
      </trkpt>
      <trkpt lat="45.96122" lon="4.69217">
        <ele>284.69</ele>
        <time>2013-11-11T10:55:14Z</time>
      </trkpt>
      <trkpt lat="45.96121" lon="4.6925">
        <ele>285.65</ele>
        <time>2013-11-11T10:55:29Z</time>
      </trkpt>
      <trkpt lat="45.96121" lon="4.69275">
        <ele>285.65</ele>
        <time>2013-11-11T10:55:40Z</time>
      </trkpt>
      <trkpt lat="45.9612" lon="4.69306">
        <ele>286.13</ele>
        <time>2013-11-11T10:55:53Z</time>
      </trkpt>
      <trkpt lat="45.96119" lon="4.69331">
        <ele>286.61</ele>
        <time>2013-11-11T10:56:04Z</time>
      </trkpt>
      <trkpt lat="45.96118" lon="4.69334">
        <ele>286.61</ele>
        <time>2013-11-11T10:56:09Z</time>
      </trkpt>
      <trkpt lat="45.96117" lon="4.69333">
        <ele>286.61</ele>
        <time>2013-11-11T10:56:11Z</time>
      </trkpt>
      <trkpt lat="45.9612" lon="4.69312">
        <ele>286.61</ele>
        <time>2013-11-11T10:56:19Z</time>
      </trkpt>
      <trkpt lat="45.96121" lon="4.69289">
        <ele>286.61</ele>
        <time>2013-11-11T10:56:24Z</time>
      </trkpt>
      <trkpt lat="45.96125" lon="4.6923">
        <ele>285.17</ele>
        <time>2013-11-11T10:56:36Z</time>
      </trkpt>
      <trkpt lat="45.96126" lon="4.69185">
        <ele>283.25</ele>
        <time>2013-11-11T10:56:46Z</time>
      </trkpt>
      <trkpt lat="45.96118" lon="4.69175">
        <ele>283.25</ele>
        <time>2013-11-11T10:56:50Z</time>
      </trkpt>
      <trkpt lat="45.96097" lon="4.69167">
        <ele>286.13</ele>
        <time>2013-11-11T10:57:02Z</time>
      </trkpt>
      <trkpt lat="45.96094" lon="4.69166">
        <ele>287.09</ele>
        <time>2013-11-11T10:57:04Z</time>
      </trkpt>
      <trkpt lat="45.96081" lon="4.69163">
        <ele>289.97</ele>
        <time>2013-11-11T10:57:13Z</time>
      </trkpt>
      <trkpt lat="45.96067" lon="4.69161">
        <ele>290.94</ele>
        <time>2013-11-11T10:57:23Z</time>
      </trkpt>
      <trkpt lat="45.96065" lon="4.69161">
        <ele>291.42</ele>
        <time>2013-11-11T10:57:24Z</time>
      </trkpt>
      <trkpt lat="45.96053" lon="4.69157">
        <ele>292.86</ele>
        <time>2013-11-11T10:57:33Z</time>
      </trkpt>
      <trkpt lat="45.96036" lon="4.69153">
        <ele>295.26</ele>
        <time>2013-11-11T10:57:46Z</time>
      </trkpt>
      <trkpt lat="45.96024" lon="4.69151">
        <ele>296.22</ele>
        <time>2013-11-11T10:57:55Z</time>
      </trkpt>
      <trkpt lat="45.96012" lon="4.69148">
        <ele>297.18</ele>
        <time>2013-11-11T10:58:04Z</time>
      </trkpt>
      <trkpt lat="45.96006" lon="4.69147">
        <ele>298.63</ele>
        <time>2013-11-11T10:58:08Z</time>
      </trkpt>
      <trkpt lat="45.95989" lon="4.69145">
        <ele>299.11</ele>
        <time>2013-11-11T10:58:20Z</time>
      </trkpt>
      <trkpt lat="45.95984" lon="4.69143">
        <ele>300.07</ele>
        <time>2013-11-11T10:58:24Z</time>
      </trkpt>
      <trkpt lat="45.95978" lon="4.69141">
        <ele>300.07</ele>
        <time>2013-11-11T10:58:28Z</time>
      </trkpt>
      <trkpt lat="45.95962" lon="4.69135">
        <ele>301.51</ele>
        <time>2013-11-11T10:58:38Z</time>
      </trkpt>
      <trkpt lat="45.95935" lon="4.69127">
        <ele>301.51</ele>
        <time>2013-11-11T10:58:48Z</time>
      </trkpt>
      <trkpt lat="45.95913" lon="4.69124">
        <ele>299.59</ele>
        <time>2013-11-11T10:58:54Z</time>
      </trkpt>
      <trkpt lat="45.95876" lon="4.69133">
        <ele>298.15</ele>
        <time>2013-11-11T10:59:02Z</time>
      </trkpt>
      <trkpt lat="45.9587" lon="4.69135">
        <ele>297.67</ele>
        <time>2013-11-11T10:59:03Z</time>
      </trkpt>
      <trkpt lat="45.95864" lon="4.69138">
        <ele>296.7</ele>
        <time>2013-11-11T10:59:04Z</time>
      </trkpt>
      <trkpt lat="45.95843" lon="4.69145">
        <ele>295.26</ele>
        <time>2013-11-11T10:59:08Z</time>
      </trkpt>
      <trkpt lat="45.95839" lon="4.69148">
        <ele>294.78</ele>
        <time>2013-11-11T10:59:09Z</time>
      </trkpt>
      <trkpt lat="45.95832" lon="4.69153">
        <ele>293.82</ele>
        <time>2013-11-11T10:59:11Z</time>
      </trkpt>
      <trkpt lat="45.95828" lon="4.69154">
        <ele>294.3</ele>
        <time>2013-11-11T10:59:17Z</time>
      </trkpt>
      <trkpt lat="45.95828" lon="4.69154">
        <ele>294.3</ele>
        <time>2013-11-11T10:59:33Z</time>
      </trkpt>
      <trkpt lat="45.95828" lon="4.69154">
        <ele>294.3</ele>
        <time>2013-11-11T10:59:45Z</time>
      </trkpt>
      <trkpt lat="45.95828" lon="4.69154">
        <ele>294.78</ele>
        <time>2013-11-11T11:00:02Z</time>
      </trkpt>
      <trkpt lat="45.95828" lon="4.69154">
        <ele>294.78</ele>
        <time>2013-11-11T11:00:19Z</time>
      </trkpt>
      <trkpt lat="45.95827" lon="4.69155">
        <ele>295.26</ele>
        <time>2013-11-11T11:00:36Z</time>
      </trkpt>
      <trkpt lat="45.95827" lon="4.69155">
        <ele>294.78</ele>
        <time>2013-11-11T11:00:56Z</time>
      </trkpt>
      <trkpt lat="45.95827" lon="4.69155">
        <ele>294.3</ele>
        <time>2013-11-11T11:01:10Z</time>
      </trkpt>
      <trkpt lat="45.95827" lon="4.69155">
        <ele>295.26</ele>
        <time>2013-11-11T11:01:26Z</time>
      </trkpt>
      <trkpt lat="45.95827" lon="4.69155">
        <ele>295.26</ele>
        <time>2013-11-11T11:01:45Z</time>
      </trkpt>
      <trkpt lat="45.95827" lon="4.69156">
        <ele>295.26</ele>
        <time>2013-11-11T11:02:01Z</time>
      </trkpt>
      <trkpt lat="45.95827" lon="4.69157">
        <ele>295.26</ele>
        <time>2013-11-11T11:02:16Z</time>
      </trkpt>
      <trkpt lat="45.95827" lon="4.69157">
        <ele>294.78</ele>
        <time>2013-11-11T11:02:32Z</time>
      </trkpt>
      <trkpt lat="45.95827" lon="4.69157">
        <ele>295.26</ele>
        <time>2013-11-11T11:02:51Z</time>
      </trkpt>
      <trkpt lat="45.95827" lon="4.69157">
        <ele>295.26</ele>
        <time>2013-11-11T11:03:08Z</time>
      </trkpt>
      <trkpt lat="45.95827" lon="4.69156">
        <ele>294.78</ele>
        <time>2013-11-11T11:03:16Z</time>
      </trkpt>
      <trkpt lat="45.95827" lon="4.69156">
        <ele>295.26</ele>
        <time>2013-11-11T11:03:33Z</time>
      </trkpt>
      <trkpt lat="45.95827" lon="4.69156">
        <ele>294.78</ele>
        <time>2013-11-11T11:03:49Z</time>
      </trkpt>
      <trkpt lat="45.95827" lon="4.69156">
        <ele>295.26</ele>
        <time>2013-11-11T11:04:08Z</time>
      </trkpt>
      <trkpt lat="45.95821" lon="4.6916">
        <ele>294.78</ele>
        <time>2013-11-11T11:04:17Z</time>
      </trkpt>
      <trkpt lat="45.95791" lon="4.69162">
        <ele>295.74</ele>
        <time>2013-11-11T11:04:26Z</time>
      </trkpt>
      <trkpt lat="45.95758" lon="4.69165">
        <ele>296.7</ele>
        <time>2013-11-11T11:04:37Z</time>
      </trkpt>
      <trkpt lat="45.95729" lon="4.69164">
        <ele>297.67</ele>
        <time>2013-11-11T11:04:47Z</time>
      </trkpt>
      <trkpt lat="45.95693" lon="4.6916">
        <ele>299.59</ele>
        <time>2013-11-11T11:05:00Z</time>
      </trkpt>
      <trkpt lat="45.95662" lon="4.69156">
        <ele>301.51</ele>
        <time>2013-11-11T11:05:12Z</time>
      </trkpt>
      <trkpt lat="45.95647" lon="4.69154">
        <ele>301.99</ele>
        <time>2013-11-11T11:05:22Z</time>
      </trkpt>
      <trkpt lat="45.95646" lon="4.69154">
        <ele>302.47</ele>
        <time>2013-11-11T11:05:34Z</time>
      </trkpt>
      <trkpt lat="45.95644" lon="4.69153">
        <ele>301.99</ele>
        <time>2013-11-11T11:05:35Z</time>
      </trkpt>
      <trkpt lat="45.95642" lon="4.69152">
        <ele>302.47</ele>
        <time>2013-11-11T11:05:36Z</time>
      </trkpt>
      <trkpt lat="45.95641" lon="4.69151">
        <ele>302.47</ele>
        <time>2013-11-11T11:05:37Z</time>
      </trkpt>
      <trkpt lat="45.95638" lon="4.6915">
        <ele>301.99</ele>
        <time>2013-11-11T11:05:38Z</time>
      </trkpt>
      <trkpt lat="45.95636" lon="4.6915">
        <ele>302.47</ele>
        <time>2013-11-11T11:05:39Z</time>
      </trkpt>
      <trkpt lat="45.95601" lon="4.69148">
        <ele>302.95</ele>
        <time>2013-11-11T11:05:51Z</time>
      </trkpt>
      <trkpt lat="45.95593" lon="4.69175">
        <ele>304.39</ele>
        <time>2013-11-11T11:05:59Z</time>
      </trkpt>
      <trkpt lat="45.95583" lon="4.69197">
        <ele>307.28</ele>
        <time>2013-11-11T11:06:09Z</time>
      </trkpt>
      <trkpt lat="45.95573" lon="4.69206">
        <ele>307.76</ele>
        <time>2013-11-11T11:06:15Z</time>
      </trkpt>
      <trkpt lat="45.95553" lon="4.69222">
        <ele>309.68</ele>
        <time>2013-11-11T11:06:26Z</time>
      </trkpt>
      <trkpt lat="45.95542" lon="4.69242">
        <ele>311.6</ele>
        <time>2013-11-11T11:06:34Z</time>
      </trkpt>
      <trkpt lat="45.9554" lon="4.69243">
        <ele>311.12</ele>
        <time>2013-11-11T11:06:35Z</time>
      </trkpt>
      <trkpt lat="45.95538" lon="4.69244">
        <ele>311.6</ele>
        <time>2013-11-11T11:06:36Z</time>
      </trkpt>
      <trkpt lat="45.95537" lon="4.69245">
        <ele>311.6</ele>
        <time>2013-11-11T11:06:37Z</time>
      </trkpt>
      <trkpt lat="45.95535" lon="4.69244">
        <ele>311.6</ele>
        <time>2013-11-11T11:06:38Z</time>
      </trkpt>
      <trkpt lat="45.95533" lon="4.69244">
        <ele>311.6</ele>
        <time>2013-11-11T11:06:39Z</time>
      </trkpt>
      <trkpt lat="45.95532" lon="4.69246">
        <ele>311.6</ele>
        <time>2013-11-11T11:06:40Z</time>
      </trkpt>
      <trkpt lat="45.95532" lon="4.69248">
        <ele>312.09</ele>
        <time>2013-11-11T11:06:41Z</time>
      </trkpt>
      <trkpt lat="45.95533" lon="4.6925">
        <ele>312.09</ele>
        <time>2013-11-11T11:06:42Z</time>
      </trkpt>
      <trkpt lat="45.95534" lon="4.69252">
        <ele>312.57</ele>
        <time>2013-11-11T11:06:43Z</time>
      </trkpt>
      <trkpt lat="45.95535" lon="4.69254">
        <ele>312.57</ele>
        <time>2013-11-11T11:06:44Z</time>
      </trkpt>
      <trkpt lat="45.95535" lon="4.69257">
        <ele>313.05</ele>
        <time>2013-11-11T11:06:45Z</time>
      </trkpt>
      <trkpt lat="45.95536" lon="4.69259">
        <ele>313.53</ele>
        <time>2013-11-11T11:06:46Z</time>
      </trkpt>
      <trkpt lat="45.95537" lon="4.69262">
        <ele>314.01</ele>
        <time>2013-11-11T11:06:47Z</time>
      </trkpt>
      <trkpt lat="45.95536" lon="4.69265">
        <ele>314.01</ele>
        <time>2013-11-11T11:06:48Z</time>
      </trkpt>
      <trkpt lat="45.95535" lon="4.69266">
        <ele>314.49</ele>
        <time>2013-11-11T11:06:49Z</time>
      </trkpt>
      <trkpt lat="45.95534" lon="4.69267">
        <ele>314.49</ele>
        <time>2013-11-11T11:06:50Z</time>
      </trkpt>
      <trkpt lat="45.95532" lon="4.69266">
        <ele>314.49</ele>
        <time>2013-11-11T11:06:51Z</time>
      </trkpt>
      <trkpt lat="45.9553" lon="4.69266">
        <ele>314.49</ele>
        <time>2013-11-11T11:06:52Z</time>
      </trkpt>
      <trkpt lat="45.95528" lon="4.69266">
        <ele>314.49</ele>
        <time>2013-11-11T11:06:53Z</time>
      </trkpt>
      <trkpt lat="45.95506" lon="4.69265">
        <ele>315.45</ele>
        <time>2013-11-11T11:07:04Z</time>
      </trkpt>
      <trkpt lat="45.95483" lon="4.69263">
        <ele>315.93</ele>
        <time>2013-11-11T11:07:15Z</time>
      </trkpt>
      <trkpt lat="45.95462" lon="4.69277">
        <ele>318.33</ele>
        <time>2013-11-11T11:07:28Z</time>
      </trkpt>
      <trkpt lat="45.95439" lon="4.69284">
        <ele>318.81</ele>
        <time>2013-11-11T11:07:41Z</time>
      </trkpt>
      <trkpt lat="45.95416" lon="4.69285">
        <ele>321.22</ele>
        <time>2013-11-11T11:07:53Z</time>
      </trkpt>
      <trkpt lat="45.95391" lon="4.6928">
        <ele>322.66</ele>
        <time>2013-11-11T11:08:06Z</time>
      </trkpt>
      <trkpt lat="45.95383" lon="4.69282">
        <ele>325.06</ele>
        <time>2013-11-11T11:08:11Z</time>
      </trkpt>
      <trkpt lat="45.9538" lon="4.69279">
        <ele>325.06</ele>
        <time>2013-11-11T11:08:13Z</time>
      </trkpt>
      <trkpt lat="45.95378" lon="4.69279">
        <ele>325.06</ele>
        <time>2013-11-11T11:08:14Z</time>
      </trkpt>
      <trkpt lat="45.95376" lon="4.69279">
        <ele>325.06</ele>
        <time>2013-11-11T11:08:15Z</time>
      </trkpt>
      <trkpt lat="45.95353" lon="4.6927">
        <ele>326.5</ele>
        <time>2013-11-11T11:08:27Z</time>
      </trkpt>
      <trkpt lat="45.9533" lon="4.69265">
        <ele>326.5</ele>
        <time>2013-11-11T11:08:38Z</time>
      </trkpt>
      <trkpt lat="45.95302" lon="4.6927">
        <ele>328.43</ele>
        <time>2013-11-11T11:08:49Z</time>
      </trkpt>
      <trkpt lat="45.95261" lon="4.69275">
        <ele>330.83</ele>
        <time>2013-11-11T11:09:01Z</time>
      </trkpt>
      <trkpt lat="45.95219" lon="4.69281">
        <ele>332.27</ele>
        <time>2013-11-11T11:09:13Z</time>
      </trkpt>
      <trkpt lat="45.95176" lon="4.69294">
        <ele>334.68</ele>
        <time>2013-11-11T11:09:27Z</time>
      </trkpt>
      <trkpt lat="45.95154" lon="4.6931">
        <ele>337.08</ele>
        <time>2013-11-11T11:09:37Z</time>
      </trkpt>
      <trkpt lat="45.95136" lon="4.69324">
        <ele>339</ele>
        <time>2013-11-11T11:09:46Z</time>
      </trkpt>
      <trkpt lat="45.95126" lon="4.69326">
        <ele>340.44</ele>
        <time>2013-11-11T11:09:54Z</time>
      </trkpt>
      <trkpt lat="45.95126" lon="4.69326">
        <ele>340.44</ele>
        <time>2013-11-11T11:10:13Z</time>
      </trkpt>
      <trkpt lat="45.95126" lon="4.69325">
        <ele>339.96</ele>
        <time>2013-11-11T11:10:35Z</time>
      </trkpt>
      <trkpt lat="45.95126" lon="4.69325">
        <ele>340.92</ele>
        <time>2013-11-11T11:10:53Z</time>
      </trkpt>
      <trkpt lat="45.95115" lon="4.6932">
        <ele>339.96</ele>
        <time>2013-11-11T11:11:02Z</time>
      </trkpt>
      <trkpt lat="45.95107" lon="4.69315">
        <ele>339.96</ele>
        <time>2013-11-11T11:11:06Z</time>
      </trkpt>
      <trkpt lat="45.95105" lon="4.69315">
        <ele>339.96</ele>
        <time>2013-11-11T11:11:07Z</time>
      </trkpt>
      <trkpt lat="45.95102" lon="4.69316">
        <ele>339.48</ele>
        <time>2013-11-11T11:11:08Z</time>
      </trkpt>
      <trkpt lat="45.951" lon="4.69318">
        <ele>339.48</ele>
        <time>2013-11-11T11:11:09Z</time>
      </trkpt>
      <trkpt lat="45.95098" lon="4.6932">
        <ele>339.96</ele>
        <time>2013-11-11T11:11:10Z</time>
      </trkpt>
      <trkpt lat="45.95096" lon="4.69323">
        <ele>339.48</ele>
        <time>2013-11-11T11:11:11Z</time>
      </trkpt>
      <trkpt lat="45.95087" lon="4.69347">
        <ele>341.41</ele>
        <time>2013-11-11T11:11:20Z</time>
      </trkpt>
      <trkpt lat="45.95082" lon="4.69381">
        <ele>342.37</ele>
        <time>2013-11-11T11:11:30Z</time>
      </trkpt>
      <trkpt lat="45.95079" lon="4.69424">
        <ele>344.77</ele>
        <time>2013-11-11T11:11:42Z</time>
      </trkpt>
      <trkpt lat="45.95076" lon="4.69471">
        <ele>345.73</ele>
        <time>2013-11-11T11:11:54Z</time>
      </trkpt>
      <trkpt lat="45.95073" lon="4.69519">
        <ele>346.69</ele>
        <time>2013-11-11T11:12:06Z</time>
      </trkpt>
      <trkpt lat="45.95072" lon="4.69535">
        <ele>345.73</ele>
        <time>2013-11-11T11:12:09Z</time>
      </trkpt>
      <trkpt lat="45.95071" lon="4.69541">
        <ele>345.25</ele>
        <time>2013-11-11T11:12:10Z</time>
      </trkpt>
      <trkpt lat="45.9507" lon="4.69547">
        <ele>346.21</ele>
        <time>2013-11-11T11:12:11Z</time>
      </trkpt>
      <trkpt lat="45.9507" lon="4.69587">
        <ele>344.29</ele>
        <time>2013-11-11T11:12:16Z</time>
      </trkpt>
      <trkpt lat="45.95071" lon="4.69612">
        <ele>340.44</ele>
        <time>2013-11-11T11:12:19Z</time>
      </trkpt>
      <trkpt lat="45.95072" lon="4.69621">
        <ele>339.96</ele>
        <time>2013-11-11T11:12:20Z</time>
      </trkpt>
      <trkpt lat="45.95076" lon="4.69662">
        <ele>338.52</ele>
        <time>2013-11-11T11:12:24Z</time>
      </trkpt>
      <trkpt lat="45.95084" lon="4.69727">
        <ele>334.68</ele>
        <time>2013-11-11T11:12:29Z</time>
      </trkpt>
      <trkpt lat="45.95088" lon="4.69755">
        <ele>333.23</ele>
        <time>2013-11-11T11:12:31Z</time>
      </trkpt>
      <trkpt lat="45.95095" lon="4.69796">
        <ele>329.87</ele>
        <time>2013-11-11T11:12:34Z</time>
      </trkpt>
      <trkpt lat="45.95106" lon="4.69873">
        <ele>327.47</ele>
        <time>2013-11-11T11:12:41Z</time>
      </trkpt>
      <trkpt lat="45.95106" lon="4.69881">
        <ele>327.95</ele>
        <time>2013-11-11T11:12:42Z</time>
      </trkpt>
      <trkpt lat="45.95106" lon="4.69888">
        <ele>328.43</ele>
        <time>2013-11-11T11:12:43Z</time>
      </trkpt>
      <trkpt lat="45.95105" lon="4.69895">
        <ele>327.47</ele>
        <time>2013-11-11T11:12:44Z</time>
      </trkpt>
      <trkpt lat="45.95104" lon="4.69902">
        <ele>327.95</ele>
        <time>2013-11-11T11:12:45Z</time>
      </trkpt>
      <trkpt lat="45.95101" lon="4.69909">
        <ele>327.47</ele>
        <time>2013-11-11T11:12:46Z</time>
      </trkpt>
      <trkpt lat="45.95098" lon="4.69916">
        <ele>326.99</ele>
        <time>2013-11-11T11:12:47Z</time>
      </trkpt>
      <trkpt lat="45.95094" lon="4.69922">
        <ele>326.5</ele>
        <time>2013-11-11T11:12:48Z</time>
      </trkpt>
      <trkpt lat="45.95089" lon="4.69928">
        <ele>326.02</ele>
        <time>2013-11-11T11:12:49Z</time>
      </trkpt>
      <trkpt lat="45.95084" lon="4.69933">
        <ele>326.02</ele>
        <time>2013-11-11T11:12:50Z</time>
      </trkpt>
      <trkpt lat="45.95067" lon="4.69945">
        <ele>324.58</ele>
        <time>2013-11-11T11:12:53Z</time>
      </trkpt>
      <trkpt lat="45.95046" lon="4.69963">
        <ele>321.22</ele>
        <time>2013-11-11T11:12:57Z</time>
      </trkpt>
      <trkpt lat="45.95026" lon="4.69985">
        <ele>318.81</ele>
        <time>2013-11-11T11:13:00Z</time>
      </trkpt>
      <trkpt lat="45.9502" lon="4.69995">
        <ele>317.85</ele>
        <time>2013-11-11T11:13:01Z</time>
      </trkpt>
      <trkpt lat="45.95014" lon="4.70006">
        <ele>316.89</ele>
        <time>2013-11-11T11:13:02Z</time>
      </trkpt>
      <trkpt lat="45.95001" lon="4.70031">
        <ele>313.53</ele>
        <time>2013-11-11T11:13:04Z</time>
      </trkpt>
      <trkpt lat="45.9498" lon="4.70073">
        <ele>310.16</ele>
        <time>2013-11-11T11:13:07Z</time>
      </trkpt>
      <trkpt lat="45.94959" lon="4.70121">
        <ele>306.32</ele>
        <time>2013-11-11T11:13:10Z</time>
      </trkpt>
      <trkpt lat="45.94936" lon="4.70172">
        <ele>301.51</ele>
        <time>2013-11-11T11:13:13Z</time>
      </trkpt>
      <trkpt lat="45.94922" lon="4.70204">
        <ele>297.67</ele>
        <time>2013-11-11T11:13:15Z</time>
      </trkpt>
      <trkpt lat="45.9491" lon="4.70235">
        <ele>295.26</ele>
        <time>2013-11-11T11:13:17Z</time>
      </trkpt>
      <trkpt lat="45.94907" lon="4.70252">
        <ele>292.86</ele>
        <time>2013-11-11T11:13:18Z</time>
      </trkpt>
      <trkpt lat="45.94905" lon="4.70269">
        <ele>291.9</ele>
        <time>2013-11-11T11:13:19Z</time>
      </trkpt>
      <trkpt lat="45.94906" lon="4.70286">
        <ele>290.46</ele>
        <time>2013-11-11T11:13:20Z</time>
      </trkpt>
      <trkpt lat="45.94909" lon="4.70303">
        <ele>289.49</ele>
        <time>2013-11-11T11:13:21Z</time>
      </trkpt>
      <trkpt lat="45.94911" lon="4.7032">
        <ele>288.53</ele>
        <time>2013-11-11T11:13:22Z</time>
      </trkpt>
      <trkpt lat="45.94912" lon="4.70337">
        <ele>288.53</ele>
        <time>2013-11-11T11:13:23Z</time>
      </trkpt>
      <trkpt lat="45.94912" lon="4.70353">
        <ele>287.09</ele>
        <time>2013-11-11T11:13:24Z</time>
      </trkpt>
      <trkpt lat="45.94911" lon="4.7037">
        <ele>286.13</ele>
        <time>2013-11-11T11:13:25Z</time>
      </trkpt>
      <trkpt lat="45.94908" lon="4.70387">
        <ele>284.21</ele>
        <time>2013-11-11T11:13:26Z</time>
      </trkpt>
      <trkpt lat="45.94904" lon="4.70403">
        <ele>283.25</ele>
        <time>2013-11-11T11:13:27Z</time>
      </trkpt>
      <trkpt lat="45.94897" lon="4.70418">
        <ele>281.32</ele>
        <time>2013-11-11T11:13:28Z</time>
      </trkpt>
      <trkpt lat="45.94889" lon="4.70432">
        <ele>280.36</ele>
        <time>2013-11-11T11:13:29Z</time>
      </trkpt>
      <trkpt lat="45.94883" lon="4.70446">
        <ele>279.4</ele>
        <time>2013-11-11T11:13:30Z</time>
      </trkpt>
      <trkpt lat="45.94879" lon="4.70461">
        <ele>277.96</ele>
        <time>2013-11-11T11:13:31Z</time>
      </trkpt>
      <trkpt lat="45.94878" lon="4.70477">
        <ele>276.04</ele>
        <time>2013-11-11T11:13:32Z</time>
      </trkpt>
      <trkpt lat="45.9488" lon="4.70492">
        <ele>275.56</ele>
        <time>2013-11-11T11:13:33Z</time>
      </trkpt>
      <trkpt lat="45.94884" lon="4.70505">
        <ele>275.07</ele>
        <time>2013-11-11T11:13:34Z</time>
      </trkpt>
      <trkpt lat="45.94891" lon="4.70516">
        <ele>274.11</ele>
        <time>2013-11-11T11:13:35Z</time>
      </trkpt>
      <trkpt lat="45.949" lon="4.70524">
        <ele>272.67</ele>
        <time>2013-11-11T11:13:36Z</time>
      </trkpt>
      <trkpt lat="45.94909" lon="4.70532">
        <ele>272.19</ele>
        <time>2013-11-11T11:13:37Z</time>
      </trkpt>
      <trkpt lat="45.94936" lon="4.70556">
        <ele>268.83</ele>
        <time>2013-11-11T11:13:40Z</time>
      </trkpt>
      <trkpt lat="45.94946" lon="4.70564">
        <ele>268.83</ele>
        <time>2013-11-11T11:13:41Z</time>
      </trkpt>
      <trkpt lat="45.94976" lon="4.70585">
        <ele>264.98</ele>
        <time>2013-11-11T11:13:44Z</time>
      </trkpt>
      <trkpt lat="45.94986" lon="4.70591">
        <ele>264.5</ele>
        <time>2013-11-11T11:13:45Z</time>
      </trkpt>
      <trkpt lat="45.95019" lon="4.70607">
        <ele>259.69</ele>
        <time>2013-11-11T11:13:48Z</time>
      </trkpt>
      <trkpt lat="45.9503" lon="4.70613">
        <ele>259.21</ele>
        <time>2013-11-11T11:13:49Z</time>
      </trkpt>
      <trkpt lat="45.95051" lon="4.70627">
        <ele>256.81</ele>
        <time>2013-11-11T11:13:51Z</time>
      </trkpt>
      <trkpt lat="45.95061" lon="4.70637">
        <ele>255.37</ele>
        <time>2013-11-11T11:13:52Z</time>
      </trkpt>
      <trkpt lat="45.95069" lon="4.7065">
        <ele>253.44</ele>
        <time>2013-11-11T11:13:53Z</time>
      </trkpt>
      <trkpt lat="45.95083" lon="4.70679">
        <ele>252</ele>
        <time>2013-11-11T11:13:55Z</time>
      </trkpt>
      <trkpt lat="45.95089" lon="4.70695">
        <ele>250.56</ele>
        <time>2013-11-11T11:13:56Z</time>
      </trkpt>
      <trkpt lat="45.95095" lon="4.70712">
        <ele>250.08</ele>
        <time>2013-11-11T11:13:57Z</time>
      </trkpt>
      <trkpt lat="45.95103" lon="4.70743">
        <ele>247.2</ele>
        <time>2013-11-11T11:13:59Z</time>
      </trkpt>
      <trkpt lat="45.95109" lon="4.70756">
        <ele>247.2</ele>
        <time>2013-11-11T11:14:00Z</time>
      </trkpt>
      <trkpt lat="45.95123" lon="4.70778">
        <ele>242.87</ele>
        <time>2013-11-11T11:14:02Z</time>
      </trkpt>
      <trkpt lat="45.95137" lon="4.70796">
        <ele>240.95</ele>
        <time>2013-11-11T11:14:04Z</time>
      </trkpt>
      <trkpt lat="45.95143" lon="4.70807">
        <ele>239.99</ele>
        <time>2013-11-11T11:14:05Z</time>
      </trkpt>
      <trkpt lat="45.95147" lon="4.70819">
        <ele>238.06</ele>
        <time>2013-11-11T11:14:06Z</time>
      </trkpt>
      <trkpt lat="45.95148" lon="4.70834">
        <ele>237.1</ele>
        <time>2013-11-11T11:14:07Z</time>
      </trkpt>
      <trkpt lat="45.95147" lon="4.70849">
        <ele>235.18</ele>
        <time>2013-11-11T11:14:08Z</time>
      </trkpt>
      <trkpt lat="45.95143" lon="4.70865">
        <ele>233.74</ele>
        <time>2013-11-11T11:14:09Z</time>
      </trkpt>
      <trkpt lat="45.95139" lon="4.70881">
        <ele>234.22</ele>
        <time>2013-11-11T11:14:10Z</time>
      </trkpt>
      <trkpt lat="45.95126" lon="4.70932">
        <ele>230.85</ele>
        <time>2013-11-11T11:14:13Z</time>
      </trkpt>
      <trkpt lat="45.9511" lon="4.70986">
        <ele>227.97</ele>
        <time>2013-11-11T11:14:16Z</time>
      </trkpt>
      <trkpt lat="45.95097" lon="4.71022">
        <ele>223.64</ele>
        <time>2013-11-11T11:14:18Z</time>
      </trkpt>
      <trkpt lat="45.95072" lon="4.71072">
        <ele>220.28</ele>
        <time>2013-11-11T11:14:21Z</time>
      </trkpt>
      <trkpt lat="45.95056" lon="4.71106">
        <ele>216.43</ele>
        <time>2013-11-11T11:14:23Z</time>
      </trkpt>
      <trkpt lat="45.95039" lon="4.71138">
        <ele>214.51</ele>
        <time>2013-11-11T11:14:25Z</time>
      </trkpt>
      <trkpt lat="45.95029" lon="4.71152">
        <ele>211.63</ele>
        <time>2013-11-11T11:14:26Z</time>
      </trkpt>
      <trkpt lat="45.95018" lon="4.71164">
        <ele>209.7</ele>
        <time>2013-11-11T11:14:27Z</time>
      </trkpt>
      <trkpt lat="45.95006" lon="4.71175">
        <ele>208.74</ele>
        <time>2013-11-11T11:14:28Z</time>
      </trkpt>
      <trkpt lat="45.94993" lon="4.71185">
        <ele>207.3</ele>
        <time>2013-11-11T11:14:29Z</time>
      </trkpt>
      <trkpt lat="45.94968" lon="4.71204">
        <ele>204.42</ele>
        <time>2013-11-11T11:14:31Z</time>
      </trkpt>
      <trkpt lat="45.94945" lon="4.71223">
        <ele>200.57</ele>
        <time>2013-11-11T11:14:33Z</time>
      </trkpt>
      <trkpt lat="45.94927" lon="4.71239">
        <ele>197.21</ele>
        <time>2013-11-11T11:14:35Z</time>
      </trkpt>
      <trkpt lat="45.94916" lon="4.71249">
        <ele>196.73</ele>
        <time>2013-11-11T11:14:37Z</time>
      </trkpt>
      <trkpt lat="45.94911" lon="4.71251">
        <ele>196.73</ele>
        <time>2013-11-11T11:14:38Z</time>
      </trkpt>
      <trkpt lat="45.94907" lon="4.71256">
        <ele>196.73</ele>
        <time>2013-11-11T11:14:39Z</time>
      </trkpt>
      <trkpt lat="45.94905" lon="4.71262">
        <ele>196.73</ele>
        <time>2013-11-11T11:14:40Z</time>
      </trkpt>
      <trkpt lat="45.94905" lon="4.7127">
        <ele>195.77</ele>
        <time>2013-11-11T11:14:41Z</time>
      </trkpt>
      <trkpt lat="45.94908" lon="4.71277">
        <ele>195.77</ele>
        <time>2013-11-11T11:14:42Z</time>
      </trkpt>
      <trkpt lat="45.94912" lon="4.71281">
        <ele>195.77</ele>
        <time>2013-11-11T11:14:43Z</time>
      </trkpt>
      <trkpt lat="45.94918" lon="4.71281">
        <ele>195.28</ele>
        <time>2013-11-11T11:14:44Z</time>
      </trkpt>
      <trkpt lat="45.94924" lon="4.71278">
        <ele>195.28</ele>
        <time>2013-11-11T11:14:45Z</time>
      </trkpt>
      <trkpt lat="45.94928" lon="4.71272">
        <ele>195.28</ele>
        <time>2013-11-11T11:14:46Z</time>
      </trkpt>
      <trkpt lat="45.9493" lon="4.71265">
        <ele>195.28</ele>
        <time>2013-11-11T11:14:47Z</time>
      </trkpt>
      <trkpt lat="45.94929" lon="4.71258">
        <ele>195.77</ele>
        <time>2013-11-11T11:14:48Z</time>
      </trkpt>
      <trkpt lat="45.94926" lon="4.71254">
        <ele>196.25</ele>
        <time>2013-11-11T11:14:49Z</time>
      </trkpt>
      <trkpt lat="45.94922" lon="4.71252">
        <ele>196.25</ele>
        <time>2013-11-11T11:14:50Z</time>
      </trkpt>
      <trkpt lat="45.94918" lon="4.71252">
        <ele>196.25</ele>
        <time>2013-11-11T11:14:51Z</time>
      </trkpt>
      <trkpt lat="45.94913" lon="4.71252">
        <ele>196.25</ele>
        <time>2013-11-11T11:14:52Z</time>
      </trkpt>
      <trkpt lat="45.94908" lon="4.71252">
        <ele>196.25</ele>
        <time>2013-11-11T11:14:53Z</time>
      </trkpt>
      <trkpt lat="45.94902" lon="4.71252">
        <ele>195.77</ele>
        <time>2013-11-11T11:14:54Z</time>
      </trkpt>
      <trkpt lat="45.94897" lon="4.71251">
        <ele>196.73</ele>
        <time>2013-11-11T11:14:55Z</time>
      </trkpt>
      <trkpt lat="45.94885" lon="4.71246">
        <ele>197.21</ele>
        <time>2013-11-11T11:14:58Z</time>
      </trkpt>
      <trkpt lat="45.94842" lon="4.71238">
        <ele>198.65</ele>
        <time>2013-11-11T11:15:10Z</time>
      </trkpt>
      <trkpt lat="45.94814" lon="4.71235">
        <ele>199.13</ele>
        <time>2013-11-11T11:15:20Z</time>
      </trkpt>
      <trkpt lat="45.94777" lon="4.71234">
        <ele>200.09</ele>
        <time>2013-11-11T11:15:31Z</time>
      </trkpt>
      <trkpt lat="45.94724" lon="4.71238">
        <ele>200.09</ele>
        <time>2013-11-11T11:15:44Z</time>
      </trkpt>
      <trkpt lat="45.94679" lon="4.7125">
        <ele>197.21</ele>
        <time>2013-11-11T11:15:51Z</time>
      </trkpt>
      <trkpt lat="45.94671" lon="4.71254">
        <ele>195.77</ele>
        <time>2013-11-11T11:15:53Z</time>
      </trkpt>
      <trkpt lat="45.94669" lon="4.71255">
        <ele>196.73</ele>
        <time>2013-11-11T11:15:59Z</time>
      </trkpt>
      <trkpt lat="45.94653" lon="4.71271">
        <ele>195.28</ele>
        <time>2013-11-11T11:16:06Z</time>
      </trkpt>
      <trkpt lat="45.94634" lon="4.71276">
        <ele>195.77</ele>
        <time>2013-11-11T11:16:11Z</time>
      </trkpt>
      <trkpt lat="45.94578" lon="4.71253">
        <ele>195.77</ele>
        <time>2013-11-11T11:16:23Z</time>
      </trkpt>
      <trkpt lat="45.94563" lon="4.71245">
        <ele>196.25</ele>
        <time>2013-11-11T11:16:26Z</time>
      </trkpt>
      <trkpt lat="45.94499" lon="4.71224">
        <ele>196.73</ele>
        <time>2013-11-11T11:16:39Z</time>
      </trkpt>
      <trkpt lat="45.94441" lon="4.71205">
        <ele>197.21</ele>
        <time>2013-11-11T11:16:51Z</time>
      </trkpt>
      <trkpt lat="45.94426" lon="4.71203">
        <ele>198.65</ele>
        <time>2013-11-11T11:16:54Z</time>
      </trkpt>
      <trkpt lat="45.94348" lon="4.71189">
        <ele>198.17</ele>
        <time>2013-11-11T11:17:10Z</time>
      </trkpt>
      <trkpt lat="45.94317" lon="4.71186">
        <ele>197.21</ele>
        <time>2013-11-11T11:17:16Z</time>
      </trkpt>
      <trkpt lat="45.94264" lon="4.71194">
        <ele>194.32</ele>
        <time>2013-11-11T11:17:25Z</time>
      </trkpt>
      <trkpt lat="45.94214" lon="4.71218">
        <ele>190.96</ele>
        <time>2013-11-11T11:17:31Z</time>
      </trkpt>
      <trkpt lat="45.94186" lon="4.71233">
        <ele>187.11</ele>
        <time>2013-11-11T11:17:34Z</time>
      </trkpt>
      <trkpt lat="45.94176" lon="4.71237">
        <ele>187.59</ele>
        <time>2013-11-11T11:17:35Z</time>
      </trkpt>
      <trkpt lat="45.94136" lon="4.71247">
        <ele>184.71</ele>
        <time>2013-11-11T11:17:39Z</time>
      </trkpt>
      <trkpt lat="45.94037" lon="4.71257">
        <ele>184.23</ele>
        <time>2013-11-11T11:17:50Z</time>
      </trkpt>
      <trkpt lat="45.93991" lon="4.71265">
        <ele>183.27</ele>
        <time>2013-11-11T11:17:56Z</time>
      </trkpt>
      <trkpt lat="45.93984" lon="4.71263">
        <ele>184.23</ele>
        <time>2013-11-11T11:17:57Z</time>
      </trkpt>
      <trkpt lat="45.93971" lon="4.71259">
        <ele>184.23</ele>
        <time>2013-11-11T11:17:59Z</time>
      </trkpt>
      <trkpt lat="45.93964" lon="4.71262">
        <ele>183.75</ele>
        <time>2013-11-11T11:18:00Z</time>
      </trkpt>
      <trkpt lat="45.93959" lon="4.71266">
        <ele>182.79</ele>
        <time>2013-11-11T11:18:01Z</time>
      </trkpt>
      <trkpt lat="45.93953" lon="4.71271">
        <ele>181.83</ele>
        <time>2013-11-11T11:18:02Z</time>
      </trkpt>
      <trkpt lat="45.93946" lon="4.71275">
        <ele>183.27</ele>
        <time>2013-11-11T11:18:03Z</time>
      </trkpt>
      <trkpt lat="45.93939" lon="4.71278">
        <ele>183.27</ele>
        <time>2013-11-11T11:18:04Z</time>
      </trkpt>
      <trkpt lat="45.93932" lon="4.71281">
        <ele>184.23</ele>
        <time>2013-11-11T11:18:05Z</time>
      </trkpt>
      <trkpt lat="45.93924" lon="4.71282">
        <ele>182.79</ele>
        <time>2013-11-11T11:18:06Z</time>
      </trkpt>
      <trkpt lat="45.93848" lon="4.71295">
        <ele>183.27</ele>
        <time>2013-11-11T11:18:16Z</time>
      </trkpt>
      <trkpt lat="45.93827" lon="4.71297">
        <ele>184.71</ele>
        <time>2013-11-11T11:18:19Z</time>
      </trkpt>
      <trkpt lat="45.93756" lon="4.71299">
        <ele>183.27</ele>
        <time>2013-11-11T11:18:30Z</time>
      </trkpt>
      <trkpt lat="45.93684" lon="4.71301">
        <ele>184.23</ele>
        <time>2013-11-11T11:18:42Z</time>
      </trkpt>
      <trkpt lat="45.9368" lon="4.71303">
        <ele>184.23</ele>
        <time>2013-11-11T11:18:44Z</time>
      </trkpt>
      <trkpt lat="45.93679" lon="4.71305">
        <ele>184.23</ele>
        <time>2013-11-11T11:18:45Z</time>
      </trkpt>
      <trkpt lat="45.93679" lon="4.71307">
        <ele>184.23</ele>
        <time>2013-11-11T11:18:46Z</time>
      </trkpt>
      <trkpt lat="45.93682" lon="4.71316">
        <ele>184.71</ele>
        <time>2013-11-11T11:18:49Z</time>
      </trkpt>
      <trkpt lat="45.93681" lon="4.71318">
        <ele>184.71</ele>
        <time>2013-11-11T11:18:50Z</time>
      </trkpt>
      <trkpt lat="45.9368" lon="4.71319">
        <ele>184.23</ele>
        <time>2013-11-11T11:18:51Z</time>
      </trkpt>
      <trkpt lat="45.93678" lon="4.71321">
        <ele>184.23</ele>
        <time>2013-11-11T11:18:52Z</time>
      </trkpt>
      <trkpt lat="45.93677" lon="4.71324">
        <ele>184.71</ele>
        <time>2013-11-11T11:18:53Z</time>
      </trkpt>
      <trkpt lat="45.93677" lon="4.71327">
        <ele>184.23</ele>
        <time>2013-11-11T11:18:54Z</time>
      </trkpt>
      <trkpt lat="45.93678" lon="4.7133">
        <ele>184.23</ele>
        <time>2013-11-11T11:18:55Z</time>
      </trkpt>
      <trkpt lat="45.93679" lon="4.71333">
        <ele>184.23</ele>
        <time>2013-11-11T11:18:56Z</time>
      </trkpt>
      <trkpt lat="45.93679" lon="4.71336">
        <ele>184.23</ele>
        <time>2013-11-11T11:18:57Z</time>
      </trkpt>
      <trkpt lat="45.93682" lon="4.71375">
        <ele>182.31</ele>
        <time>2013-11-11T11:19:05Z</time>
      </trkpt>
      <trkpt lat="45.93679" lon="4.71407">
        <ele>181.35</ele>
        <time>2013-11-11T11:19:12Z</time>
      </trkpt>
      <trkpt lat="45.93676" lon="4.71433">
        <ele>180.87</ele>
        <time>2013-11-11T11:19:18Z</time>
      </trkpt>
      <trkpt lat="45.93675" lon="4.7144">
        <ele>181.35</ele>
        <time>2013-11-11T11:19:20Z</time>
      </trkpt>
      <trkpt lat="45.93673" lon="4.71442">
        <ele>180.87</ele>
        <time>2013-11-11T11:19:21Z</time>
      </trkpt>
      <trkpt lat="45.93672" lon="4.71444">
        <ele>180.87</ele>
        <time>2013-11-11T11:19:22Z</time>
      </trkpt>
      <trkpt lat="45.9367" lon="4.71445">
        <ele>180.38</ele>
        <time>2013-11-11T11:19:23Z</time>
      </trkpt>
      <trkpt lat="45.93668" lon="4.71445">
        <ele>181.35</ele>
        <time>2013-11-11T11:19:24Z</time>
      </trkpt>
      <trkpt lat="45.93666" lon="4.71445">
        <ele>180.38</ele>
        <time>2013-11-11T11:19:25Z</time>
      </trkpt>
      <trkpt lat="45.93665" lon="4.71446">
        <ele>180.87</ele>
        <time>2013-11-11T11:19:26Z</time>
      </trkpt>
      <trkpt lat="45.93657" lon="4.71448">
        <ele>180.87</ele>
        <time>2013-11-11T11:19:30Z</time>
      </trkpt>
      <trkpt lat="45.93655" lon="4.71451">
        <ele>180.38</ele>
        <time>2013-11-11T11:19:31Z</time>
      </trkpt>
      <trkpt lat="45.93655" lon="4.71456">
        <ele>180.87</ele>
        <time>2013-11-11T11:19:32Z</time>
      </trkpt>
      <trkpt lat="45.93655" lon="4.71461">
        <ele>180.87</ele>
        <time>2013-11-11T11:19:33Z</time>
      </trkpt>
      <trkpt lat="45.93655" lon="4.71468">
        <ele>181.35</ele>
        <time>2013-11-11T11:19:34Z</time>
      </trkpt>
      <trkpt lat="45.93658" lon="4.71522">
        <ele>179.9</ele>
        <time>2013-11-11T11:19:43Z</time>
      </trkpt>
      <trkpt lat="45.93658" lon="4.71587">
        <ele>178.94</ele>
        <time>2013-11-11T11:19:54Z</time>
      </trkpt>
      <trkpt lat="45.93657" lon="4.71615">
        <ele>179.42</ele>
        <time>2013-11-11T11:20:02Z</time>
      </trkpt>
      <trkpt lat="45.93657" lon="4.71617">
        <ele>178.94</ele>
        <time>2013-11-11T11:20:03Z</time>
      </trkpt>
      <trkpt lat="45.93657" lon="4.7162">
        <ele>178.94</ele>
        <time>2013-11-11T11:20:04Z</time>
      </trkpt>
      <trkpt lat="45.93657" lon="4.71623">
        <ele>179.42</ele>
        <time>2013-11-11T11:20:05Z</time>
      </trkpt>
      <trkpt lat="45.93656" lon="4.71626">
        <ele>179.42</ele>
        <time>2013-11-11T11:20:06Z</time>
      </trkpt>
      <trkpt lat="45.93657" lon="4.71645">
        <ele>178.94</ele>
        <time>2013-11-11T11:20:10Z</time>
      </trkpt>
      <trkpt lat="45.93658" lon="4.71651">
        <ele>178.94</ele>
        <time>2013-11-11T11:20:11Z</time>
      </trkpt>
      <trkpt lat="45.93658" lon="4.71656">
        <ele>178.94</ele>
        <time>2013-11-11T11:20:12Z</time>
      </trkpt>
      <trkpt lat="45.93663" lon="4.717">
        <ele>178.46</ele>
        <time>2013-11-11T11:20:20Z</time>
      </trkpt>
      <trkpt lat="45.93671" lon="4.71751">
        <ele>178.46</ele>
        <time>2013-11-11T11:20:31Z</time>
      </trkpt>
      <trkpt lat="45.93674" lon="4.7178">
        <ele>178.46</ele>
        <time>2013-11-11T11:20:40Z</time>
      </trkpt>
      <trkpt lat="45.93675" lon="4.71782">
        <ele>177.98</ele>
        <time>2013-11-11T11:20:41Z</time>
      </trkpt>
      <trkpt lat="45.93677" lon="4.71783">
        <ele>178.94</ele>
        <time>2013-11-11T11:20:42Z</time>
      </trkpt>
      <trkpt lat="45.93679" lon="4.71784">
        <ele>177.98</ele>
        <time>2013-11-11T11:20:43Z</time>
      </trkpt>
      <trkpt lat="45.93681" lon="4.71785">
        <ele>178.94</ele>
        <time>2013-11-11T11:20:44Z</time>
      </trkpt>
      <trkpt lat="45.93682" lon="4.71786">
        <ele>177.98</ele>
        <time>2013-11-11T11:20:45Z</time>
      </trkpt>
      <trkpt lat="45.93684" lon="4.71788">
        <ele>177.5</ele>
        <time>2013-11-11T11:20:46Z</time>
      </trkpt>
      <trkpt lat="45.93684" lon="4.7179">
        <ele>177.02</ele>
        <time>2013-11-11T11:20:47Z</time>
      </trkpt>
      <trkpt lat="45.93685" lon="4.71796">
        <ele>176.06</ele>
        <time>2013-11-11T11:20:49Z</time>
      </trkpt>
      <trkpt lat="45.93685" lon="4.71799">
        <ele>177.02</ele>
        <time>2013-11-11T11:20:50Z</time>
      </trkpt>
      <trkpt lat="45.93686" lon="4.71804">
        <ele>176.54</ele>
        <time>2013-11-11T11:20:51Z</time>
      </trkpt>
      <trkpt lat="45.93687" lon="4.71808">
        <ele>177.02</ele>
        <time>2013-11-11T11:20:52Z</time>
      </trkpt>
      <trkpt lat="45.93688" lon="4.71813">
        <ele>176.54</ele>
        <time>2013-11-11T11:20:53Z</time>
      </trkpt>
      <trkpt lat="45.93689" lon="4.71817">
        <ele>177.02</ele>
        <time>2013-11-11T11:20:54Z</time>
      </trkpt>
      <trkpt lat="45.93693" lon="4.71837">
        <ele>175.58</ele>
        <time>2013-11-11T11:21:00Z</time>
      </trkpt>
      <trkpt lat="45.93693" lon="4.71841">
        <ele>176.06</ele>
        <time>2013-11-11T11:21:01Z</time>
      </trkpt>
      <trkpt lat="45.93691" lon="4.71846">
        <ele>176.54</ele>
        <time>2013-11-11T11:21:02Z</time>
      </trkpt>
      <trkpt lat="45.9369" lon="4.71851">
        <ele>175.58</ele>
        <time>2013-11-11T11:21:03Z</time>
      </trkpt>
      <trkpt lat="45.93688" lon="4.71856">
        <ele>176.54</ele>
        <time>2013-11-11T11:21:04Z</time>
      </trkpt>
      <trkpt lat="45.93675" lon="4.71891">
        <ele>176.54</ele>
        <time>2013-11-11T11:21:12Z</time>
      </trkpt>
      <trkpt lat="45.93656" lon="4.71938">
        <ele>176.06</ele>
        <time>2013-11-11T11:21:23Z</time>
      </trkpt>
      <trkpt lat="45.93651" lon="4.71954">
        <ele>175.58</ele>
        <time>2013-11-11T11:21:26Z</time>
      </trkpt>
      <trkpt lat="45.93646" lon="4.71966">
        <ele>175.58</ele>
        <time>2013-11-11T11:21:28Z</time>
      </trkpt>
      <trkpt lat="45.93619" lon="4.72036">
        <ele>175.1</ele>
        <time>2013-11-11T11:21:38Z</time>
      </trkpt>
      <trkpt lat="45.9361" lon="4.72063">
        <ele>175.58</ele>
        <time>2013-11-11T11:21:41Z</time>
      </trkpt>
      <trkpt lat="45.93575" lon="4.72152">
        <ele>175.58</ele>
        <time>2013-11-11T11:21:52Z</time>
      </trkpt>
      <trkpt lat="45.93555" lon="4.72204">
        <ele>175.58</ele>
        <time>2013-11-11T11:21:59Z</time>
      </trkpt>
      <trkpt lat="45.93551" lon="4.72208">
        <ele>175.1</ele>
        <time>2013-11-11T11:22:00Z</time>
      </trkpt>
      <trkpt lat="45.93547" lon="4.7221">
        <ele>176.06</ele>
        <time>2013-11-11T11:22:01Z</time>
      </trkpt>
      <trkpt lat="45.93541" lon="4.72213">
        <ele>175.1</ele>
        <time>2013-11-11T11:22:03Z</time>
      </trkpt>
      <trkpt lat="45.93539" lon="4.72215">
        <ele>175.1</ele>
        <time>2013-11-11T11:22:04Z</time>
      </trkpt>
      <trkpt lat="45.93539" lon="4.72219">
        <ele>176.54</ele>
        <time>2013-11-11T11:22:05Z</time>
      </trkpt>
      <trkpt lat="45.9354" lon="4.72222">
        <ele>177.02</ele>
        <time>2013-11-11T11:22:06Z</time>
      </trkpt>
      <trkpt lat="45.93541" lon="4.72223">
        <ele>177.02</ele>
        <time>2013-11-11T11:22:07Z</time>
      </trkpt>
      <trkpt lat="45.93541" lon="4.72224">
        <ele>177.02</ele>
        <time>2013-11-11T11:22:16Z</time>
      </trkpt>
      <trkpt lat="45.93542" lon="4.72225">
        <ele>172.69</ele>
        <time>2013-11-11T11:22:29Z</time>
      </trkpt>
      <trkpt lat="45.93542" lon="4.72226">
        <ele>178.94</ele>
        <time>2013-11-11T11:22:30Z</time>
      </trkpt>
      <trkpt lat="45.93542" lon="4.72228">
        <ele>178.46</ele>
        <time>2013-11-11T11:22:31Z</time>
      </trkpt>
      <trkpt lat="45.93541" lon="4.7223">
        <ele>177.5</ele>
        <time>2013-11-11T11:22:32Z</time>
      </trkpt>
      <trkpt lat="45.9354" lon="4.72232">
        <ele>177.5</ele>
        <time>2013-11-11T11:22:33Z</time>
      </trkpt>
      <trkpt lat="45.93539" lon="4.72234">
        <ele>176.54</ele>
        <time>2013-11-11T11:22:34Z</time>
      </trkpt>
      <trkpt lat="45.93538" lon="4.72237">
        <ele>177.5</ele>
        <time>2013-11-11T11:22:35Z</time>
      </trkpt>
      <trkpt lat="45.93536" lon="4.7224">
        <ele>177.98</ele>
        <time>2013-11-11T11:22:36Z</time>
      </trkpt>
      <trkpt lat="45.93525" lon="4.7227">
        <ele>177.98</ele>
        <time>2013-11-11T11:22:44Z</time>
      </trkpt>
      <trkpt lat="45.93506" lon="4.72308">
        <ele>176.54</ele>
        <time>2013-11-11T11:22:53Z</time>
      </trkpt>
      <trkpt lat="45.93505" lon="4.7231">
        <ele>176.54</ele>
        <time>2013-11-11T11:22:54Z</time>
      </trkpt>
      <trkpt lat="45.93503" lon="4.72312">
        <ele>176.54</ele>
        <time>2013-11-11T11:22:55Z</time>
      </trkpt>
      <trkpt lat="45.93502" lon="4.72313">
        <ele>176.54</ele>
        <time>2013-11-11T11:22:56Z</time>
      </trkpt>
      <trkpt lat="45.93501" lon="4.72312">
        <ele>176.06</ele>
        <time>2013-11-11T11:22:57Z</time>
      </trkpt>
      <trkpt lat="45.93499" lon="4.72311">
        <ele>176.06</ele>
        <time>2013-11-11T11:22:58Z</time>
      </trkpt>
      <trkpt lat="45.93496" lon="4.7231">
        <ele>175.58</ele>
        <time>2013-11-11T11:22:59Z</time>
      </trkpt>
      <trkpt lat="45.93494" lon="4.72309">
        <ele>175.58</ele>
        <time>2013-11-11T11:23:00Z</time>
      </trkpt>
      <trkpt lat="45.93491" lon="4.72309">
        <ele>176.06</ele>
        <time>2013-11-11T11:23:01Z</time>
      </trkpt>
      <trkpt lat="45.93489" lon="4.72309">
        <ele>175.58</ele>
        <time>2013-11-11T11:23:02Z</time>
      </trkpt>
      <trkpt lat="45.93486" lon="4.72309">
        <ele>175.58</ele>
        <time>2013-11-11T11:23:03Z</time>
      </trkpt>
      <trkpt lat="45.93463" lon="4.72311">
        <ele>174.62</ele>
        <time>2013-11-11T11:23:11Z</time>
      </trkpt>
      <trkpt lat="45.93423" lon="4.72303">
        <ele>174.14</ele>
        <time>2013-11-11T11:23:22Z</time>
      </trkpt>
      <trkpt lat="45.93391" lon="4.72296">
        <ele>174.62</ele>
        <time>2013-11-11T11:23:32Z</time>
      </trkpt>
      <trkpt lat="45.93362" lon="4.72301">
        <ele>176.06</ele>
        <time>2013-11-11T11:23:41Z</time>
      </trkpt>
      <trkpt lat="45.93328" lon="4.72304">
        <ele>175.1</ele>
        <time>2013-11-11T11:23:52Z</time>
      </trkpt>
      <trkpt lat="45.93286" lon="4.72311">
        <ele>175.1</ele>
        <time>2013-11-11T11:24:02Z</time>
      </trkpt>
      <trkpt lat="45.93237" lon="4.72316">
        <ele>175.1</ele>
        <time>2013-11-11T11:24:13Z</time>
      </trkpt>
      <trkpt lat="45.93232" lon="4.72317">
        <ele>175.58</ele>
        <time>2013-11-11T11:24:14Z</time>
      </trkpt>
      <trkpt lat="45.93209" lon="4.7232">
        <ele>175.1</ele>
        <time>2013-11-11T11:24:19Z</time>
      </trkpt>
      <trkpt lat="45.93204" lon="4.7232">
        <ele>175.58</ele>
        <time>2013-11-11T11:24:20Z</time>
      </trkpt>
      <trkpt lat="45.93157" lon="4.7233">
        <ele>175.58</ele>
        <time>2013-11-11T11:24:30Z</time>
      </trkpt>
      <trkpt lat="45.9311" lon="4.72339">
        <ele>175.58</ele>
        <time>2013-11-11T11:24:39Z</time>
      </trkpt>
      <trkpt lat="45.9307" lon="4.72344">
        <ele>175.58</ele>
        <time>2013-11-11T11:24:47Z</time>
      </trkpt>
      <trkpt lat="45.93011" lon="4.72353">
        <ele>175.1</ele>
        <time>2013-11-11T11:24:58Z</time>
      </trkpt>
      <trkpt lat="45.92968" lon="4.72358">
        <ele>175.1</ele>
        <time>2013-11-11T11:25:06Z</time>
      </trkpt>
      <trkpt lat="45.92878" lon="4.72375">
        <ele>175.58</ele>
        <time>2013-11-11T11:25:21Z</time>
      </trkpt>
      <trkpt lat="45.92819" lon="4.72385">
        <ele>175.1</ele>
        <time>2013-11-11T11:25:31Z</time>
      </trkpt>
      <trkpt lat="45.92751" lon="4.72397">
        <ele>176.06</ele>
        <time>2013-11-11T11:25:43Z</time>
      </trkpt>
      <trkpt lat="45.9269" lon="4.72405">
        <ele>176.06</ele>
        <time>2013-11-11T11:25:54Z</time>
      </trkpt>
      <trkpt lat="45.92684" lon="4.72407">
        <ele>176.54</ele>
        <time>2013-11-11T11:25:55Z</time>
      </trkpt>
      <trkpt lat="45.92651" lon="4.72412">
        <ele>176.54</ele>
        <time>2013-11-11T11:26:01Z</time>
      </trkpt>
      <trkpt lat="45.92646" lon="4.72413">
        <ele>176.54</ele>
        <time>2013-11-11T11:26:02Z</time>
      </trkpt>
      <trkpt lat="45.92641" lon="4.72414">
        <ele>176.54</ele>
        <time>2013-11-11T11:26:03Z</time>
      </trkpt>
      <trkpt lat="45.92578" lon="4.72425">
        <ele>177.02</ele>
        <time>2013-11-11T11:26:15Z</time>
      </trkpt>
      <trkpt lat="45.92518" lon="4.72435">
        <ele>177.02</ele>
        <time>2013-11-11T11:26:27Z</time>
      </trkpt>
      <trkpt lat="45.92503" lon="4.72438">
        <ele>177.5</ele>
        <time>2013-11-11T11:26:30Z</time>
      </trkpt>
      <trkpt lat="45.92467" lon="4.72444">
        <ele>176.54</ele>
        <time>2013-11-11T11:26:38Z</time>
      </trkpt>
      <trkpt lat="45.92463" lon="4.72444">
        <ele>176.54</ele>
        <time>2013-11-11T11:26:39Z</time>
      </trkpt>
      <trkpt lat="45.92459" lon="4.72445">
        <ele>177.02</ele>
        <time>2013-11-11T11:26:40Z</time>
      </trkpt>
      <trkpt lat="45.92428" lon="4.72449">
        <ele>177.5</ele>
        <time>2013-11-11T11:26:47Z</time>
      </trkpt>
      <trkpt lat="45.92424" lon="4.7245">
        <ele>176.54</ele>
        <time>2013-11-11T11:26:48Z</time>
      </trkpt>
      <trkpt lat="45.92381" lon="4.72456">
        <ele>176.06</ele>
        <time>2013-11-11T11:26:58Z</time>
      </trkpt>
      <trkpt lat="45.92366" lon="4.72459">
        <ele>176.54</ele>
        <time>2013-11-11T11:27:01Z</time>
      </trkpt>
      <trkpt lat="45.92362" lon="4.7246">
        <ele>177.02</ele>
        <time>2013-11-11T11:27:02Z</time>
      </trkpt>
      <trkpt lat="45.92321" lon="4.72468">
        <ele>177.02</ele>
        <time>2013-11-11T11:27:11Z</time>
      </trkpt>
      <trkpt lat="45.92311" lon="4.72469">
        <ele>177.02</ele>
        <time>2013-11-11T11:27:13Z</time>
      </trkpt>
      <trkpt lat="45.92306" lon="4.72471">
        <ele>177.02</ele>
        <time>2013-11-11T11:27:14Z</time>
      </trkpt>
      <trkpt lat="45.92301" lon="4.72472">
        <ele>177.5</ele>
        <time>2013-11-11T11:27:15Z</time>
      </trkpt>
      <trkpt lat="45.92297" lon="4.72474">
        <ele>177.5</ele>
        <time>2013-11-11T11:27:16Z</time>
      </trkpt>
      <trkpt lat="45.92292" lon="4.72475">
        <ele>177.02</ele>
        <time>2013-11-11T11:27:17Z</time>
      </trkpt>
      <trkpt lat="45.92289" lon="4.72475">
        <ele>177.5</ele>
        <time>2013-11-11T11:27:18Z</time>
      </trkpt>
      <trkpt lat="45.92275" lon="4.72476">
        <ele>177.02</ele>
        <time>2013-11-11T11:27:21Z</time>
      </trkpt>
      <trkpt lat="45.92236" lon="4.72481">
        <ele>178.46</ele>
        <time>2013-11-11T11:27:30Z</time>
      </trkpt>
      <trkpt lat="45.92222" lon="4.72484">
        <ele>177.98</ele>
        <time>2013-11-11T11:27:33Z</time>
      </trkpt>
      <trkpt lat="45.92218" lon="4.72484">
        <ele>177.5</ele>
        <time>2013-11-11T11:27:34Z</time>
      </trkpt>
      <trkpt lat="45.92176" lon="4.72491">
        <ele>176.54</ele>
        <time>2013-11-11T11:27:43Z</time>
      </trkpt>
      <trkpt lat="45.92136" lon="4.72498">
        <ele>177.02</ele>
        <time>2013-11-11T11:27:52Z</time>
      </trkpt>
      <trkpt lat="45.92126" lon="4.725">
        <ele>177.5</ele>
        <time>2013-11-11T11:27:54Z</time>
      </trkpt>
      <trkpt lat="45.92078" lon="4.72506">
        <ele>177.02</ele>
        <time>2013-11-11T11:28:05Z</time>
      </trkpt>
      <trkpt lat="45.92051" lon="4.7251">
        <ele>177.98</ele>
        <time>2013-11-11T11:28:11Z</time>
      </trkpt>
      <trkpt lat="45.92047" lon="4.72511">
        <ele>177.5</ele>
        <time>2013-11-11T11:28:12Z</time>
      </trkpt>
      <trkpt lat="45.92038" lon="4.72512">
        <ele>177.5</ele>
        <time>2013-11-11T11:28:14Z</time>
      </trkpt>
      <trkpt lat="45.92033" lon="4.72513">
        <ele>177.5</ele>
        <time>2013-11-11T11:28:15Z</time>
      </trkpt>
      <trkpt lat="45.92029" lon="4.72515">
        <ele>177.5</ele>
        <time>2013-11-11T11:28:16Z</time>
      </trkpt>
      <trkpt lat="45.92024" lon="4.72517">
        <ele>177.02</ele>
        <time>2013-11-11T11:28:17Z</time>
      </trkpt>
      <trkpt lat="45.92019" lon="4.72517">
        <ele>177.98</ele>
        <time>2013-11-11T11:28:18Z</time>
      </trkpt>
      <trkpt lat="45.92014" lon="4.72519">
        <ele>177.02</ele>
        <time>2013-11-11T11:28:19Z</time>
      </trkpt>
      <trkpt lat="45.9201" lon="4.7252">
        <ele>177.5</ele>
        <time>2013-11-11T11:28:20Z</time>
      </trkpt>
      <trkpt lat="45.92005" lon="4.7252">
        <ele>177.5</ele>
        <time>2013-11-11T11:28:21Z</time>
      </trkpt>
      <trkpt lat="45.92" lon="4.72521">
        <ele>177.98</ele>
        <time>2013-11-11T11:28:22Z</time>
      </trkpt>
      <trkpt lat="45.91996" lon="4.72522">
        <ele>177.5</ele>
        <time>2013-11-11T11:28:23Z</time>
      </trkpt>
      <trkpt lat="45.91991" lon="4.72523">
        <ele>177.5</ele>
        <time>2013-11-11T11:28:24Z</time>
      </trkpt>
      <trkpt lat="45.91987" lon="4.72524">
        <ele>177.5</ele>
        <time>2013-11-11T11:28:25Z</time>
      </trkpt>
      <trkpt lat="45.91939" lon="4.72531">
        <ele>177.5</ele>
        <time>2013-11-11T11:28:34Z</time>
      </trkpt>
      <trkpt lat="45.91933" lon="4.72533">
        <ele>177.5</ele>
        <time>2013-11-11T11:28:35Z</time>
      </trkpt>
      <trkpt lat="45.91928" lon="4.72533">
        <ele>177.5</ele>
        <time>2013-11-11T11:28:36Z</time>
      </trkpt>
      <trkpt lat="45.91878" lon="4.72541">
        <ele>177.5</ele>
        <time>2013-11-11T11:28:45Z</time>
      </trkpt>
      <trkpt lat="45.91828" lon="4.72548">
        <ele>178.46</ele>
        <time>2013-11-11T11:28:54Z</time>
      </trkpt>
      <trkpt lat="45.91773" lon="4.72556">
        <ele>178.46</ele>
        <time>2013-11-11T11:29:04Z</time>
      </trkpt>
      <trkpt lat="45.9171" lon="4.72566">
        <ele>178.46</ele>
        <time>2013-11-11T11:29:16Z</time>
      </trkpt>
      <trkpt lat="45.91688" lon="4.7257">
        <ele>178.46</ele>
        <time>2013-11-11T11:29:21Z</time>
      </trkpt>
      <trkpt lat="45.91683" lon="4.7257">
        <ele>178.46</ele>
        <time>2013-11-11T11:29:22Z</time>
      </trkpt>
      <trkpt lat="45.9165" lon="4.72576">
        <ele>178.94</ele>
        <time>2013-11-11T11:29:30Z</time>
      </trkpt>
      <trkpt lat="45.91614" lon="4.72584">
        <ele>179.42</ele>
        <time>2013-11-11T11:29:39Z</time>
      </trkpt>
      <trkpt lat="45.91594" lon="4.72592">
        <ele>177.98</ele>
        <time>2013-11-11T11:29:44Z</time>
      </trkpt>
      <trkpt lat="45.9159" lon="4.72594">
        <ele>177.98</ele>
        <time>2013-11-11T11:29:45Z</time>
      </trkpt>
      <trkpt lat="45.91562" lon="4.72605">
        <ele>177.98</ele>
        <time>2013-11-11T11:29:53Z</time>
      </trkpt>
      <trkpt lat="45.91528" lon="4.72611">
        <ele>177.98</ele>
        <time>2013-11-11T11:30:02Z</time>
      </trkpt>
      <trkpt lat="45.91507" lon="4.72607">
        <ele>177.98</ele>
        <time>2013-11-11T11:30:07Z</time>
      </trkpt>
      <trkpt lat="45.9149" lon="4.72607">
        <ele>178.46</ele>
        <time>2013-11-11T11:30:11Z</time>
      </trkpt>
      <trkpt lat="45.91449" lon="4.72614">
        <ele>179.9</ele>
        <time>2013-11-11T11:30:20Z</time>
      </trkpt>
      <trkpt lat="45.9141" lon="4.72618">
        <ele>180.38</ele>
        <time>2013-11-11T11:30:29Z</time>
      </trkpt>
      <trkpt lat="45.914" lon="4.72619">
        <ele>180.38</ele>
        <time>2013-11-11T11:30:31Z</time>
      </trkpt>
      <trkpt lat="45.91396" lon="4.72619">
        <ele>180.38</ele>
        <time>2013-11-11T11:30:32Z</time>
      </trkpt>
      <trkpt lat="45.91386" lon="4.72619">
        <ele>179.9</ele>
        <time>2013-11-11T11:30:34Z</time>
      </trkpt>
      <trkpt lat="45.91381" lon="4.7262">
        <ele>179.9</ele>
        <time>2013-11-11T11:30:35Z</time>
      </trkpt>
      <trkpt lat="45.91376" lon="4.72621">
        <ele>180.38</ele>
        <time>2013-11-11T11:30:36Z</time>
      </trkpt>
      <trkpt lat="45.91372" lon="4.72623">
        <ele>180.38</ele>
        <time>2013-11-11T11:30:37Z</time>
      </trkpt>
      <trkpt lat="45.91367" lon="4.72625">
        <ele>180.38</ele>
        <time>2013-11-11T11:30:38Z</time>
      </trkpt>
      <trkpt lat="45.91361" lon="4.72626">
        <ele>179.9</ele>
        <time>2013-11-11T11:30:39Z</time>
      </trkpt>
      <trkpt lat="45.91326" lon="4.72633">
        <ele>180.87</ele>
        <time>2013-11-11T11:30:46Z</time>
      </trkpt>
      <trkpt lat="45.91321" lon="4.72633">
        <ele>180.87</ele>
        <time>2013-11-11T11:30:47Z</time>
      </trkpt>
      <trkpt lat="45.91316" lon="4.72634">
        <ele>180.87</ele>
        <time>2013-11-11T11:30:48Z</time>
      </trkpt>
      <trkpt lat="45.91311" lon="4.72635">
        <ele>180.87</ele>
        <time>2013-11-11T11:30:49Z</time>
      </trkpt>
      <trkpt lat="45.91305" lon="4.72636">
        <ele>180.87</ele>
        <time>2013-11-11T11:30:50Z</time>
      </trkpt>
      <trkpt lat="45.913" lon="4.72637">
        <ele>180.87</ele>
        <time>2013-11-11T11:30:51Z</time>
      </trkpt>
      <trkpt lat="45.91273" lon="4.7264">
        <ele>180.87</ele>
        <time>2013-11-11T11:30:56Z</time>
      </trkpt>
      <trkpt lat="45.91268" lon="4.7264">
        <ele>180.87</ele>
        <time>2013-11-11T11:30:57Z</time>
      </trkpt>
      <trkpt lat="45.91263" lon="4.72639">
        <ele>180.87</ele>
        <time>2013-11-11T11:30:58Z</time>
      </trkpt>
      <trkpt lat="45.91258" lon="4.72638">
        <ele>180.87</ele>
        <time>2013-11-11T11:30:59Z</time>
      </trkpt>
      <trkpt lat="45.91253" lon="4.72635">
        <ele>180.87</ele>
        <time>2013-11-11T11:31:00Z</time>
      </trkpt>
      <trkpt lat="45.91249" lon="4.72633">
        <ele>180.87</ele>
        <time>2013-11-11T11:31:01Z</time>
      </trkpt>
      <trkpt lat="45.91245" lon="4.7263">
        <ele>180.38</ele>
        <time>2013-11-11T11:31:02Z</time>
      </trkpt>
      <trkpt lat="45.9124" lon="4.72626">
        <ele>180.38</ele>
        <time>2013-11-11T11:31:03Z</time>
      </trkpt>
      <trkpt lat="45.91237" lon="4.72621">
        <ele>178.94</ele>
        <time>2013-11-11T11:31:04Z</time>
      </trkpt>
      <trkpt lat="45.91234" lon="4.72615">
        <ele>178.94</ele>
        <time>2013-11-11T11:31:05Z</time>
      </trkpt>
      <trkpt lat="45.91231" lon="4.7261">
        <ele>178.46</ele>
        <time>2013-11-11T11:31:06Z</time>
      </trkpt>
      <trkpt lat="45.91227" lon="4.72605">
        <ele>177.5</ele>
        <time>2013-11-11T11:31:07Z</time>
      </trkpt>
      <trkpt lat="45.91222" lon="4.72602">
        <ele>177.02</ele>
        <time>2013-11-11T11:31:08Z</time>
      </trkpt>
      <trkpt lat="45.91217" lon="4.72599">
        <ele>177.5</ele>
        <time>2013-11-11T11:31:09Z</time>
      </trkpt>
      <trkpt lat="45.91211" lon="4.72599">
        <ele>177.5</ele>
        <time>2013-11-11T11:31:10Z</time>
      </trkpt>
      <trkpt lat="45.91205" lon="4.72599">
        <ele>177.02</ele>
        <time>2013-11-11T11:31:11Z</time>
      </trkpt>
      <trkpt lat="45.912" lon="4.726">
        <ele>177.5</ele>
        <time>2013-11-11T11:31:12Z</time>
      </trkpt>
      <trkpt lat="45.91195" lon="4.72602">
        <ele>177.02</ele>
        <time>2013-11-11T11:31:13Z</time>
      </trkpt>
      <trkpt lat="45.9119" lon="4.72605">
        <ele>177.02</ele>
        <time>2013-11-11T11:31:14Z</time>
      </trkpt>
      <trkpt lat="45.91175" lon="4.72614">
        <ele>177.02</ele>
        <time>2013-11-11T11:31:17Z</time>
      </trkpt>
      <trkpt lat="45.91171" lon="4.7262">
        <ele>177.98</ele>
        <time>2013-11-11T11:31:18Z</time>
      </trkpt>
      <trkpt lat="45.91169" lon="4.72626">
        <ele>177.5</ele>
        <time>2013-11-11T11:31:19Z</time>
      </trkpt>
      <trkpt lat="45.91167" lon="4.72632">
        <ele>177.02</ele>
        <time>2013-11-11T11:31:20Z</time>
      </trkpt>
      <trkpt lat="45.91167" lon="4.72638">
        <ele>177.5</ele>
        <time>2013-11-11T11:31:21Z</time>
      </trkpt>
      <trkpt lat="45.91167" lon="4.72642">
        <ele>177.02</ele>
        <time>2013-11-11T11:31:22Z</time>
      </trkpt>
      <trkpt lat="45.91167" lon="4.72647">
        <ele>177.02</ele>
        <time>2013-11-11T11:31:23Z</time>
      </trkpt>
      <trkpt lat="45.91167" lon="4.72651">
        <ele>177.5</ele>
        <time>2013-11-11T11:31:24Z</time>
      </trkpt>
      <trkpt lat="45.91159" lon="4.72672">
        <ele>177.5</ele>
        <time>2013-11-11T11:31:32Z</time>
      </trkpt>
      <trkpt lat="45.91159" lon="4.72672">
        <ele>177.02</ele>
        <time>2013-11-11T11:31:48Z</time>
      </trkpt>
      <trkpt lat="45.91159" lon="4.72672">
        <ele>179.9</ele>
        <time>2013-11-11T11:31:58Z</time>
      </trkpt>
      <trkpt lat="45.91159" lon="4.72672">
        <ele>177.02</ele>
        <time>2013-11-11T11:31:59Z</time>
      </trkpt>
      <trkpt lat="45.91159" lon="4.72672">
        <ele>177.98</ele>
        <time>2013-11-11T11:32:12Z</time>
      </trkpt>
      <trkpt lat="45.91159" lon="4.72672">
        <ele>177.5</ele>
        <time>2013-11-11T11:32:24Z</time>
      </trkpt>
      <trkpt lat="45.91159" lon="4.72672">
        <ele>179.9</ele>
        <time>2013-11-11T11:32:43Z</time>
      </trkpt>
      <trkpt lat="45.91159" lon="4.72672">
        <ele>177.98</ele>
        <time>2013-11-11T11:32:45Z</time>
      </trkpt>
      <trkpt lat="45.91159" lon="4.72672">
        <ele>175.1</ele>
        <time>2013-11-11T11:32:52Z</time>
      </trkpt>
      <trkpt lat="45.91159" lon="4.72672">
        <ele>178.46</ele>
        <time>2013-11-11T11:32:55Z</time>
      </trkpt>
      <trkpt lat="45.91159" lon="4.72672">
        <ele>178.46</ele>
        <time>2013-11-11T11:32:56Z</time>
      </trkpt>
      <trkpt lat="45.91159" lon="4.72672">
        <ele>174.14</ele>
        <time>2013-11-11T11:32:58Z</time>
      </trkpt>
      <trkpt lat="45.91159" lon="4.72672">
        <ele>177.5</ele>
        <time>2013-11-11T11:32:59Z</time>
      </trkpt>
      <trkpt lat="45.91159" lon="4.72672">
        <ele>171.73</ele>
        <time>2013-11-11T11:33:11Z</time>
      </trkpt>
      <trkpt lat="45.91159" lon="4.72672">
        <ele>180.38</ele>
        <time>2013-11-11T11:33:12Z</time>
      </trkpt>
      <trkpt lat="45.91159" lon="4.72672">
        <ele>177.98</ele>
        <time>2013-11-11T11:33:13Z</time>
      </trkpt>
      <trkpt lat="45.91159" lon="4.72672">
        <ele>177.02</ele>
        <time>2013-11-11T11:33:15Z</time>
      </trkpt>
      <trkpt lat="45.91159" lon="4.72672">
        <ele>178.46</ele>
        <time>2013-11-11T11:33:19Z</time>
      </trkpt>
      <trkpt lat="45.91159" lon="4.72672">
        <ele>176.54</ele>
        <time>2013-11-11T11:33:22Z</time>
      </trkpt>
      <trkpt lat="45.91159" lon="4.72672">
        <ele>177.98</ele>
        <time>2013-11-11T11:33:25Z</time>
      </trkpt>
      <trkpt lat="45.91159" lon="4.72672">
        <ele>178.46</ele>
        <time>2013-11-11T11:33:30Z</time>
      </trkpt>
      <trkpt lat="45.91159" lon="4.72672">
        <ele>175.58</ele>
        <time>2013-11-11T11:33:50Z</time>
      </trkpt>
      <trkpt lat="45.91159" lon="4.72672">
        <ele>179.9</ele>
        <time>2013-11-11T11:33:52Z</time>
      </trkpt>
      <trkpt lat="45.91159" lon="4.72672">
        <ele>172.69</ele>
        <time>2013-11-11T11:33:56Z</time>
      </trkpt>
      <trkpt lat="45.91159" lon="4.72672">
        <ele>177.98</ele>
        <time>2013-11-11T11:33:57Z</time>
      </trkpt>
      <trkpt lat="45.91159" lon="4.72672">
        <ele>171.73</ele>
        <time>2013-11-11T11:33:58Z</time>
      </trkpt>
      <trkpt lat="45.91159" lon="4.72672">
        <ele>177.98</ele>
        <time>2013-11-11T11:33:59Z</time>
      </trkpt>
      <trkpt lat="45.91159" lon="4.72672">
        <ele>177.02</ele>
        <time>2013-11-11T11:34:21Z</time>
      </trkpt>
      <trkpt lat="45.91159" lon="4.72672">
        <ele>176.06</ele>
        <time>2013-11-11T11:34:43Z</time>
      </trkpt>
      <trkpt lat="45.91159" lon="4.72672">
        <ele>177.5</ele>
        <time>2013-11-11T11:34:45Z</time>
      </trkpt>
      <trkpt lat="45.91159" lon="4.72672">
        <ele>173.17</ele>
        <time>2013-11-11T11:34:46Z</time>
      </trkpt>
      <trkpt lat="45.91159" lon="4.72672">
        <ele>177.98</ele>
        <time>2013-11-11T11:34:47Z</time>
      </trkpt>
      <trkpt lat="45.91159" lon="4.72672">
        <ele>177.5</ele>
        <time>2013-11-11T11:35:06Z</time>
      </trkpt>
      <trkpt lat="45.91159" lon="4.72672">
        <ele>177.02</ele>
        <time>2013-11-11T11:35:24Z</time>
      </trkpt>
      <trkpt lat="45.91156" lon="4.72672">
        <ele>177.5</ele>
        <time>2013-11-11T11:35:32Z</time>
      </trkpt>
      <trkpt lat="45.91154" lon="4.72671">
        <ele>177.02</ele>
        <time>2013-11-11T11:35:33Z</time>
      </trkpt>
      <trkpt lat="45.91153" lon="4.72671">
        <ele>176.54</ele>
        <time>2013-11-11T11:35:34Z</time>
      </trkpt>
      <trkpt lat="45.91151" lon="4.7267">
        <ele>177.02</ele>
        <time>2013-11-11T11:35:35Z</time>
      </trkpt>
      <trkpt lat="45.91149" lon="4.7267">
        <ele>177.5</ele>
        <time>2013-11-11T11:35:36Z</time>
      </trkpt>
      <trkpt lat="45.91147" lon="4.72669">
        <ele>177.02</ele>
        <time>2013-11-11T11:35:37Z</time>
      </trkpt>
      <trkpt lat="45.91145" lon="4.72668">
        <ele>177.5</ele>
        <time>2013-11-11T11:35:38Z</time>
      </trkpt>
      <trkpt lat="45.91143" lon="4.72667">
        <ele>177.02</ele>
        <time>2013-11-11T11:35:39Z</time>
      </trkpt>
      <trkpt lat="45.91141" lon="4.72666">
        <ele>177.5</ele>
        <time>2013-11-11T11:35:40Z</time>
      </trkpt>
      <trkpt lat="45.91114" lon="4.72662">
        <ele>177.5</ele>
        <time>2013-11-11T11:35:51Z</time>
      </trkpt>
      <trkpt lat="45.91086" lon="4.72677">
        <ele>177.5</ele>
        <time>2013-11-11T11:36:02Z</time>
      </trkpt>
      <trkpt lat="45.91059" lon="4.7268">
        <ele>177.5</ele>
        <time>2013-11-11T11:36:11Z</time>
      </trkpt>
      <trkpt lat="45.9103" lon="4.72665">
        <ele>178.46</ele>
        <time>2013-11-11T11:36:20Z</time>
      </trkpt>
      <trkpt lat="45.91019" lon="4.72664">
        <ele>177.5</ele>
        <time>2013-11-11T11:36:23Z</time>
      </trkpt>
      <trkpt lat="45.90991" lon="4.72681">
        <ele>177.98</ele>
        <time>2013-11-11T11:36:31Z</time>
      </trkpt>
      <trkpt lat="45.90965" lon="4.7269">
        <ele>177.98</ele>
        <time>2013-11-11T11:36:38Z</time>
      </trkpt>
      <trkpt lat="45.90961" lon="4.72691">
        <ele>178.46</ele>
        <time>2013-11-11T11:36:39Z</time>
      </trkpt>
      <trkpt lat="45.90956" lon="4.72692">
        <ele>177.98</ele>
        <time>2013-11-11T11:36:40Z</time>
      </trkpt>
      <trkpt lat="45.90952" lon="4.72693">
        <ele>178.46</ele>
        <time>2013-11-11T11:36:41Z</time>
      </trkpt>
      <trkpt lat="45.90938" lon="4.72697">
        <ele>177.5</ele>
        <time>2013-11-11T11:36:44Z</time>
      </trkpt>
      <trkpt lat="45.90934" lon="4.72698">
        <ele>177.98</ele>
        <time>2013-11-11T11:36:45Z</time>
      </trkpt>
      <trkpt lat="45.90894" lon="4.72712">
        <ele>178.46</ele>
        <time>2013-11-11T11:36:55Z</time>
      </trkpt>
      <trkpt lat="45.90877" lon="4.72719">
        <ele>178.94</ele>
        <time>2013-11-11T11:36:59Z</time>
      </trkpt>
      <trkpt lat="45.90873" lon="4.7272">
        <ele>178.94</ele>
        <time>2013-11-11T11:37:00Z</time>
      </trkpt>
      <trkpt lat="45.90849" lon="4.7273">
        <ele>179.9</ele>
        <time>2013-11-11T11:37:06Z</time>
      </trkpt>
      <trkpt lat="45.90844" lon="4.72732">
        <ele>179.9</ele>
        <time>2013-11-11T11:37:07Z</time>
      </trkpt>
      <trkpt lat="45.9084" lon="4.72733">
        <ele>178.94</ele>
        <time>2013-11-11T11:37:08Z</time>
      </trkpt>
      <trkpt lat="45.90794" lon="4.72744">
        <ele>179.42</ele>
        <time>2013-11-11T11:37:18Z</time>
      </trkpt>
      <trkpt lat="45.90789" lon="4.72745">
        <ele>179.42</ele>
        <time>2013-11-11T11:37:19Z</time>
      </trkpt>
      <trkpt lat="45.90774" lon="4.72746">
        <ele>178.94</ele>
        <time>2013-11-11T11:37:22Z</time>
      </trkpt>
      <trkpt lat="45.90769" lon="4.72745">
        <ele>179.42</ele>
        <time>2013-11-11T11:37:23Z</time>
      </trkpt>
      <trkpt lat="45.9076" lon="4.72743">
        <ele>178.94</ele>
        <time>2013-11-11T11:37:25Z</time>
      </trkpt>
      <trkpt lat="45.90726" lon="4.72738">
        <ele>179.42</ele>
        <time>2013-11-11T11:37:33Z</time>
      </trkpt>
      <trkpt lat="45.90684" lon="4.72745">
        <ele>179.9</ele>
        <time>2013-11-11T11:37:43Z</time>
      </trkpt>
      <trkpt lat="45.9068" lon="4.72747">
        <ele>179.42</ele>
        <time>2013-11-11T11:37:44Z</time>
      </trkpt>
      <trkpt lat="45.90676" lon="4.72749">
        <ele>179.9</ele>
        <time>2013-11-11T11:37:45Z</time>
      </trkpt>
      <trkpt lat="45.90664" lon="4.72756">
        <ele>179.42</ele>
        <time>2013-11-11T11:37:48Z</time>
      </trkpt>
      <trkpt lat="45.90659" lon="4.72757">
        <ele>179.9</ele>
        <time>2013-11-11T11:37:49Z</time>
      </trkpt>
      <trkpt lat="45.90655" lon="4.72758">
        <ele>179.9</ele>
        <time>2013-11-11T11:37:50Z</time>
      </trkpt>
      <trkpt lat="45.90651" lon="4.72759">
        <ele>179.9</ele>
        <time>2013-11-11T11:37:51Z</time>
      </trkpt>
      <trkpt lat="45.90647" lon="4.7276">
        <ele>180.38</ele>
        <time>2013-11-11T11:37:52Z</time>
      </trkpt>
      <trkpt lat="45.90642" lon="4.7276">
        <ele>179.9</ele>
        <time>2013-11-11T11:37:53Z</time>
      </trkpt>
      <trkpt lat="45.90638" lon="4.7276">
        <ele>179.9</ele>
        <time>2013-11-11T11:37:54Z</time>
      </trkpt>
      <trkpt lat="45.90625" lon="4.72761">
        <ele>180.38</ele>
        <time>2013-11-11T11:37:57Z</time>
      </trkpt>
      <trkpt lat="45.90583" lon="4.72765">
        <ele>180.38</ele>
        <time>2013-11-11T11:38:08Z</time>
      </trkpt>
      <trkpt lat="45.90551" lon="4.72768">
        <ele>180.87</ele>
        <time>2013-11-11T11:38:17Z</time>
      </trkpt>
      <trkpt lat="45.90519" lon="4.72774">
        <ele>180.87</ele>
        <time>2013-11-11T11:38:26Z</time>
      </trkpt>
      <trkpt lat="45.9047" lon="4.72764">
        <ele>180.87</ele>
        <time>2013-11-11T11:38:38Z</time>
      </trkpt>
      <trkpt lat="45.90462" lon="4.72763">
        <ele>181.35</ele>
        <time>2013-11-11T11:38:40Z</time>
      </trkpt>
      <trkpt lat="45.90458" lon="4.72762">
        <ele>181.35</ele>
        <time>2013-11-11T11:38:41Z</time>
      </trkpt>
      <trkpt lat="45.90449" lon="4.72759">
        <ele>181.35</ele>
        <time>2013-11-11T11:38:43Z</time>
      </trkpt>
      <trkpt lat="45.90445" lon="4.72758">
        <ele>181.83</ele>
        <time>2013-11-11T11:38:44Z</time>
      </trkpt>
      <trkpt lat="45.90441" lon="4.72756">
        <ele>181.83</ele>
        <time>2013-11-11T11:38:45Z</time>
      </trkpt>
      <trkpt lat="45.90436" lon="4.72755">
        <ele>181.35</ele>
        <time>2013-11-11T11:38:46Z</time>
      </trkpt>
      <trkpt lat="45.90432" lon="4.72752">
        <ele>181.83</ele>
        <time>2013-11-11T11:38:47Z</time>
      </trkpt>
      <trkpt lat="45.90428" lon="4.7275">
        <ele>181.83</ele>
        <time>2013-11-11T11:38:48Z</time>
      </trkpt>
      <trkpt lat="45.90423" lon="4.72749">
        <ele>181.83</ele>
        <time>2013-11-11T11:38:49Z</time>
      </trkpt>
      <trkpt lat="45.90415" lon="4.72747">
        <ele>181.83</ele>
        <time>2013-11-11T11:38:51Z</time>
      </trkpt>
      <trkpt lat="45.90411" lon="4.72747">
        <ele>181.35</ele>
        <time>2013-11-11T11:38:52Z</time>
      </trkpt>
      <trkpt lat="45.90407" lon="4.72746">
        <ele>181.35</ele>
        <time>2013-11-11T11:38:53Z</time>
      </trkpt>
      <trkpt lat="45.90398" lon="4.72747">
        <ele>181.35</ele>
        <time>2013-11-11T11:38:55Z</time>
      </trkpt>
      <trkpt lat="45.90393" lon="4.72747">
        <ele>181.35</ele>
        <time>2013-11-11T11:38:56Z</time>
      </trkpt>
      <trkpt lat="45.90388" lon="4.72746">
        <ele>181.35</ele>
        <time>2013-11-11T11:38:57Z</time>
      </trkpt>
      <trkpt lat="45.9036" lon="4.72744">
        <ele>180.87</ele>
        <time>2013-11-11T11:39:03Z</time>
      </trkpt>
      <trkpt lat="45.90345" lon="4.72743">
        <ele>180.87</ele>
        <time>2013-11-11T11:39:06Z</time>
      </trkpt>
      <trkpt lat="45.90341" lon="4.72742">
        <ele>180.87</ele>
        <time>2013-11-11T11:39:07Z</time>
      </trkpt>
      <trkpt lat="45.903" lon="4.72744">
        <ele>180.87</ele>
        <time>2013-11-11T11:39:15Z</time>
      </trkpt>
      <trkpt lat="45.90291" lon="4.72748">
        <ele>180.38</ele>
        <time>2013-11-11T11:39:17Z</time>
      </trkpt>
      <trkpt lat="45.90286" lon="4.7275">
        <ele>180.87</ele>
        <time>2013-11-11T11:39:18Z</time>
      </trkpt>
      <trkpt lat="45.90282" lon="4.72751">
        <ele>180.38</ele>
        <time>2013-11-11T11:39:19Z</time>
      </trkpt>
      <trkpt lat="45.90266" lon="4.72755">
        <ele>180.38</ele>
        <time>2013-11-11T11:39:23Z</time>
      </trkpt>
      <trkpt lat="45.90261" lon="4.72755">
        <ele>179.9</ele>
        <time>2013-11-11T11:39:24Z</time>
      </trkpt>
      <trkpt lat="45.90257" lon="4.72756">
        <ele>180.38</ele>
        <time>2013-11-11T11:39:25Z</time>
      </trkpt>
      <trkpt lat="45.90238" lon="4.72761">
        <ele>180.38</ele>
        <time>2013-11-11T11:39:29Z</time>
      </trkpt>
      <trkpt lat="45.90234" lon="4.72762">
        <ele>180.38</ele>
        <time>2013-11-11T11:39:30Z</time>
      </trkpt>
      <trkpt lat="45.90229" lon="4.72763">
        <ele>180.87</ele>
        <time>2013-11-11T11:39:31Z</time>
      </trkpt>
      <trkpt lat="45.90224" lon="4.72763">
        <ele>180.87</ele>
        <time>2013-11-11T11:39:32Z</time>
      </trkpt>
      <trkpt lat="45.90219" lon="4.72763">
        <ele>180.87</ele>
        <time>2013-11-11T11:39:33Z</time>
      </trkpt>
      <trkpt lat="45.90215" lon="4.72764">
        <ele>180.38</ele>
        <time>2013-11-11T11:39:34Z</time>
      </trkpt>
      <trkpt lat="45.9021" lon="4.72766">
        <ele>180.38</ele>
        <time>2013-11-11T11:39:35Z</time>
      </trkpt>
      <trkpt lat="45.90201" lon="4.72771">
        <ele>180.87</ele>
        <time>2013-11-11T11:39:37Z</time>
      </trkpt>
      <trkpt lat="45.90161" lon="4.72795">
        <ele>180.38</ele>
        <time>2013-11-11T11:39:46Z</time>
      </trkpt>
      <trkpt lat="45.90156" lon="4.72797">
        <ele>180.87</ele>
        <time>2013-11-11T11:39:47Z</time>
      </trkpt>
      <trkpt lat="45.90152" lon="4.72798">
        <ele>180.87</ele>
        <time>2013-11-11T11:39:48Z</time>
      </trkpt>
      <trkpt lat="45.90148" lon="4.72799">
        <ele>180.87</ele>
        <time>2013-11-11T11:39:49Z</time>
      </trkpt>
      <trkpt lat="45.90144" lon="4.72799">
        <ele>180.87</ele>
        <time>2013-11-11T11:39:50Z</time>
      </trkpt>
      <trkpt lat="45.90141" lon="4.728">
        <ele>181.35</ele>
        <time>2013-11-11T11:39:51Z</time>
      </trkpt>
      <trkpt lat="45.90101" lon="4.72813">
        <ele>181.83</ele>
        <time>2013-11-11T11:40:01Z</time>
      </trkpt>
      <trkpt lat="45.90089" lon="4.72815">
        <ele>181.83</ele>
        <time>2013-11-11T11:40:04Z</time>
      </trkpt>
      <trkpt lat="45.90067" lon="4.72817">
        <ele>182.31</ele>
        <time>2013-11-11T11:40:09Z</time>
      </trkpt>
      <trkpt lat="45.90062" lon="4.72818">
        <ele>182.31</ele>
        <time>2013-11-11T11:40:10Z</time>
      </trkpt>
      <trkpt lat="45.90031" lon="4.72824">
        <ele>182.79</ele>
        <time>2013-11-11T11:40:17Z</time>
      </trkpt>
      <trkpt lat="45.90028" lon="4.72827">
        <ele>182.79</ele>
        <time>2013-11-11T11:40:18Z</time>
      </trkpt>
      <trkpt lat="45.90024" lon="4.7283">
        <ele>182.79</ele>
        <time>2013-11-11T11:40:19Z</time>
      </trkpt>
      <trkpt lat="45.9002" lon="4.72833">
        <ele>182.79</ele>
        <time>2013-11-11T11:40:20Z</time>
      </trkpt>
      <trkpt lat="45.90015" lon="4.72835">
        <ele>182.79</ele>
        <time>2013-11-11T11:40:21Z</time>
      </trkpt>
      <trkpt lat="45.89964" lon="4.72859">
        <ele>181.83</ele>
        <time>2013-11-11T11:40:30Z</time>
      </trkpt>
      <trkpt lat="45.89959" lon="4.72865">
        <ele>182.31</ele>
        <time>2013-11-11T11:40:31Z</time>
      </trkpt>
      <trkpt lat="45.89955" lon="4.72872">
        <ele>182.31</ele>
        <time>2013-11-11T11:40:32Z</time>
      </trkpt>
      <trkpt lat="45.89953" lon="4.7288">
        <ele>182.31</ele>
        <time>2013-11-11T11:40:33Z</time>
      </trkpt>
      <trkpt lat="45.89952" lon="4.72889">
        <ele>182.31</ele>
        <time>2013-11-11T11:40:34Z</time>
      </trkpt>
      <trkpt lat="45.89953" lon="4.72897">
        <ele>182.31</ele>
        <time>2013-11-11T11:40:35Z</time>
      </trkpt>
      <trkpt lat="45.89954" lon="4.72906">
        <ele>183.27</ele>
        <time>2013-11-11T11:40:36Z</time>
      </trkpt>
      <trkpt lat="45.89956" lon="4.72914">
        <ele>182.31</ele>
        <time>2013-11-11T11:40:37Z</time>
      </trkpt>
      <trkpt lat="45.89957" lon="4.72923">
        <ele>182.79</ele>
        <time>2013-11-11T11:40:38Z</time>
      </trkpt>
      <trkpt lat="45.89964" lon="4.7297">
        <ele>182.79</ele>
        <time>2013-11-11T11:40:44Z</time>
      </trkpt>
      <trkpt lat="45.89964" lon="4.72978">
        <ele>182.79</ele>
        <time>2013-11-11T11:40:45Z</time>
      </trkpt>
      <trkpt lat="45.89962" lon="4.72985">
        <ele>182.79</ele>
        <time>2013-11-11T11:40:46Z</time>
      </trkpt>
      <trkpt lat="45.8996" lon="4.7299">
        <ele>183.75</ele>
        <time>2013-11-11T11:40:47Z</time>
      </trkpt>
      <trkpt lat="45.89957" lon="4.72995">
        <ele>183.75</ele>
        <time>2013-11-11T11:40:48Z</time>
      </trkpt>
      <trkpt lat="45.89952" lon="4.72998">
        <ele>184.23</ele>
        <time>2013-11-11T11:40:49Z</time>
      </trkpt>
      <trkpt lat="45.89948" lon="4.73">
        <ele>184.23</ele>
        <time>2013-11-11T11:40:50Z</time>
      </trkpt>
      <trkpt lat="45.89944" lon="4.73002">
        <ele>184.23</ele>
        <time>2013-11-11T11:40:51Z</time>
      </trkpt>
      <trkpt lat="45.89934" lon="4.73005">
        <ele>184.23</ele>
        <time>2013-11-11T11:40:53Z</time>
      </trkpt>
      <trkpt lat="45.89929" lon="4.73008">
        <ele>184.23</ele>
        <time>2013-11-11T11:40:54Z</time>
      </trkpt>
      <trkpt lat="45.89903" lon="4.73021">
        <ele>184.23</ele>
        <time>2013-11-11T11:40:59Z</time>
      </trkpt>
      <trkpt lat="45.89892" lon="4.73027">
        <ele>184.71</ele>
        <time>2013-11-11T11:41:01Z</time>
      </trkpt>
      <trkpt lat="45.89818" lon="4.73056">
        <ele>184.23</ele>
        <time>2013-11-11T11:41:14Z</time>
      </trkpt>
      <trkpt lat="45.89749" lon="4.73089">
        <ele>184.71</ele>
        <time>2013-11-11T11:41:26Z</time>
      </trkpt>
      <trkpt lat="45.89742" lon="4.73089">
        <ele>185.19</ele>
        <time>2013-11-11T11:41:27Z</time>
      </trkpt>
      <trkpt lat="45.89736" lon="4.73088">
        <ele>184.71</ele>
        <time>2013-11-11T11:41:28Z</time>
      </trkpt>
      <trkpt lat="45.8973" lon="4.73086">
        <ele>184.71</ele>
        <time>2013-11-11T11:41:29Z</time>
      </trkpt>
      <trkpt lat="45.89724" lon="4.73082">
        <ele>184.71</ele>
        <time>2013-11-11T11:41:30Z</time>
      </trkpt>
      <trkpt lat="45.89646" lon="4.73038">
        <ele>185.19</ele>
        <time>2013-11-11T11:41:43Z</time>
      </trkpt>
      <trkpt lat="45.89622" lon="4.73023">
        <ele>184.71</ele>
        <time>2013-11-11T11:41:47Z</time>
      </trkpt>
      <trkpt lat="45.89616" lon="4.73018">
        <ele>185.19</ele>
        <time>2013-11-11T11:41:48Z</time>
      </trkpt>
      <trkpt lat="45.89611" lon="4.73011">
        <ele>185.67</ele>
        <time>2013-11-11T11:41:49Z</time>
      </trkpt>
      <trkpt lat="45.89592" lon="4.72983">
        <ele>184.71</ele>
        <time>2013-11-11T11:41:53Z</time>
      </trkpt>
      <trkpt lat="45.8954" lon="4.72937">
        <ele>185.19</ele>
        <time>2013-11-11T11:42:02Z</time>
      </trkpt>
      <trkpt lat="45.89533" lon="4.72935">
        <ele>185.19</ele>
        <time>2013-11-11T11:42:03Z</time>
      </trkpt>
      <trkpt lat="45.89527" lon="4.72934">
        <ele>184.71</ele>
        <time>2013-11-11T11:42:04Z</time>
      </trkpt>
      <trkpt lat="45.8952" lon="4.72934">
        <ele>184.71</ele>
        <time>2013-11-11T11:42:05Z</time>
      </trkpt>
      <trkpt lat="45.89513" lon="4.72935">
        <ele>184.23</ele>
        <time>2013-11-11T11:42:06Z</time>
      </trkpt>
      <trkpt lat="45.89506" lon="4.72937">
        <ele>183.75</ele>
        <time>2013-11-11T11:42:07Z</time>
      </trkpt>
      <trkpt lat="45.89467" lon="4.72947">
        <ele>183.75</ele>
        <time>2013-11-11T11:42:13Z</time>
      </trkpt>
      <trkpt lat="45.89461" lon="4.72948">
        <ele>183.75</ele>
        <time>2013-11-11T11:42:14Z</time>
      </trkpt>
      <trkpt lat="45.89408" lon="4.72961">
        <ele>184.71</ele>
        <time>2013-11-11T11:42:22Z</time>
      </trkpt>
      <trkpt lat="45.89402" lon="4.72963">
        <ele>185.19</ele>
        <time>2013-11-11T11:42:23Z</time>
      </trkpt>
      <trkpt lat="45.89396" lon="4.72965">
        <ele>185.19</ele>
        <time>2013-11-11T11:42:24Z</time>
      </trkpt>
      <trkpt lat="45.89333" lon="4.72982">
        <ele>185.19</ele>
        <time>2013-11-11T11:42:34Z</time>
      </trkpt>
      <trkpt lat="45.8928" lon="4.72994">
        <ele>184.71</ele>
        <time>2013-11-11T11:42:42Z</time>
      </trkpt>
      <trkpt lat="45.89273" lon="4.72995">
        <ele>184.71</ele>
        <time>2013-11-11T11:42:43Z</time>
      </trkpt>
      <trkpt lat="45.89267" lon="4.72998">
        <ele>184.71</ele>
        <time>2013-11-11T11:42:44Z</time>
      </trkpt>
      <trkpt lat="45.89201" lon="4.73013">
        <ele>183.75</ele>
        <time>2013-11-11T11:42:54Z</time>
      </trkpt>
      <trkpt lat="45.89123" lon="4.73034">
        <ele>183.75</ele>
        <time>2013-11-11T11:43:06Z</time>
      </trkpt>
      <trkpt lat="45.8911" lon="4.73037">
        <ele>183.75</ele>
        <time>2013-11-11T11:43:08Z</time>
      </trkpt>
      <trkpt lat="45.89046" lon="4.73053">
        <ele>185.19</ele>
        <time>2013-11-11T11:43:19Z</time>
      </trkpt>
      <trkpt lat="45.89042" lon="4.73054">
        <ele>184.71</ele>
        <time>2013-11-11T11:43:20Z</time>
      </trkpt>
      <trkpt lat="45.89037" lon="4.73055">
        <ele>184.23</ele>
        <time>2013-11-11T11:43:25Z</time>
      </trkpt>
      <trkpt lat="45.89035" lon="4.73056">
        <ele>184.71</ele>
        <time>2013-11-11T11:43:42Z</time>
      </trkpt>
      <trkpt lat="45.89032" lon="4.73057">
        <ele>184.71</ele>
        <time>2013-11-11T11:43:44Z</time>
      </trkpt>
      <trkpt lat="45.89031" lon="4.73058">
        <ele>185.19</ele>
        <time>2013-11-11T11:43:45Z</time>
      </trkpt>
      <trkpt lat="45.8903" lon="4.73058">
        <ele>184.71</ele>
        <time>2013-11-11T11:43:46Z</time>
      </trkpt>
      <trkpt lat="45.8903" lon="4.73058">
        <ele>184.71</ele>
        <time>2013-11-11T11:43:52Z</time>
      </trkpt>
      <trkpt lat="45.8903" lon="4.73058">
        <ele>183.75</ele>
        <time>2013-11-11T11:44:13Z</time>
      </trkpt>
      <trkpt lat="45.8903" lon="4.73058">
        <ele>184.71</ele>
        <time>2013-11-11T11:44:27Z</time>
      </trkpt>
      <trkpt lat="45.8903" lon="4.73058">
        <ele>184.71</ele>
        <time>2013-11-11T11:44:45Z</time>
      </trkpt>
      <trkpt lat="45.8903" lon="4.73058">
        <ele>184.71</ele>
        <time>2013-11-11T11:44:58Z</time>
      </trkpt>
      <trkpt lat="45.89029" lon="4.73058">
        <ele>184.71</ele>
        <time>2013-11-11T11:45:20Z</time>
      </trkpt>
      <trkpt lat="45.89029" lon="4.73058">
        <ele>184.71</ele>
        <time>2013-11-11T11:45:42Z</time>
      </trkpt>
      <trkpt lat="45.89029" lon="4.73057">
        <ele>185.19</ele>
        <time>2013-11-11T11:46:02Z</time>
      </trkpt>
      <trkpt lat="45.89029" lon="4.73057">
        <ele>185.19</ele>
        <time>2013-11-11T11:46:22Z</time>
      </trkpt>
      <trkpt lat="45.89029" lon="4.73057">
        <ele>184.71</ele>
        <time>2013-11-11T11:46:38Z</time>
      </trkpt>
      <trkpt lat="45.89029" lon="4.73057">
        <ele>185.67</ele>
        <time>2013-11-11T11:46:59Z</time>
      </trkpt>
      <trkpt lat="45.89029" lon="4.73057">
        <ele>185.19</ele>
        <time>2013-11-11T11:47:18Z</time>
      </trkpt>
      <trkpt lat="45.89029" lon="4.73057">
        <ele>185.19</ele>
        <time>2013-11-11T11:47:38Z</time>
      </trkpt>
      <trkpt lat="45.89029" lon="4.73057">
        <ele>185.19</ele>
        <time>2013-11-11T11:47:57Z</time>
      </trkpt>
      <trkpt lat="45.89029" lon="4.73057">
        <ele>184.71</ele>
        <time>2013-11-11T11:48:14Z</time>
      </trkpt>
      <trkpt lat="45.89029" lon="4.73057">
        <ele>184.71</ele>
        <time>2013-11-11T11:48:38Z</time>
      </trkpt>
      <trkpt lat="45.89029" lon="4.73058">
        <ele>185.67</ele>
        <time>2013-11-11T11:48:58Z</time>
      </trkpt>
      <trkpt lat="45.89028" lon="4.73057">
        <ele>185.19</ele>
        <time>2013-11-11T11:49:12Z</time>
      </trkpt>
      <trkpt lat="45.89028" lon="4.73057">
        <ele>185.19</ele>
        <time>2013-11-11T11:49:27Z</time>
      </trkpt>
      <trkpt lat="45.89029" lon="4.73057">
        <ele>185.19</ele>
        <time>2013-11-11T11:49:47Z</time>
      </trkpt>
      <trkpt lat="45.89029" lon="4.73057">
        <ele>185.19</ele>
        <time>2013-11-11T11:50:05Z</time>
      </trkpt>
      <trkpt lat="45.89029" lon="4.73057">
        <ele>185.19</ele>
        <time>2013-11-11T11:50:29Z</time>
      </trkpt>
      <trkpt lat="45.89029" lon="4.73057">
        <ele>184.71</ele>
        <time>2013-11-11T11:50:52Z</time>
      </trkpt>
      <trkpt lat="45.89029" lon="4.73057">
        <ele>184.71</ele>
        <time>2013-11-11T11:51:06Z</time>
      </trkpt>
      <trkpt lat="45.89029" lon="4.73057">
        <ele>185.19</ele>
        <time>2013-11-11T11:51:30Z</time>
      </trkpt>
      <trkpt lat="45.8902" lon="4.73062">
        <ele>184.71</ele>
        <time>2013-11-11T11:51:41Z</time>
      </trkpt>
      <trkpt lat="45.88992" lon="4.73068">
        <ele>185.19</ele>
        <time>2013-11-11T11:51:49Z</time>
      </trkpt>
      <trkpt lat="45.8896" lon="4.73076">
        <ele>185.67</ele>
        <time>2013-11-11T11:51:58Z</time>
      </trkpt>
      <trkpt lat="45.88924" lon="4.73082">
        <ele>185.67</ele>
        <time>2013-11-11T11:52:08Z</time>
      </trkpt>
      <trkpt lat="45.88872" lon="4.73094">
        <ele>187.11</ele>
        <time>2013-11-11T11:52:20Z</time>
      </trkpt>
      <trkpt lat="45.88827" lon="4.73105">
        <ele>187.59</ele>
        <time>2013-11-11T11:52:32Z</time>
      </trkpt>
      <trkpt lat="45.88792" lon="4.73114">
        <ele>189.04</ele>
        <time>2013-11-11T11:52:42Z</time>
      </trkpt>
      <trkpt lat="45.88786" lon="4.73117">
        <ele>189.04</ele>
        <time>2013-11-11T11:52:44Z</time>
      </trkpt>
      <trkpt lat="45.88783" lon="4.73116">
        <ele>188.08</ele>
        <time>2013-11-11T11:52:45Z</time>
      </trkpt>
      <trkpt lat="45.88781" lon="4.73113">
        <ele>188.56</ele>
        <time>2013-11-11T11:52:46Z</time>
      </trkpt>
      <trkpt lat="45.8878" lon="4.73109">
        <ele>188.56</ele>
        <time>2013-11-11T11:52:47Z</time>
      </trkpt>
      <trkpt lat="45.8878" lon="4.73104">
        <ele>189.04</ele>
        <time>2013-11-11T11:52:48Z</time>
      </trkpt>
      <trkpt lat="45.88781" lon="4.73099">
        <ele>189.52</ele>
        <time>2013-11-11T11:52:49Z</time>
      </trkpt>
      <trkpt lat="45.8878" lon="4.73095">
        <ele>188.56</ele>
        <time>2013-11-11T11:52:50Z</time>
      </trkpt>
      <trkpt lat="45.8878" lon="4.7309">
        <ele>189.52</ele>
        <time>2013-11-11T11:52:51Z</time>
      </trkpt>
      <trkpt lat="45.88777" lon="4.73043">
        <ele>190</ele>
        <time>2013-11-11T11:53:01Z</time>
      </trkpt>
      <trkpt lat="45.88773" lon="4.72986">
        <ele>190.48</ele>
        <time>2013-11-11T11:53:12Z</time>
      </trkpt>
      <trkpt lat="45.88768" lon="4.72915">
        <ele>189.04</ele>
        <time>2013-11-11T11:53:24Z</time>
      </trkpt>
      <trkpt lat="45.88767" lon="4.72902">
        <ele>188.56</ele>
        <time>2013-11-11T11:53:26Z</time>
      </trkpt>
      <trkpt lat="45.88765" lon="4.72881">
        <ele>188.56</ele>
        <time>2013-11-11T11:53:29Z</time>
      </trkpt>
      <trkpt lat="45.88764" lon="4.72873">
        <ele>188.56</ele>
        <time>2013-11-11T11:53:30Z</time>
      </trkpt>
      <trkpt lat="45.88763" lon="4.72866">
        <ele>188.08</ele>
        <time>2013-11-11T11:53:31Z</time>
      </trkpt>
      <trkpt lat="45.88762" lon="4.7286">
        <ele>187.59</ele>
        <time>2013-11-11T11:53:32Z</time>
      </trkpt>
      <trkpt lat="45.8876" lon="4.72856">
        <ele>188.08</ele>
        <time>2013-11-11T11:53:33Z</time>
      </trkpt>
      <trkpt lat="45.88754" lon="4.72867">
        <ele>186.63</ele>
        <time>2013-11-11T11:53:38Z</time>
      </trkpt>
      <trkpt lat="45.88755" lon="4.72888">
        <ele>186.15</ele>
        <time>2013-11-11T11:53:42Z</time>
      </trkpt>
      <trkpt lat="45.88751" lon="4.729">
        <ele>186.15</ele>
        <time>2013-11-11T11:53:47Z</time>
      </trkpt>
      <trkpt lat="45.88741" lon="4.72903">
        <ele>186.15</ele>
        <time>2013-11-11T11:53:52Z</time>
      </trkpt>
      <trkpt lat="45.88711" lon="4.72897">
        <ele>186.63</ele>
        <time>2013-11-11T11:54:02Z</time>
      </trkpt>
      <trkpt lat="45.88669" lon="4.729">
        <ele>186.63</ele>
        <time>2013-11-11T11:54:13Z</time>
      </trkpt>
      <trkpt lat="45.88644" lon="4.72918">
        <ele>186.15</ele>
        <time>2013-11-11T11:54:21Z</time>
      </trkpt>
      <trkpt lat="45.88611" lon="4.72917">
        <ele>186.15</ele>
        <time>2013-11-11T11:54:30Z</time>
      </trkpt>
      <trkpt lat="45.88576" lon="4.72893">
        <ele>186.15</ele>
        <time>2013-11-11T11:54:40Z</time>
      </trkpt>
      <trkpt lat="45.88542" lon="4.72875">
        <ele>185.67</ele>
        <time>2013-11-11T11:54:50Z</time>
      </trkpt>
      <trkpt lat="45.88499" lon="4.72861">
        <ele>186.15</ele>
        <time>2013-11-11T11:55:01Z</time>
      </trkpt>
      <trkpt lat="45.88466" lon="4.7286">
        <ele>187.11</ele>
        <time>2013-11-11T11:55:10Z</time>
      </trkpt>
      <trkpt lat="45.88446" lon="4.72859">
        <ele>187.11</ele>
        <time>2013-11-11T11:55:17Z</time>
      </trkpt>
      <trkpt lat="45.88444" lon="4.72859">
        <ele>187.11</ele>
        <time>2013-11-11T11:55:18Z</time>
      </trkpt>
      <trkpt lat="45.88442" lon="4.7286">
        <ele>187.59</ele>
        <time>2013-11-11T11:55:19Z</time>
      </trkpt>
      <trkpt lat="45.8844" lon="4.7286">
        <ele>187.11</ele>
        <time>2013-11-11T11:55:20Z</time>
      </trkpt>
      <trkpt lat="45.88437" lon="4.7286">
        <ele>187.11</ele>
        <time>2013-11-11T11:55:21Z</time>
      </trkpt>
      <trkpt lat="45.88434" lon="4.72861">
        <ele>187.59</ele>
        <time>2013-11-11T11:55:22Z</time>
      </trkpt>
      <trkpt lat="45.88431" lon="4.72861">
        <ele>187.11</ele>
        <time>2013-11-11T11:55:23Z</time>
      </trkpt>
      <trkpt lat="45.88429" lon="4.7286">
        <ele>187.11</ele>
        <time>2013-11-11T11:55:24Z</time>
      </trkpt>
      <trkpt lat="45.8841" lon="4.72864">
        <ele>186.15</ele>
        <time>2013-11-11T11:55:32Z</time>
      </trkpt>
      <trkpt lat="45.88387" lon="4.72871">
        <ele>186.63</ele>
        <time>2013-11-11T11:55:41Z</time>
      </trkpt>
      <trkpt lat="45.88364" lon="4.72871">
        <ele>187.11</ele>
        <time>2013-11-11T11:55:48Z</time>
      </trkpt>
      <trkpt lat="45.8836" lon="4.72869">
        <ele>187.59</ele>
        <time>2013-11-11T11:55:49Z</time>
      </trkpt>
      <trkpt lat="45.88356" lon="4.72867">
        <ele>187.11</ele>
        <time>2013-11-11T11:55:50Z</time>
      </trkpt>
      <trkpt lat="45.88352" lon="4.72866">
        <ele>188.08</ele>
        <time>2013-11-11T11:55:51Z</time>
      </trkpt>
      <trkpt lat="45.88348" lon="4.72865">
        <ele>187.11</ele>
        <time>2013-11-11T11:55:52Z</time>
      </trkpt>
      <trkpt lat="45.88344" lon="4.72864">
        <ele>187.59</ele>
        <time>2013-11-11T11:55:53Z</time>
      </trkpt>
      <trkpt lat="45.88302" lon="4.72847">
        <ele>188.08</ele>
        <time>2013-11-11T11:56:05Z</time>
      </trkpt>
      <trkpt lat="45.88283" lon="4.72863">
        <ele>187.59</ele>
        <time>2013-11-11T11:56:12Z</time>
      </trkpt>
      <trkpt lat="45.88265" lon="4.72894">
        <ele>188.08</ele>
        <time>2013-11-11T11:56:21Z</time>
      </trkpt>
      <trkpt lat="45.88222" lon="4.72888">
        <ele>188.08</ele>
        <time>2013-11-11T11:56:32Z</time>
      </trkpt>
      <trkpt lat="45.88179" lon="4.72879">
        <ele>187.59</ele>
        <time>2013-11-11T11:56:43Z</time>
      </trkpt>
      <trkpt lat="45.88132" lon="4.7287">
        <ele>187.59</ele>
        <time>2013-11-11T11:56:55Z</time>
      </trkpt>
      <trkpt lat="45.88095" lon="4.7286">
        <ele>188.08</ele>
        <time>2013-11-11T11:57:05Z</time>
      </trkpt>
      <trkpt lat="45.88061" lon="4.72843">
        <ele>187.59</ele>
        <time>2013-11-11T11:57:15Z</time>
      </trkpt>
      <trkpt lat="45.88034" lon="4.72835">
        <ele>188.56</ele>
        <time>2013-11-11T11:57:22Z</time>
      </trkpt>
      <trkpt lat="45.88029" lon="4.72833">
        <ele>188.56</ele>
        <time>2013-11-11T11:57:23Z</time>
      </trkpt>
      <trkpt lat="45.8801" lon="4.72822">
        <ele>188.08</ele>
        <time>2013-11-11T11:57:28Z</time>
      </trkpt>
      <trkpt lat="45.88007" lon="4.72819">
        <ele>188.08</ele>
        <time>2013-11-11T11:57:29Z</time>
      </trkpt>
      <trkpt lat="45.87963" lon="4.72779">
        <ele>187.59</ele>
        <time>2013-11-11T11:57:41Z</time>
      </trkpt>
      <trkpt lat="45.87956" lon="4.72773">
        <ele>187.59</ele>
        <time>2013-11-11T11:57:43Z</time>
      </trkpt>
      <trkpt lat="45.87944" lon="4.72765">
        <ele>187.59</ele>
        <time>2013-11-11T11:57:46Z</time>
      </trkpt>
      <trkpt lat="45.87941" lon="4.72761">
        <ele>187.11</ele>
        <time>2013-11-11T11:57:47Z</time>
      </trkpt>
      <trkpt lat="45.87938" lon="4.72758">
        <ele>187.59</ele>
        <time>2013-11-11T11:57:48Z</time>
      </trkpt>
      <trkpt lat="45.8792" lon="4.72725">
        <ele>188.08</ele>
        <time>2013-11-11T11:57:55Z</time>
      </trkpt>
      <trkpt lat="45.87913" lon="4.72708">
        <ele>188.08</ele>
        <time>2013-11-11T11:57:58Z</time>
      </trkpt>
      <trkpt lat="45.87905" lon="4.72692">
        <ele>189.04</ele>
        <time>2013-11-11T11:58:01Z</time>
      </trkpt>
      <trkpt lat="45.87902" lon="4.72688">
        <ele>188.56</ele>
        <time>2013-11-11T11:58:02Z</time>
      </trkpt>
      <trkpt lat="45.87884" lon="4.72668">
        <ele>189.52</ele>
        <time>2013-11-11T11:58:08Z</time>
      </trkpt>
      <trkpt lat="45.87842" lon="4.7265">
        <ele>188.56</ele>
        <time>2013-11-11T11:58:18Z</time>
      </trkpt>
      <trkpt lat="45.87838" lon="4.72648">
        <ele>189.52</ele>
        <time>2013-11-11T11:58:19Z</time>
      </trkpt>
      <trkpt lat="45.87805" lon="4.72631">
        <ele>188.56</ele>
        <time>2013-11-11T11:58:27Z</time>
      </trkpt>
      <trkpt lat="45.87801" lon="4.7263">
        <ele>188.56</ele>
        <time>2013-11-11T11:58:28Z</time>
      </trkpt>
      <trkpt lat="45.87797" lon="4.72629">
        <ele>189.04</ele>
        <time>2013-11-11T11:58:29Z</time>
      </trkpt>
      <trkpt lat="45.87792" lon="4.72628">
        <ele>188.56</ele>
        <time>2013-11-11T11:58:30Z</time>
      </trkpt>
      <trkpt lat="45.87787" lon="4.72627">
        <ele>189.04</ele>
        <time>2013-11-11T11:58:31Z</time>
      </trkpt>
      <trkpt lat="45.87782" lon="4.72626">
        <ele>188.56</ele>
        <time>2013-11-11T11:58:32Z</time>
      </trkpt>
      <trkpt lat="45.87777" lon="4.72625">
        <ele>189.04</ele>
        <time>2013-11-11T11:58:33Z</time>
      </trkpt>
      <trkpt lat="45.87759" lon="4.7262">
        <ele>189.52</ele>
        <time>2013-11-11T11:58:37Z</time>
      </trkpt>
      <trkpt lat="45.87754" lon="4.7262">
        <ele>189.04</ele>
        <time>2013-11-11T11:58:38Z</time>
      </trkpt>
      <trkpt lat="45.87745" lon="4.72622">
        <ele>189.04</ele>
        <time>2013-11-11T11:58:40Z</time>
      </trkpt>
      <trkpt lat="45.87741" lon="4.72623">
        <ele>189.04</ele>
        <time>2013-11-11T11:58:41Z</time>
      </trkpt>
      <trkpt lat="45.87737" lon="4.72623">
        <ele>189.04</ele>
        <time>2013-11-11T11:58:42Z</time>
      </trkpt>
      <trkpt lat="45.87734" lon="4.72622">
        <ele>189.52</ele>
        <time>2013-11-11T11:58:43Z</time>
      </trkpt>
      <trkpt lat="45.87729" lon="4.72623">
        <ele>189.52</ele>
        <time>2013-11-11T11:58:44Z</time>
      </trkpt>
      <trkpt lat="45.87702" lon="4.72611">
        <ele>189.52</ele>
        <time>2013-11-11T11:58:51Z</time>
      </trkpt>
      <trkpt lat="45.87681" lon="4.72597">
        <ele>189.04</ele>
        <time>2013-11-11T11:58:56Z</time>
      </trkpt>
      <trkpt lat="45.87677" lon="4.72591">
        <ele>188.56</ele>
        <time>2013-11-11T11:58:58Z</time>
      </trkpt>
      <trkpt lat="45.87675" lon="4.72591">
        <ele>189.52</ele>
        <time>2013-11-11T11:58:59Z</time>
      </trkpt>
      <trkpt lat="45.87673" lon="4.72591">
        <ele>189.52</ele>
        <time>2013-11-11T11:59:00Z</time>
      </trkpt>
      <trkpt lat="45.8767" lon="4.72592">
        <ele>188.56</ele>
        <time>2013-11-11T11:59:01Z</time>
      </trkpt>
      <trkpt lat="45.87667" lon="4.72591">
        <ele>188.56</ele>
        <time>2013-11-11T11:59:02Z</time>
      </trkpt>
      <trkpt lat="45.87664" lon="4.7259">
        <ele>189.04</ele>
        <time>2013-11-11T11:59:03Z</time>
      </trkpt>
      <trkpt lat="45.87632" lon="4.7257">
        <ele>188.08</ele>
        <time>2013-11-11T11:59:13Z</time>
      </trkpt>
      <trkpt lat="45.87595" lon="4.72537">
        <ele>189.04</ele>
        <time>2013-11-11T11:59:24Z</time>
      </trkpt>
      <trkpt lat="45.8758" lon="4.72521">
        <ele>190</ele>
        <time>2013-11-11T11:59:29Z</time>
      </trkpt>
      <trkpt lat="45.87555" lon="4.72483">
        <ele>190.48</ele>
        <time>2013-11-11T11:59:38Z</time>
      </trkpt>
      <trkpt lat="45.87553" lon="4.72477">
        <ele>190.48</ele>
        <time>2013-11-11T11:59:39Z</time>
      </trkpt>
      <trkpt lat="45.87547" lon="4.72465">
        <ele>190</ele>
        <time>2013-11-11T11:59:41Z</time>
      </trkpt>
      <trkpt lat="45.87508" lon="4.72391">
        <ele>190.48</ele>
        <time>2013-11-11T11:59:54Z</time>
      </trkpt>
      <trkpt lat="45.87506" lon="4.72385">
        <ele>190</ele>
        <time>2013-11-11T11:59:55Z</time>
      </trkpt>
      <trkpt lat="45.87497" lon="4.72357">
        <ele>190</ele>
        <time>2013-11-11T12:00:00Z</time>
      </trkpt>
      <trkpt lat="45.87497" lon="4.72351">
        <ele>190</ele>
        <time>2013-11-11T12:00:01Z</time>
      </trkpt>
      <trkpt lat="45.87498" lon="4.72344">
        <ele>190.48</ele>
        <time>2013-11-11T12:00:02Z</time>
      </trkpt>
      <trkpt lat="45.87499" lon="4.72338">
        <ele>190.96</ele>
        <time>2013-11-11T12:00:03Z</time>
      </trkpt>
      <trkpt lat="45.87499" lon="4.72332">
        <ele>190.96</ele>
        <time>2013-11-11T12:00:04Z</time>
      </trkpt>
      <trkpt lat="45.87496" lon="4.72328">
        <ele>190.48</ele>
        <time>2013-11-11T12:00:05Z</time>
      </trkpt>
      <trkpt lat="45.87492" lon="4.72325">
        <ele>190.96</ele>
        <time>2013-11-11T12:00:06Z</time>
      </trkpt>
      <trkpt lat="45.87489" lon="4.72321">
        <ele>190.96</ele>
        <time>2013-11-11T12:00:07Z</time>
      </trkpt>
      <trkpt lat="45.87487" lon="4.72316">
        <ele>190</ele>
        <time>2013-11-11T12:00:08Z</time>
      </trkpt>
      <trkpt lat="45.87487" lon="4.7231">
        <ele>190.96</ele>
        <time>2013-11-11T12:00:09Z</time>
      </trkpt>
      <trkpt lat="45.87487" lon="4.72304">
        <ele>190.96</ele>
        <time>2013-11-11T12:00:10Z</time>
      </trkpt>
      <trkpt lat="45.87487" lon="4.72298">
        <ele>190.96</ele>
        <time>2013-11-11T12:00:11Z</time>
      </trkpt>
      <trkpt lat="45.87485" lon="4.72292">
        <ele>190.48</ele>
        <time>2013-11-11T12:00:12Z</time>
      </trkpt>
      <trkpt lat="45.87484" lon="4.72287">
        <ele>190.96</ele>
        <time>2013-11-11T12:00:13Z</time>
      </trkpt>
      <trkpt lat="45.87478" lon="4.72258">
        <ele>190.48</ele>
        <time>2013-11-11T12:00:18Z</time>
      </trkpt>
      <trkpt lat="45.87477" lon="4.72252">
        <ele>190.96</ele>
        <time>2013-11-11T12:00:19Z</time>
      </trkpt>
      <trkpt lat="45.87476" lon="4.72246">
        <ele>191.44</ele>
        <time>2013-11-11T12:00:20Z</time>
      </trkpt>
      <trkpt lat="45.87475" lon="4.7224">
        <ele>191.44</ele>
        <time>2013-11-11T12:00:21Z</time>
      </trkpt>
      <trkpt lat="45.87474" lon="4.72234">
        <ele>191.44</ele>
        <time>2013-11-11T12:00:22Z</time>
      </trkpt>
      <trkpt lat="45.87474" lon="4.72228">
        <ele>191.44</ele>
        <time>2013-11-11T12:00:23Z</time>
      </trkpt>
      <trkpt lat="45.87474" lon="4.72222">
        <ele>191.44</ele>
        <time>2013-11-11T12:00:24Z</time>
      </trkpt>
      <trkpt lat="45.87474" lon="4.7221">
        <ele>190.48</ele>
        <time>2013-11-11T12:00:26Z</time>
      </trkpt>
      <trkpt lat="45.87474" lon="4.72204">
        <ele>190.48</ele>
        <time>2013-11-11T12:00:27Z</time>
      </trkpt>
      <trkpt lat="45.87475" lon="4.72197">
        <ele>190.96</ele>
        <time>2013-11-11T12:00:28Z</time>
      </trkpt>
      <trkpt lat="45.87475" lon="4.72191">
        <ele>190.48</ele>
        <time>2013-11-11T12:00:29Z</time>
      </trkpt>
      <trkpt lat="45.87475" lon="4.72185">
        <ele>190.48</ele>
        <time>2013-11-11T12:00:30Z</time>
      </trkpt>
      <trkpt lat="45.87475" lon="4.72178">
        <ele>190.96</ele>
        <time>2013-11-11T12:00:31Z</time>
      </trkpt>
      <trkpt lat="45.87474" lon="4.72172">
        <ele>190.48</ele>
        <time>2013-11-11T12:00:32Z</time>
      </trkpt>
      <trkpt lat="45.87473" lon="4.72166">
        <ele>191.44</ele>
        <time>2013-11-11T12:00:33Z</time>
      </trkpt>
      <trkpt lat="45.8746" lon="4.72114">
        <ele>192.4</ele>
        <time>2013-11-11T12:00:44Z</time>
      </trkpt>
      <trkpt lat="45.87461" lon="4.72112">
        <ele>192.4</ele>
        <time>2013-11-11T12:00:45Z</time>
      </trkpt>
      <trkpt lat="45.87461" lon="4.7211">
        <ele>192.88</ele>
        <time>2013-11-11T12:00:46Z</time>
      </trkpt>
      <trkpt lat="45.8746" lon="4.72108">
        <ele>192.4</ele>
        <time>2013-11-11T12:00:47Z</time>
      </trkpt>
      <trkpt lat="45.8746" lon="4.72105">
        <ele>193.36</ele>
        <time>2013-11-11T12:00:56Z</time>
      </trkpt>
      <trkpt lat="45.8746" lon="4.72105">
        <ele>193.36</ele>
        <time>2013-11-11T12:01:08Z</time>
      </trkpt>
      <trkpt lat="45.8746" lon="4.72105">
        <ele>192.88</ele>
        <time>2013-11-11T12:01:19Z</time>
      </trkpt>
      <trkpt lat="45.8746" lon="4.72106">
        <ele>192.4</ele>
        <time>2013-11-11T12:01:42Z</time>
      </trkpt>
      <trkpt lat="45.8746" lon="4.72106">
        <ele>191.92</ele>
        <time>2013-11-11T12:01:51Z</time>
      </trkpt>
      <trkpt lat="45.8746" lon="4.72105">
        <ele>192.4</ele>
        <time>2013-11-11T12:02:18Z</time>
      </trkpt>
      <trkpt lat="45.8746" lon="4.72105">
        <ele>191.92</ele>
        <time>2013-11-11T12:02:36Z</time>
      </trkpt>
      <trkpt lat="45.8746" lon="4.72105">
        <ele>193.36</ele>
        <time>2013-11-11T12:02:52Z</time>
      </trkpt>
      <trkpt lat="45.8746" lon="4.72105">
        <ele>192.88</ele>
        <time>2013-11-11T12:03:16Z</time>
      </trkpt>
      <trkpt lat="45.87459" lon="4.72105">
        <ele>192.88</ele>
        <time>2013-11-11T12:03:25Z</time>
      </trkpt>
      <trkpt lat="45.87459" lon="4.72105">
        <ele>192.4</ele>
        <time>2013-11-11T12:03:44Z</time>
      </trkpt>
      <trkpt lat="45.87459" lon="4.72105">
        <ele>192.4</ele>
        <time>2013-11-11T12:03:58Z</time>
      </trkpt>
      <trkpt lat="45.87459" lon="4.72104">
        <ele>191.92</ele>
        <time>2013-11-11T12:04:00Z</time>
      </trkpt>
      <trkpt lat="45.87458" lon="4.72101">
        <ele>192.4</ele>
        <time>2013-11-11T12:04:01Z</time>
      </trkpt>
      <trkpt lat="45.87457" lon="4.72098">
        <ele>191.92</ele>
        <time>2013-11-11T12:04:02Z</time>
      </trkpt>
      <trkpt lat="45.87457" lon="4.72094">
        <ele>191.92</ele>
        <time>2013-11-11T12:04:03Z</time>
      </trkpt>
      <trkpt lat="45.87458" lon="4.72089">
        <ele>192.4</ele>
        <time>2013-11-11T12:04:04Z</time>
      </trkpt>
      <trkpt lat="45.87455" lon="4.72057">
        <ele>192.88</ele>
        <time>2013-11-11T12:04:12Z</time>
      </trkpt>
      <trkpt lat="45.87445" lon="4.72004">
        <ele>193.36</ele>
        <time>2013-11-11T12:04:22Z</time>
      </trkpt>
      <trkpt lat="45.87443" lon="4.71993">
        <ele>193.36</ele>
        <time>2013-11-11T12:04:24Z</time>
      </trkpt>
      <trkpt lat="45.87435" lon="4.71951">
        <ele>192.88</ele>
        <time>2013-11-11T12:04:31Z</time>
      </trkpt>
      <trkpt lat="45.87422" lon="4.71881">
        <ele>193.36</ele>
        <time>2013-11-11T12:04:42Z</time>
      </trkpt>
      <trkpt lat="45.87421" lon="4.71875">
        <ele>193.36</ele>
        <time>2013-11-11T12:04:43Z</time>
      </trkpt>
      <trkpt lat="45.8742" lon="4.71869">
        <ele>193.36</ele>
        <time>2013-11-11T12:04:44Z</time>
      </trkpt>
      <trkpt lat="45.87407" lon="4.71799">
        <ele>192.88</ele>
        <time>2013-11-11T12:04:55Z</time>
      </trkpt>
      <trkpt lat="45.87393" lon="4.71725">
        <ele>192.88</ele>
        <time>2013-11-11T12:05:06Z</time>
      </trkpt>
      <trkpt lat="45.87386" lon="4.71699">
        <ele>192.4</ele>
        <time>2013-11-11T12:05:10Z</time>
      </trkpt>
      <trkpt lat="45.8737" lon="4.71616">
        <ele>193.36</ele>
        <time>2013-11-11T12:05:22Z</time>
      </trkpt>
      <trkpt lat="45.87354" lon="4.71535">
        <ele>193.84</ele>
        <time>2013-11-11T12:05:35Z</time>
      </trkpt>
      <trkpt lat="45.87344" lon="4.71468">
        <ele>195.77</ele>
        <time>2013-11-11T12:05:46Z</time>
      </trkpt>
      <trkpt lat="45.87346" lon="4.71414">
        <ele>198.17</ele>
        <time>2013-11-11T12:05:57Z</time>
      </trkpt>
      <trkpt lat="45.87347" lon="4.71404">
        <ele>199.61</ele>
        <time>2013-11-11T12:06:00Z</time>
      </trkpt>
      <trkpt lat="45.87351" lon="4.71366">
        <ele>202.49</ele>
        <time>2013-11-11T12:06:11Z</time>
      </trkpt>
      <trkpt lat="45.87356" lon="4.7133">
        <ele>203.94</ele>
        <time>2013-11-11T12:06:22Z</time>
      </trkpt>
      <trkpt lat="45.8736" lon="4.71297">
        <ele>205.86</ele>
        <time>2013-11-11T12:06:32Z</time>
      </trkpt>
      <trkpt lat="45.87361" lon="4.71285">
        <ele>206.34</ele>
        <time>2013-11-11T12:06:36Z</time>
      </trkpt>
      <trkpt lat="45.87362" lon="4.71282">
        <ele>206.82</ele>
        <time>2013-11-11T12:06:37Z</time>
      </trkpt>
      <trkpt lat="45.87362" lon="4.71279">
        <ele>207.3</ele>
        <time>2013-11-11T12:06:38Z</time>
      </trkpt>
      <trkpt lat="45.87362" lon="4.71275">
        <ele>206.82</ele>
        <time>2013-11-11T12:06:39Z</time>
      </trkpt>
      <trkpt lat="45.87363" lon="4.71272">
        <ele>207.3</ele>
        <time>2013-11-11T12:06:40Z</time>
      </trkpt>
      <trkpt lat="45.87363" lon="4.71268">
        <ele>207.78</ele>
        <time>2013-11-11T12:06:41Z</time>
      </trkpt>
      <trkpt lat="45.87363" lon="4.71233">
        <ele>210.19</ele>
        <time>2013-11-11T12:06:51Z</time>
      </trkpt>
      <trkpt lat="45.87365" lon="4.71197">
        <ele>211.63</ele>
        <time>2013-11-11T12:07:02Z</time>
      </trkpt>
      <trkpt lat="45.87367" lon="4.71175">
        <ele>213.55</ele>
        <time>2013-11-11T12:07:11Z</time>
      </trkpt>
      <trkpt lat="45.87367" lon="4.71175">
        <ele>210.19</ele>
        <time>2013-11-11T12:07:14Z</time>
      </trkpt>
      <trkpt lat="45.87367" lon="4.71175">
        <ele>215.95</ele>
        <time>2013-11-11T12:07:16Z</time>
      </trkpt>
      <trkpt lat="45.87367" lon="4.71175">
        <ele>213.07</ele>
        <time>2013-11-11T12:07:17Z</time>
      </trkpt>
      <trkpt lat="45.87366" lon="4.71174">
        <ele>213.07</ele>
        <time>2013-11-11T12:07:29Z</time>
      </trkpt>
      <trkpt lat="45.87365" lon="4.71172">
        <ele>213.55</ele>
        <time>2013-11-11T12:07:30Z</time>
      </trkpt>
      <trkpt lat="45.87364" lon="4.71171">
        <ele>213.07</ele>
        <time>2013-11-11T12:07:31Z</time>
      </trkpt>
      <trkpt lat="45.87363" lon="4.7117">
        <ele>213.55</ele>
        <time>2013-11-11T12:07:32Z</time>
      </trkpt>
      <trkpt lat="45.87362" lon="4.7117">
        <ele>212.59</ele>
        <time>2013-11-11T12:07:33Z</time>
      </trkpt>
      <trkpt lat="45.8736" lon="4.71169">
        <ele>212.59</ele>
        <time>2013-11-11T12:07:34Z</time>
      </trkpt>
      <trkpt lat="45.87358" lon="4.71168">
        <ele>212.59</ele>
        <time>2013-11-11T12:07:35Z</time>
      </trkpt>
      <trkpt lat="45.87356" lon="4.71167">
        <ele>212.11</ele>
        <time>2013-11-11T12:07:36Z</time>
      </trkpt>
      <trkpt lat="45.87354" lon="4.71167">
        <ele>212.59</ele>
        <time>2013-11-11T12:07:37Z</time>
      </trkpt>
      <trkpt lat="45.87351" lon="4.71168">
        <ele>212.59</ele>
        <time>2013-11-11T12:07:38Z</time>
      </trkpt>
      <trkpt lat="45.87342" lon="4.71172">
        <ele>212.59</ele>
        <time>2013-11-11T12:07:47Z</time>
      </trkpt>
      <trkpt lat="45.87342" lon="4.71172">
        <ele>212.11</ele>
        <time>2013-11-11T12:08:04Z</time>
      </trkpt>
      <trkpt lat="45.87342" lon="4.71172">
        <ele>208.74</ele>
        <time>2013-11-11T12:08:23Z</time>
      </trkpt>
      <trkpt lat="45.87342" lon="4.71172">
        <ele>212.59</ele>
        <time>2013-11-11T12:08:24Z</time>
      </trkpt>
      <trkpt lat="45.87342" lon="4.71171">
        <ele>211.15</ele>
        <time>2013-11-11T12:08:42Z</time>
      </trkpt>
      <trkpt lat="45.87329" lon="4.71179">
        <ele>212.11</ele>
        <time>2013-11-11T12:08:49Z</time>
      </trkpt>
      <trkpt lat="45.87295" lon="4.71193">
        <ele>209.7</ele>
        <time>2013-11-11T12:08:58Z</time>
      </trkpt>
      <trkpt lat="45.87246" lon="4.7121">
        <ele>207.3</ele>
        <time>2013-11-11T12:09:07Z</time>
      </trkpt>
      <trkpt lat="45.87191" lon="4.71231">
        <ele>205.86</ele>
        <time>2013-11-11T12:09:14Z</time>
      </trkpt>
      <trkpt lat="45.87154" lon="4.71245">
        <ele>203.94</ele>
        <time>2013-11-11T12:09:18Z</time>
      </trkpt>
      <trkpt lat="45.87022" lon="4.71296">
        <ele>200.09</ele>
        <time>2013-11-11T12:09:32Z</time>
      </trkpt>
      <trkpt lat="45.86939" lon="4.71325">
        <ele>200.09</ele>
        <time>2013-11-11T12:09:43Z</time>
      </trkpt>
      <trkpt lat="45.86897" lon="4.7134">
        <ele>199.61</ele>
        <time>2013-11-11T12:09:49Z</time>
      </trkpt>
      <trkpt lat="45.86805" lon="4.71375">
        <ele>199.13</ele>
        <time>2013-11-11T12:10:02Z</time>
      </trkpt>
      <trkpt lat="45.86723" lon="4.71405">
        <ele>198.17</ele>
        <time>2013-11-11T12:10:13Z</time>
      </trkpt>
      <trkpt lat="45.86636" lon="4.71437">
        <ele>196.73</ele>
        <time>2013-11-11T12:10:24Z</time>
      </trkpt>
      <trkpt lat="45.86561" lon="4.71464">
        <ele>195.77</ele>
        <time>2013-11-11T12:10:35Z</time>
      </trkpt>
      <trkpt lat="45.86529" lon="4.71477">
        <ele>196.25</ele>
        <time>2013-11-11T12:10:44Z</time>
      </trkpt>
      <trkpt lat="45.86519" lon="4.71481">
        <ele>195.28</ele>
        <time>2013-11-11T12:10:51Z</time>
      </trkpt>
      <trkpt lat="45.86517" lon="4.71481">
        <ele>195.77</ele>
        <time>2013-11-11T12:10:52Z</time>
      </trkpt>
      <trkpt lat="45.86515" lon="4.71482">
        <ele>195.28</ele>
        <time>2013-11-11T12:10:53Z</time>
      </trkpt>
      <trkpt lat="45.86513" lon="4.71483">
        <ele>195.28</ele>
        <time>2013-11-11T12:10:54Z</time>
      </trkpt>
      <trkpt lat="45.86511" lon="4.71484">
        <ele>195.77</ele>
        <time>2013-11-11T12:10:55Z</time>
      </trkpt>
      <trkpt lat="45.86508" lon="4.71485">
        <ele>195.77</ele>
        <time>2013-11-11T12:10:56Z</time>
      </trkpt>
      <trkpt lat="45.86505" lon="4.71487">
        <ele>195.77</ele>
        <time>2013-11-11T12:10:57Z</time>
      </trkpt>
      <trkpt lat="45.86502" lon="4.71488">
        <ele>195.77</ele>
        <time>2013-11-11T12:10:58Z</time>
      </trkpt>
      <trkpt lat="45.86485" lon="4.71496">
        <ele>195.77</ele>
        <time>2013-11-11T12:11:02Z</time>
      </trkpt>
      <trkpt lat="45.86425" lon="4.71518">
        <ele>196.25</ele>
        <time>2013-11-11T12:11:12Z</time>
      </trkpt>
      <trkpt lat="45.8642" lon="4.7152">
        <ele>195.77</ele>
        <time>2013-11-11T12:11:13Z</time>
      </trkpt>
      <trkpt lat="45.86415" lon="4.71522">
        <ele>195.28</ele>
        <time>2013-11-11T12:11:14Z</time>
      </trkpt>
      <trkpt lat="45.86411" lon="4.71521">
        <ele>195.77</ele>
        <time>2013-11-11T12:11:15Z</time>
      </trkpt>
      <trkpt lat="45.86409" lon="4.71517">
        <ele>195.77</ele>
        <time>2013-11-11T12:11:16Z</time>
      </trkpt>
      <trkpt lat="45.86407" lon="4.71511">
        <ele>196.25</ele>
        <time>2013-11-11T12:11:17Z</time>
      </trkpt>
      <trkpt lat="45.86405" lon="4.71505">
        <ele>195.77</ele>
        <time>2013-11-11T12:11:18Z</time>
      </trkpt>
      <trkpt lat="45.86403" lon="4.71499">
        <ele>195.28</ele>
        <time>2013-11-11T12:11:19Z</time>
      </trkpt>
      <trkpt lat="45.86399" lon="4.71493">
        <ele>194.8</ele>
        <time>2013-11-11T12:11:20Z</time>
      </trkpt>
      <trkpt lat="45.86394" lon="4.71488">
        <ele>194.8</ele>
        <time>2013-11-11T12:11:21Z</time>
      </trkpt>
      <trkpt lat="45.86389" lon="4.71483">
        <ele>194.8</ele>
        <time>2013-11-11T12:11:22Z</time>
      </trkpt>
      <trkpt lat="45.86384" lon="4.71479">
        <ele>194.8</ele>
        <time>2013-11-11T12:11:23Z</time>
      </trkpt>
      <trkpt lat="45.86378" lon="4.71475">
        <ele>195.28</ele>
        <time>2013-11-11T12:11:24Z</time>
      </trkpt>
      <trkpt lat="45.86372" lon="4.71472">
        <ele>194.8</ele>
        <time>2013-11-11T12:11:25Z</time>
      </trkpt>
      <trkpt lat="45.86324" lon="4.71452">
        <ele>195.28</ele>
        <time>2013-11-11T12:11:33Z</time>
      </trkpt>
      <trkpt lat="45.86318" lon="4.7145">
        <ele>195.77</ele>
        <time>2013-11-11T12:11:34Z</time>
      </trkpt>
      <trkpt lat="45.86314" lon="4.71447">
        <ele>195.77</ele>
        <time>2013-11-11T12:11:35Z</time>
      </trkpt>
      <trkpt lat="45.86309" lon="4.71443">
        <ele>195.77</ele>
        <time>2013-11-11T12:11:36Z</time>
      </trkpt>
      <trkpt lat="45.86305" lon="4.71441">
        <ele>195.77</ele>
        <time>2013-11-11T12:11:37Z</time>
      </trkpt>
      <trkpt lat="45.863" lon="4.71439">
        <ele>196.25</ele>
        <time>2013-11-11T12:11:38Z</time>
      </trkpt>
      <trkpt lat="45.86296" lon="4.71436">
        <ele>196.25</ele>
        <time>2013-11-11T12:11:39Z</time>
      </trkpt>
      <trkpt lat="45.86292" lon="4.71434">
        <ele>195.28</ele>
        <time>2013-11-11T12:11:40Z</time>
      </trkpt>
      <trkpt lat="45.86287" lon="4.71434">
        <ele>195.28</ele>
        <time>2013-11-11T12:11:41Z</time>
      </trkpt>
      <trkpt lat="45.86283" lon="4.71432">
        <ele>195.77</ele>
        <time>2013-11-11T12:11:42Z</time>
      </trkpt>
      <trkpt lat="45.8628" lon="4.71429">
        <ele>196.25</ele>
        <time>2013-11-11T12:11:43Z</time>
      </trkpt>
      <trkpt lat="45.86276" lon="4.71426">
        <ele>196.25</ele>
        <time>2013-11-11T12:11:44Z</time>
      </trkpt>
      <trkpt lat="45.86273" lon="4.71424">
        <ele>195.28</ele>
        <time>2013-11-11T12:11:45Z</time>
      </trkpt>
      <trkpt lat="45.86269" lon="4.71423">
        <ele>195.28</ele>
        <time>2013-11-11T12:11:46Z</time>
      </trkpt>
      <trkpt lat="45.86265" lon="4.71423">
        <ele>195.28</ele>
        <time>2013-11-11T12:11:47Z</time>
      </trkpt>
      <trkpt lat="45.86262" lon="4.71421">
        <ele>195.77</ele>
        <time>2013-11-11T12:11:48Z</time>
      </trkpt>
      <trkpt lat="45.8626" lon="4.71418">
        <ele>195.28</ele>
        <time>2013-11-11T12:11:49Z</time>
      </trkpt>
      <trkpt lat="45.86229" lon="4.714">
        <ele>196.25</ele>
        <time>2013-11-11T12:11:58Z</time>
      </trkpt>
      <trkpt lat="45.86186" lon="4.71381">
        <ele>196.73</ele>
        <time>2013-11-11T12:12:11Z</time>
      </trkpt>
      <trkpt lat="45.86184" lon="4.71379">
        <ele>197.21</ele>
        <time>2013-11-11T12:12:12Z</time>
      </trkpt>
      <trkpt lat="45.86176" lon="4.71373">
        <ele>197.21</ele>
        <time>2013-11-11T12:12:16Z</time>
      </trkpt>
      <trkpt lat="45.86174" lon="4.71372">
        <ele>197.21</ele>
        <time>2013-11-11T12:12:17Z</time>
      </trkpt>
      <trkpt lat="45.86172" lon="4.71372">
        <ele>197.69</ele>
        <time>2013-11-11T12:12:18Z</time>
      </trkpt>
      <trkpt lat="45.86169" lon="4.71372">
        <ele>197.69</ele>
        <time>2013-11-11T12:12:19Z</time>
      </trkpt>
      <trkpt lat="45.86167" lon="4.71373">
        <ele>197.21</ele>
        <time>2013-11-11T12:12:20Z</time>
      </trkpt>
      <trkpt lat="45.86165" lon="4.71373">
        <ele>196.73</ele>
        <time>2013-11-11T12:12:21Z</time>
      </trkpt>
      <trkpt lat="45.86163" lon="4.71372">
        <ele>197.69</ele>
        <time>2013-11-11T12:12:22Z</time>
      </trkpt>
      <trkpt lat="45.86161" lon="4.7137">
        <ele>197.21</ele>
        <time>2013-11-11T12:12:23Z</time>
      </trkpt>
      <trkpt lat="45.8616" lon="4.71368">
        <ele>197.21</ele>
        <time>2013-11-11T12:12:24Z</time>
      </trkpt>
      <trkpt lat="45.86158" lon="4.71367">
        <ele>197.21</ele>
        <time>2013-11-11T12:12:25Z</time>
      </trkpt>
      <trkpt lat="45.86156" lon="4.71368">
        <ele>197.69</ele>
        <time>2013-11-11T12:12:26Z</time>
      </trkpt>
      <trkpt lat="45.86154" lon="4.71369">
        <ele>197.21</ele>
        <time>2013-11-11T12:12:27Z</time>
      </trkpt>
      <trkpt lat="45.86152" lon="4.71369">
        <ele>197.21</ele>
        <time>2013-11-11T12:12:28Z</time>
      </trkpt>
      <trkpt lat="45.86151" lon="4.71367">
        <ele>197.69</ele>
        <time>2013-11-11T12:12:29Z</time>
      </trkpt>
      <trkpt lat="45.86149" lon="4.71366">
        <ele>197.69</ele>
        <time>2013-11-11T12:12:30Z</time>
      </trkpt>
      <trkpt lat="45.86147" lon="4.71364">
        <ele>197.69</ele>
        <time>2013-11-11T12:12:31Z</time>
      </trkpt>
      <trkpt lat="45.86145" lon="4.71364">
        <ele>198.17</ele>
        <time>2013-11-11T12:12:32Z</time>
      </trkpt>
      <trkpt lat="45.86143" lon="4.71363">
        <ele>198.17</ele>
        <time>2013-11-11T12:12:33Z</time>
      </trkpt>
      <trkpt lat="45.86141" lon="4.71363">
        <ele>197.21</ele>
        <time>2013-11-11T12:12:34Z</time>
      </trkpt>
      <trkpt lat="45.8613" lon="4.7136">
        <ele>198.65</ele>
        <time>2013-11-11T12:12:40Z</time>
      </trkpt>
      <trkpt lat="45.86128" lon="4.7136">
        <ele>197.69</ele>
        <time>2013-11-11T12:12:41Z</time>
      </trkpt>
      <trkpt lat="45.86124" lon="4.71361">
        <ele>198.17</ele>
        <time>2013-11-11T12:12:43Z</time>
      </trkpt>
      <trkpt lat="45.86122" lon="4.71359">
        <ele>198.17</ele>
        <time>2013-11-11T12:12:44Z</time>
      </trkpt>
      <trkpt lat="45.86121" lon="4.71358">
        <ele>198.17</ele>
        <time>2013-11-11T12:12:45Z</time>
      </trkpt>
      <trkpt lat="45.86119" lon="4.71358">
        <ele>198.65</ele>
        <time>2013-11-11T12:12:46Z</time>
      </trkpt>
      <trkpt lat="45.86117" lon="4.71358">
        <ele>198.17</ele>
        <time>2013-11-11T12:12:47Z</time>
      </trkpt>
      <trkpt lat="45.86115" lon="4.71358">
        <ele>198.17</ele>
        <time>2013-11-11T12:12:48Z</time>
      </trkpt>
      <trkpt lat="45.86114" lon="4.71357">
        <ele>198.17</ele>
        <time>2013-11-11T12:12:49Z</time>
      </trkpt>
      <trkpt lat="45.86112" lon="4.71356">
        <ele>198.17</ele>
        <time>2013-11-11T12:12:50Z</time>
      </trkpt>
      <trkpt lat="45.86106" lon="4.71326">
        <ele>198.17</ele>
        <time>2013-11-11T12:12:58Z</time>
      </trkpt>
      <trkpt lat="45.86095" lon="4.71274">
        <ele>198.65</ele>
        <time>2013-11-11T12:13:10Z</time>
      </trkpt>
      <trkpt lat="45.86083" lon="4.71239">
        <ele>198.17</ele>
        <time>2013-11-11T12:13:18Z</time>
      </trkpt>
      <trkpt lat="45.86086" lon="4.71204">
        <ele>198.17</ele>
        <time>2013-11-11T12:13:26Z</time>
      </trkpt>
      <trkpt lat="45.86093" lon="4.71172">
        <ele>197.69</ele>
        <time>2013-11-11T12:13:34Z</time>
      </trkpt>
      <trkpt lat="45.86092" lon="4.71147">
        <ele>197.69</ele>
        <time>2013-11-11T12:13:40Z</time>
      </trkpt>
      <trkpt lat="45.86089" lon="4.71144">
        <ele>198.17</ele>
        <time>2013-11-11T12:13:41Z</time>
      </trkpt>
      <trkpt lat="45.86087" lon="4.71141">
        <ele>199.13</ele>
        <time>2013-11-11T12:13:42Z</time>
      </trkpt>
      <trkpt lat="45.86057" lon="4.71114">
        <ele>198.65</ele>
        <time>2013-11-11T12:13:53Z</time>
      </trkpt>
      <trkpt lat="45.86039" lon="4.71073">
        <ele>197.21</ele>
        <time>2013-11-11T12:14:04Z</time>
      </trkpt>
      <trkpt lat="45.86029" lon="4.71029">
        <ele>198.65</ele>
        <time>2013-11-11T12:14:15Z</time>
      </trkpt>
      <trkpt lat="45.86008" lon="4.70998">
        <ele>198.17</ele>
        <time>2013-11-11T12:14:25Z</time>
      </trkpt>
      <trkpt lat="45.85976" lon="4.70973">
        <ele>198.17</ele>
        <time>2013-11-11T12:14:37Z</time>
      </trkpt>
      <trkpt lat="45.85942" lon="4.70967">
        <ele>197.69</ele>
        <time>2013-11-11T12:14:48Z</time>
      </trkpt>
      <trkpt lat="45.8594" lon="4.70963">
        <ele>197.69</ele>
        <time>2013-11-11T12:14:49Z</time>
      </trkpt>
      <trkpt lat="45.85939" lon="4.70959">
        <ele>197.69</ele>
        <time>2013-11-11T12:14:50Z</time>
      </trkpt>
      <trkpt lat="45.8594" lon="4.70954">
        <ele>197.69</ele>
        <time>2013-11-11T12:14:51Z</time>
      </trkpt>
      <trkpt lat="45.8594" lon="4.70949">
        <ele>198.17</ele>
        <time>2013-11-11T12:14:52Z</time>
      </trkpt>
      <trkpt lat="45.85941" lon="4.70944">
        <ele>198.65</ele>
        <time>2013-11-11T12:14:53Z</time>
      </trkpt>
      <trkpt lat="45.85943" lon="4.70939">
        <ele>198.17</ele>
        <time>2013-11-11T12:14:54Z</time>
      </trkpt>
      <trkpt lat="45.85955" lon="4.70882">
        <ele>198.17</ele>
        <time>2013-11-11T12:15:06Z</time>
      </trkpt>
      <trkpt lat="45.85958" lon="4.70828">
        <ele>196.73</ele>
        <time>2013-11-11T12:15:17Z</time>
      </trkpt>
      <trkpt lat="45.85955" lon="4.70767">
        <ele>197.21</ele>
        <time>2013-11-11T12:15:29Z</time>
      </trkpt>
      <trkpt lat="45.85959" lon="4.70723">
        <ele>196.73</ele>
        <time>2013-11-11T12:15:39Z</time>
      </trkpt>
      <trkpt lat="45.85959" lon="4.7068">
        <ele>195.77</ele>
        <time>2013-11-11T12:15:50Z</time>
      </trkpt>
      <trkpt lat="45.85941" lon="4.70646">
        <ele>196.73</ele>
        <time>2013-11-11T12:15:59Z</time>
      </trkpt>
      <trkpt lat="45.8592" lon="4.70611">
        <ele>196.25</ele>
        <time>2013-11-11T12:16:09Z</time>
      </trkpt>
      <trkpt lat="45.85892" lon="4.70581">
        <ele>196.73</ele>
        <time>2013-11-11T12:16:21Z</time>
      </trkpt>
      <trkpt lat="45.85855" lon="4.7057">
        <ele>197.21</ele>
        <time>2013-11-11T12:16:33Z</time>
      </trkpt>
      <trkpt lat="45.85824" lon="4.70557">
        <ele>196.73</ele>
        <time>2013-11-11T12:16:42Z</time>
      </trkpt>
      <trkpt lat="45.85793" lon="4.70541">
        <ele>196.73</ele>
        <time>2013-11-11T12:16:52Z</time>
      </trkpt>
      <trkpt lat="45.85764" lon="4.7052">
        <ele>196.25</ele>
        <time>2013-11-11T12:17:03Z</time>
      </trkpt>
      <trkpt lat="45.85738" lon="4.705">
        <ele>196.73</ele>
        <time>2013-11-11T12:17:14Z</time>
      </trkpt>
      <trkpt lat="45.8572" lon="4.70476">
        <ele>196.73</ele>
        <time>2013-11-11T12:17:23Z</time>
      </trkpt>
      <trkpt lat="45.85711" lon="4.70443">
        <ele>196.73</ele>
        <time>2013-11-11T12:17:32Z</time>
      </trkpt>
      <trkpt lat="45.85707" lon="4.70411">
        <ele>196.73</ele>
        <time>2013-11-11T12:17:40Z</time>
      </trkpt>
      <trkpt lat="45.85705" lon="4.70409">
        <ele>197.21</ele>
        <time>2013-11-11T12:17:41Z</time>
      </trkpt>
      <trkpt lat="45.85696" lon="4.704">
        <ele>197.21</ele>
        <time>2013-11-11T12:17:45Z</time>
      </trkpt>
      <trkpt lat="45.85692" lon="4.70383">
        <ele>195.77</ele>
        <time>2013-11-11T12:17:54Z</time>
      </trkpt>
      <trkpt lat="45.85691" lon="4.70384">
        <ele>196.73</ele>
        <time>2013-11-11T12:18:05Z</time>
      </trkpt>
      <trkpt lat="45.85691" lon="4.70384">
        <ele>196.25</ele>
        <time>2013-11-11T12:18:29Z</time>
      </trkpt>
      <trkpt lat="45.85691" lon="4.70384">
        <ele>196.25</ele>
        <time>2013-11-11T12:19:02Z</time>
      </trkpt>
      <trkpt lat="45.8569" lon="4.70384">
        <ele>196.73</ele>
        <time>2013-11-11T12:19:30Z</time>
      </trkpt>
      <trkpt lat="45.8569" lon="4.70384">
        <ele>196.73</ele>
        <time>2013-11-11T12:19:55Z</time>
      </trkpt>
      <trkpt lat="45.8569" lon="4.70384">
        <ele>195.77</ele>
        <time>2013-11-11T12:20:20Z</time>
      </trkpt>
      <trkpt lat="45.8569" lon="4.70384">
        <ele>196.25</ele>
        <time>2013-11-11T12:20:44Z</time>
      </trkpt>
      <trkpt lat="45.85691" lon="4.70384">
        <ele>196.25</ele>
        <time>2013-11-11T12:21:04Z</time>
      </trkpt>
      <trkpt lat="45.8569" lon="4.70384">
        <ele>199.61</ele>
        <time>2013-11-11T12:21:10Z</time>
      </trkpt>
      <trkpt lat="45.8569" lon="4.70384">
        <ele>199.61</ele>
        <time>2013-11-11T12:21:11Z</time>
      </trkpt>
      <trkpt lat="45.8569" lon="4.70384">
        <ele>195.77</ele>
        <time>2013-11-11T12:21:12Z</time>
      </trkpt>
      <trkpt lat="45.8569" lon="4.70384">
        <ele>195.77</ele>
        <time>2013-11-11T12:21:13Z</time>
      </trkpt>
      <trkpt lat="45.85692" lon="4.70385">
        <ele>193.36</ele>
        <time>2013-11-11T12:21:16Z</time>
      </trkpt>
      <trkpt lat="45.85692" lon="4.70384">
        <ele>186.63</ele>
        <time>2013-11-11T12:21:17Z</time>
      </trkpt>
      <trkpt lat="45.85692" lon="4.70384">
        <ele>192.88</ele>
        <time>2013-11-11T12:21:18Z</time>
      </trkpt>
      <trkpt lat="45.85692" lon="4.70384">
        <ele>200.09</ele>
        <time>2013-11-11T12:21:19Z</time>
      </trkpt>
      <trkpt lat="45.85691" lon="4.70384">
        <ele>196.73</ele>
        <time>2013-11-11T12:21:20Z</time>
      </trkpt>
      <trkpt lat="45.85691" lon="4.70384">
        <ele>200.57</ele>
        <time>2013-11-11T12:21:25Z</time>
      </trkpt>
      <trkpt lat="45.85691" lon="4.70384">
        <ele>196.25</ele>
        <time>2013-11-11T12:21:26Z</time>
      </trkpt>
      <trkpt lat="45.85691" lon="4.70383">
        <ele>192.88</ele>
        <time>2013-11-11T12:21:27Z</time>
      </trkpt>
      <trkpt lat="45.85691" lon="4.70383">
        <ele>197.69</ele>
        <time>2013-11-11T12:21:29Z</time>
      </trkpt>
      <trkpt lat="45.85691" lon="4.70383">
        <ele>190.96</ele>
        <time>2013-11-11T12:21:32Z</time>
      </trkpt>
      <trkpt lat="45.85691" lon="4.70383">
        <ele>197.21</ele>
        <time>2013-11-11T12:21:33Z</time>
      </trkpt>
    </trkseg>
  </trk>
</gpx>